<?xml version="1.0" encoding="UTF-8" standalone="no" ?>
<gpx xmlns="http://www.topografix.com/GPX/1/1" xmlns:xsi="http://www.w3.org/2001/XMLSchema-instance" xsi:schemaLocation="http://www.topografix.com/GPX/1/1 http://www.topografix.com/GPX/1/1/gpx.xsd" version="1.1" creator="VisuGPX - https://www.visugpx.com">
  <metadata>
    <name>Grenoble Trail entrainement - 2021-08-26</name>
  </metadata>
  <trk>
    <name><![CDATA[Grenoble - Fractionne-en montée]]></name>
    <trkseg>
      <trkpt lat="45.19663" lon="5.7397">
        <ele>214</ele>
        <time>2021-08-26T03:16:49.000Z</time>
      </trkpt>
      <trkpt lat="45.19662" lon="5.73971">
        <ele>214</ele>
        <time>2021-08-26T03:16:50.000Z</time>
      </trkpt>
      <trkpt lat="45.19657" lon="5.73973">
        <ele>214</ele>
        <time>2021-08-26T03:16:53.000Z</time>
      </trkpt>
      <trkpt lat="45.19649" lon="5.73972">
        <ele>214.19999694824</ele>
        <time>2021-08-26T03:16:56.000Z</time>
      </trkpt>
      <trkpt lat="45.19639" lon="5.73975">
        <ele>214.19999694824</ele>
        <time>2021-08-26T03:17:02.000Z</time>
      </trkpt>
      <trkpt lat="45.19634" lon="5.73973">
        <ele>214.19999694824</ele>
        <time>2021-08-26T03:17:05.000Z</time>
      </trkpt>
      <trkpt lat="45.19633" lon="5.73971">
        <ele>214.19999694824</ele>
        <time>2021-08-26T03:17:08.000Z</time>
      </trkpt>
      <trkpt lat="45.19632" lon="5.73971">
        <ele>214</ele>
        <time>2021-08-26T03:17:12.000Z</time>
      </trkpt>
      <trkpt lat="45.19631" lon="5.73972">
        <ele>214</ele>
        <time>2021-08-26T03:17:13.000Z</time>
      </trkpt>
      <trkpt lat="45.19627" lon="5.73972">
        <ele>213</ele>
        <time>2021-08-26T03:17:16.000Z</time>
      </trkpt>
      <trkpt lat="45.19626" lon="5.73972">
        <ele>212.39999389648</ele>
        <time>2021-08-26T03:17:17.000Z</time>
      </trkpt>
      <trkpt lat="45.19625" lon="5.7397">
        <ele>211.80000305176</ele>
        <time>2021-08-26T03:17:19.000Z</time>
      </trkpt>
      <trkpt lat="45.19625" lon="5.73969">
        <ele>211.60000610352</ele>
        <time>2021-08-26T03:17:20.000Z</time>
      </trkpt>
      <trkpt lat="45.19625" lon="5.73967">
        <ele>211.39999389648</ele>
        <time>2021-08-26T03:17:21.000Z</time>
      </trkpt>
      <trkpt lat="45.19623" lon="5.73964">
        <ele>210.80000305176</ele>
        <time>2021-08-26T03:17:25.000Z</time>
      </trkpt>
      <trkpt lat="45.19623" lon="5.73962">
        <ele>210.60000610352</ele>
        <time>2021-08-26T03:17:26.000Z</time>
      </trkpt>
      <trkpt lat="45.19621" lon="5.73961">
        <ele>209.39999389648</ele>
        <time>2021-08-26T03:17:29.000Z</time>
      </trkpt>
      <trkpt lat="45.19621" lon="5.73961">
        <ele>208.80000305176</ele>
        <time>2021-08-26T03:17:31.000Z</time>
      </trkpt>
      <trkpt lat="45.19623" lon="5.73962">
        <ele>208.60000610352</ele>
        <time>2021-08-26T03:17:35.000Z</time>
      </trkpt>
      <trkpt lat="45.19623" lon="5.73962">
        <ele>208</ele>
        <time>2021-08-26T03:17:36.000Z</time>
      </trkpt>
      <trkpt lat="45.19622" lon="5.73962">
        <ele>207.80000305176</ele>
        <time>2021-08-26T03:17:37.000Z</time>
      </trkpt>
      <trkpt lat="45.19621" lon="5.73961">
        <ele>207.60000610352</ele>
        <time>2021-08-26T03:17:38.000Z</time>
      </trkpt>
      <trkpt lat="45.19621" lon="5.73961">
        <ele>206.80000305176</ele>
        <time>2021-08-26T03:17:40.000Z</time>
      </trkpt>
      <trkpt lat="45.19621" lon="5.73962">
        <ele>206.19999694824</ele>
        <time>2021-08-26T03:17:42.000Z</time>
      </trkpt>
      <trkpt lat="45.19621" lon="5.73962">
        <ele>206.19999694824</ele>
        <time>2021-08-26T03:17:43.000Z</time>
      </trkpt>
      <trkpt lat="45.19621" lon="5.73962">
        <ele>206</ele>
        <time>2021-08-26T03:17:46.000Z</time>
      </trkpt>
      <trkpt lat="45.19621" lon="5.73962">
        <ele>206</ele>
        <time>2021-08-26T03:17:47.000Z</time>
      </trkpt>
      <trkpt lat="45.19623" lon="5.73961">
        <ele>206.39999389648</ele>
        <time>2021-08-26T03:17:54.000Z</time>
      </trkpt>
      <trkpt lat="45.19631" lon="5.73959">
        <ele>206.19999694824</ele>
        <time>2021-08-26T03:17:59.000Z</time>
      </trkpt>
      <trkpt lat="45.19633" lon="5.73958">
        <ele>206.19999694824</ele>
        <time>2021-08-26T03:18:00.000Z</time>
      </trkpt>
      <trkpt lat="45.19635" lon="5.73958">
        <ele>206.19999694824</ele>
        <time>2021-08-26T03:18:01.000Z</time>
      </trkpt>
      <trkpt lat="45.19643" lon="5.73953">
        <ele>206.39999389648</ele>
        <time>2021-08-26T03:18:04.000Z</time>
      </trkpt>
      <trkpt lat="45.19653" lon="5.73944">
        <ele>206.19999694824</ele>
        <time>2021-08-26T03:18:08.000Z</time>
      </trkpt>
      <trkpt lat="45.19651" lon="5.73943">
        <ele>206</ele>
        <time>2021-08-26T03:18:09.000Z</time>
      </trkpt>
      <trkpt lat="45.19651" lon="5.73941">
        <ele>206.19999694824</ele>
        <time>2021-08-26T03:18:11.000Z</time>
      </trkpt>
      <trkpt lat="45.19654" lon="5.7394">
        <ele>206.19999694824</ele>
        <time>2021-08-26T03:18:12.000Z</time>
      </trkpt>
      <trkpt lat="45.1966" lon="5.7394">
        <ele>206.19999694824</ele>
        <time>2021-08-26T03:18:15.000Z</time>
      </trkpt>
      <trkpt lat="45.19666" lon="5.73943">
        <ele>206.39999389648</ele>
        <time>2021-08-26T03:18:17.000Z</time>
      </trkpt>
      <trkpt lat="45.19669" lon="5.73944">
        <ele>206.19999694824</ele>
        <time>2021-08-26T03:18:18.000Z</time>
      </trkpt>
      <trkpt lat="45.1967" lon="5.73947">
        <ele>206.39999389648</ele>
        <time>2021-08-26T03:18:19.000Z</time>
      </trkpt>
      <trkpt lat="45.19671" lon="5.73953">
        <ele>206</ele>
        <time>2021-08-26T03:18:21.000Z</time>
      </trkpt>
      <trkpt lat="45.19675" lon="5.73972">
        <ele>206</ele>
        <time>2021-08-26T03:18:26.000Z</time>
      </trkpt>
      <trkpt lat="45.19684" lon="5.73988">
        <ele>206.60000610352</ele>
        <time>2021-08-26T03:18:31.000Z</time>
      </trkpt>
      <trkpt lat="45.19693" lon="5.74003">
        <ele>206.19999694824</ele>
        <time>2021-08-26T03:18:35.000Z</time>
      </trkpt>
      <trkpt lat="45.19695" lon="5.74012">
        <ele>206.19999694824</ele>
        <time>2021-08-26T03:18:37.000Z</time>
      </trkpt>
      <trkpt lat="45.19697" lon="5.74019">
        <ele>206.19999694824</ele>
        <time>2021-08-26T03:18:39.000Z</time>
      </trkpt>
      <trkpt lat="45.19698" lon="5.74022">
        <ele>206.19999694824</ele>
        <time>2021-08-26T03:18:40.000Z</time>
      </trkpt>
      <trkpt lat="45.19698" lon="5.74029">
        <ele>206.39999389648</ele>
        <time>2021-08-26T03:18:42.000Z</time>
      </trkpt>
      <trkpt lat="45.19698" lon="5.74035">
        <ele>206.60000610352</ele>
        <time>2021-08-26T03:18:44.000Z</time>
      </trkpt>
      <trkpt lat="45.19702" lon="5.74051">
        <ele>206.19999694824</ele>
        <time>2021-08-26T03:18:49.000Z</time>
      </trkpt>
      <trkpt lat="45.19706" lon="5.74065">
        <ele>206.19999694824</ele>
        <time>2021-08-26T03:18:53.000Z</time>
      </trkpt>
      <trkpt lat="45.19706" lon="5.74068">
        <ele>206.19999694824</ele>
        <time>2021-08-26T03:18:54.000Z</time>
      </trkpt>
      <trkpt lat="45.19708" lon="5.74089">
        <ele>206.39999389648</ele>
        <time>2021-08-26T03:19:00.000Z</time>
      </trkpt>
      <trkpt lat="45.19707" lon="5.74096">
        <ele>206.39999389648</ele>
        <time>2021-08-26T03:19:02.000Z</time>
      </trkpt>
      <trkpt lat="45.19704" lon="5.74109">
        <ele>206.39999389648</ele>
        <time>2021-08-26T03:19:05.000Z</time>
      </trkpt>
      <trkpt lat="45.19702" lon="5.74111">
        <ele>206.39999389648</ele>
        <time>2021-08-26T03:19:06.000Z</time>
      </trkpt>
      <trkpt lat="45.19701" lon="5.74116">
        <ele>206.60000610352</ele>
        <time>2021-08-26T03:19:08.000Z</time>
      </trkpt>
      <trkpt lat="45.197" lon="5.74119">
        <ele>206.60000610352</ele>
        <time>2021-08-26T03:19:09.000Z</time>
      </trkpt>
      <trkpt lat="45.19701" lon="5.74122">
        <ele>206.60000610352</ele>
        <time>2021-08-26T03:19:10.000Z</time>
      </trkpt>
      <trkpt lat="45.19702" lon="5.74125">
        <ele>206.60000610352</ele>
        <time>2021-08-26T03:19:11.000Z</time>
      </trkpt>
      <trkpt lat="45.19709" lon="5.74146">
        <ele>206.19999694824</ele>
        <time>2021-08-26T03:19:18.000Z</time>
      </trkpt>
      <trkpt lat="45.1971" lon="5.74164">
        <ele>206.60000610352</ele>
        <time>2021-08-26T03:19:24.000Z</time>
      </trkpt>
      <trkpt lat="45.19709" lon="5.74172">
        <ele>206.39999389648</ele>
        <time>2021-08-26T03:19:27.000Z</time>
      </trkpt>
      <trkpt lat="45.19709" lon="5.74175">
        <ele>206.39999389648</ele>
        <time>2021-08-26T03:19:28.000Z</time>
      </trkpt>
      <trkpt lat="45.19709" lon="5.74181">
        <ele>206.39999389648</ele>
        <time>2021-08-26T03:19:30.000Z</time>
      </trkpt>
      <trkpt lat="45.19713" lon="5.74198">
        <ele>206.60000610352</ele>
        <time>2021-08-26T03:19:35.000Z</time>
      </trkpt>
      <trkpt lat="45.19714" lon="5.74201">
        <ele>206.60000610352</ele>
        <time>2021-08-26T03:19:36.000Z</time>
      </trkpt>
      <trkpt lat="45.19716" lon="5.74213">
        <ele>206.60000610352</ele>
        <time>2021-08-26T03:19:39.000Z</time>
      </trkpt>
      <trkpt lat="45.19722" lon="5.74226">
        <ele>206.80000305176</ele>
        <time>2021-08-26T03:19:42.000Z</time>
      </trkpt>
      <trkpt lat="45.19724" lon="5.74234">
        <ele>206.80000305176</ele>
        <time>2021-08-26T03:19:44.000Z</time>
      </trkpt>
      <trkpt lat="45.19724" lon="5.7424">
        <ele>207.19999694824</ele>
        <time>2021-08-26T03:19:46.000Z</time>
      </trkpt>
      <trkpt lat="45.19724" lon="5.74241">
        <ele>207.19999694824</ele>
        <time>2021-08-26T03:19:47.000Z</time>
      </trkpt>
      <trkpt lat="45.19724" lon="5.74241">
        <ele>207.39999389648</ele>
        <time>2021-08-26T03:19:48.000Z</time>
      </trkpt>
      <trkpt lat="45.19724" lon="5.74243">
        <ele>208</ele>
        <time>2021-08-26T03:19:49.000Z</time>
      </trkpt>
      <trkpt lat="45.19723" lon="5.74247">
        <ele>208.19999694824</ele>
        <time>2021-08-26T03:19:51.000Z</time>
      </trkpt>
      <trkpt lat="45.19717" lon="5.74249">
        <ele>208.39999389648</ele>
        <time>2021-08-26T03:19:54.000Z</time>
      </trkpt>
      <trkpt lat="45.19709" lon="5.74251">
        <ele>208.60000610352</ele>
        <time>2021-08-26T03:19:59.000Z</time>
      </trkpt>
      <trkpt lat="45.197" lon="5.74252">
        <ele>208.39999389648</ele>
        <time>2021-08-26T03:20:03.000Z</time>
      </trkpt>
      <trkpt lat="45.19681" lon="5.74253">
        <ele>208.60000610352</ele>
        <time>2021-08-26T03:20:11.000Z</time>
      </trkpt>
      <trkpt lat="45.19676" lon="5.74252">
        <ele>208.60000610352</ele>
        <time>2021-08-26T03:20:13.000Z</time>
      </trkpt>
      <trkpt lat="45.19658" lon="5.74252">
        <ele>208.39999389648</ele>
        <time>2021-08-26T03:20:21.000Z</time>
      </trkpt>
      <trkpt lat="45.1964" lon="5.74248">
        <ele>208.60000610352</ele>
        <time>2021-08-26T03:20:28.000Z</time>
      </trkpt>
      <trkpt lat="45.19622" lon="5.74243">
        <ele>208.80000305176</ele>
        <time>2021-08-26T03:20:35.000Z</time>
      </trkpt>
      <trkpt lat="45.19611" lon="5.7424">
        <ele>208.80000305176</ele>
        <time>2021-08-26T03:20:39.000Z</time>
      </trkpt>
      <trkpt lat="45.1961" lon="5.74239">
        <ele>208.80000305176</ele>
        <time>2021-08-26T03:20:40.000Z</time>
      </trkpt>
      <trkpt lat="45.19596" lon="5.74237">
        <ele>209.19999694824</ele>
        <time>2021-08-26T03:20:45.000Z</time>
      </trkpt>
      <trkpt lat="45.19594" lon="5.74236">
        <ele>208.80000305176</ele>
        <time>2021-08-26T03:20:46.000Z</time>
      </trkpt>
      <trkpt lat="45.19578" lon="5.74232">
        <ele>209</ele>
        <time>2021-08-26T03:20:52.000Z</time>
      </trkpt>
      <trkpt lat="45.19566" lon="5.7423">
        <ele>208.80000305176</ele>
        <time>2021-08-26T03:20:57.000Z</time>
      </trkpt>
      <trkpt lat="45.19557" lon="5.7423">
        <ele>208.80000305176</ele>
        <time>2021-08-26T03:21:02.000Z</time>
      </trkpt>
      <trkpt lat="45.1955" lon="5.74229">
        <ele>208.80000305176</ele>
        <time>2021-08-26T03:21:05.000Z</time>
      </trkpt>
      <trkpt lat="45.19535" lon="5.74225">
        <ele>208.80000305176</ele>
        <time>2021-08-26T03:21:10.000Z</time>
      </trkpt>
      <trkpt lat="45.19514" lon="5.74219">
        <ele>209.19999694824</ele>
        <time>2021-08-26T03:21:16.000Z</time>
      </trkpt>
      <trkpt lat="45.19499" lon="5.74216">
        <ele>209.39999389648</ele>
        <time>2021-08-26T03:21:22.000Z</time>
      </trkpt>
      <trkpt lat="45.19485" lon="5.74211">
        <ele>209.60000610352</ele>
        <time>2021-08-26T03:21:28.000Z</time>
      </trkpt>
      <trkpt lat="45.1948" lon="5.74208">
        <ele>209.80000305176</ele>
        <time>2021-08-26T03:21:30.000Z</time>
      </trkpt>
      <trkpt lat="45.19478" lon="5.74206">
        <ele>209.60000610352</ele>
        <time>2021-08-26T03:21:31.000Z</time>
      </trkpt>
      <trkpt lat="45.19468" lon="5.742">
        <ele>209.80000305176</ele>
        <time>2021-08-26T03:21:35.000Z</time>
      </trkpt>
      <trkpt lat="45.19457" lon="5.74194">
        <ele>210</ele>
        <time>2021-08-26T03:21:40.000Z</time>
      </trkpt>
      <trkpt lat="45.19442" lon="5.74187">
        <ele>209.80000305176</ele>
        <time>2021-08-26T03:21:47.000Z</time>
      </trkpt>
      <trkpt lat="45.19428" lon="5.74181">
        <ele>209.80000305176</ele>
        <time>2021-08-26T03:21:54.000Z</time>
      </trkpt>
      <trkpt lat="45.1942" lon="5.74179">
        <ele>210</ele>
        <time>2021-08-26T03:21:59.000Z</time>
      </trkpt>
      <trkpt lat="45.194" lon="5.74172">
        <ele>209.80000305176</ele>
        <time>2021-08-26T03:22:07.000Z</time>
      </trkpt>
      <trkpt lat="45.19384" lon="5.74169">
        <ele>210</ele>
        <time>2021-08-26T03:22:12.000Z</time>
      </trkpt>
      <trkpt lat="45.19382" lon="5.74168">
        <ele>210.19999694824</ele>
        <time>2021-08-26T03:22:13.000Z</time>
      </trkpt>
      <trkpt lat="45.19373" lon="5.74166">
        <ele>209.80000305176</ele>
        <time>2021-08-26T03:22:17.000Z</time>
      </trkpt>
      <trkpt lat="45.19357" lon="5.74164">
        <ele>209.60000610352</ele>
        <time>2021-08-26T03:22:24.000Z</time>
      </trkpt>
      <trkpt lat="45.19339" lon="5.7416">
        <ele>209.80000305176</ele>
        <time>2021-08-26T03:22:31.000Z</time>
      </trkpt>
      <trkpt lat="45.19332" lon="5.74158">
        <ele>209.80000305176</ele>
        <time>2021-08-26T03:22:33.000Z</time>
      </trkpt>
      <trkpt lat="45.19318" lon="5.74154">
        <ele>210.19999694824</ele>
        <time>2021-08-26T03:22:38.000Z</time>
      </trkpt>
      <trkpt lat="45.193" lon="5.74149">
        <ele>209.80000305176</ele>
        <time>2021-08-26T03:22:45.000Z</time>
      </trkpt>
      <trkpt lat="45.19279" lon="5.74145">
        <ele>209.60000610352</ele>
        <time>2021-08-26T03:22:52.000Z</time>
      </trkpt>
      <trkpt lat="45.19272" lon="5.74145">
        <ele>209.60000610352</ele>
        <time>2021-08-26T03:22:55.000Z</time>
      </trkpt>
      <trkpt lat="45.19256" lon="5.74142">
        <ele>209.80000305176</ele>
        <time>2021-08-26T03:23:01.000Z</time>
      </trkpt>
      <trkpt lat="45.19238" lon="5.74138">
        <ele>209.60000610352</ele>
        <time>2021-08-26T03:23:07.000Z</time>
      </trkpt>
      <trkpt lat="45.19221" lon="5.74136">
        <ele>209.60000610352</ele>
        <time>2021-08-26T03:23:13.000Z</time>
      </trkpt>
      <trkpt lat="45.19211" lon="5.74133">
        <ele>209.60000610352</ele>
        <time>2021-08-26T03:23:17.000Z</time>
      </trkpt>
      <trkpt lat="45.19209" lon="5.74132">
        <ele>209.60000610352</ele>
        <time>2021-08-26T03:23:18.000Z</time>
      </trkpt>
      <trkpt lat="45.19191" lon="5.74126">
        <ele>209.80000305176</ele>
        <time>2021-08-26T03:23:25.000Z</time>
      </trkpt>
      <trkpt lat="45.19187" lon="5.74126">
        <ele>209.80000305176</ele>
        <time>2021-08-26T03:23:27.000Z</time>
      </trkpt>
      <trkpt lat="45.1918" lon="5.74127">
        <ele>209.19999694824</ele>
        <time>2021-08-26T03:23:30.000Z</time>
      </trkpt>
      <trkpt lat="45.19177" lon="5.74127">
        <ele>209.19999694824</ele>
        <time>2021-08-26T03:23:31.000Z</time>
      </trkpt>
      <trkpt lat="45.19175" lon="5.74127">
        <ele>209.19999694824</ele>
        <time>2021-08-26T03:23:32.000Z</time>
      </trkpt>
      <trkpt lat="45.19167" lon="5.74127">
        <ele>208.39999389648</ele>
        <time>2021-08-26T03:23:36.000Z</time>
      </trkpt>
      <trkpt lat="45.19148" lon="5.74129">
        <ele>208.19999694824</ele>
        <time>2021-08-26T03:23:42.000Z</time>
      </trkpt>
      <trkpt lat="45.19129" lon="5.74131">
        <ele>209.19999694824</ele>
        <time>2021-08-26T03:23:48.000Z</time>
      </trkpt>
      <trkpt lat="45.19127" lon="5.74132">
        <ele>209.39999389648</ele>
        <time>2021-08-26T03:23:49.000Z</time>
      </trkpt>
      <trkpt lat="45.19112" lon="5.74132">
        <ele>210</ele>
        <time>2021-08-26T03:23:55.000Z</time>
      </trkpt>
      <trkpt lat="45.191" lon="5.74135">
        <ele>210</ele>
        <time>2021-08-26T03:24:00.000Z</time>
      </trkpt>
      <trkpt lat="45.19088" lon="5.7414">
        <ele>210</ele>
        <time>2021-08-26T03:24:05.000Z</time>
      </trkpt>
      <trkpt lat="45.19084" lon="5.74142">
        <ele>210.19999694824</ele>
        <time>2021-08-26T03:24:06.000Z</time>
      </trkpt>
      <trkpt lat="45.19081" lon="5.74143">
        <ele>209.80000305176</ele>
        <time>2021-08-26T03:24:07.000Z</time>
      </trkpt>
      <trkpt lat="45.19067" lon="5.74147">
        <ele>209.80000305176</ele>
        <time>2021-08-26T03:24:13.000Z</time>
      </trkpt>
      <trkpt lat="45.19052" lon="5.74153">
        <ele>210</ele>
        <time>2021-08-26T03:24:18.000Z</time>
      </trkpt>
      <trkpt lat="45.19044" lon="5.74159">
        <ele>210</ele>
        <time>2021-08-26T03:24:21.000Z</time>
      </trkpt>
      <trkpt lat="45.19041" lon="5.74161">
        <ele>210</ele>
        <time>2021-08-26T03:24:22.000Z</time>
      </trkpt>
      <trkpt lat="45.19039" lon="5.74163">
        <ele>210</ele>
        <time>2021-08-26T03:24:23.000Z</time>
      </trkpt>
      <trkpt lat="45.19037" lon="5.74165">
        <ele>210</ele>
        <time>2021-08-26T03:24:24.000Z</time>
      </trkpt>
      <trkpt lat="45.19033" lon="5.74167">
        <ele>210</ele>
        <time>2021-08-26T03:24:26.000Z</time>
      </trkpt>
      <trkpt lat="45.19031" lon="5.74169">
        <ele>210.19999694824</ele>
        <time>2021-08-26T03:24:27.000Z</time>
      </trkpt>
      <trkpt lat="45.19023" lon="5.74176">
        <ele>210.19999694824</ele>
        <time>2021-08-26T03:24:30.000Z</time>
      </trkpt>
      <trkpt lat="45.1902" lon="5.74177">
        <ele>210.19999694824</ele>
        <time>2021-08-26T03:24:31.000Z</time>
      </trkpt>
      <trkpt lat="45.19011" lon="5.74181">
        <ele>210</ele>
        <time>2021-08-26T03:24:34.000Z</time>
      </trkpt>
      <trkpt lat="45.18998" lon="5.7419">
        <ele>210</ele>
        <time>2021-08-26T03:24:39.000Z</time>
      </trkpt>
      <trkpt lat="45.18995" lon="5.74192">
        <ele>210</ele>
        <time>2021-08-26T03:24:40.000Z</time>
      </trkpt>
      <trkpt lat="45.18985" lon="5.74203">
        <ele>210.19999694824</ele>
        <time>2021-08-26T03:24:45.000Z</time>
      </trkpt>
      <trkpt lat="45.1897" lon="5.74215">
        <ele>209.80000305176</ele>
        <time>2021-08-26T03:24:51.000Z</time>
      </trkpt>
      <trkpt lat="45.18964" lon="5.74221">
        <ele>209.80000305176</ele>
        <time>2021-08-26T03:24:53.000Z</time>
      </trkpt>
      <trkpt lat="45.18921" lon="5.74255">
        <ele>210.19999694824</ele>
        <time>2021-08-26T03:25:08.000Z</time>
      </trkpt>
      <trkpt lat="45.18922" lon="5.74268">
        <ele>210.19999694824</ele>
        <time>2021-08-26T03:25:10.000Z</time>
      </trkpt>
      <trkpt lat="45.1892" lon="5.7427">
        <ele>210.19999694824</ele>
        <time>2021-08-26T03:25:11.000Z</time>
      </trkpt>
      <trkpt lat="45.18921" lon="5.74288">
        <ele>210.39999389648</ele>
        <time>2021-08-26T03:25:15.000Z</time>
      </trkpt>
      <trkpt lat="45.18916" lon="5.74312">
        <ele>210.19999694824</ele>
        <time>2021-08-26T03:25:21.000Z</time>
      </trkpt>
      <trkpt lat="45.18905" lon="5.74336">
        <ele>210.39999389648</ele>
        <time>2021-08-26T03:25:27.000Z</time>
      </trkpt>
      <trkpt lat="45.189" lon="5.7435">
        <ele>210.39999389648</ele>
        <time>2021-08-26T03:25:31.000Z</time>
      </trkpt>
      <trkpt lat="45.18897" lon="5.74371">
        <ele>210.39999389648</ele>
        <time>2021-08-26T03:25:37.000Z</time>
      </trkpt>
      <trkpt lat="45.18891" lon="5.74392">
        <ele>210.19999694824</ele>
        <time>2021-08-26T03:25:43.000Z</time>
      </trkpt>
      <trkpt lat="45.18893" lon="5.74413">
        <ele>210.60000610352</ele>
        <time>2021-08-26T03:25:48.000Z</time>
      </trkpt>
      <trkpt lat="45.18892" lon="5.74416">
        <ele>210.60000610352</ele>
        <time>2021-08-26T03:25:49.000Z</time>
      </trkpt>
      <trkpt lat="45.18889" lon="5.74426">
        <ele>210.60000610352</ele>
        <time>2021-08-26T03:25:52.000Z</time>
      </trkpt>
      <trkpt lat="45.18888" lon="5.74432">
        <ele>210.60000610352</ele>
        <time>2021-08-26T03:25:54.000Z</time>
      </trkpt>
      <trkpt lat="45.18887" lon="5.74435">
        <ele>210.60000610352</ele>
        <time>2021-08-26T03:25:55.000Z</time>
      </trkpt>
      <trkpt lat="45.18886" lon="5.74438">
        <ele>210.60000610352</ele>
        <time>2021-08-26T03:25:56.000Z</time>
      </trkpt>
      <trkpt lat="45.18882" lon="5.74447">
        <ele>210.60000610352</ele>
        <time>2021-08-26T03:25:59.000Z</time>
      </trkpt>
      <trkpt lat="45.18881" lon="5.74452">
        <ele>210.60000610352</ele>
        <time>2021-08-26T03:26:01.000Z</time>
      </trkpt>
      <trkpt lat="45.18878" lon="5.74473">
        <ele>210.60000610352</ele>
        <time>2021-08-26T03:26:06.000Z</time>
      </trkpt>
      <trkpt lat="45.18875" lon="5.74496">
        <ele>210.80000305176</ele>
        <time>2021-08-26T03:26:11.000Z</time>
      </trkpt>
      <trkpt lat="45.18874" lon="5.74516">
        <ele>210.80000305176</ele>
        <time>2021-08-26T03:26:16.000Z</time>
      </trkpt>
      <trkpt lat="45.18873" lon="5.74536">
        <ele>211.19999694824</ele>
        <time>2021-08-26T03:26:21.000Z</time>
      </trkpt>
      <trkpt lat="45.18873" lon="5.74541">
        <ele>211.19999694824</ele>
        <time>2021-08-26T03:26:22.000Z</time>
      </trkpt>
      <trkpt lat="45.18872" lon="5.74553">
        <ele>211.19999694824</ele>
        <time>2021-08-26T03:26:25.000Z</time>
      </trkpt>
      <trkpt lat="45.18872" lon="5.74555">
        <ele>211.19999694824</ele>
        <time>2021-08-26T03:26:26.000Z</time>
      </trkpt>
      <trkpt lat="45.18871" lon="5.74567">
        <ele>211.19999694824</ele>
        <time>2021-08-26T03:26:30.000Z</time>
      </trkpt>
      <trkpt lat="45.18867" lon="5.74589">
        <ele>211.39999389648</ele>
        <time>2021-08-26T03:26:36.000Z</time>
      </trkpt>
      <trkpt lat="45.18863" lon="5.74606">
        <ele>211.39999389648</ele>
        <time>2021-08-26T03:26:41.000Z</time>
      </trkpt>
      <trkpt lat="45.18857" lon="5.74627">
        <ele>211.39999389648</ele>
        <time>2021-08-26T03:26:47.000Z</time>
      </trkpt>
      <trkpt lat="45.18852" lon="5.74649">
        <ele>211.39999389648</ele>
        <time>2021-08-26T03:26:53.000Z</time>
      </trkpt>
      <trkpt lat="45.1885" lon="5.74668">
        <ele>211.39999389648</ele>
        <time>2021-08-26T03:26:58.000Z</time>
      </trkpt>
      <trkpt lat="45.1885" lon="5.74672">
        <ele>211.60000610352</ele>
        <time>2021-08-26T03:26:59.000Z</time>
      </trkpt>
      <trkpt lat="45.18848" lon="5.74698">
        <ele>211.19999694824</ele>
        <time>2021-08-26T03:27:05.000Z</time>
      </trkpt>
      <trkpt lat="45.18847" lon="5.74702">
        <ele>211.19999694824</ele>
        <time>2021-08-26T03:27:06.000Z</time>
      </trkpt>
      <trkpt lat="45.18843" lon="5.74722">
        <ele>211</ele>
        <time>2021-08-26T03:27:12.000Z</time>
      </trkpt>
      <trkpt lat="45.18841" lon="5.7474">
        <ele>210.60000610352</ele>
        <time>2021-08-26T03:27:17.000Z</time>
      </trkpt>
      <trkpt lat="45.18839" lon="5.74752">
        <ele>210.60000610352</ele>
        <time>2021-08-26T03:27:21.000Z</time>
      </trkpt>
      <trkpt lat="45.18839" lon="5.74755">
        <ele>210.60000610352</ele>
        <time>2021-08-26T03:27:22.000Z</time>
      </trkpt>
      <trkpt lat="45.18839" lon="5.74758">
        <ele>210.39999389648</ele>
        <time>2021-08-26T03:27:23.000Z</time>
      </trkpt>
      <trkpt lat="45.18838" lon="5.74769">
        <ele>210.80000305176</ele>
        <time>2021-08-26T03:27:26.000Z</time>
      </trkpt>
      <trkpt lat="45.18838" lon="5.74785">
        <ele>210.80000305176</ele>
        <time>2021-08-26T03:27:30.000Z</time>
      </trkpt>
      <trkpt lat="45.18837" lon="5.74789">
        <ele>210.80000305176</ele>
        <time>2021-08-26T03:27:31.000Z</time>
      </trkpt>
      <trkpt lat="45.18838" lon="5.74809">
        <ele>211</ele>
        <time>2021-08-26T03:27:36.000Z</time>
      </trkpt>
      <trkpt lat="45.18841" lon="5.74831">
        <ele>211</ele>
        <time>2021-08-26T03:27:41.000Z</time>
      </trkpt>
      <trkpt lat="45.18842" lon="5.74834">
        <ele>211</ele>
        <time>2021-08-26T03:27:42.000Z</time>
      </trkpt>
      <trkpt lat="45.18846" lon="5.74856">
        <ele>210.80000305176</ele>
        <time>2021-08-26T03:27:48.000Z</time>
      </trkpt>
      <trkpt lat="45.18851" lon="5.74883">
        <ele>211.19999694824</ele>
        <time>2021-08-26T03:27:54.000Z</time>
      </trkpt>
      <trkpt lat="45.18851" lon="5.74895">
        <ele>211.19999694824</ele>
        <time>2021-08-26T03:27:57.000Z</time>
      </trkpt>
      <trkpt lat="45.18852" lon="5.74902">
        <ele>211.39999389648</ele>
        <time>2021-08-26T03:27:59.000Z</time>
      </trkpt>
      <trkpt lat="45.18856" lon="5.74925">
        <ele>211</ele>
        <time>2021-08-26T03:28:04.000Z</time>
      </trkpt>
      <trkpt lat="45.18863" lon="5.74948">
        <ele>211</ele>
        <time>2021-08-26T03:28:09.000Z</time>
      </trkpt>
      <trkpt lat="45.18865" lon="5.74952">
        <ele>210.60000610352</ele>
        <time>2021-08-26T03:28:10.000Z</time>
      </trkpt>
      <trkpt lat="45.18864" lon="5.74955">
        <ele>211.19999694824</ele>
        <time>2021-08-26T03:28:11.000Z</time>
      </trkpt>
      <trkpt lat="45.18864" lon="5.74962">
        <ele>210.80000305176</ele>
        <time>2021-08-26T03:28:13.000Z</time>
      </trkpt>
      <trkpt lat="45.1887" lon="5.74976">
        <ele>211</ele>
        <time>2021-08-26T03:28:17.000Z</time>
      </trkpt>
      <trkpt lat="45.18871" lon="5.7498">
        <ele>211</ele>
        <time>2021-08-26T03:28:18.000Z</time>
      </trkpt>
      <trkpt lat="45.18877" lon="5.74994">
        <ele>211.39999389648</ele>
        <time>2021-08-26T03:28:22.000Z</time>
      </trkpt>
      <trkpt lat="45.18885" lon="5.75012">
        <ele>211.39999389648</ele>
        <time>2021-08-26T03:28:27.000Z</time>
      </trkpt>
      <trkpt lat="45.18895" lon="5.75032">
        <ele>211.39999389648</ele>
        <time>2021-08-26T03:28:33.000Z</time>
      </trkpt>
      <trkpt lat="45.18903" lon="5.75051">
        <ele>211.19999694824</ele>
        <time>2021-08-26T03:28:39.000Z</time>
      </trkpt>
      <trkpt lat="45.18904" lon="5.75053">
        <ele>211.60000610352</ele>
        <time>2021-08-26T03:28:40.000Z</time>
      </trkpt>
      <trkpt lat="45.18907" lon="5.75058">
        <ele>211.19999694824</ele>
        <time>2021-08-26T03:28:42.000Z</time>
      </trkpt>
      <trkpt lat="45.18916" lon="5.75072">
        <ele>211.19999694824</ele>
        <time>2021-08-26T03:28:46.000Z</time>
      </trkpt>
      <trkpt lat="45.18925" lon="5.75094">
        <ele>211</ele>
        <time>2021-08-26T03:28:53.000Z</time>
      </trkpt>
      <trkpt lat="45.18925" lon="5.75094">
        <ele>211</ele>
        <time>2021-08-26T03:28:54.000Z</time>
      </trkpt>
      <trkpt lat="45.18924" lon="5.75092">
        <ele>210.80000305176</ele>
        <time>2021-08-26T03:28:55.000Z</time>
      </trkpt>
      <trkpt lat="45.18923" lon="5.75089">
        <ele>210.80000305176</ele>
        <time>2021-08-26T03:28:57.000Z</time>
      </trkpt>
      <trkpt lat="45.18918" lon="5.75081">
        <ele>211</ele>
        <time>2021-08-26T03:29:00.000Z</time>
      </trkpt>
      <trkpt lat="45.18915" lon="5.75074">
        <ele>211.19999694824</ele>
        <time>2021-08-26T03:29:03.000Z</time>
      </trkpt>
      <trkpt lat="45.18911" lon="5.75065">
        <ele>211.60000610352</ele>
        <time>2021-08-26T03:29:06.000Z</time>
      </trkpt>
      <trkpt lat="45.18904" lon="5.7506">
        <ele>212</ele>
        <time>2021-08-26T03:29:09.000Z</time>
      </trkpt>
      <trkpt lat="45.18894" lon="5.75051">
        <ele>211.80000305176</ele>
        <time>2021-08-26T03:29:13.000Z</time>
      </trkpt>
      <trkpt lat="45.18889" lon="5.75045">
        <ele>211.60000610352</ele>
        <time>2021-08-26T03:29:15.000Z</time>
      </trkpt>
      <trkpt lat="45.18879" lon="5.75028">
        <ele>210.80000305176</ele>
        <time>2021-08-26T03:29:21.000Z</time>
      </trkpt>
      <trkpt lat="45.18868" lon="5.75006">
        <ele>211.19999694824</ele>
        <time>2021-08-26T03:29:27.000Z</time>
      </trkpt>
      <trkpt lat="45.18866" lon="5.75003">
        <ele>211.19999694824</ele>
        <time>2021-08-26T03:29:28.000Z</time>
      </trkpt>
      <trkpt lat="45.18865" lon="5.74995">
        <ele>211</ele>
        <time>2021-08-26T03:29:31.000Z</time>
      </trkpt>
      <trkpt lat="45.18864" lon="5.74994">
        <ele>211</ele>
        <time>2021-08-26T03:29:32.000Z</time>
      </trkpt>
      <trkpt lat="45.18857" lon="5.74971">
        <ele>211.60000610352</ele>
        <time>2021-08-26T03:29:38.000Z</time>
      </trkpt>
      <trkpt lat="45.18854" lon="5.74965">
        <ele>211.60000610352</ele>
        <time>2021-08-26T03:29:39.000Z</time>
      </trkpt>
      <trkpt lat="45.18852" lon="5.74959">
        <ele>211.19999694824</ele>
        <time>2021-08-26T03:29:41.000Z</time>
      </trkpt>
      <trkpt lat="45.18848" lon="5.74946">
        <ele>210.60000610352</ele>
        <time>2021-08-26T03:29:44.000Z</time>
      </trkpt>
      <trkpt lat="45.18848" lon="5.74943">
        <ele>210.60000610352</ele>
        <time>2021-08-26T03:29:45.000Z</time>
      </trkpt>
      <trkpt lat="45.18849" lon="5.7494">
        <ele>210.60000610352</ele>
        <time>2021-08-26T03:29:46.000Z</time>
      </trkpt>
      <trkpt lat="45.18852" lon="5.74931">
        <ele>210.80000305176</ele>
        <time>2021-08-26T03:29:49.000Z</time>
      </trkpt>
      <trkpt lat="45.18858" lon="5.74915">
        <ele>210.80000305176</ele>
        <time>2021-08-26T03:29:54.000Z</time>
      </trkpt>
      <trkpt lat="45.18859" lon="5.74899">
        <ele>210.19999694824</ele>
        <time>2021-08-26T03:29:58.000Z</time>
      </trkpt>
      <trkpt lat="45.18858" lon="5.74894">
        <ele>210.39999389648</ele>
        <time>2021-08-26T03:29:59.000Z</time>
      </trkpt>
      <trkpt lat="45.18855" lon="5.74873">
        <ele>210.60000610352</ele>
        <time>2021-08-26T03:30:04.000Z</time>
      </trkpt>
      <trkpt lat="45.18852" lon="5.74855">
        <ele>210.60000610352</ele>
        <time>2021-08-26T03:30:07.000Z</time>
      </trkpt>
      <trkpt lat="45.18852" lon="5.74844">
        <ele>210.60000610352</ele>
        <time>2021-08-26T03:30:10.000Z</time>
      </trkpt>
      <trkpt lat="45.1885" lon="5.7483">
        <ele>211</ele>
        <time>2021-08-26T03:30:14.000Z</time>
      </trkpt>
      <trkpt lat="45.18848" lon="5.74808">
        <ele>211</ele>
        <time>2021-08-26T03:30:19.000Z</time>
      </trkpt>
      <trkpt lat="45.1885" lon="5.7479">
        <ele>210.60000610352</ele>
        <time>2021-08-26T03:30:23.000Z</time>
      </trkpt>
      <trkpt lat="45.18849" lon="5.74768">
        <ele>211</ele>
        <time>2021-08-26T03:30:28.000Z</time>
      </trkpt>
      <trkpt lat="45.18851" lon="5.74753">
        <ele>211.39999389648</ele>
        <time>2021-08-26T03:30:32.000Z</time>
      </trkpt>
      <trkpt lat="45.18852" lon="5.74746">
        <ele>211.80000305176</ele>
        <time>2021-08-26T03:30:34.000Z</time>
      </trkpt>
      <trkpt lat="45.18853" lon="5.74744">
        <ele>212</ele>
        <time>2021-08-26T03:30:35.000Z</time>
      </trkpt>
      <trkpt lat="45.18857" lon="5.74735">
        <ele>212</ele>
        <time>2021-08-26T03:30:38.000Z</time>
      </trkpt>
      <trkpt lat="45.18857" lon="5.74732">
        <ele>212</ele>
        <time>2021-08-26T03:30:39.000Z</time>
      </trkpt>
      <trkpt lat="45.18858" lon="5.74725">
        <ele>212.19999694824</ele>
        <time>2021-08-26T03:30:41.000Z</time>
      </trkpt>
      <trkpt lat="45.18858" lon="5.74714">
        <ele>212.19999694824</ele>
        <time>2021-08-26T03:30:44.000Z</time>
      </trkpt>
      <trkpt lat="45.18859" lon="5.74706">
        <ele>211.39999389648</ele>
        <time>2021-08-26T03:30:46.000Z</time>
      </trkpt>
      <trkpt lat="45.18859" lon="5.74684">
        <ele>210.39999389648</ele>
        <time>2021-08-26T03:30:51.000Z</time>
      </trkpt>
      <trkpt lat="45.18858" lon="5.74679">
        <ele>210.39999389648</ele>
        <time>2021-08-26T03:30:52.000Z</time>
      </trkpt>
      <trkpt lat="45.18856" lon="5.74667">
        <ele>210.39999389648</ele>
        <time>2021-08-26T03:30:54.000Z</time>
      </trkpt>
      <trkpt lat="45.18852" lon="5.7466">
        <ele>210.19999694824</ele>
        <time>2021-08-26T03:30:55.000Z</time>
      </trkpt>
      <trkpt lat="45.1885" lon="5.74652">
        <ele>210.19999694824</ele>
        <time>2021-08-26T03:30:57.000Z</time>
      </trkpt>
      <trkpt lat="45.18852" lon="5.74637">
        <ele>211.39999389648</ele>
        <time>2021-08-26T03:31:01.000Z</time>
      </trkpt>
      <trkpt lat="45.18849" lon="5.74625">
        <ele>211.39999389648</ele>
        <time>2021-08-26T03:31:04.000Z</time>
      </trkpt>
      <trkpt lat="45.18849" lon="5.74622">
        <ele>211.39999389648</ele>
        <time>2021-08-26T03:31:05.000Z</time>
      </trkpt>
      <trkpt lat="45.18847" lon="5.74616">
        <ele>211.39999389648</ele>
        <time>2021-08-26T03:31:06.000Z</time>
      </trkpt>
      <trkpt lat="45.18844" lon="5.74608">
        <ele>211.19999694824</ele>
        <time>2021-08-26T03:31:08.000Z</time>
      </trkpt>
      <trkpt lat="45.18843" lon="5.74605">
        <ele>211.39999389648</ele>
        <time>2021-08-26T03:31:09.000Z</time>
      </trkpt>
      <trkpt lat="45.18845" lon="5.74585">
        <ele>211.39999389648</ele>
        <time>2021-08-26T03:31:14.000Z</time>
      </trkpt>
      <trkpt lat="45.18847" lon="5.74579">
        <ele>211.19999694824</ele>
        <time>2021-08-26T03:31:16.000Z</time>
      </trkpt>
      <trkpt lat="45.18852" lon="5.74571">
        <ele>211.19999694824</ele>
        <time>2021-08-26T03:31:19.000Z</time>
      </trkpt>
      <trkpt lat="45.18854" lon="5.74564">
        <ele>211.19999694824</ele>
        <time>2021-08-26T03:31:21.000Z</time>
      </trkpt>
      <trkpt lat="45.18857" lon="5.74557">
        <ele>211.19999694824</ele>
        <time>2021-08-26T03:31:23.000Z</time>
      </trkpt>
      <trkpt lat="45.18859" lon="5.74533">
        <ele>211</ele>
        <time>2021-08-26T03:31:29.000Z</time>
      </trkpt>
      <trkpt lat="45.18859" lon="5.74526">
        <ele>210.60000610352</ele>
        <time>2021-08-26T03:31:31.000Z</time>
      </trkpt>
      <trkpt lat="45.1886" lon="5.7452">
        <ele>210.19999694824</ele>
        <time>2021-08-26T03:31:33.000Z</time>
      </trkpt>
      <trkpt lat="45.1886" lon="5.74516">
        <ele>210.60000610352</ele>
        <time>2021-08-26T03:31:34.000Z</time>
      </trkpt>
      <trkpt lat="45.18861" lon="5.74512">
        <ele>212</ele>
        <time>2021-08-26T03:31:35.000Z</time>
      </trkpt>
      <trkpt lat="45.18864" lon="5.74506">
        <ele>212</ele>
        <time>2021-08-26T03:31:37.000Z</time>
      </trkpt>
      <trkpt lat="45.18866" lon="5.74502">
        <ele>211.80000305176</ele>
        <time>2021-08-26T03:31:38.000Z</time>
      </trkpt>
      <trkpt lat="45.1887" lon="5.74492">
        <ele>211.80000305176</ele>
        <time>2021-08-26T03:31:41.000Z</time>
      </trkpt>
      <trkpt lat="45.18872" lon="5.74485">
        <ele>211.60000610352</ele>
        <time>2021-08-26T03:31:43.000Z</time>
      </trkpt>
      <trkpt lat="45.18872" lon="5.74476">
        <ele>211.80000305176</ele>
        <time>2021-08-26T03:31:45.000Z</time>
      </trkpt>
      <trkpt lat="45.18871" lon="5.74467">
        <ele>211.19999694824</ele>
        <time>2021-08-26T03:31:47.000Z</time>
      </trkpt>
      <trkpt lat="45.18872" lon="5.74455">
        <ele>211.19999694824</ele>
        <time>2021-08-26T03:31:50.000Z</time>
      </trkpt>
      <trkpt lat="45.18879" lon="5.74436">
        <ele>211.19999694824</ele>
        <time>2021-08-26T03:31:55.000Z</time>
      </trkpt>
      <trkpt lat="45.18882" lon="5.74422">
        <ele>211.80000305176</ele>
        <time>2021-08-26T03:31:58.000Z</time>
      </trkpt>
      <trkpt lat="45.18884" lon="5.74408">
        <ele>211.80000305176</ele>
        <time>2021-08-26T03:32:01.000Z</time>
      </trkpt>
      <trkpt lat="45.18887" lon="5.74397">
        <ele>211.80000305176</ele>
        <time>2021-08-26T03:32:04.000Z</time>
      </trkpt>
      <trkpt lat="45.1889" lon="5.7439">
        <ele>211.80000305176</ele>
        <time>2021-08-26T03:32:06.000Z</time>
      </trkpt>
      <trkpt lat="45.18895" lon="5.74366">
        <ele>211.19999694824</ele>
        <time>2021-08-26T03:32:11.000Z</time>
      </trkpt>
      <trkpt lat="45.18898" lon="5.74358">
        <ele>211.39999389648</ele>
        <time>2021-08-26T03:32:13.000Z</time>
      </trkpt>
      <trkpt lat="45.18901" lon="5.74351">
        <ele>211.19999694824</ele>
        <time>2021-08-26T03:32:15.000Z</time>
      </trkpt>
      <trkpt lat="45.18909" lon="5.74332">
        <ele>211.19999694824</ele>
        <time>2021-08-26T03:32:20.000Z</time>
      </trkpt>
      <trkpt lat="45.18914" lon="5.74311">
        <ele>211.60000610352</ele>
        <time>2021-08-26T03:32:25.000Z</time>
      </trkpt>
      <trkpt lat="45.18923" lon="5.74294">
        <ele>211.39999389648</ele>
        <time>2021-08-26T03:32:30.000Z</time>
      </trkpt>
      <trkpt lat="45.18924" lon="5.74291">
        <ele>212</ele>
        <time>2021-08-26T03:32:31.000Z</time>
      </trkpt>
      <trkpt lat="45.18928" lon="5.7428">
        <ele>211.19999694824</ele>
        <time>2021-08-26T03:32:34.000Z</time>
      </trkpt>
      <trkpt lat="45.18939" lon="5.7426">
        <ele>211.19999694824</ele>
        <time>2021-08-26T03:32:40.000Z</time>
      </trkpt>
      <trkpt lat="45.18947" lon="5.74246">
        <ele>211.19999694824</ele>
        <time>2021-08-26T03:32:44.000Z</time>
      </trkpt>
      <trkpt lat="45.18974" lon="5.74203">
        <ele>211.19999694824</ele>
        <time>2021-08-26T03:32:56.000Z</time>
      </trkpt>
      <trkpt lat="45.18977" lon="5.74203">
        <ele>211.19999694824</ele>
        <time>2021-08-26T03:32:57.000Z</time>
      </trkpt>
      <trkpt lat="45.18989" lon="5.74197">
        <ele>211.39999389648</ele>
        <time>2021-08-26T03:33:01.000Z</time>
      </trkpt>
      <trkpt lat="45.18998" lon="5.74189">
        <ele>211.19999694824</ele>
        <time>2021-08-26T03:33:06.000Z</time>
      </trkpt>
      <trkpt lat="45.19001" lon="5.74187">
        <ele>212</ele>
        <time>2021-08-26T03:33:07.000Z</time>
      </trkpt>
      <trkpt lat="45.1902" lon="5.74182">
        <ele>211.19999694824</ele>
        <time>2021-08-26T03:33:12.000Z</time>
      </trkpt>
      <trkpt lat="45.19026" lon="5.74178">
        <ele>211.19999694824</ele>
        <time>2021-08-26T03:33:14.000Z</time>
      </trkpt>
      <trkpt lat="45.19043" lon="5.74168">
        <ele>211.39999389648</ele>
        <time>2021-08-26T03:33:21.000Z</time>
      </trkpt>
      <trkpt lat="45.19057" lon="5.74159">
        <ele>211.60000610352</ele>
        <time>2021-08-26T03:33:27.000Z</time>
      </trkpt>
      <trkpt lat="45.19062" lon="5.74157">
        <ele>211.60000610352</ele>
        <time>2021-08-26T03:33:29.000Z</time>
      </trkpt>
      <trkpt lat="45.19067" lon="5.74155">
        <ele>211.60000610352</ele>
        <time>2021-08-26T03:33:31.000Z</time>
      </trkpt>
      <trkpt lat="45.19069" lon="5.74154">
        <ele>211.60000610352</ele>
        <time>2021-08-26T03:33:32.000Z</time>
      </trkpt>
      <trkpt lat="45.19085" lon="5.74144">
        <ele>211.60000610352</ele>
        <time>2021-08-26T03:33:39.000Z</time>
      </trkpt>
      <trkpt lat="45.19094" lon="5.74141">
        <ele>211.60000610352</ele>
        <time>2021-08-26T03:33:44.000Z</time>
      </trkpt>
      <trkpt lat="45.19096" lon="5.7414">
        <ele>211.60000610352</ele>
        <time>2021-08-26T03:33:45.000Z</time>
      </trkpt>
      <trkpt lat="45.19099" lon="5.74138">
        <ele>211.80000305176</ele>
        <time>2021-08-26T03:33:47.000Z</time>
      </trkpt>
      <trkpt lat="45.19106" lon="5.74136">
        <ele>211.39999389648</ele>
        <time>2021-08-26T03:33:50.000Z</time>
      </trkpt>
      <trkpt lat="45.19123" lon="5.74133">
        <ele>210.39999389648</ele>
        <time>2021-08-26T03:33:56.000Z</time>
      </trkpt>
      <trkpt lat="45.19131" lon="5.74132">
        <ele>210</ele>
        <time>2021-08-26T03:33:58.000Z</time>
      </trkpt>
      <trkpt lat="45.19135" lon="5.74131">
        <ele>210</ele>
        <time>2021-08-26T03:34:01.000Z</time>
      </trkpt>
      <trkpt lat="45.19145" lon="5.74128">
        <ele>210</ele>
        <time>2021-08-26T03:34:05.000Z</time>
      </trkpt>
      <trkpt lat="45.19155" lon="5.74126">
        <ele>210.39999389648</ele>
        <time>2021-08-26T03:34:08.000Z</time>
      </trkpt>
      <trkpt lat="45.19167" lon="5.74128">
        <ele>211</ele>
        <time>2021-08-26T03:34:13.000Z</time>
      </trkpt>
      <trkpt lat="45.19177" lon="5.74129">
        <ele>212</ele>
        <time>2021-08-26T03:34:16.000Z</time>
      </trkpt>
      <trkpt lat="45.19192" lon="5.7413">
        <ele>212</ele>
        <time>2021-08-26T03:34:21.000Z</time>
      </trkpt>
      <trkpt lat="45.19197" lon="5.7413">
        <ele>212.19999694824</ele>
        <time>2021-08-26T03:34:23.000Z</time>
      </trkpt>
      <trkpt lat="45.19208" lon="5.74131">
        <ele>211.80000305176</ele>
        <time>2021-08-26T03:34:26.000Z</time>
      </trkpt>
      <trkpt lat="45.19221" lon="5.74133">
        <ele>211.80000305176</ele>
        <time>2021-08-26T03:34:30.000Z</time>
      </trkpt>
      <trkpt lat="45.19231" lon="5.74134">
        <ele>211.80000305176</ele>
        <time>2021-08-26T03:34:33.000Z</time>
      </trkpt>
      <trkpt lat="45.19253" lon="5.74138">
        <ele>211.80000305176</ele>
        <time>2021-08-26T03:34:39.000Z</time>
      </trkpt>
      <trkpt lat="45.19262" lon="5.74139">
        <ele>211.80000305176</ele>
        <time>2021-08-26T03:34:41.000Z</time>
      </trkpt>
      <trkpt lat="45.19274" lon="5.74141">
        <ele>210.80000305176</ele>
        <time>2021-08-26T03:34:44.000Z</time>
      </trkpt>
      <trkpt lat="45.19293" lon="5.74144">
        <ele>211</ele>
        <time>2021-08-26T03:34:49.000Z</time>
      </trkpt>
      <trkpt lat="45.19296" lon="5.74144">
        <ele>211</ele>
        <time>2021-08-26T03:34:50.000Z</time>
      </trkpt>
      <trkpt lat="45.19313" lon="5.74148">
        <ele>210.80000305176</ele>
        <time>2021-08-26T03:34:56.000Z</time>
      </trkpt>
      <trkpt lat="45.19329" lon="5.7415">
        <ele>211</ele>
        <time>2021-08-26T03:35:01.000Z</time>
      </trkpt>
      <trkpt lat="45.19348" lon="5.74153">
        <ele>211</ele>
        <time>2021-08-26T03:35:07.000Z</time>
      </trkpt>
      <trkpt lat="45.19353" lon="5.74153">
        <ele>211.39999389648</ele>
        <time>2021-08-26T03:35:09.000Z</time>
      </trkpt>
      <trkpt lat="45.19371" lon="5.74155">
        <ele>211.39999389648</ele>
        <time>2021-08-26T03:35:14.000Z</time>
      </trkpt>
      <trkpt lat="45.19379" lon="5.74156">
        <ele>211</ele>
        <time>2021-08-26T03:35:17.000Z</time>
      </trkpt>
      <trkpt lat="45.19392" lon="5.7416">
        <ele>210.80000305176</ele>
        <time>2021-08-26T03:35:22.000Z</time>
      </trkpt>
      <trkpt lat="45.19407" lon="5.74164">
        <ele>210.80000305176</ele>
        <time>2021-08-26T03:35:28.000Z</time>
      </trkpt>
      <trkpt lat="45.19426" lon="5.74171">
        <ele>210.80000305176</ele>
        <time>2021-08-26T03:35:34.000Z</time>
      </trkpt>
      <trkpt lat="45.19446" lon="5.74176">
        <ele>211.19999694824</ele>
        <time>2021-08-26T03:35:42.000Z</time>
      </trkpt>
      <trkpt lat="45.19466" lon="5.74182">
        <ele>211.19999694824</ele>
        <time>2021-08-26T03:35:48.000Z</time>
      </trkpt>
      <trkpt lat="45.19476" lon="5.74187">
        <ele>211</ele>
        <time>2021-08-26T03:35:51.000Z</time>
      </trkpt>
      <trkpt lat="45.19487" lon="5.74193">
        <ele>211</ele>
        <time>2021-08-26T03:35:55.000Z</time>
      </trkpt>
      <trkpt lat="45.19508" lon="5.74199">
        <ele>210.80000305176</ele>
        <time>2021-08-26T03:36:01.000Z</time>
      </trkpt>
      <trkpt lat="45.19512" lon="5.74201">
        <ele>210.80000305176</ele>
        <time>2021-08-26T03:36:03.000Z</time>
      </trkpt>
      <trkpt lat="45.1953" lon="5.74209">
        <ele>210.39999389648</ele>
        <time>2021-08-26T03:36:09.000Z</time>
      </trkpt>
      <trkpt lat="45.19549" lon="5.74218">
        <ele>210</ele>
        <time>2021-08-26T03:36:17.000Z</time>
      </trkpt>
      <trkpt lat="45.19554" lon="5.74219">
        <ele>209.80000305176</ele>
        <time>2021-08-26T03:36:19.000Z</time>
      </trkpt>
      <trkpt lat="45.19566" lon="5.74223">
        <ele>210</ele>
        <time>2021-08-26T03:36:24.000Z</time>
      </trkpt>
      <trkpt lat="45.19575" lon="5.74224">
        <ele>210</ele>
        <time>2021-08-26T03:36:27.000Z</time>
      </trkpt>
      <trkpt lat="45.19595" lon="5.74229">
        <ele>210.19999694824</ele>
        <time>2021-08-26T03:36:34.000Z</time>
      </trkpt>
      <trkpt lat="45.19599" lon="5.7423">
        <ele>210.19999694824</ele>
        <time>2021-08-26T03:36:35.000Z</time>
      </trkpt>
      <trkpt lat="45.19617" lon="5.74234">
        <ele>210.19999694824</ele>
        <time>2021-08-26T03:36:40.000Z</time>
      </trkpt>
      <trkpt lat="45.19628" lon="5.74235">
        <ele>210.39999389648</ele>
        <time>2021-08-26T03:36:44.000Z</time>
      </trkpt>
      <trkpt lat="45.19642" lon="5.74237">
        <ele>210.19999694824</ele>
        <time>2021-08-26T03:36:49.000Z</time>
      </trkpt>
      <trkpt lat="45.19653" lon="5.74237">
        <ele>210.39999389648</ele>
        <time>2021-08-26T03:36:53.000Z</time>
      </trkpt>
      <trkpt lat="45.19667" lon="5.74238">
        <ele>210.19999694824</ele>
        <time>2021-08-26T03:36:57.000Z</time>
      </trkpt>
      <trkpt lat="45.19685" lon="5.74242">
        <ele>210.39999389648</ele>
        <time>2021-08-26T03:37:03.000Z</time>
      </trkpt>
      <trkpt lat="45.19687" lon="5.74241">
        <ele>210.39999389648</ele>
        <time>2021-08-26T03:37:04.000Z</time>
      </trkpt>
      <trkpt lat="45.19703" lon="5.74242">
        <ele>210.39999389648</ele>
        <time>2021-08-26T03:37:10.000Z</time>
      </trkpt>
      <trkpt lat="45.19716" lon="5.74242">
        <ele>210.39999389648</ele>
        <time>2021-08-26T03:37:16.000Z</time>
      </trkpt>
      <trkpt lat="45.19717" lon="5.74242">
        <ele>210.80000305176</ele>
        <time>2021-08-26T03:37:17.000Z</time>
      </trkpt>
      <trkpt lat="45.1973" lon="5.7424">
        <ele>210.19999694824</ele>
        <time>2021-08-26T03:37:22.000Z</time>
      </trkpt>
      <trkpt lat="45.19746" lon="5.74238">
        <ele>210.19999694824</ele>
        <time>2021-08-26T03:37:28.000Z</time>
      </trkpt>
      <trkpt lat="45.19759" lon="5.74237">
        <ele>210.19999694824</ele>
        <time>2021-08-26T03:37:32.000Z</time>
      </trkpt>
      <trkpt lat="45.19778" lon="5.74234">
        <ele>210.39999389648</ele>
        <time>2021-08-26T03:37:39.000Z</time>
      </trkpt>
      <trkpt lat="45.19781" lon="5.74233">
        <ele>210.39999389648</ele>
        <time>2021-08-26T03:37:40.000Z</time>
      </trkpt>
      <trkpt lat="45.19798" lon="5.74233">
        <ele>210.60000610352</ele>
        <time>2021-08-26T03:37:47.000Z</time>
      </trkpt>
      <trkpt lat="45.19812" lon="5.74237">
        <ele>210.39999389648</ele>
        <time>2021-08-26T03:37:54.000Z</time>
      </trkpt>
      <trkpt lat="45.19829" lon="5.7423">
        <ele>210.39999389648</ele>
        <time>2021-08-26T03:38:01.000Z</time>
      </trkpt>
      <trkpt lat="45.19832" lon="5.74229">
        <ele>210.39999389648</ele>
        <time>2021-08-26T03:38:02.000Z</time>
      </trkpt>
      <trkpt lat="45.19851" lon="5.74224">
        <ele>210.19999694824</ele>
        <time>2021-08-26T03:38:09.000Z</time>
      </trkpt>
      <trkpt lat="45.19865" lon="5.74214">
        <ele>210.19999694824</ele>
        <time>2021-08-26T03:38:15.000Z</time>
      </trkpt>
      <trkpt lat="45.19883" lon="5.74203">
        <ele>210.39999389648</ele>
        <time>2021-08-26T03:38:21.000Z</time>
      </trkpt>
      <trkpt lat="45.19889" lon="5.74199">
        <ele>210.39999389648</ele>
        <time>2021-08-26T03:38:24.000Z</time>
      </trkpt>
      <trkpt lat="45.19906" lon="5.7419">
        <ele>210.19999694824</ele>
        <time>2021-08-26T03:38:30.000Z</time>
      </trkpt>
      <trkpt lat="45.19916" lon="5.74182">
        <ele>210.19999694824</ele>
        <time>2021-08-26T03:38:34.000Z</time>
      </trkpt>
      <trkpt lat="45.19929" lon="5.74175">
        <ele>210.19999694824</ele>
        <time>2021-08-26T03:38:39.000Z</time>
      </trkpt>
      <trkpt lat="45.19931" lon="5.74173">
        <ele>211</ele>
        <time>2021-08-26T03:38:40.000Z</time>
      </trkpt>
      <trkpt lat="45.19942" lon="5.74163">
        <ele>210.60000610352</ele>
        <time>2021-08-26T03:38:45.000Z</time>
      </trkpt>
      <trkpt lat="45.19955" lon="5.7415">
        <ele>211</ele>
        <time>2021-08-26T03:38:51.000Z</time>
      </trkpt>
      <trkpt lat="45.1997" lon="5.74138">
        <ele>210.39999389648</ele>
        <time>2021-08-26T03:38:57.000Z</time>
      </trkpt>
      <trkpt lat="45.19981" lon="5.74121">
        <ele>211</ele>
        <time>2021-08-26T03:39:03.000Z</time>
      </trkpt>
      <trkpt lat="45.19988" lon="5.7411">
        <ele>211.80000305176</ele>
        <time>2021-08-26T03:39:07.000Z</time>
      </trkpt>
      <trkpt lat="45.1999" lon="5.74105">
        <ele>211.80000305176</ele>
        <time>2021-08-26T03:39:09.000Z</time>
      </trkpt>
      <trkpt lat="45.19991" lon="5.74102">
        <ele>212.19999694824</ele>
        <time>2021-08-26T03:39:10.000Z</time>
      </trkpt>
      <trkpt lat="45.19999" lon="5.74091">
        <ele>212.80000305176</ele>
        <time>2021-08-26T03:39:14.000Z</time>
      </trkpt>
      <trkpt lat="45.20001" lon="5.74088">
        <ele>213</ele>
        <time>2021-08-26T03:39:15.000Z</time>
      </trkpt>
      <trkpt lat="45.20011" lon="5.74075">
        <ele>213.60000610352</ele>
        <time>2021-08-26T03:39:20.000Z</time>
      </trkpt>
      <trkpt lat="45.20015" lon="5.7407">
        <ele>213.60000610352</ele>
        <time>2021-08-26T03:39:23.000Z</time>
      </trkpt>
      <trkpt lat="45.20018" lon="5.74071">
        <ele>213.80000305176</ele>
        <time>2021-08-26T03:39:25.000Z</time>
      </trkpt>
      <trkpt lat="45.20019" lon="5.74071">
        <ele>214</ele>
        <time>2021-08-26T03:39:26.000Z</time>
      </trkpt>
      <trkpt lat="45.20019" lon="5.74071">
        <ele>214</ele>
        <time>2021-08-26T03:39:28.000Z</time>
      </trkpt>
      <trkpt lat="45.20018" lon="5.7407">
        <ele>214.19999694824</ele>
        <time>2021-08-26T03:39:30.000Z</time>
      </trkpt>
      <trkpt lat="45.2002" lon="5.74067">
        <ele>213.80000305176</ele>
        <time>2021-08-26T03:39:33.000Z</time>
      </trkpt>
      <trkpt lat="45.20021" lon="5.74064">
        <ele>213.80000305176</ele>
        <time>2021-08-26T03:39:34.000Z</time>
      </trkpt>
      <trkpt lat="45.20023" lon="5.74062">
        <ele>213.80000305176</ele>
        <time>2021-08-26T03:39:35.000Z</time>
      </trkpt>
      <trkpt lat="45.20027" lon="5.74063">
        <ele>213.80000305176</ele>
        <time>2021-08-26T03:39:37.000Z</time>
      </trkpt>
      <trkpt lat="45.20039" lon="5.74075">
        <ele>214.19999694824</ele>
        <time>2021-08-26T03:39:43.000Z</time>
      </trkpt>
      <trkpt lat="45.20054" lon="5.74094">
        <ele>214</ele>
        <time>2021-08-26T03:39:50.000Z</time>
      </trkpt>
      <trkpt lat="45.20063" lon="5.74103">
        <ele>214</ele>
        <time>2021-08-26T03:39:53.000Z</time>
      </trkpt>
      <trkpt lat="45.20071" lon="5.74112">
        <ele>214.19999694824</ele>
        <time>2021-08-26T03:39:57.000Z</time>
      </trkpt>
      <trkpt lat="45.20085" lon="5.74128">
        <ele>214.39999389648</ele>
        <time>2021-08-26T03:40:03.000Z</time>
      </trkpt>
      <trkpt lat="45.20087" lon="5.7413">
        <ele>214.39999389648</ele>
        <time>2021-08-26T03:40:04.000Z</time>
      </trkpt>
      <trkpt lat="45.20102" lon="5.74148">
        <ele>214</ele>
        <time>2021-08-26T03:40:10.000Z</time>
      </trkpt>
      <trkpt lat="45.20109" lon="5.74156">
        <ele>214</ele>
        <time>2021-08-26T03:40:13.000Z</time>
      </trkpt>
      <trkpt lat="45.20117" lon="5.74163">
        <ele>213.80000305176</ele>
        <time>2021-08-26T03:40:17.000Z</time>
      </trkpt>
      <trkpt lat="45.20118" lon="5.74162">
        <ele>213.80000305176</ele>
        <time>2021-08-26T03:40:18.000Z</time>
      </trkpt>
      <trkpt lat="45.20123" lon="5.74151">
        <ele>213.39999389648</ele>
        <time>2021-08-26T03:40:22.000Z</time>
      </trkpt>
      <trkpt lat="45.20127" lon="5.74145">
        <ele>213</ele>
        <time>2021-08-26T03:40:24.000Z</time>
      </trkpt>
      <trkpt lat="45.20133" lon="5.74134">
        <ele>212.19999694824</ele>
        <time>2021-08-26T03:40:27.000Z</time>
      </trkpt>
      <trkpt lat="45.20141" lon="5.74122">
        <ele>211.19999694824</ele>
        <time>2021-08-26T03:40:31.000Z</time>
      </trkpt>
      <trkpt lat="45.20149" lon="5.74115">
        <ele>211</ele>
        <time>2021-08-26T03:40:34.000Z</time>
      </trkpt>
      <trkpt lat="45.2015" lon="5.74106">
        <ele>210.60000610352</ele>
        <time>2021-08-26T03:40:36.000Z</time>
      </trkpt>
      <trkpt lat="45.20151" lon="5.74099">
        <ele>210.60000610352</ele>
        <time>2021-08-26T03:40:38.000Z</time>
      </trkpt>
      <trkpt lat="45.20152" lon="5.74094">
        <ele>210</ele>
        <time>2021-08-26T03:40:39.000Z</time>
      </trkpt>
      <trkpt lat="45.20158" lon="5.74082">
        <ele>209.60000610352</ele>
        <time>2021-08-26T03:40:42.000Z</time>
      </trkpt>
      <trkpt lat="45.20169" lon="5.7406">
        <ele>209.19999694824</ele>
        <time>2021-08-26T03:40:48.000Z</time>
      </trkpt>
      <trkpt lat="45.20172" lon="5.74053">
        <ele>209</ele>
        <time>2021-08-26T03:40:50.000Z</time>
      </trkpt>
      <trkpt lat="45.20176" lon="5.74042">
        <ele>208.60000610352</ele>
        <time>2021-08-26T03:40:53.000Z</time>
      </trkpt>
      <trkpt lat="45.20178" lon="5.74039">
        <ele>208.60000610352</ele>
        <time>2021-08-26T03:40:54.000Z</time>
      </trkpt>
      <trkpt lat="45.20185" lon="5.74029">
        <ele>208.80000305176</ele>
        <time>2021-08-26T03:40:57.000Z</time>
      </trkpt>
      <trkpt lat="45.20187" lon="5.74022">
        <ele>208.80000305176</ele>
        <time>2021-08-26T03:40:59.000Z</time>
      </trkpt>
      <trkpt lat="45.20187" lon="5.74019">
        <ele>208.80000305176</ele>
        <time>2021-08-26T03:41:00.000Z</time>
      </trkpt>
      <trkpt lat="45.20188" lon="5.74012">
        <ele>208.60000610352</ele>
        <time>2021-08-26T03:41:02.000Z</time>
      </trkpt>
      <trkpt lat="45.20192" lon="5.74006">
        <ele>208.60000610352</ele>
        <time>2021-08-26T03:41:04.000Z</time>
      </trkpt>
      <trkpt lat="45.20193" lon="5.74003">
        <ele>209.19999694824</ele>
        <time>2021-08-26T03:41:05.000Z</time>
      </trkpt>
      <trkpt lat="45.20198" lon="5.73993">
        <ele>208.80000305176</ele>
        <time>2021-08-26T03:41:08.000Z</time>
      </trkpt>
      <trkpt lat="45.20211" lon="5.73973">
        <ele>208.80000305176</ele>
        <time>2021-08-26T03:41:14.000Z</time>
      </trkpt>
      <trkpt lat="45.2022" lon="5.73954">
        <ele>208.80000305176</ele>
        <time>2021-08-26T03:41:19.000Z</time>
      </trkpt>
      <trkpt lat="45.20223" lon="5.73947">
        <ele>208.80000305176</ele>
        <time>2021-08-26T03:41:21.000Z</time>
      </trkpt>
      <trkpt lat="45.2023" lon="5.7392">
        <ele>208.80000305176</ele>
        <time>2021-08-26T03:41:28.000Z</time>
      </trkpt>
      <trkpt lat="45.20238" lon="5.73904">
        <ele>208.80000305176</ele>
        <time>2021-08-26T03:41:33.000Z</time>
      </trkpt>
      <trkpt lat="45.20241" lon="5.73886">
        <ele>208.60000610352</ele>
        <time>2021-08-26T03:41:38.000Z</time>
      </trkpt>
      <trkpt lat="45.20246" lon="5.73862">
        <ele>208.80000305176</ele>
        <time>2021-08-26T03:41:44.000Z</time>
      </trkpt>
      <trkpt lat="45.20251" lon="5.73837">
        <ele>208.80000305176</ele>
        <time>2021-08-26T03:41:50.000Z</time>
      </trkpt>
      <trkpt lat="45.20254" lon="5.73811">
        <ele>209</ele>
        <time>2021-08-26T03:41:56.000Z</time>
      </trkpt>
      <trkpt lat="45.20257" lon="5.73791">
        <ele>208.60000610352</ele>
        <time>2021-08-26T03:42:01.000Z</time>
      </trkpt>
      <trkpt lat="45.20259" lon="5.73775">
        <ele>208.80000305176</ele>
        <time>2021-08-26T03:42:05.000Z</time>
      </trkpt>
      <trkpt lat="45.2026" lon="5.73773">
        <ele>208.80000305176</ele>
        <time>2021-08-26T03:42:06.000Z</time>
      </trkpt>
      <trkpt lat="45.20264" lon="5.73758">
        <ele>208.39999389648</ele>
        <time>2021-08-26T03:42:10.000Z</time>
      </trkpt>
      <trkpt lat="45.20266" lon="5.73754">
        <ele>208.39999389648</ele>
        <time>2021-08-26T03:42:11.000Z</time>
      </trkpt>
      <trkpt lat="45.20265" lon="5.7375">
        <ele>208.39999389648</ele>
        <time>2021-08-26T03:42:12.000Z</time>
      </trkpt>
      <trkpt lat="45.20263" lon="5.73741">
        <ele>208.60000610352</ele>
        <time>2021-08-26T03:42:14.000Z</time>
      </trkpt>
      <trkpt lat="45.20255" lon="5.73718">
        <ele>208.39999389648</ele>
        <time>2021-08-26T03:42:20.000Z</time>
      </trkpt>
      <trkpt lat="45.20253" lon="5.73709">
        <ele>208.39999389648</ele>
        <time>2021-08-26T03:42:22.000Z</time>
      </trkpt>
      <trkpt lat="45.20253" lon="5.73701">
        <ele>208.39999389648</ele>
        <time>2021-08-26T03:42:24.000Z</time>
      </trkpt>
      <trkpt lat="45.20253" lon="5.73697">
        <ele>208.39999389648</ele>
        <time>2021-08-26T03:42:25.000Z</time>
      </trkpt>
      <trkpt lat="45.20251" lon="5.73689">
        <ele>208.60000610352</ele>
        <time>2021-08-26T03:42:27.000Z</time>
      </trkpt>
      <trkpt lat="45.20248" lon="5.73676">
        <ele>208.60000610352</ele>
        <time>2021-08-26T03:42:30.000Z</time>
      </trkpt>
      <trkpt lat="45.20244" lon="5.73668">
        <ele>208.60000610352</ele>
        <time>2021-08-26T03:42:32.000Z</time>
      </trkpt>
      <trkpt lat="45.20236" lon="5.73649">
        <ele>208.60000610352</ele>
        <time>2021-08-26T03:42:37.000Z</time>
      </trkpt>
      <trkpt lat="45.20235" lon="5.73638">
        <ele>208.39999389648</ele>
        <time>2021-08-26T03:42:40.000Z</time>
      </trkpt>
      <trkpt lat="45.20236" lon="5.73635">
        <ele>208.39999389648</ele>
        <time>2021-08-26T03:42:41.000Z</time>
      </trkpt>
      <trkpt lat="45.20237" lon="5.73631">
        <ele>208.39999389648</ele>
        <time>2021-08-26T03:42:43.000Z</time>
      </trkpt>
      <trkpt lat="45.20237" lon="5.73627">
        <ele>208.39999389648</ele>
        <time>2021-08-26T03:42:44.000Z</time>
      </trkpt>
      <trkpt lat="45.20234" lon="5.7362">
        <ele>208</ele>
        <time>2021-08-26T03:42:46.000Z</time>
      </trkpt>
      <trkpt lat="45.2023" lon="5.73609">
        <ele>207.80000305176</ele>
        <time>2021-08-26T03:42:49.000Z</time>
      </trkpt>
      <trkpt lat="45.20226" lon="5.73591">
        <ele>208</ele>
        <time>2021-08-26T03:42:54.000Z</time>
      </trkpt>
      <trkpt lat="45.20227" lon="5.73584">
        <ele>208</ele>
        <time>2021-08-26T03:42:56.000Z</time>
      </trkpt>
      <trkpt lat="45.20228" lon="5.73579">
        <ele>208.39999389648</ele>
        <time>2021-08-26T03:42:58.000Z</time>
      </trkpt>
      <trkpt lat="45.2023" lon="5.73577">
        <ele>208.60000610352</ele>
        <time>2021-08-26T03:42:59.000Z</time>
      </trkpt>
      <trkpt lat="45.20235" lon="5.73578">
        <ele>208.60000610352</ele>
        <time>2021-08-26T03:43:01.000Z</time>
      </trkpt>
      <trkpt lat="45.20241" lon="5.73577">
        <ele>209</ele>
        <time>2021-08-26T03:43:03.000Z</time>
      </trkpt>
      <trkpt lat="45.20245" lon="5.73573">
        <ele>209.39999389648</ele>
        <time>2021-08-26T03:43:06.000Z</time>
      </trkpt>
      <trkpt lat="45.2025" lon="5.73568">
        <ele>210</ele>
        <time>2021-08-26T03:43:09.000Z</time>
      </trkpt>
      <trkpt lat="45.20252" lon="5.73567">
        <ele>210.60000610352</ele>
        <time>2021-08-26T03:43:10.000Z</time>
      </trkpt>
      <trkpt lat="45.20253" lon="5.73565">
        <ele>211</ele>
        <time>2021-08-26T03:43:11.000Z</time>
      </trkpt>
      <trkpt lat="45.20258" lon="5.73564">
        <ele>211.19999694824</ele>
        <time>2021-08-26T03:43:13.000Z</time>
      </trkpt>
      <trkpt lat="45.2026" lon="5.73564">
        <ele>211.80000305176</ele>
        <time>2021-08-26T03:43:14.000Z</time>
      </trkpt>
      <trkpt lat="45.20263" lon="5.73563">
        <ele>212</ele>
        <time>2021-08-26T03:43:15.000Z</time>
      </trkpt>
      <trkpt lat="45.20267" lon="5.73561">
        <ele>213</ele>
        <time>2021-08-26T03:43:17.000Z</time>
      </trkpt>
      <trkpt lat="45.20268" lon="5.73559">
        <ele>213.19999694824</ele>
        <time>2021-08-26T03:43:18.000Z</time>
      </trkpt>
      <trkpt lat="45.2027" lon="5.73554">
        <ele>213.19999694824</ele>
        <time>2021-08-26T03:43:20.000Z</time>
      </trkpt>
      <trkpt lat="45.20267" lon="5.73547">
        <ele>213</ele>
        <time>2021-08-26T03:43:23.000Z</time>
      </trkpt>
      <trkpt lat="45.20264" lon="5.73545">
        <ele>213</ele>
        <time>2021-08-26T03:43:24.000Z</time>
      </trkpt>
      <trkpt lat="45.20258" lon="5.73538">
        <ele>212.39999389648</ele>
        <time>2021-08-26T03:43:26.000Z</time>
      </trkpt>
      <trkpt lat="45.20255" lon="5.73534">
        <ele>212.19999694824</ele>
        <time>2021-08-26T03:43:28.000Z</time>
      </trkpt>
      <trkpt lat="45.20254" lon="5.73528">
        <ele>212</ele>
        <time>2021-08-26T03:43:31.000Z</time>
      </trkpt>
      <trkpt lat="45.20252" lon="5.73524">
        <ele>212</ele>
        <time>2021-08-26T03:43:33.000Z</time>
      </trkpt>
      <trkpt lat="45.20251" lon="5.73521">
        <ele>211.80000305176</ele>
        <time>2021-08-26T03:43:34.000Z</time>
      </trkpt>
      <trkpt lat="45.2025" lon="5.73519">
        <ele>211.60000610352</ele>
        <time>2021-08-26T03:43:35.000Z</time>
      </trkpt>
      <trkpt lat="45.20246" lon="5.7351">
        <ele>211.39999389648</ele>
        <time>2021-08-26T03:43:38.000Z</time>
      </trkpt>
      <trkpt lat="45.20244" lon="5.73503">
        <ele>211.19999694824</ele>
        <time>2021-08-26T03:43:41.000Z</time>
      </trkpt>
      <trkpt lat="45.20244" lon="5.73498">
        <ele>211.19999694824</ele>
        <time>2021-08-26T03:43:43.000Z</time>
      </trkpt>
      <trkpt lat="45.20239" lon="5.73489">
        <ele>211</ele>
        <time>2021-08-26T03:43:46.000Z</time>
      </trkpt>
      <trkpt lat="45.20234" lon="5.73478">
        <ele>210.60000610352</ele>
        <time>2021-08-26T03:43:50.000Z</time>
      </trkpt>
      <trkpt lat="45.2023" lon="5.73469">
        <ele>210.80000305176</ele>
        <time>2021-08-26T03:43:53.000Z</time>
      </trkpt>
      <trkpt lat="45.20221" lon="5.73458">
        <ele>210.80000305176</ele>
        <time>2021-08-26T03:43:57.000Z</time>
      </trkpt>
      <trkpt lat="45.20205" lon="5.73445">
        <ele>211</ele>
        <time>2021-08-26T03:44:02.000Z</time>
      </trkpt>
      <trkpt lat="45.20192" lon="5.73432">
        <ele>210.60000610352</ele>
        <time>2021-08-26T03:44:08.000Z</time>
      </trkpt>
      <trkpt lat="45.20179" lon="5.7342">
        <ele>210.39999389648</ele>
        <time>2021-08-26T03:44:14.000Z</time>
      </trkpt>
      <trkpt lat="45.20163" lon="5.7341">
        <ele>210.39999389648</ele>
        <time>2021-08-26T03:44:18.000Z</time>
      </trkpt>
      <trkpt lat="45.20146" lon="5.73405">
        <ele>210</ele>
        <time>2021-08-26T03:44:23.000Z</time>
      </trkpt>
      <trkpt lat="45.20131" lon="5.734">
        <ele>209.80000305176</ele>
        <time>2021-08-26T03:44:29.000Z</time>
      </trkpt>
      <trkpt lat="45.20127" lon="5.73401">
        <ele>209.60000610352</ele>
        <time>2021-08-26T03:44:31.000Z</time>
      </trkpt>
      <trkpt lat="45.20123" lon="5.73401">
        <ele>209.19999694824</ele>
        <time>2021-08-26T03:44:33.000Z</time>
      </trkpt>
      <trkpt lat="45.20114" lon="5.73402">
        <ele>209.19999694824</ele>
        <time>2021-08-26T03:44:37.000Z</time>
      </trkpt>
      <trkpt lat="45.20104" lon="5.734">
        <ele>209.19999694824</ele>
        <time>2021-08-26T03:44:41.000Z</time>
      </trkpt>
      <trkpt lat="45.20089" lon="5.73392">
        <ele>208.80000305176</ele>
        <time>2021-08-26T03:44:46.000Z</time>
      </trkpt>
      <trkpt lat="45.20087" lon="5.73392">
        <ele>209</ele>
        <time>2021-08-26T03:44:47.000Z</time>
      </trkpt>
      <trkpt lat="45.20078" lon="5.73387">
        <ele>209.60000610352</ele>
        <time>2021-08-26T03:44:51.000Z</time>
      </trkpt>
      <trkpt lat="45.20061" lon="5.73376">
        <ele>209.19999694824</ele>
        <time>2021-08-26T03:44:57.000Z</time>
      </trkpt>
      <trkpt lat="45.20059" lon="5.73375">
        <ele>209.19999694824</ele>
        <time>2021-08-26T03:44:58.000Z</time>
      </trkpt>
      <trkpt lat="45.2005" lon="5.73369">
        <ele>209.60000610352</ele>
        <time>2021-08-26T03:45:02.000Z</time>
      </trkpt>
      <trkpt lat="45.20037" lon="5.73366">
        <ele>209.80000305176</ele>
        <time>2021-08-26T03:45:07.000Z</time>
      </trkpt>
      <trkpt lat="45.20022" lon="5.73359">
        <ele>210.19999694824</ele>
        <time>2021-08-26T03:45:11.000Z</time>
      </trkpt>
      <trkpt lat="45.20004" lon="5.73351">
        <ele>210.19999694824</ele>
        <time>2021-08-26T03:45:16.000Z</time>
      </trkpt>
      <trkpt lat="45.20001" lon="5.7335">
        <ele>210.19999694824</ele>
        <time>2021-08-26T03:45:17.000Z</time>
      </trkpt>
      <trkpt lat="45.19993" lon="5.73347">
        <ele>210.19999694824</ele>
        <time>2021-08-26T03:45:20.000Z</time>
      </trkpt>
      <trkpt lat="45.1999" lon="5.73345">
        <ele>210.19999694824</ele>
        <time>2021-08-26T03:45:21.000Z</time>
      </trkpt>
      <trkpt lat="45.1998" lon="5.73341">
        <ele>210.39999389648</ele>
        <time>2021-08-26T03:45:24.000Z</time>
      </trkpt>
      <trkpt lat="45.19975" lon="5.7334">
        <ele>211</ele>
        <time>2021-08-26T03:45:26.000Z</time>
      </trkpt>
      <trkpt lat="45.19972" lon="5.73339">
        <ele>211</ele>
        <time>2021-08-26T03:45:27.000Z</time>
      </trkpt>
      <trkpt lat="45.19963" lon="5.73334">
        <ele>210.80000305176</ele>
        <time>2021-08-26T03:45:31.000Z</time>
      </trkpt>
      <trkpt lat="45.19956" lon="5.73332">
        <ele>210.80000305176</ele>
        <time>2021-08-26T03:45:34.000Z</time>
      </trkpt>
      <trkpt lat="45.19952" lon="5.73331">
        <ele>210.80000305176</ele>
        <time>2021-08-26T03:45:36.000Z</time>
      </trkpt>
      <trkpt lat="45.19948" lon="5.73329">
        <ele>210.80000305176</ele>
        <time>2021-08-26T03:45:38.000Z</time>
      </trkpt>
      <trkpt lat="45.19942" lon="5.73326">
        <ele>210.80000305176</ele>
        <time>2021-08-26T03:45:40.000Z</time>
      </trkpt>
      <trkpt lat="45.1994" lon="5.73325">
        <ele>211</ele>
        <time>2021-08-26T03:45:41.000Z</time>
      </trkpt>
      <trkpt lat="45.19938" lon="5.73325">
        <ele>211</ele>
        <time>2021-08-26T03:45:42.000Z</time>
      </trkpt>
      <trkpt lat="45.19932" lon="5.73325">
        <ele>211</ele>
        <time>2021-08-26T03:45:45.000Z</time>
      </trkpt>
      <trkpt lat="45.1993" lon="5.73325">
        <ele>211</ele>
        <time>2021-08-26T03:45:46.000Z</time>
      </trkpt>
      <trkpt lat="45.19914" lon="5.7332">
        <ele>211.19999694824</ele>
        <time>2021-08-26T03:45:52.000Z</time>
      </trkpt>
      <trkpt lat="45.19911" lon="5.73318">
        <ele>211.19999694824</ele>
        <time>2021-08-26T03:45:53.000Z</time>
      </trkpt>
      <trkpt lat="45.19891" lon="5.73309">
        <ele>210.80000305176</ele>
        <time>2021-08-26T03:46:00.000Z</time>
      </trkpt>
      <trkpt lat="45.19888" lon="5.73307">
        <ele>210.80000305176</ele>
        <time>2021-08-26T03:46:01.000Z</time>
      </trkpt>
      <trkpt lat="45.19879" lon="5.733">
        <ele>210.80000305176</ele>
        <time>2021-08-26T03:46:05.000Z</time>
      </trkpt>
      <trkpt lat="45.19876" lon="5.73297">
        <ele>210.60000610352</ele>
        <time>2021-08-26T03:46:06.000Z</time>
      </trkpt>
      <trkpt lat="45.1987" lon="5.73294">
        <ele>210.80000305176</ele>
        <time>2021-08-26T03:46:08.000Z</time>
      </trkpt>
      <trkpt lat="45.19861" lon="5.73293">
        <ele>210.80000305176</ele>
        <time>2021-08-26T03:46:12.000Z</time>
      </trkpt>
      <trkpt lat="45.1984" lon="5.73293">
        <ele>210.80000305176</ele>
        <time>2021-08-26T03:46:19.000Z</time>
      </trkpt>
      <trkpt lat="45.19823" lon="5.73288">
        <ele>210.39999389648</ele>
        <time>2021-08-26T03:46:24.000Z</time>
      </trkpt>
      <trkpt lat="45.19806" lon="5.73279">
        <ele>211</ele>
        <time>2021-08-26T03:46:28.000Z</time>
      </trkpt>
      <trkpt lat="45.19787" lon="5.73268">
        <ele>211.19999694824</ele>
        <time>2021-08-26T03:46:32.000Z</time>
      </trkpt>
      <trkpt lat="45.19779" lon="5.73266">
        <ele>210.60000610352</ele>
        <time>2021-08-26T03:46:34.000Z</time>
      </trkpt>
      <trkpt lat="45.19777" lon="5.73263">
        <ele>211.19999694824</ele>
        <time>2021-08-26T03:46:35.000Z</time>
      </trkpt>
      <trkpt lat="45.1978" lon="5.73247">
        <ele>210.39999389648</ele>
        <time>2021-08-26T03:46:38.000Z</time>
      </trkpt>
      <trkpt lat="45.19787" lon="5.73227">
        <ele>210.19999694824</ele>
        <time>2021-08-26T03:46:43.000Z</time>
      </trkpt>
      <trkpt lat="45.19788" lon="5.73223">
        <ele>210.19999694824</ele>
        <time>2021-08-26T03:46:44.000Z</time>
      </trkpt>
      <trkpt lat="45.19787" lon="5.7322">
        <ele>210.19999694824</ele>
        <time>2021-08-26T03:46:45.000Z</time>
      </trkpt>
      <trkpt lat="45.19786" lon="5.73213">
        <ele>210.19999694824</ele>
        <time>2021-08-26T03:46:47.000Z</time>
      </trkpt>
      <trkpt lat="45.19784" lon="5.73191">
        <ele>210</ele>
        <time>2021-08-26T03:46:52.000Z</time>
      </trkpt>
      <trkpt lat="45.19778" lon="5.73171">
        <ele>210.80000305176</ele>
        <time>2021-08-26T03:46:57.000Z</time>
      </trkpt>
      <trkpt lat="45.19778" lon="5.73167">
        <ele>211</ele>
        <time>2021-08-26T03:46:58.000Z</time>
      </trkpt>
      <trkpt lat="45.19779" lon="5.73164">
        <ele>212.19999694824</ele>
        <time>2021-08-26T03:46:59.000Z</time>
      </trkpt>
      <trkpt lat="45.19781" lon="5.73157">
        <ele>212.19999694824</ele>
        <time>2021-08-26T03:47:01.000Z</time>
      </trkpt>
      <trkpt lat="45.19784" lon="5.73151">
        <ele>213.19999694824</ele>
        <time>2021-08-26T03:47:03.000Z</time>
      </trkpt>
      <trkpt lat="45.19786" lon="5.73145">
        <ele>214.19999694824</ele>
        <time>2021-08-26T03:47:05.000Z</time>
      </trkpt>
      <trkpt lat="45.19788" lon="5.73141">
        <ele>214.39999389648</ele>
        <time>2021-08-26T03:47:07.000Z</time>
      </trkpt>
      <trkpt lat="45.19792" lon="5.73137">
        <ele>215.60000610352</ele>
        <time>2021-08-26T03:47:09.000Z</time>
      </trkpt>
      <trkpt lat="45.19793" lon="5.73134">
        <ele>216.19999694824</ele>
        <time>2021-08-26T03:47:11.000Z</time>
      </trkpt>
      <trkpt lat="45.19797" lon="5.73133">
        <ele>216.60000610352</ele>
        <time>2021-08-26T03:47:13.000Z</time>
      </trkpt>
      <trkpt lat="45.19797" lon="5.73133">
        <ele>216.80000305176</ele>
        <time>2021-08-26T03:47:14.000Z</time>
      </trkpt>
      <trkpt lat="45.19798" lon="5.73132">
        <ele>217.19999694824</ele>
        <time>2021-08-26T03:47:15.000Z</time>
      </trkpt>
      <trkpt lat="45.19791" lon="5.73129">
        <ele>217.80000305176</ele>
        <time>2021-08-26T03:47:18.000Z</time>
      </trkpt>
      <trkpt lat="45.19787" lon="5.73128">
        <ele>218.19999694824</ele>
        <time>2021-08-26T03:47:19.000Z</time>
      </trkpt>
      <trkpt lat="45.19784" lon="5.73129">
        <ele>218.39999389648</ele>
        <time>2021-08-26T03:47:20.000Z</time>
      </trkpt>
      <trkpt lat="45.19779" lon="5.73131">
        <ele>219.60000610352</ele>
        <time>2021-08-26T03:47:22.000Z</time>
      </trkpt>
      <trkpt lat="45.19765" lon="5.7313">
        <ele>220.60000610352</ele>
        <time>2021-08-26T03:47:26.000Z</time>
      </trkpt>
      <trkpt lat="45.19761" lon="5.73126">
        <ele>221.19999694824</ele>
        <time>2021-08-26T03:47:28.000Z</time>
      </trkpt>
      <trkpt lat="45.19759" lon="5.73125">
        <ele>221.80000305176</ele>
        <time>2021-08-26T03:47:29.000Z</time>
      </trkpt>
      <trkpt lat="45.19756" lon="5.73123">
        <ele>221.80000305176</ele>
        <time>2021-08-26T03:47:30.000Z</time>
      </trkpt>
      <trkpt lat="45.19754" lon="5.7312">
        <ele>221.80000305176</ele>
        <time>2021-08-26T03:47:31.000Z</time>
      </trkpt>
      <trkpt lat="45.19753" lon="5.73114">
        <ele>222.39999389648</ele>
        <time>2021-08-26T03:47:33.000Z</time>
      </trkpt>
      <trkpt lat="45.19753" lon="5.73112">
        <ele>222.80000305176</ele>
        <time>2021-08-26T03:47:34.000Z</time>
      </trkpt>
      <trkpt lat="45.19754" lon="5.7311">
        <ele>223</ele>
        <time>2021-08-26T03:47:35.000Z</time>
      </trkpt>
      <trkpt lat="45.19755" lon="5.73104">
        <ele>223.19999694824</ele>
        <time>2021-08-26T03:47:37.000Z</time>
      </trkpt>
      <trkpt lat="45.19757" lon="5.73102">
        <ele>223.80000305176</ele>
        <time>2021-08-26T03:47:39.000Z</time>
      </trkpt>
      <trkpt lat="45.19757" lon="5.73102">
        <ele>224.19999694824</ele>
        <time>2021-08-26T03:47:40.000Z</time>
      </trkpt>
      <trkpt lat="45.19758" lon="5.73102">
        <ele>224.60000610352</ele>
        <time>2021-08-26T03:47:41.000Z</time>
      </trkpt>
      <trkpt lat="45.19763" lon="5.73102">
        <ele>225</ele>
        <time>2021-08-26T03:47:43.000Z</time>
      </trkpt>
      <trkpt lat="45.19766" lon="5.73101">
        <ele>225.39999389648</ele>
        <time>2021-08-26T03:47:44.000Z</time>
      </trkpt>
      <trkpt lat="45.1977" lon="5.73101">
        <ele>225.80000305176</ele>
        <time>2021-08-26T03:47:46.000Z</time>
      </trkpt>
      <trkpt lat="45.19772" lon="5.73102">
        <ele>226</ele>
        <time>2021-08-26T03:47:47.000Z</time>
      </trkpt>
      <trkpt lat="45.19774" lon="5.73104">
        <ele>226.39999389648</ele>
        <time>2021-08-26T03:47:49.000Z</time>
      </trkpt>
      <trkpt lat="45.19773" lon="5.73106">
        <ele>226.60000610352</ele>
        <time>2021-08-26T03:47:50.000Z</time>
      </trkpt>
      <trkpt lat="45.19774" lon="5.73107">
        <ele>226.80000305176</ele>
        <time>2021-08-26T03:47:51.000Z</time>
      </trkpt>
      <trkpt lat="45.19776" lon="5.73108">
        <ele>227.60000610352</ele>
        <time>2021-08-26T03:47:53.000Z</time>
      </trkpt>
      <trkpt lat="45.19777" lon="5.73109">
        <ele>228</ele>
        <time>2021-08-26T03:47:54.000Z</time>
      </trkpt>
      <trkpt lat="45.19785" lon="5.73104">
        <ele>228.80000305176</ele>
        <time>2021-08-26T03:47:58.000Z</time>
      </trkpt>
      <trkpt lat="45.19785" lon="5.73103">
        <ele>229.39999389648</ele>
        <time>2021-08-26T03:47:59.000Z</time>
      </trkpt>
      <trkpt lat="45.19785" lon="5.73103">
        <ele>229.60000610352</ele>
        <time>2021-08-26T03:48:01.000Z</time>
      </trkpt>
      <trkpt lat="45.19782" lon="5.73101">
        <ele>230</ele>
        <time>2021-08-26T03:48:03.000Z</time>
      </trkpt>
      <trkpt lat="45.19779" lon="5.73098">
        <ele>231.19999694824</ele>
        <time>2021-08-26T03:48:05.000Z</time>
      </trkpt>
      <trkpt lat="45.1977" lon="5.73091">
        <ele>231.80000305176</ele>
        <time>2021-08-26T03:48:10.000Z</time>
      </trkpt>
      <trkpt lat="45.19766" lon="5.73089">
        <ele>232.39999389648</ele>
        <time>2021-08-26T03:48:12.000Z</time>
      </trkpt>
      <trkpt lat="45.19763" lon="5.73086">
        <ele>232.60000610352</ele>
        <time>2021-08-26T03:48:15.000Z</time>
      </trkpt>
      <trkpt lat="45.19759" lon="5.73083">
        <ele>233.39999389648</ele>
        <time>2021-08-26T03:48:17.000Z</time>
      </trkpt>
      <trkpt lat="45.19756" lon="5.73082">
        <ele>233.80000305176</ele>
        <time>2021-08-26T03:48:18.000Z</time>
      </trkpt>
      <trkpt lat="45.19753" lon="5.73078">
        <ele>234.39999389648</ele>
        <time>2021-08-26T03:48:22.000Z</time>
      </trkpt>
      <trkpt lat="45.1975" lon="5.73077">
        <ele>234.80000305176</ele>
        <time>2021-08-26T03:48:23.000Z</time>
      </trkpt>
      <trkpt lat="45.19745" lon="5.73072">
        <ele>235.39999389648</ele>
        <time>2021-08-26T03:48:26.000Z</time>
      </trkpt>
      <trkpt lat="45.19745" lon="5.73068">
        <ele>235.80000305176</ele>
        <time>2021-08-26T03:48:28.000Z</time>
      </trkpt>
      <trkpt lat="45.19746" lon="5.73067">
        <ele>236</ele>
        <time>2021-08-26T03:48:29.000Z</time>
      </trkpt>
      <trkpt lat="45.19747" lon="5.73066">
        <ele>236</ele>
        <time>2021-08-26T03:48:30.000Z</time>
      </trkpt>
      <trkpt lat="45.19749" lon="5.73067">
        <ele>237</ele>
        <time>2021-08-26T03:48:34.000Z</time>
      </trkpt>
      <trkpt lat="45.1975" lon="5.73067">
        <ele>237.19999694824</ele>
        <time>2021-08-26T03:48:35.000Z</time>
      </trkpt>
      <trkpt lat="45.19759" lon="5.73069">
        <ele>238.19999694824</ele>
        <time>2021-08-26T03:48:40.000Z</time>
      </trkpt>
      <trkpt lat="45.19761" lon="5.73069">
        <ele>238.80000305176</ele>
        <time>2021-08-26T03:48:41.000Z</time>
      </trkpt>
      <trkpt lat="45.19768" lon="5.73071">
        <ele>240</ele>
        <time>2021-08-26T03:48:45.000Z</time>
      </trkpt>
      <trkpt lat="45.19769" lon="5.73072">
        <ele>240.19999694824</ele>
        <time>2021-08-26T03:48:46.000Z</time>
      </trkpt>
      <trkpt lat="45.19774" lon="5.73075">
        <ele>241.19999694824</ele>
        <time>2021-08-26T03:48:49.000Z</time>
      </trkpt>
      <trkpt lat="45.19775" lon="5.73074">
        <ele>241.39999389648</ele>
        <time>2021-08-26T03:48:50.000Z</time>
      </trkpt>
      <trkpt lat="45.19776" lon="5.73073">
        <ele>241.80000305176</ele>
        <time>2021-08-26T03:48:51.000Z</time>
      </trkpt>
      <trkpt lat="45.19777" lon="5.7307">
        <ele>242.19999694824</ele>
        <time>2021-08-26T03:48:53.000Z</time>
      </trkpt>
      <trkpt lat="45.19776" lon="5.73069">
        <ele>242.39999389648</ele>
        <time>2021-08-26T03:48:54.000Z</time>
      </trkpt>
      <trkpt lat="45.19774" lon="5.73069">
        <ele>242.80000305176</ele>
        <time>2021-08-26T03:48:55.000Z</time>
      </trkpt>
      <trkpt lat="45.1977" lon="5.73065">
        <ele>243.80000305176</ele>
        <time>2021-08-26T03:48:57.000Z</time>
      </trkpt>
      <trkpt lat="45.19765" lon="5.73061">
        <ele>244.60000610352</ele>
        <time>2021-08-26T03:49:00.000Z</time>
      </trkpt>
      <trkpt lat="45.19763" lon="5.73059">
        <ele>244.60000610352</ele>
        <time>2021-08-26T03:49:01.000Z</time>
      </trkpt>
      <trkpt lat="45.19761" lon="5.73057">
        <ele>244.80000305176</ele>
        <time>2021-08-26T03:49:02.000Z</time>
      </trkpt>
      <trkpt lat="45.19759" lon="5.73056">
        <ele>245.19999694824</ele>
        <time>2021-08-26T03:49:03.000Z</time>
      </trkpt>
      <trkpt lat="45.19755" lon="5.73053">
        <ele>245.60000610352</ele>
        <time>2021-08-26T03:49:05.000Z</time>
      </trkpt>
      <trkpt lat="45.19753" lon="5.73052">
        <ele>246.39999389648</ele>
        <time>2021-08-26T03:49:06.000Z</time>
      </trkpt>
      <trkpt lat="45.19751" lon="5.73049">
        <ele>246.60000610352</ele>
        <time>2021-08-26T03:49:08.000Z</time>
      </trkpt>
      <trkpt lat="45.19749" lon="5.73045">
        <ele>247.19999694824</ele>
        <time>2021-08-26T03:49:10.000Z</time>
      </trkpt>
      <trkpt lat="45.1975" lon="5.73039">
        <ele>247.80000305176</ele>
        <time>2021-08-26T03:49:12.000Z</time>
      </trkpt>
      <trkpt lat="45.19753" lon="5.73037">
        <ele>247.80000305176</ele>
        <time>2021-08-26T03:49:14.000Z</time>
      </trkpt>
      <trkpt lat="45.19755" lon="5.73037">
        <ele>248</ele>
        <time>2021-08-26T03:49:16.000Z</time>
      </trkpt>
      <trkpt lat="45.19758" lon="5.73039">
        <ele>248.60000610352</ele>
        <time>2021-08-26T03:49:19.000Z</time>
      </trkpt>
      <trkpt lat="45.1976" lon="5.73039">
        <ele>248.80000305176</ele>
        <time>2021-08-26T03:49:20.000Z</time>
      </trkpt>
      <trkpt lat="45.19767" lon="5.73041">
        <ele>249.80000305176</ele>
        <time>2021-08-26T03:49:24.000Z</time>
      </trkpt>
      <trkpt lat="45.19769" lon="5.73041">
        <ele>250</ele>
        <time>2021-08-26T03:49:25.000Z</time>
      </trkpt>
      <trkpt lat="45.19777" lon="5.73043">
        <ele>251</ele>
        <time>2021-08-26T03:49:30.000Z</time>
      </trkpt>
      <trkpt lat="45.19778" lon="5.73043">
        <ele>251.19999694824</ele>
        <time>2021-08-26T03:49:31.000Z</time>
      </trkpt>
      <trkpt lat="45.19784" lon="5.73045">
        <ele>252.80000305176</ele>
        <time>2021-08-26T03:49:35.000Z</time>
      </trkpt>
      <trkpt lat="45.19787" lon="5.73046">
        <ele>253</ele>
        <time>2021-08-26T03:49:37.000Z</time>
      </trkpt>
      <trkpt lat="45.19793" lon="5.73045">
        <ele>254.19999694824</ele>
        <time>2021-08-26T03:49:40.000Z</time>
      </trkpt>
      <trkpt lat="45.19793" lon="5.73043">
        <ele>254.80000305176</ele>
        <time>2021-08-26T03:49:42.000Z</time>
      </trkpt>
      <trkpt lat="45.19792" lon="5.7304">
        <ele>255.39999389648</ele>
        <time>2021-08-26T03:49:44.000Z</time>
      </trkpt>
      <trkpt lat="45.19785" lon="5.73033">
        <ele>255.39999389648</ele>
        <time>2021-08-26T03:49:47.000Z</time>
      </trkpt>
      <trkpt lat="45.1978" lon="5.73029">
        <ele>256.39999389648</ele>
        <time>2021-08-26T03:49:49.000Z</time>
      </trkpt>
      <trkpt lat="45.19772" lon="5.73026">
        <ele>257</ele>
        <time>2021-08-26T03:49:52.000Z</time>
      </trkpt>
      <trkpt lat="45.19768" lon="5.73026">
        <ele>257.79998779297</ele>
        <time>2021-08-26T03:49:54.000Z</time>
      </trkpt>
      <trkpt lat="45.19762" lon="5.73023">
        <ele>258.60000610352</ele>
        <time>2021-08-26T03:49:57.000Z</time>
      </trkpt>
      <trkpt lat="45.1976" lon="5.7302">
        <ele>259.20001220703</ele>
        <time>2021-08-26T03:49:58.000Z</time>
      </trkpt>
      <trkpt lat="45.19759" lon="5.73015">
        <ele>259.79998779297</ele>
        <time>2021-08-26T03:50:00.000Z</time>
      </trkpt>
      <trkpt lat="45.1976" lon="5.73014">
        <ele>260.20001220703</ele>
        <time>2021-08-26T03:50:01.000Z</time>
      </trkpt>
      <trkpt lat="45.19761" lon="5.73014">
        <ele>260.39999389648</ele>
        <time>2021-08-26T03:50:02.000Z</time>
      </trkpt>
      <trkpt lat="45.19769" lon="5.73017">
        <ele>260.79998779297</ele>
        <time>2021-08-26T03:50:05.000Z</time>
      </trkpt>
      <trkpt lat="45.19771" lon="5.73018">
        <ele>261</ele>
        <time>2021-08-26T03:50:06.000Z</time>
      </trkpt>
      <trkpt lat="45.19772" lon="5.7302">
        <ele>261.39999389648</ele>
        <time>2021-08-26T03:50:07.000Z</time>
      </trkpt>
      <trkpt lat="45.19773" lon="5.73021">
        <ele>261.39999389648</ele>
        <time>2021-08-26T03:50:08.000Z</time>
      </trkpt>
      <trkpt lat="45.19774" lon="5.73023">
        <ele>262</ele>
        <time>2021-08-26T03:50:10.000Z</time>
      </trkpt>
      <trkpt lat="45.19776" lon="5.73023">
        <ele>262.20001220703</ele>
        <time>2021-08-26T03:50:11.000Z</time>
      </trkpt>
      <trkpt lat="45.19782" lon="5.73025">
        <ele>262.79998779297</ele>
        <time>2021-08-26T03:50:15.000Z</time>
      </trkpt>
      <trkpt lat="45.19784" lon="5.73025">
        <ele>263.39999389648</ele>
        <time>2021-08-26T03:50:17.000Z</time>
      </trkpt>
      <trkpt lat="45.19789" lon="5.73023">
        <ele>263.79998779297</ele>
        <time>2021-08-26T03:50:20.000Z</time>
      </trkpt>
      <trkpt lat="45.1979" lon="5.73021">
        <ele>264.60000610352</ele>
        <time>2021-08-26T03:50:22.000Z</time>
      </trkpt>
      <trkpt lat="45.19789" lon="5.73019">
        <ele>264.79998779297</ele>
        <time>2021-08-26T03:50:23.000Z</time>
      </trkpt>
      <trkpt lat="45.19788" lon="5.73017">
        <ele>265.20001220703</ele>
        <time>2021-08-26T03:50:25.000Z</time>
      </trkpt>
      <trkpt lat="45.19788" lon="5.73013">
        <ele>265.39999389648</ele>
        <time>2021-08-26T03:50:28.000Z</time>
      </trkpt>
      <trkpt lat="45.19788" lon="5.73009">
        <ele>266</ele>
        <time>2021-08-26T03:50:31.000Z</time>
      </trkpt>
      <trkpt lat="45.19789" lon="5.73008">
        <ele>266.20001220703</ele>
        <time>2021-08-26T03:50:32.000Z</time>
      </trkpt>
      <trkpt lat="45.19789" lon="5.73006">
        <ele>266.20001220703</ele>
        <time>2021-08-26T03:50:33.000Z</time>
      </trkpt>
      <trkpt lat="45.19787" lon="5.73003">
        <ele>266.79998779297</ele>
        <time>2021-08-26T03:50:35.000Z</time>
      </trkpt>
      <trkpt lat="45.19785" lon="5.73001">
        <ele>267</ele>
        <time>2021-08-26T03:50:36.000Z</time>
      </trkpt>
      <trkpt lat="45.19782" lon="5.72998">
        <ele>267.20001220703</ele>
        <time>2021-08-26T03:50:38.000Z</time>
      </trkpt>
      <trkpt lat="45.19781" lon="5.72997">
        <ele>267.39999389648</ele>
        <time>2021-08-26T03:50:39.000Z</time>
      </trkpt>
      <trkpt lat="45.19776" lon="5.7299">
        <ele>269</ele>
        <time>2021-08-26T03:50:43.000Z</time>
      </trkpt>
      <trkpt lat="45.19776" lon="5.72988">
        <ele>269.39999389648</ele>
        <time>2021-08-26T03:50:44.000Z</time>
      </trkpt>
      <trkpt lat="45.1977" lon="5.72981">
        <ele>270.20001220703</ele>
        <time>2021-08-26T03:50:47.000Z</time>
      </trkpt>
      <trkpt lat="45.19766" lon="5.72979">
        <ele>270.39999389648</ele>
        <time>2021-08-26T03:50:48.000Z</time>
      </trkpt>
      <trkpt lat="45.19759" lon="5.72968">
        <ele>271.60000610352</ele>
        <time>2021-08-26T03:50:52.000Z</time>
      </trkpt>
      <trkpt lat="45.19758" lon="5.72966">
        <ele>271.79998779297</ele>
        <time>2021-08-26T03:50:53.000Z</time>
      </trkpt>
      <trkpt lat="45.19756" lon="5.7296">
        <ele>272.79998779297</ele>
        <time>2021-08-26T03:50:55.000Z</time>
      </trkpt>
      <trkpt lat="45.19754" lon="5.72954">
        <ele>273.20001220703</ele>
        <time>2021-08-26T03:50:57.000Z</time>
      </trkpt>
      <trkpt lat="45.19751" lon="5.72947">
        <ele>273.60000610352</ele>
        <time>2021-08-26T03:50:59.000Z</time>
      </trkpt>
      <trkpt lat="45.1975" lon="5.72945">
        <ele>274</ele>
        <time>2021-08-26T03:51:00.000Z</time>
      </trkpt>
      <trkpt lat="45.19748" lon="5.72939">
        <ele>274.39999389648</ele>
        <time>2021-08-26T03:51:02.000Z</time>
      </trkpt>
      <trkpt lat="45.19743" lon="5.72932">
        <ele>275.20001220703</ele>
        <time>2021-08-26T03:51:04.000Z</time>
      </trkpt>
      <trkpt lat="45.19741" lon="5.72929">
        <ele>275.39999389648</ele>
        <time>2021-08-26T03:51:05.000Z</time>
      </trkpt>
      <trkpt lat="45.1974" lon="5.72925">
        <ele>275.79998779297</ele>
        <time>2021-08-26T03:51:07.000Z</time>
      </trkpt>
      <trkpt lat="45.19739" lon="5.72923">
        <ele>276.79998779297</ele>
        <time>2021-08-26T03:51:08.000Z</time>
      </trkpt>
      <trkpt lat="45.19737" lon="5.7292">
        <ele>277</ele>
        <time>2021-08-26T03:51:10.000Z</time>
      </trkpt>
      <trkpt lat="45.19734" lon="5.72915">
        <ele>277.39999389648</ele>
        <time>2021-08-26T03:51:12.000Z</time>
      </trkpt>
      <trkpt lat="45.19732" lon="5.7291">
        <ele>277.79998779297</ele>
        <time>2021-08-26T03:51:14.000Z</time>
      </trkpt>
      <trkpt lat="45.19723" lon="5.72902">
        <ele>278.79998779297</ele>
        <time>2021-08-26T03:51:18.000Z</time>
      </trkpt>
      <trkpt lat="45.19722" lon="5.72899">
        <ele>278.79998779297</ele>
        <time>2021-08-26T03:51:19.000Z</time>
      </trkpt>
      <trkpt lat="45.19717" lon="5.72893">
        <ele>279.60000610352</ele>
        <time>2021-08-26T03:51:22.000Z</time>
      </trkpt>
      <trkpt lat="45.19715" lon="5.7289">
        <ele>280</ele>
        <time>2021-08-26T03:51:23.000Z</time>
      </trkpt>
      <trkpt lat="45.19711" lon="5.72886">
        <ele>280.60000610352</ele>
        <time>2021-08-26T03:51:25.000Z</time>
      </trkpt>
      <trkpt lat="45.19707" lon="5.72881">
        <ele>281</ele>
        <time>2021-08-26T03:51:28.000Z</time>
      </trkpt>
      <trkpt lat="45.19706" lon="5.72881">
        <ele>281.39999389648</ele>
        <time>2021-08-26T03:51:29.000Z</time>
      </trkpt>
      <trkpt lat="45.19698" lon="5.72874">
        <ele>281.79998779297</ele>
        <time>2021-08-26T03:51:32.000Z</time>
      </trkpt>
      <trkpt lat="45.19693" lon="5.72869">
        <ele>282.60000610352</ele>
        <time>2021-08-26T03:51:35.000Z</time>
      </trkpt>
      <trkpt lat="45.19692" lon="5.72867">
        <ele>282.79998779297</ele>
        <time>2021-08-26T03:51:36.000Z</time>
      </trkpt>
      <trkpt lat="45.19691" lon="5.72863">
        <ele>283.39999389648</ele>
        <time>2021-08-26T03:51:38.000Z</time>
      </trkpt>
      <trkpt lat="45.19695" lon="5.72864">
        <ele>284</ele>
        <time>2021-08-26T03:51:40.000Z</time>
      </trkpt>
      <trkpt lat="45.19698" lon="5.72864">
        <ele>284.79998779297</ele>
        <time>2021-08-26T03:51:42.000Z</time>
      </trkpt>
      <trkpt lat="45.19704" lon="5.72867">
        <ele>285</ele>
        <time>2021-08-26T03:51:45.000Z</time>
      </trkpt>
      <trkpt lat="45.19711" lon="5.72874">
        <ele>286.20001220703</ele>
        <time>2021-08-26T03:51:48.000Z</time>
      </trkpt>
      <trkpt lat="45.19715" lon="5.72878">
        <ele>286.79998779297</ele>
        <time>2021-08-26T03:51:51.000Z</time>
      </trkpt>
      <trkpt lat="45.19717" lon="5.72878">
        <ele>287</ele>
        <time>2021-08-26T03:51:52.000Z</time>
      </trkpt>
      <trkpt lat="45.19718" lon="5.72878">
        <ele>287.79998779297</ele>
        <time>2021-08-26T03:51:53.000Z</time>
      </trkpt>
      <trkpt lat="45.1972" lon="5.72879">
        <ele>287.79998779297</ele>
        <time>2021-08-26T03:51:54.000Z</time>
      </trkpt>
      <trkpt lat="45.19727" lon="5.72885">
        <ele>288.79998779297</ele>
        <time>2021-08-26T03:51:57.000Z</time>
      </trkpt>
      <trkpt lat="45.19729" lon="5.72886">
        <ele>289</ele>
        <time>2021-08-26T03:51:58.000Z</time>
      </trkpt>
      <trkpt lat="45.19733" lon="5.72889">
        <ele>289.79998779297</ele>
        <time>2021-08-26T03:52:00.000Z</time>
      </trkpt>
      <trkpt lat="45.19737" lon="5.72892">
        <ele>290.20001220703</ele>
        <time>2021-08-26T03:52:02.000Z</time>
      </trkpt>
      <trkpt lat="45.19744" lon="5.72895">
        <ele>291.20001220703</ele>
        <time>2021-08-26T03:52:05.000Z</time>
      </trkpt>
      <trkpt lat="45.19746" lon="5.72896">
        <ele>291.79998779297</ele>
        <time>2021-08-26T03:52:06.000Z</time>
      </trkpt>
      <trkpt lat="45.19752" lon="5.72899">
        <ele>292.39999389648</ele>
        <time>2021-08-26T03:52:09.000Z</time>
      </trkpt>
      <trkpt lat="45.19754" lon="5.729">
        <ele>292.79998779297</ele>
        <time>2021-08-26T03:52:10.000Z</time>
      </trkpt>
      <trkpt lat="45.19763" lon="5.72905">
        <ele>293.60000610352</ele>
        <time>2021-08-26T03:52:14.000Z</time>
      </trkpt>
      <trkpt lat="45.19765" lon="5.72905">
        <ele>294</ele>
        <time>2021-08-26T03:52:15.000Z</time>
      </trkpt>
      <trkpt lat="45.19769" lon="5.72905">
        <ele>295</ele>
        <time>2021-08-26T03:52:19.000Z</time>
      </trkpt>
      <trkpt lat="45.19771" lon="5.72907">
        <ele>295.39999389648</ele>
        <time>2021-08-26T03:52:20.000Z</time>
      </trkpt>
      <trkpt lat="45.19773" lon="5.72908">
        <ele>295.39999389648</ele>
        <time>2021-08-26T03:52:21.000Z</time>
      </trkpt>
      <trkpt lat="45.19776" lon="5.7291">
        <ele>295.79998779297</ele>
        <time>2021-08-26T03:52:23.000Z</time>
      </trkpt>
      <trkpt lat="45.19781" lon="5.72914">
        <ele>296.60000610352</ele>
        <time>2021-08-26T03:52:26.000Z</time>
      </trkpt>
      <trkpt lat="45.19784" lon="5.72916">
        <ele>297</ele>
        <time>2021-08-26T03:52:28.000Z</time>
      </trkpt>
      <trkpt lat="45.19786" lon="5.72916">
        <ele>297</ele>
        <time>2021-08-26T03:52:29.000Z</time>
      </trkpt>
      <trkpt lat="45.19789" lon="5.72915">
        <ele>297.79998779297</ele>
        <time>2021-08-26T03:52:31.000Z</time>
      </trkpt>
      <trkpt lat="45.19789" lon="5.72914">
        <ele>298</ele>
        <time>2021-08-26T03:52:32.000Z</time>
      </trkpt>
      <trkpt lat="45.19789" lon="5.72912">
        <ele>298</ele>
        <time>2021-08-26T03:52:33.000Z</time>
      </trkpt>
      <trkpt lat="45.19789" lon="5.7291">
        <ele>298.60000610352</ele>
        <time>2021-08-26T03:52:35.000Z</time>
      </trkpt>
      <trkpt lat="45.19788" lon="5.7291">
        <ele>298.79998779297</ele>
        <time>2021-08-26T03:52:36.000Z</time>
      </trkpt>
      <trkpt lat="45.19788" lon="5.72909">
        <ele>299</ele>
        <time>2021-08-26T03:52:37.000Z</time>
      </trkpt>
      <trkpt lat="45.19784" lon="5.72905">
        <ele>300</ele>
        <time>2021-08-26T03:52:40.000Z</time>
      </trkpt>
      <trkpt lat="45.19777" lon="5.72899">
        <ele>301.20001220703</ele>
        <time>2021-08-26T03:52:44.000Z</time>
      </trkpt>
      <trkpt lat="45.19775" lon="5.72897">
        <ele>301.39999389648</ele>
        <time>2021-08-26T03:52:45.000Z</time>
      </trkpt>
      <trkpt lat="45.19774" lon="5.72895">
        <ele>301.79998779297</ele>
        <time>2021-08-26T03:52:46.000Z</time>
      </trkpt>
      <trkpt lat="45.19774" lon="5.72893">
        <ele>302.60000610352</ele>
        <time>2021-08-26T03:52:47.000Z</time>
      </trkpt>
      <trkpt lat="45.19773" lon="5.72892">
        <ele>302.60000610352</ele>
        <time>2021-08-26T03:52:48.000Z</time>
      </trkpt>
      <trkpt lat="45.19763" lon="5.72882">
        <ele>303.39999389648</ele>
        <time>2021-08-26T03:52:52.000Z</time>
      </trkpt>
      <trkpt lat="45.19761" lon="5.72879">
        <ele>303.60000610352</ele>
        <time>2021-08-26T03:52:53.000Z</time>
      </trkpt>
      <trkpt lat="45.19759" lon="5.72876">
        <ele>304.20001220703</ele>
        <time>2021-08-26T03:52:54.000Z</time>
      </trkpt>
      <trkpt lat="45.19756" lon="5.72873">
        <ele>305</ele>
        <time>2021-08-26T03:52:56.000Z</time>
      </trkpt>
      <trkpt lat="45.19753" lon="5.7287">
        <ele>305.20001220703</ele>
        <time>2021-08-26T03:52:57.000Z</time>
      </trkpt>
      <trkpt lat="45.19751" lon="5.72866">
        <ele>305.20001220703</ele>
        <time>2021-08-26T03:52:58.000Z</time>
      </trkpt>
      <trkpt lat="45.19749" lon="5.72864">
        <ele>306.20001220703</ele>
        <time>2021-08-26T03:52:59.000Z</time>
      </trkpt>
      <trkpt lat="45.19746" lon="5.72862">
        <ele>306.20001220703</ele>
        <time>2021-08-26T03:53:00.000Z</time>
      </trkpt>
      <trkpt lat="45.19744" lon="5.7286">
        <ele>306.20001220703</ele>
        <time>2021-08-26T03:53:01.000Z</time>
      </trkpt>
      <trkpt lat="45.19743" lon="5.72855">
        <ele>307.60000610352</ele>
        <time>2021-08-26T03:53:03.000Z</time>
      </trkpt>
      <trkpt lat="45.19743" lon="5.72852">
        <ele>307.60000610352</ele>
        <time>2021-08-26T03:53:04.000Z</time>
      </trkpt>
      <trkpt lat="45.19743" lon="5.72849">
        <ele>307.79998779297</ele>
        <time>2021-08-26T03:53:05.000Z</time>
      </trkpt>
      <trkpt lat="45.19745" lon="5.72847">
        <ele>308.79998779297</ele>
        <time>2021-08-26T03:53:06.000Z</time>
      </trkpt>
      <trkpt lat="45.19748" lon="5.72846">
        <ele>309.20001220703</ele>
        <time>2021-08-26T03:53:08.000Z</time>
      </trkpt>
      <trkpt lat="45.19749" lon="5.72847">
        <ele>309.20001220703</ele>
        <time>2021-08-26T03:53:09.000Z</time>
      </trkpt>
      <trkpt lat="45.19751" lon="5.72849">
        <ele>309.39999389648</ele>
        <time>2021-08-26T03:53:12.000Z</time>
      </trkpt>
      <trkpt lat="45.19752" lon="5.72849">
        <ele>309.79998779297</ele>
        <time>2021-08-26T03:53:13.000Z</time>
      </trkpt>
      <trkpt lat="45.19754" lon="5.7285">
        <ele>310</ele>
        <time>2021-08-26T03:53:15.000Z</time>
      </trkpt>
      <trkpt lat="45.19757" lon="5.72853">
        <ele>310.39999389648</ele>
        <time>2021-08-26T03:53:17.000Z</time>
      </trkpt>
      <trkpt lat="45.19758" lon="5.72854">
        <ele>311.20001220703</ele>
        <time>2021-08-26T03:53:18.000Z</time>
      </trkpt>
      <trkpt lat="45.1976" lon="5.72855">
        <ele>311.20001220703</ele>
        <time>2021-08-26T03:53:19.000Z</time>
      </trkpt>
      <trkpt lat="45.19767" lon="5.7286">
        <ele>312.20001220703</ele>
        <time>2021-08-26T03:53:24.000Z</time>
      </trkpt>
      <trkpt lat="45.19768" lon="5.72862">
        <ele>312.60000610352</ele>
        <time>2021-08-26T03:53:25.000Z</time>
      </trkpt>
      <trkpt lat="45.19772" lon="5.72864">
        <ele>313.20001220703</ele>
        <time>2021-08-26T03:53:28.000Z</time>
      </trkpt>
      <trkpt lat="45.19773" lon="5.72865">
        <ele>313.60000610352</ele>
        <time>2021-08-26T03:53:29.000Z</time>
      </trkpt>
      <trkpt lat="45.19775" lon="5.72866">
        <ele>313.60000610352</ele>
        <time>2021-08-26T03:53:30.000Z</time>
      </trkpt>
      <trkpt lat="45.19781" lon="5.72869">
        <ele>314.20001220703</ele>
        <time>2021-08-26T03:53:33.000Z</time>
      </trkpt>
      <trkpt lat="45.19783" lon="5.7287">
        <ele>314.79998779297</ele>
        <time>2021-08-26T03:53:34.000Z</time>
      </trkpt>
      <trkpt lat="45.19784" lon="5.72871">
        <ele>314.79998779297</ele>
        <time>2021-08-26T03:53:35.000Z</time>
      </trkpt>
      <trkpt lat="45.19786" lon="5.72873">
        <ele>314.79998779297</ele>
        <time>2021-08-26T03:53:36.000Z</time>
      </trkpt>
      <trkpt lat="45.19788" lon="5.72874">
        <ele>315.60000610352</ele>
        <time>2021-08-26T03:53:37.000Z</time>
      </trkpt>
      <trkpt lat="45.19791" lon="5.72877">
        <ele>315.79998779297</ele>
        <time>2021-08-26T03:53:40.000Z</time>
      </trkpt>
      <trkpt lat="45.19793" lon="5.72877">
        <ele>316.60000610352</ele>
        <time>2021-08-26T03:53:41.000Z</time>
      </trkpt>
      <trkpt lat="45.19794" lon="5.72878">
        <ele>317</ele>
        <time>2021-08-26T03:53:42.000Z</time>
      </trkpt>
      <trkpt lat="45.19795" lon="5.72879">
        <ele>317.79998779297</ele>
        <time>2021-08-26T03:53:44.000Z</time>
      </trkpt>
      <trkpt lat="45.1979" lon="5.72874">
        <ele>318.60000610352</ele>
        <time>2021-08-26T03:53:48.000Z</time>
      </trkpt>
      <trkpt lat="45.19789" lon="5.72873">
        <ele>318.79998779297</ele>
        <time>2021-08-26T03:53:49.000Z</time>
      </trkpt>
      <trkpt lat="45.19788" lon="5.72872">
        <ele>319</ele>
        <time>2021-08-26T03:53:50.000Z</time>
      </trkpt>
      <trkpt lat="45.19787" lon="5.7287">
        <ele>319.60000610352</ele>
        <time>2021-08-26T03:53:52.000Z</time>
      </trkpt>
      <trkpt lat="45.19784" lon="5.72865">
        <ele>320.79998779297</ele>
        <time>2021-08-26T03:53:54.000Z</time>
      </trkpt>
      <trkpt lat="45.19781" lon="5.72864">
        <ele>321.20001220703</ele>
        <time>2021-08-26T03:53:56.000Z</time>
      </trkpt>
      <trkpt lat="45.1978" lon="5.72863">
        <ele>321.20001220703</ele>
        <time>2021-08-26T03:53:57.000Z</time>
      </trkpt>
      <trkpt lat="45.1978" lon="5.72861">
        <ele>322</ele>
        <time>2021-08-26T03:53:59.000Z</time>
      </trkpt>
      <trkpt lat="45.1978" lon="5.72859">
        <ele>322.20001220703</ele>
        <time>2021-08-26T03:54:00.000Z</time>
      </trkpt>
      <trkpt lat="45.1978" lon="5.72857">
        <ele>322.20001220703</ele>
        <time>2021-08-26T03:54:01.000Z</time>
      </trkpt>
      <trkpt lat="45.19779" lon="5.72852">
        <ele>323.20001220703</ele>
        <time>2021-08-26T03:54:03.000Z</time>
      </trkpt>
      <trkpt lat="45.19776" lon="5.72848">
        <ele>323.60000610352</ele>
        <time>2021-08-26T03:54:04.000Z</time>
      </trkpt>
      <trkpt lat="45.19772" lon="5.72846">
        <ele>324</ele>
        <time>2021-08-26T03:54:05.000Z</time>
      </trkpt>
      <trkpt lat="45.1977" lon="5.72843">
        <ele>324.20001220703</ele>
        <time>2021-08-26T03:54:06.000Z</time>
      </trkpt>
      <trkpt lat="45.19766" lon="5.72838">
        <ele>325</ele>
        <time>2021-08-26T03:54:08.000Z</time>
      </trkpt>
      <trkpt lat="45.19764" lon="5.72835">
        <ele>325.39999389648</ele>
        <time>2021-08-26T03:54:09.000Z</time>
      </trkpt>
      <trkpt lat="45.19758" lon="5.72828">
        <ele>326</ele>
        <time>2021-08-26T03:54:12.000Z</time>
      </trkpt>
      <trkpt lat="45.19756" lon="5.72822">
        <ele>326.20001220703</ele>
        <time>2021-08-26T03:54:14.000Z</time>
      </trkpt>
      <trkpt lat="45.19755" lon="5.72819">
        <ele>326.60000610352</ele>
        <time>2021-08-26T03:54:15.000Z</time>
      </trkpt>
      <trkpt lat="45.1976" lon="5.72814">
        <ele>327</ele>
        <time>2021-08-26T03:54:17.000Z</time>
      </trkpt>
      <trkpt lat="45.19763" lon="5.72815">
        <ele>327.20001220703</ele>
        <time>2021-08-26T03:54:19.000Z</time>
      </trkpt>
      <trkpt lat="45.19765" lon="5.72816">
        <ele>328</ele>
        <time>2021-08-26T03:54:20.000Z</time>
      </trkpt>
      <trkpt lat="45.19766" lon="5.72817">
        <ele>328</ele>
        <time>2021-08-26T03:54:21.000Z</time>
      </trkpt>
      <trkpt lat="45.1977" lon="5.72819">
        <ele>328.79998779297</ele>
        <time>2021-08-26T03:54:25.000Z</time>
      </trkpt>
      <trkpt lat="45.19771" lon="5.7282">
        <ele>329</ele>
        <time>2021-08-26T03:54:26.000Z</time>
      </trkpt>
      <trkpt lat="45.19772" lon="5.72821">
        <ele>329.20001220703</ele>
        <time>2021-08-26T03:54:27.000Z</time>
      </trkpt>
      <trkpt lat="45.19778" lon="5.72826">
        <ele>330.79998779297</ele>
        <time>2021-08-26T03:54:32.000Z</time>
      </trkpt>
      <trkpt lat="45.19781" lon="5.7283">
        <ele>331</ele>
        <time>2021-08-26T03:54:35.000Z</time>
      </trkpt>
      <trkpt lat="45.19785" lon="5.72832">
        <ele>331.79998779297</ele>
        <time>2021-08-26T03:54:38.000Z</time>
      </trkpt>
      <trkpt lat="45.19787" lon="5.72833">
        <ele>332.20001220703</ele>
        <time>2021-08-26T03:54:40.000Z</time>
      </trkpt>
      <trkpt lat="45.19791" lon="5.72837">
        <ele>333</ele>
        <time>2021-08-26T03:54:43.000Z</time>
      </trkpt>
      <trkpt lat="45.19794" lon="5.7284">
        <ele>333.20001220703</ele>
        <time>2021-08-26T03:54:45.000Z</time>
      </trkpt>
      <trkpt lat="45.19797" lon="5.72841">
        <ele>334</ele>
        <time>2021-08-26T03:54:47.000Z</time>
      </trkpt>
      <trkpt lat="45.19805" lon="5.72845">
        <ele>335.39999389648</ele>
        <time>2021-08-26T03:54:50.000Z</time>
      </trkpt>
      <trkpt lat="45.19808" lon="5.72846">
        <ele>336</ele>
        <time>2021-08-26T03:54:52.000Z</time>
      </trkpt>
      <trkpt lat="45.1981" lon="5.72846">
        <ele>336.39999389648</ele>
        <time>2021-08-26T03:54:53.000Z</time>
      </trkpt>
      <trkpt lat="45.19809" lon="5.72843">
        <ele>336.79998779297</ele>
        <time>2021-08-26T03:54:55.000Z</time>
      </trkpt>
      <trkpt lat="45.19806" lon="5.72838">
        <ele>337.39999389648</ele>
        <time>2021-08-26T03:54:58.000Z</time>
      </trkpt>
      <trkpt lat="45.19806" lon="5.72837">
        <ele>337.39999389648</ele>
        <time>2021-08-26T03:54:59.000Z</time>
      </trkpt>
      <trkpt lat="45.19805" lon="5.72835">
        <ele>337.39999389648</ele>
        <time>2021-08-26T03:55:00.000Z</time>
      </trkpt>
      <trkpt lat="45.19803" lon="5.72833">
        <ele>337.39999389648</ele>
        <time>2021-08-26T03:55:01.000Z</time>
      </trkpt>
      <trkpt lat="45.19795" lon="5.72828">
        <ele>338.79998779297</ele>
        <time>2021-08-26T03:55:04.000Z</time>
      </trkpt>
      <trkpt lat="45.19792" lon="5.72825">
        <ele>338.79998779297</ele>
        <time>2021-08-26T03:55:05.000Z</time>
      </trkpt>
      <trkpt lat="45.19792" lon="5.72818">
        <ele>339.60000610352</ele>
        <time>2021-08-26T03:55:07.000Z</time>
      </trkpt>
      <trkpt lat="45.19796" lon="5.72817">
        <ele>339.79998779297</ele>
        <time>2021-08-26T03:55:09.000Z</time>
      </trkpt>
      <trkpt lat="45.19806" lon="5.72821">
        <ele>340.39999389648</ele>
        <time>2021-08-26T03:55:14.000Z</time>
      </trkpt>
      <trkpt lat="45.1981" lon="5.72824">
        <ele>340.79998779297</ele>
        <time>2021-08-26T03:55:17.000Z</time>
      </trkpt>
      <trkpt lat="45.19816" lon="5.72827">
        <ele>341.60000610352</ele>
        <time>2021-08-26T03:55:21.000Z</time>
      </trkpt>
      <trkpt lat="45.19818" lon="5.72829">
        <ele>342.39999389648</ele>
        <time>2021-08-26T03:55:23.000Z</time>
      </trkpt>
      <trkpt lat="45.19822" lon="5.7283">
        <ele>342.60000610352</ele>
        <time>2021-08-26T03:55:25.000Z</time>
      </trkpt>
      <trkpt lat="45.19826" lon="5.72831">
        <ele>343.20001220703</ele>
        <time>2021-08-26T03:55:27.000Z</time>
      </trkpt>
      <trkpt lat="45.19828" lon="5.7283">
        <ele>343.39999389648</ele>
        <time>2021-08-26T03:55:28.000Z</time>
      </trkpt>
      <trkpt lat="45.19836" lon="5.72829">
        <ele>344.60000610352</ele>
        <time>2021-08-26T03:55:32.000Z</time>
      </trkpt>
      <trkpt lat="45.19836" lon="5.72829">
        <ele>344.60000610352</ele>
        <time>2021-08-26T03:55:33.000Z</time>
      </trkpt>
      <trkpt lat="45.19835" lon="5.72829">
        <ele>344.79998779297</ele>
        <time>2021-08-26T03:55:35.000Z</time>
      </trkpt>
      <trkpt lat="45.19832" lon="5.72827">
        <ele>345.39999389648</ele>
        <time>2021-08-26T03:55:37.000Z</time>
      </trkpt>
      <trkpt lat="45.19831" lon="5.72826">
        <ele>345.60000610352</ele>
        <time>2021-08-26T03:55:38.000Z</time>
      </trkpt>
      <trkpt lat="45.19821" lon="5.72818">
        <ele>347.20001220703</ele>
        <time>2021-08-26T03:55:43.000Z</time>
      </trkpt>
      <trkpt lat="45.19819" lon="5.72816">
        <ele>347.20001220703</ele>
        <time>2021-08-26T03:55:44.000Z</time>
      </trkpt>
      <trkpt lat="45.19819" lon="5.72813">
        <ele>347.60000610352</ele>
        <time>2021-08-26T03:55:45.000Z</time>
      </trkpt>
      <trkpt lat="45.1982" lon="5.72812">
        <ele>348.20001220703</ele>
        <time>2021-08-26T03:55:46.000Z</time>
      </trkpt>
      <trkpt lat="45.19821" lon="5.72811">
        <ele>348.20001220703</ele>
        <time>2021-08-26T03:55:47.000Z</time>
      </trkpt>
      <trkpt lat="45.19822" lon="5.72811">
        <ele>348.20001220703</ele>
        <time>2021-08-26T03:55:48.000Z</time>
      </trkpt>
      <trkpt lat="45.1983" lon="5.72816">
        <ele>349.39999389648</ele>
        <time>2021-08-26T03:55:52.000Z</time>
      </trkpt>
      <trkpt lat="45.1984" lon="5.72822">
        <ele>350.39999389648</ele>
        <time>2021-08-26T03:55:56.000Z</time>
      </trkpt>
      <trkpt lat="45.19843" lon="5.72823">
        <ele>351</ele>
        <time>2021-08-26T03:55:57.000Z</time>
      </trkpt>
      <trkpt lat="45.19844" lon="5.72823">
        <ele>351.39999389648</ele>
        <time>2021-08-26T03:55:58.000Z</time>
      </trkpt>
      <trkpt lat="45.19844" lon="5.72822">
        <ele>351.79998779297</ele>
        <time>2021-08-26T03:56:00.000Z</time>
      </trkpt>
      <trkpt lat="45.19842" lon="5.72821">
        <ele>351.79998779297</ele>
        <time>2021-08-26T03:56:01.000Z</time>
      </trkpt>
      <trkpt lat="45.19839" lon="5.72819">
        <ele>352.20001220703</ele>
        <time>2021-08-26T03:56:02.000Z</time>
      </trkpt>
      <trkpt lat="45.19833" lon="5.72813">
        <ele>353.20001220703</ele>
        <time>2021-08-26T03:56:05.000Z</time>
      </trkpt>
      <trkpt lat="45.19831" lon="5.72812">
        <ele>354.39999389648</ele>
        <time>2021-08-26T03:56:06.000Z</time>
      </trkpt>
      <trkpt lat="45.19828" lon="5.72808">
        <ele>354.79998779297</ele>
        <time>2021-08-26T03:56:08.000Z</time>
      </trkpt>
      <trkpt lat="45.19824" lon="5.72804">
        <ele>355.39999389648</ele>
        <time>2021-08-26T03:56:10.000Z</time>
      </trkpt>
      <trkpt lat="45.1982" lon="5.728">
        <ele>355.39999389648</ele>
        <time>2021-08-26T03:56:13.000Z</time>
      </trkpt>
      <trkpt lat="45.19816" lon="5.72795">
        <ele>356.39999389648</ele>
        <time>2021-08-26T03:56:16.000Z</time>
      </trkpt>
      <trkpt lat="45.19811" lon="5.72791">
        <ele>357</ele>
        <time>2021-08-26T03:56:19.000Z</time>
      </trkpt>
      <trkpt lat="45.1981" lon="5.72789">
        <ele>357.20001220703</ele>
        <time>2021-08-26T03:56:20.000Z</time>
      </trkpt>
      <trkpt lat="45.19804" lon="5.72785">
        <ele>357.79998779297</ele>
        <time>2021-08-26T03:56:23.000Z</time>
      </trkpt>
      <trkpt lat="45.198" lon="5.7278">
        <ele>358.39999389648</ele>
        <time>2021-08-26T03:56:26.000Z</time>
      </trkpt>
      <trkpt lat="45.198" lon="5.72778">
        <ele>358.60000610352</ele>
        <time>2021-08-26T03:56:27.000Z</time>
      </trkpt>
      <trkpt lat="45.19801" lon="5.72777">
        <ele>358.79998779297</ele>
        <time>2021-08-26T03:56:28.000Z</time>
      </trkpt>
      <trkpt lat="45.19803" lon="5.72776">
        <ele>358.79998779297</ele>
        <time>2021-08-26T03:56:29.000Z</time>
      </trkpt>
      <trkpt lat="45.19806" lon="5.72777">
        <ele>359.39999389648</ele>
        <time>2021-08-26T03:56:31.000Z</time>
      </trkpt>
      <trkpt lat="45.19809" lon="5.7278">
        <ele>359.60000610352</ele>
        <time>2021-08-26T03:56:33.000Z</time>
      </trkpt>
      <trkpt lat="45.19811" lon="5.72781">
        <ele>359.79998779297</ele>
        <time>2021-08-26T03:56:34.000Z</time>
      </trkpt>
      <trkpt lat="45.19813" lon="5.72782">
        <ele>359.79998779297</ele>
        <time>2021-08-26T03:56:35.000Z</time>
      </trkpt>
      <trkpt lat="45.1982" lon="5.72787">
        <ele>361</ele>
        <time>2021-08-26T03:56:39.000Z</time>
      </trkpt>
      <trkpt lat="45.19821" lon="5.72788">
        <ele>361.20001220703</ele>
        <time>2021-08-26T03:56:40.000Z</time>
      </trkpt>
      <trkpt lat="45.19828" lon="5.72789">
        <ele>362.39999389648</ele>
        <time>2021-08-26T03:56:43.000Z</time>
      </trkpt>
      <trkpt lat="45.19835" lon="5.72792">
        <ele>362.60000610352</ele>
        <time>2021-08-26T03:56:46.000Z</time>
      </trkpt>
      <trkpt lat="45.19839" lon="5.72794">
        <ele>363.39999389648</ele>
        <time>2021-08-26T03:56:48.000Z</time>
      </trkpt>
      <trkpt lat="45.19847" lon="5.72797">
        <ele>364.39999389648</ele>
        <time>2021-08-26T03:56:52.000Z</time>
      </trkpt>
      <trkpt lat="45.19848" lon="5.72797">
        <ele>364.60000610352</ele>
        <time>2021-08-26T03:56:53.000Z</time>
      </trkpt>
      <trkpt lat="45.19845" lon="5.72795">
        <ele>365.60000610352</ele>
        <time>2021-08-26T03:56:56.000Z</time>
      </trkpt>
      <trkpt lat="45.19843" lon="5.72794">
        <ele>365.60000610352</ele>
        <time>2021-08-26T03:56:57.000Z</time>
      </trkpt>
      <trkpt lat="45.19839" lon="5.7279">
        <ele>366.60000610352</ele>
        <time>2021-08-26T03:57:00.000Z</time>
      </trkpt>
      <trkpt lat="45.19832" lon="5.72784">
        <ele>367.79998779297</ele>
        <time>2021-08-26T03:57:04.000Z</time>
      </trkpt>
      <trkpt lat="45.1983" lon="5.72782">
        <ele>367.79998779297</ele>
        <time>2021-08-26T03:57:05.000Z</time>
      </trkpt>
      <trkpt lat="45.19828" lon="5.72779">
        <ele>368.39999389648</ele>
        <time>2021-08-26T03:57:07.000Z</time>
      </trkpt>
      <trkpt lat="45.19826" lon="5.72777">
        <ele>369</ele>
        <time>2021-08-26T03:57:08.000Z</time>
      </trkpt>
      <trkpt lat="45.19821" lon="5.7277">
        <ele>369.60000610352</ele>
        <time>2021-08-26T03:57:11.000Z</time>
      </trkpt>
      <trkpt lat="45.1982" lon="5.72768">
        <ele>370</ele>
        <time>2021-08-26T03:57:13.000Z</time>
      </trkpt>
      <trkpt lat="45.19816" lon="5.72759">
        <ele>371</ele>
        <time>2021-08-26T03:57:17.000Z</time>
      </trkpt>
      <trkpt lat="45.19815" lon="5.72757">
        <ele>371.39999389648</ele>
        <time>2021-08-26T03:57:18.000Z</time>
      </trkpt>
      <trkpt lat="45.19811" lon="5.72747">
        <ele>372.79998779297</ele>
        <time>2021-08-26T03:57:23.000Z</time>
      </trkpt>
      <trkpt lat="45.1981" lon="5.72745">
        <ele>373.20001220703</ele>
        <time>2021-08-26T03:57:24.000Z</time>
      </trkpt>
      <trkpt lat="45.19805" lon="5.7274">
        <ele>373.79998779297</ele>
        <time>2021-08-26T03:57:27.000Z</time>
      </trkpt>
      <trkpt lat="45.19801" lon="5.72734">
        <ele>374.39999389648</ele>
        <time>2021-08-26T03:57:30.000Z</time>
      </trkpt>
      <trkpt lat="45.19801" lon="5.72729">
        <ele>374.79998779297</ele>
        <time>2021-08-26T03:57:32.000Z</time>
      </trkpt>
      <trkpt lat="45.19803" lon="5.72727">
        <ele>375.39999389648</ele>
        <time>2021-08-26T03:57:33.000Z</time>
      </trkpt>
      <trkpt lat="45.19806" lon="5.72726">
        <ele>375.60000610352</ele>
        <time>2021-08-26T03:57:34.000Z</time>
      </trkpt>
      <trkpt lat="45.19808" lon="5.72726">
        <ele>376.20001220703</ele>
        <time>2021-08-26T03:57:35.000Z</time>
      </trkpt>
      <trkpt lat="45.19812" lon="5.72729">
        <ele>376.60000610352</ele>
        <time>2021-08-26T03:57:38.000Z</time>
      </trkpt>
      <trkpt lat="45.19814" lon="5.72732">
        <ele>377</ele>
        <time>2021-08-26T03:57:40.000Z</time>
      </trkpt>
      <trkpt lat="45.19815" lon="5.72734">
        <ele>377.20001220703</ele>
        <time>2021-08-26T03:57:41.000Z</time>
      </trkpt>
      <trkpt lat="45.19823" lon="5.72746">
        <ele>377.79998779297</ele>
        <time>2021-08-26T03:57:46.000Z</time>
      </trkpt>
      <trkpt lat="45.19829" lon="5.72751">
        <ele>378.79998779297</ele>
        <time>2021-08-26T03:57:49.000Z</time>
      </trkpt>
      <trkpt lat="45.1984" lon="5.72757">
        <ele>379.60000610352</ele>
        <time>2021-08-26T03:57:53.000Z</time>
      </trkpt>
      <trkpt lat="45.19842" lon="5.72757">
        <ele>379.79998779297</ele>
        <time>2021-08-26T03:57:54.000Z</time>
      </trkpt>
      <trkpt lat="45.1985" lon="5.72767">
        <ele>381</ele>
        <time>2021-08-26T03:57:58.000Z</time>
      </trkpt>
      <trkpt lat="45.1986" lon="5.72777">
        <ele>382.20001220703</ele>
        <time>2021-08-26T03:58:03.000Z</time>
      </trkpt>
      <trkpt lat="45.19862" lon="5.72778">
        <ele>382.39999389648</ele>
        <time>2021-08-26T03:58:04.000Z</time>
      </trkpt>
      <trkpt lat="45.19863" lon="5.72778">
        <ele>382.60000610352</ele>
        <time>2021-08-26T03:58:05.000Z</time>
      </trkpt>
      <trkpt lat="45.19862" lon="5.72775">
        <ele>382.79998779297</ele>
        <time>2021-08-26T03:58:07.000Z</time>
      </trkpt>
      <trkpt lat="45.19861" lon="5.72773">
        <ele>383.20001220703</ele>
        <time>2021-08-26T03:58:08.000Z</time>
      </trkpt>
      <trkpt lat="45.19859" lon="5.72768">
        <ele>383.39999389648</ele>
        <time>2021-08-26T03:58:10.000Z</time>
      </trkpt>
      <trkpt lat="45.1986" lon="5.72765">
        <ele>383.79998779297</ele>
        <time>2021-08-26T03:58:12.000Z</time>
      </trkpt>
      <trkpt lat="45.1986" lon="5.72764">
        <ele>384.79998779297</ele>
        <time>2021-08-26T03:58:14.000Z</time>
      </trkpt>
      <trkpt lat="45.19861" lon="5.72763">
        <ele>385.20001220703</ele>
        <time>2021-08-26T03:58:15.000Z</time>
      </trkpt>
      <trkpt lat="45.19862" lon="5.72763">
        <ele>385.60000610352</ele>
        <time>2021-08-26T03:58:17.000Z</time>
      </trkpt>
      <trkpt lat="45.19862" lon="5.72763">
        <ele>386.60000610352</ele>
        <time>2021-08-26T03:58:18.000Z</time>
      </trkpt>
      <trkpt lat="45.19864" lon="5.7277">
        <ele>387.60000610352</ele>
        <time>2021-08-26T03:58:21.000Z</time>
      </trkpt>
      <trkpt lat="45.19866" lon="5.72775">
        <ele>388.60000610352</ele>
        <time>2021-08-26T03:58:23.000Z</time>
      </trkpt>
      <trkpt lat="45.19866" lon="5.72774">
        <ele>388.79998779297</ele>
        <time>2021-08-26T03:58:24.000Z</time>
      </trkpt>
      <trkpt lat="45.19867" lon="5.72774">
        <ele>389.79998779297</ele>
        <time>2021-08-26T03:58:27.000Z</time>
      </trkpt>
      <trkpt lat="45.19867" lon="5.72776">
        <ele>390</ele>
        <time>2021-08-26T03:58:28.000Z</time>
      </trkpt>
      <trkpt lat="45.19853" lon="5.72745">
        <ele>403.39999389648</ele>
        <time>2021-08-26T03:59:04.000Z</time>
      </trkpt>
      <trkpt lat="45.19865" lon="5.72748">
        <ele>403.60000610352</ele>
        <time>2021-08-26T03:59:05.000Z</time>
      </trkpt>
      <trkpt lat="45.19865" lon="5.7275">
        <ele>404</ele>
        <time>2021-08-26T03:59:06.000Z</time>
      </trkpt>
      <trkpt lat="45.19866" lon="5.72748">
        <ele>405</ele>
        <time>2021-08-26T03:59:08.000Z</time>
      </trkpt>
      <trkpt lat="45.19873" lon="5.72746">
        <ele>406.60000610352</ele>
        <time>2021-08-26T03:59:10.000Z</time>
      </trkpt>
      <trkpt lat="45.19874" lon="5.72744">
        <ele>407</ele>
        <time>2021-08-26T03:59:12.000Z</time>
      </trkpt>
      <trkpt lat="45.19872" lon="5.72742">
        <ele>407.20001220703</ele>
        <time>2021-08-26T03:59:13.000Z</time>
      </trkpt>
      <trkpt lat="45.19871" lon="5.7274">
        <ele>407.39999389648</ele>
        <time>2021-08-26T03:59:14.000Z</time>
      </trkpt>
      <trkpt lat="45.1987" lon="5.72736">
        <ele>408</ele>
        <time>2021-08-26T03:59:15.000Z</time>
      </trkpt>
      <trkpt lat="45.1987" lon="5.72729">
        <ele>408.20001220703</ele>
        <time>2021-08-26T03:59:17.000Z</time>
      </trkpt>
      <trkpt lat="45.19868" lon="5.72718">
        <ele>409.20001220703</ele>
        <time>2021-08-26T03:59:21.000Z</time>
      </trkpt>
      <trkpt lat="45.19867" lon="5.72713">
        <ele>410.20001220703</ele>
        <time>2021-08-26T03:59:23.000Z</time>
      </trkpt>
      <trkpt lat="45.1985" lon="5.72724">
        <ele>412.60000610352</ele>
        <time>2021-08-26T03:59:36.000Z</time>
      </trkpt>
      <trkpt lat="45.19846" lon="5.72721">
        <ele>412.39999389648</ele>
        <time>2021-08-26T03:59:37.000Z</time>
      </trkpt>
      <trkpt lat="45.19846" lon="5.72717">
        <ele>412.60000610352</ele>
        <time>2021-08-26T03:59:38.000Z</time>
      </trkpt>
      <trkpt lat="45.19841" lon="5.72714">
        <ele>412.60000610352</ele>
        <time>2021-08-26T03:59:39.000Z</time>
      </trkpt>
      <trkpt lat="45.19835" lon="5.72711">
        <ele>412.39999389648</ele>
        <time>2021-08-26T03:59:41.000Z</time>
      </trkpt>
      <trkpt lat="45.19824" lon="5.727">
        <ele>412</ele>
        <time>2021-08-26T03:59:46.000Z</time>
      </trkpt>
      <trkpt lat="45.19822" lon="5.72699">
        <ele>411.79998779297</ele>
        <time>2021-08-26T03:59:47.000Z</time>
      </trkpt>
      <trkpt lat="45.19818" lon="5.72695">
        <ele>411.79998779297</ele>
        <time>2021-08-26T03:59:49.000Z</time>
      </trkpt>
      <trkpt lat="45.19814" lon="5.72693">
        <ele>411.79998779297</ele>
        <time>2021-08-26T03:59:51.000Z</time>
      </trkpt>
      <trkpt lat="45.19807" lon="5.72687">
        <ele>411.60000610352</ele>
        <time>2021-08-26T03:59:54.000Z</time>
      </trkpt>
      <trkpt lat="45.19803" lon="5.72684">
        <ele>411.60000610352</ele>
        <time>2021-08-26T03:59:56.000Z</time>
      </trkpt>
      <trkpt lat="45.19791" lon="5.72673">
        <ele>411.79998779297</ele>
        <time>2021-08-26T04:00:02.000Z</time>
      </trkpt>
      <trkpt lat="45.19785" lon="5.72667">
        <ele>411.60000610352</ele>
        <time>2021-08-26T04:00:05.000Z</time>
      </trkpt>
      <trkpt lat="45.19775" lon="5.72656">
        <ele>411.39999389648</ele>
        <time>2021-08-26T04:00:09.000Z</time>
      </trkpt>
      <trkpt lat="45.19768" lon="5.72647">
        <ele>411.39999389648</ele>
        <time>2021-08-26T04:00:12.000Z</time>
      </trkpt>
      <trkpt lat="45.19763" lon="5.7264">
        <ele>411.39999389648</ele>
        <time>2021-08-26T04:00:14.000Z</time>
      </trkpt>
      <trkpt lat="45.19752" lon="5.72626">
        <ele>412.39999389648</ele>
        <time>2021-08-26T04:00:19.000Z</time>
      </trkpt>
      <trkpt lat="45.1975" lon="5.72626">
        <ele>412.20001220703</ele>
        <time>2021-08-26T04:00:20.000Z</time>
      </trkpt>
      <trkpt lat="45.19747" lon="5.72626">
        <ele>412.39999389648</ele>
        <time>2021-08-26T04:00:21.000Z</time>
      </trkpt>
      <trkpt lat="45.19745" lon="5.72624">
        <ele>412.60000610352</ele>
        <time>2021-08-26T04:00:22.000Z</time>
      </trkpt>
      <trkpt lat="45.19743" lon="5.72617">
        <ele>412.60000610352</ele>
        <time>2021-08-26T04:00:24.000Z</time>
      </trkpt>
      <trkpt lat="45.19744" lon="5.72613">
        <ele>412.39999389648</ele>
        <time>2021-08-26T04:00:25.000Z</time>
      </trkpt>
      <trkpt lat="45.19744" lon="5.72586">
        <ele>412</ele>
        <time>2021-08-26T04:00:31.000Z</time>
      </trkpt>
      <trkpt lat="45.19743" lon="5.72581">
        <ele>412</ele>
        <time>2021-08-26T04:00:32.000Z</time>
      </trkpt>
      <trkpt lat="45.19741" lon="5.72567">
        <ele>412.20001220703</ele>
        <time>2021-08-26T04:00:35.000Z</time>
      </trkpt>
      <trkpt lat="45.19741" lon="5.72559">
        <ele>412.20001220703</ele>
        <time>2021-08-26T04:00:37.000Z</time>
      </trkpt>
      <trkpt lat="45.19738" lon="5.72536">
        <ele>412</ele>
        <time>2021-08-26T04:00:43.000Z</time>
      </trkpt>
      <trkpt lat="45.19738" lon="5.72535">
        <ele>412</ele>
        <time>2021-08-26T04:00:44.000Z</time>
      </trkpt>
      <trkpt lat="45.19735" lon="5.72533">
        <ele>412</ele>
        <time>2021-08-26T04:00:46.000Z</time>
      </trkpt>
      <trkpt lat="45.19734" lon="5.72531">
        <ele>412</ele>
        <time>2021-08-26T04:00:47.000Z</time>
      </trkpt>
      <trkpt lat="45.19732" lon="5.72518">
        <ele>411.79998779297</ele>
        <time>2021-08-26T04:00:51.000Z</time>
      </trkpt>
      <trkpt lat="45.19738" lon="5.72512">
        <ele>411.79998779297</ele>
        <time>2021-08-26T04:00:54.000Z</time>
      </trkpt>
      <trkpt lat="45.19744" lon="5.72512">
        <ele>411.79998779297</ele>
        <time>2021-08-26T04:00:56.000Z</time>
      </trkpt>
      <trkpt lat="45.1975" lon="5.72505">
        <ele>412</ele>
        <time>2021-08-26T04:01:00.000Z</time>
      </trkpt>
      <trkpt lat="45.19752" lon="5.72502">
        <ele>412</ele>
        <time>2021-08-26T04:01:01.000Z</time>
      </trkpt>
      <trkpt lat="45.19759" lon="5.72489">
        <ele>411.60000610352</ele>
        <time>2021-08-26T04:01:05.000Z</time>
      </trkpt>
      <trkpt lat="45.19769" lon="5.7247">
        <ele>411.79998779297</ele>
        <time>2021-08-26T04:01:10.000Z</time>
      </trkpt>
      <trkpt lat="45.19774" lon="5.7246">
        <ele>412</ele>
        <time>2021-08-26T04:01:13.000Z</time>
      </trkpt>
      <trkpt lat="45.19782" lon="5.72445">
        <ele>412</ele>
        <time>2021-08-26T04:01:17.000Z</time>
      </trkpt>
      <trkpt lat="45.19785" lon="5.72443">
        <ele>412.20001220703</ele>
        <time>2021-08-26T04:01:18.000Z</time>
      </trkpt>
      <trkpt lat="45.19791" lon="5.72443">
        <ele>412.20001220703</ele>
        <time>2021-08-26T04:01:20.000Z</time>
      </trkpt>
      <trkpt lat="45.19793" lon="5.72446">
        <ele>412.20001220703</ele>
        <time>2021-08-26T04:01:21.000Z</time>
      </trkpt>
      <trkpt lat="45.19794" lon="5.72454">
        <ele>412.20001220703</ele>
        <time>2021-08-26T04:01:23.000Z</time>
      </trkpt>
      <trkpt lat="45.19791" lon="5.72469">
        <ele>413</ele>
        <time>2021-08-26T04:01:27.000Z</time>
      </trkpt>
      <trkpt lat="45.1979" lon="5.72474">
        <ele>413</ele>
        <time>2021-08-26T04:01:28.000Z</time>
      </trkpt>
      <trkpt lat="45.19785" lon="5.72489">
        <ele>413.79998779297</ele>
        <time>2021-08-26T04:01:32.000Z</time>
      </trkpt>
      <trkpt lat="45.19783" lon="5.72494">
        <ele>414</ele>
        <time>2021-08-26T04:01:33.000Z</time>
      </trkpt>
      <trkpt lat="45.1978" lon="5.72502">
        <ele>413.79998779297</ele>
        <time>2021-08-26T04:01:35.000Z</time>
      </trkpt>
      <trkpt lat="45.19779" lon="5.72506">
        <ele>414.20001220703</ele>
        <time>2021-08-26T04:01:36.000Z</time>
      </trkpt>
      <trkpt lat="45.19775" lon="5.72517">
        <ele>415.20001220703</ele>
        <time>2021-08-26T04:01:39.000Z</time>
      </trkpt>
      <trkpt lat="45.19774" lon="5.7252">
        <ele>415.39999389648</ele>
        <time>2021-08-26T04:01:40.000Z</time>
      </trkpt>
      <trkpt lat="45.19769" lon="5.72529">
        <ele>415.79998779297</ele>
        <time>2021-08-26T04:01:44.000Z</time>
      </trkpt>
      <trkpt lat="45.19768" lon="5.72535">
        <ele>416.60000610352</ele>
        <time>2021-08-26T04:01:46.000Z</time>
      </trkpt>
      <trkpt lat="45.19768" lon="5.72546">
        <ele>417.20001220703</ele>
        <time>2021-08-26T04:01:49.000Z</time>
      </trkpt>
      <trkpt lat="45.19768" lon="5.7255">
        <ele>417.60000610352</ele>
        <time>2021-08-26T04:01:50.000Z</time>
      </trkpt>
      <trkpt lat="45.19772" lon="5.72566">
        <ele>418.60000610352</ele>
        <time>2021-08-26T04:01:56.000Z</time>
      </trkpt>
      <trkpt lat="45.19772" lon="5.72568">
        <ele>418.79998779297</ele>
        <time>2021-08-26T04:01:57.000Z</time>
      </trkpt>
      <trkpt lat="45.19775" lon="5.72586">
        <ele>420</ele>
        <time>2021-08-26T04:02:03.000Z</time>
      </trkpt>
      <trkpt lat="45.19775" lon="5.72589">
        <ele>420</ele>
        <time>2021-08-26T04:02:04.000Z</time>
      </trkpt>
      <trkpt lat="45.19776" lon="5.7259">
        <ele>420.39999389648</ele>
        <time>2021-08-26T04:02:05.000Z</time>
      </trkpt>
      <trkpt lat="45.19778" lon="5.72588">
        <ele>421</ele>
        <time>2021-08-26T04:02:07.000Z</time>
      </trkpt>
      <trkpt lat="45.19778" lon="5.72586">
        <ele>421.20001220703</ele>
        <time>2021-08-26T04:02:08.000Z</time>
      </trkpt>
      <trkpt lat="45.1978" lon="5.72581">
        <ele>421.79998779297</ele>
        <time>2021-08-26T04:02:10.000Z</time>
      </trkpt>
      <trkpt lat="45.1978" lon="5.72573">
        <ele>422.79998779297</ele>
        <time>2021-08-26T04:02:12.000Z</time>
      </trkpt>
      <trkpt lat="45.19782" lon="5.72562">
        <ele>422.79998779297</ele>
        <time>2021-08-26T04:02:15.000Z</time>
      </trkpt>
      <trkpt lat="45.19785" lon="5.72557">
        <ele>423.60000610352</ele>
        <time>2021-08-26T04:02:17.000Z</time>
      </trkpt>
      <trkpt lat="45.19786" lon="5.72555">
        <ele>424</ele>
        <time>2021-08-26T04:02:18.000Z</time>
      </trkpt>
      <trkpt lat="45.19787" lon="5.72552">
        <ele>424.20001220703</ele>
        <time>2021-08-26T04:02:19.000Z</time>
      </trkpt>
      <trkpt lat="45.19791" lon="5.72535">
        <ele>425.39999389648</ele>
        <time>2021-08-26T04:02:24.000Z</time>
      </trkpt>
      <trkpt lat="45.19792" lon="5.72535">
        <ele>425.60000610352</ele>
        <time>2021-08-26T04:02:25.000Z</time>
      </trkpt>
      <trkpt lat="45.19792" lon="5.72536">
        <ele>426.60000610352</ele>
        <time>2021-08-26T04:02:26.000Z</time>
      </trkpt>
      <trkpt lat="45.19792" lon="5.72542">
        <ele>426.79998779297</ele>
        <time>2021-08-26T04:02:28.000Z</time>
      </trkpt>
      <trkpt lat="45.1979" lon="5.72555">
        <ele>427.60000610352</ele>
        <time>2021-08-26T04:02:32.000Z</time>
      </trkpt>
      <trkpt lat="45.19788" lon="5.72564">
        <ele>428.39999389648</ele>
        <time>2021-08-26T04:02:35.000Z</time>
      </trkpt>
      <trkpt lat="45.19788" lon="5.72567">
        <ele>428.39999389648</ele>
        <time>2021-08-26T04:02:36.000Z</time>
      </trkpt>
      <trkpt lat="45.19787" lon="5.72571">
        <ele>429</ele>
        <time>2021-08-26T04:02:37.000Z</time>
      </trkpt>
      <trkpt lat="45.19787" lon="5.72573">
        <ele>429.20001220703</ele>
        <time>2021-08-26T04:02:38.000Z</time>
      </trkpt>
      <trkpt lat="45.19787" lon="5.72577">
        <ele>429.39999389648</ele>
        <time>2021-08-26T04:02:39.000Z</time>
      </trkpt>
      <trkpt lat="45.19787" lon="5.7258">
        <ele>430</ele>
        <time>2021-08-26T04:02:40.000Z</time>
      </trkpt>
      <trkpt lat="45.19787" lon="5.72583">
        <ele>430</ele>
        <time>2021-08-26T04:02:41.000Z</time>
      </trkpt>
      <trkpt lat="45.19787" lon="5.72595">
        <ele>430.39999389648</ele>
        <time>2021-08-26T04:02:46.000Z</time>
      </trkpt>
      <trkpt lat="45.19787" lon="5.72597">
        <ele>430.39999389648</ele>
        <time>2021-08-26T04:02:47.000Z</time>
      </trkpt>
      <trkpt lat="45.19787" lon="5.72602">
        <ele>431.20001220703</ele>
        <time>2021-08-26T04:02:49.000Z</time>
      </trkpt>
      <trkpt lat="45.19792" lon="5.72614">
        <ele>432</ele>
        <time>2021-08-26T04:02:53.000Z</time>
      </trkpt>
      <trkpt lat="45.19796" lon="5.72618">
        <ele>432.20001220703</ele>
        <time>2021-08-26T04:02:55.000Z</time>
      </trkpt>
      <trkpt lat="45.19805" lon="5.72629">
        <ele>433</ele>
        <time>2021-08-26T04:02:59.000Z</time>
      </trkpt>
      <trkpt lat="45.19809" lon="5.72634">
        <ele>433.39999389648</ele>
        <time>2021-08-26T04:03:02.000Z</time>
      </trkpt>
      <trkpt lat="45.19812" lon="5.72638">
        <ele>433.79998779297</ele>
        <time>2021-08-26T04:03:05.000Z</time>
      </trkpt>
      <trkpt lat="45.19812" lon="5.72639">
        <ele>434</ele>
        <time>2021-08-26T04:03:06.000Z</time>
      </trkpt>
      <trkpt lat="45.19815" lon="5.72643">
        <ele>434.60000610352</ele>
        <time>2021-08-26T04:03:08.000Z</time>
      </trkpt>
      <trkpt lat="45.19818" lon="5.72647">
        <ele>435</ele>
        <time>2021-08-26T04:03:11.000Z</time>
      </trkpt>
      <trkpt lat="45.19818" lon="5.72649">
        <ele>436</ele>
        <time>2021-08-26T04:03:12.000Z</time>
      </trkpt>
      <trkpt lat="45.19825" lon="5.72657">
        <ele>436.79998779297</ele>
        <time>2021-08-26T04:03:15.000Z</time>
      </trkpt>
      <trkpt lat="45.19828" lon="5.72661">
        <ele>436.79998779297</ele>
        <time>2021-08-26T04:03:17.000Z</time>
      </trkpt>
      <trkpt lat="45.19831" lon="5.72663">
        <ele>437</ele>
        <time>2021-08-26T04:03:18.000Z</time>
      </trkpt>
      <trkpt lat="45.19837" lon="5.72673">
        <ele>438.20001220703</ele>
        <time>2021-08-26T04:03:22.000Z</time>
      </trkpt>
      <trkpt lat="45.19838" lon="5.72676">
        <ele>438.20001220703</ele>
        <time>2021-08-26T04:03:23.000Z</time>
      </trkpt>
      <trkpt lat="45.19842" lon="5.72685">
        <ele>438.79998779297</ele>
        <time>2021-08-26T04:03:27.000Z</time>
      </trkpt>
      <trkpt lat="45.19844" lon="5.72687">
        <ele>439.20001220703</ele>
        <time>2021-08-26T04:03:28.000Z</time>
      </trkpt>
      <trkpt lat="45.19849" lon="5.7269">
        <ele>439.60000610352</ele>
        <time>2021-08-26T04:03:30.000Z</time>
      </trkpt>
      <trkpt lat="45.19852" lon="5.7269">
        <ele>439.79998779297</ele>
        <time>2021-08-26T04:03:32.000Z</time>
      </trkpt>
      <trkpt lat="45.19852" lon="5.72688">
        <ele>440.39999389648</ele>
        <time>2021-08-26T04:03:33.000Z</time>
      </trkpt>
      <trkpt lat="45.1985" lon="5.72687">
        <ele>440.79998779297</ele>
        <time>2021-08-26T04:03:34.000Z</time>
      </trkpt>
      <trkpt lat="45.19848" lon="5.72685">
        <ele>441</ele>
        <time>2021-08-26T04:03:35.000Z</time>
      </trkpt>
      <trkpt lat="45.19847" lon="5.72683">
        <ele>441.60000610352</ele>
        <time>2021-08-26T04:03:36.000Z</time>
      </trkpt>
      <trkpt lat="45.19845" lon="5.7268">
        <ele>441.79998779297</ele>
        <time>2021-08-26T04:03:37.000Z</time>
      </trkpt>
      <trkpt lat="45.19844" lon="5.72678">
        <ele>442</ele>
        <time>2021-08-26T04:03:38.000Z</time>
      </trkpt>
      <trkpt lat="45.19842" lon="5.72673">
        <ele>442.60000610352</ele>
        <time>2021-08-26T04:03:41.000Z</time>
      </trkpt>
      <trkpt lat="45.1984" lon="5.72668">
        <ele>443</ele>
        <time>2021-08-26T04:03:44.000Z</time>
      </trkpt>
      <trkpt lat="45.19836" lon="5.72662">
        <ele>443.79998779297</ele>
        <time>2021-08-26T04:03:47.000Z</time>
      </trkpt>
      <trkpt lat="45.19835" lon="5.72659">
        <ele>444.20001220703</ele>
        <time>2021-08-26T04:03:48.000Z</time>
      </trkpt>
      <trkpt lat="45.19833" lon="5.72656">
        <ele>444.60000610352</ele>
        <time>2021-08-26T04:03:50.000Z</time>
      </trkpt>
      <trkpt lat="45.1983" lon="5.72647">
        <ele>444.79998779297</ele>
        <time>2021-08-26T04:03:53.000Z</time>
      </trkpt>
      <trkpt lat="45.19827" lon="5.72641">
        <ele>445.20001220703</ele>
        <time>2021-08-26T04:03:55.000Z</time>
      </trkpt>
      <trkpt lat="45.19825" lon="5.7264">
        <ele>445.20001220703</ele>
        <time>2021-08-26T04:03:56.000Z</time>
      </trkpt>
      <trkpt lat="45.19824" lon="5.72636">
        <ele>445.79998779297</ele>
        <time>2021-08-26T04:03:58.000Z</time>
      </trkpt>
      <trkpt lat="45.19822" lon="5.72628">
        <ele>446.20001220703</ele>
        <time>2021-08-26T04:04:01.000Z</time>
      </trkpt>
      <trkpt lat="45.19821" lon="5.7262">
        <ele>446.60000610352</ele>
        <time>2021-08-26T04:04:04.000Z</time>
      </trkpt>
      <trkpt lat="45.19821" lon="5.72617">
        <ele>447.20001220703</ele>
        <time>2021-08-26T04:04:05.000Z</time>
      </trkpt>
      <trkpt lat="45.19821" lon="5.72607">
        <ele>448</ele>
        <time>2021-08-26T04:04:09.000Z</time>
      </trkpt>
      <trkpt lat="45.19821" lon="5.72605">
        <ele>448</ele>
        <time>2021-08-26T04:04:10.000Z</time>
      </trkpt>
      <trkpt lat="45.19821" lon="5.72586">
        <ele>449.20001220703</ele>
        <time>2021-08-26T04:04:15.000Z</time>
      </trkpt>
      <trkpt lat="45.19821" lon="5.72575">
        <ele>449.60000610352</ele>
        <time>2021-08-26T04:04:18.000Z</time>
      </trkpt>
      <trkpt lat="45.19821" lon="5.72564">
        <ele>451</ele>
        <time>2021-08-26T04:04:21.000Z</time>
      </trkpt>
      <trkpt lat="45.19822" lon="5.7255">
        <ele>451.20001220703</ele>
        <time>2021-08-26T04:04:25.000Z</time>
      </trkpt>
      <trkpt lat="45.19822" lon="5.72542">
        <ele>452</ele>
        <time>2021-08-26T04:04:27.000Z</time>
      </trkpt>
      <trkpt lat="45.19823" lon="5.72524">
        <ele>453</ele>
        <time>2021-08-26T04:04:31.000Z</time>
      </trkpt>
      <trkpt lat="45.19824" lon="5.72521">
        <ele>453.60000610352</ele>
        <time>2021-08-26T04:04:32.000Z</time>
      </trkpt>
      <trkpt lat="45.19827" lon="5.7251">
        <ele>454.39999389648</ele>
        <time>2021-08-26T04:04:35.000Z</time>
      </trkpt>
      <trkpt lat="45.19827" lon="5.72507">
        <ele>454.79998779297</ele>
        <time>2021-08-26T04:04:36.000Z</time>
      </trkpt>
      <trkpt lat="45.1983" lon="5.72496">
        <ele>456</ele>
        <time>2021-08-26T04:04:39.000Z</time>
      </trkpt>
      <trkpt lat="45.19831" lon="5.7249">
        <ele>456.39999389648</ele>
        <time>2021-08-26T04:04:41.000Z</time>
      </trkpt>
      <trkpt lat="45.19832" lon="5.72482">
        <ele>457.20001220703</ele>
        <time>2021-08-26T04:04:44.000Z</time>
      </trkpt>
      <trkpt lat="45.19834" lon="5.72472">
        <ele>457.79998779297</ele>
        <time>2021-08-26T04:04:47.000Z</time>
      </trkpt>
      <trkpt lat="45.19834" lon="5.72466">
        <ele>458</ele>
        <time>2021-08-26T04:04:49.000Z</time>
      </trkpt>
      <trkpt lat="45.19835" lon="5.72463">
        <ele>458.60000610352</ele>
        <time>2021-08-26T04:04:50.000Z</time>
      </trkpt>
      <trkpt lat="45.19837" lon="5.72452">
        <ele>459.39999389648</ele>
        <time>2021-08-26T04:04:54.000Z</time>
      </trkpt>
      <trkpt lat="45.19838" lon="5.72449">
        <ele>459.60000610352</ele>
        <time>2021-08-26T04:04:55.000Z</time>
      </trkpt>
      <trkpt lat="45.19842" lon="5.72442">
        <ele>460.20001220703</ele>
        <time>2021-08-26T04:04:58.000Z</time>
      </trkpt>
      <trkpt lat="45.19847" lon="5.72442">
        <ele>460.60000610352</ele>
        <time>2021-08-26T04:05:00.000Z</time>
      </trkpt>
      <trkpt lat="45.1985" lon="5.72451">
        <ele>461</ele>
        <time>2021-08-26T04:05:03.000Z</time>
      </trkpt>
      <trkpt lat="45.19849" lon="5.72456">
        <ele>461.39999389648</ele>
        <time>2021-08-26T04:05:05.000Z</time>
      </trkpt>
      <trkpt lat="45.19849" lon="5.72459">
        <ele>461.79998779297</ele>
        <time>2021-08-26T04:05:06.000Z</time>
      </trkpt>
      <trkpt lat="45.19852" lon="5.7247">
        <ele>462</ele>
        <time>2021-08-26T04:05:09.000Z</time>
      </trkpt>
      <trkpt lat="45.19852" lon="5.72473">
        <ele>463</ele>
        <time>2021-08-26T04:05:10.000Z</time>
      </trkpt>
      <trkpt lat="45.19852" lon="5.72494">
        <ele>464</ele>
        <time>2021-08-26T04:05:15.000Z</time>
      </trkpt>
      <trkpt lat="45.19855" lon="5.72513">
        <ele>465.20001220703</ele>
        <time>2021-08-26T04:05:19.000Z</time>
      </trkpt>
      <trkpt lat="45.19856" lon="5.72517">
        <ele>465.39999389648</ele>
        <time>2021-08-26T04:05:20.000Z</time>
      </trkpt>
      <trkpt lat="45.19856" lon="5.72529">
        <ele>466.79998779297</ele>
        <time>2021-08-26T04:05:23.000Z</time>
      </trkpt>
      <trkpt lat="45.19857" lon="5.7254">
        <ele>466.79998779297</ele>
        <time>2021-08-26T04:05:26.000Z</time>
      </trkpt>
      <trkpt lat="45.19861" lon="5.72557">
        <ele>467.79998779297</ele>
        <time>2021-08-26T04:05:31.000Z</time>
      </trkpt>
      <trkpt lat="45.19863" lon="5.72559">
        <ele>468.39999389648</ele>
        <time>2021-08-26T04:05:32.000Z</time>
      </trkpt>
      <trkpt lat="45.19863" lon="5.72558">
        <ele>469</ele>
        <time>2021-08-26T04:05:34.000Z</time>
      </trkpt>
      <trkpt lat="45.19863" lon="5.72556">
        <ele>469.20001220703</ele>
        <time>2021-08-26T04:05:35.000Z</time>
      </trkpt>
      <trkpt lat="45.19862" lon="5.72554">
        <ele>469.79998779297</ele>
        <time>2021-08-26T04:05:36.000Z</time>
      </trkpt>
      <trkpt lat="45.19859" lon="5.72545">
        <ele>470.39999389648</ele>
        <time>2021-08-26T04:05:39.000Z</time>
      </trkpt>
      <trkpt lat="45.19858" lon="5.72542">
        <ele>470.79998779297</ele>
        <time>2021-08-26T04:05:40.000Z</time>
      </trkpt>
      <trkpt lat="45.19857" lon="5.72524">
        <ele>471.79998779297</ele>
        <time>2021-08-26T04:05:45.000Z</time>
      </trkpt>
      <trkpt lat="45.19857" lon="5.72519">
        <ele>472.20001220703</ele>
        <time>2021-08-26T04:05:46.000Z</time>
      </trkpt>
      <trkpt lat="45.19858" lon="5.725">
        <ele>472.60000610352</ele>
        <time>2021-08-26T04:05:51.000Z</time>
      </trkpt>
      <trkpt lat="45.19859" lon="5.72497">
        <ele>472.60000610352</ele>
        <time>2021-08-26T04:05:52.000Z</time>
      </trkpt>
      <trkpt lat="45.19873" lon="5.72485">
        <ele>472.79998779297</ele>
        <time>2021-08-26T04:05:58.000Z</time>
      </trkpt>
      <trkpt lat="45.19878" lon="5.72481">
        <ele>473.60000610352</ele>
        <time>2021-08-26T04:06:00.000Z</time>
      </trkpt>
      <trkpt lat="45.19879" lon="5.72478">
        <ele>473.60000610352</ele>
        <time>2021-08-26T04:06:01.000Z</time>
      </trkpt>
      <trkpt lat="45.19884" lon="5.72474">
        <ele>473.79998779297</ele>
        <time>2021-08-26T04:06:04.000Z</time>
      </trkpt>
      <trkpt lat="45.19885" lon="5.72475">
        <ele>473.79998779297</ele>
        <time>2021-08-26T04:06:05.000Z</time>
      </trkpt>
      <trkpt lat="45.19883" lon="5.72469">
        <ele>473.60000610352</ele>
        <time>2021-08-26T04:06:09.000Z</time>
      </trkpt>
      <trkpt lat="45.19886" lon="5.72472">
        <ele>473.60000610352</ele>
        <time>2021-08-26T04:06:10.000Z</time>
      </trkpt>
      <trkpt lat="45.19887" lon="5.72464">
        <ele>473.79998779297</ele>
        <time>2021-08-26T04:06:12.000Z</time>
      </trkpt>
      <trkpt lat="45.199" lon="5.72451">
        <ele>472.39999389648</ele>
        <time>2021-08-26T04:06:16.000Z</time>
      </trkpt>
      <trkpt lat="45.19913" lon="5.7244">
        <ele>471.20001220703</ele>
        <time>2021-08-26T04:06:20.000Z</time>
      </trkpt>
      <trkpt lat="45.19916" lon="5.72439">
        <ele>471</ele>
        <time>2021-08-26T04:06:21.000Z</time>
      </trkpt>
      <trkpt lat="45.19927" lon="5.72433">
        <ele>469.39999389648</ele>
        <time>2021-08-26T04:06:24.000Z</time>
      </trkpt>
      <trkpt lat="45.19941" lon="5.72425">
        <ele>469.20001220703</ele>
        <time>2021-08-26T04:06:29.000Z</time>
      </trkpt>
      <trkpt lat="45.19955" lon="5.72422">
        <ele>469.60000610352</ele>
        <time>2021-08-26T04:06:34.000Z</time>
      </trkpt>
      <trkpt lat="45.19958" lon="5.72422">
        <ele>470</ele>
        <time>2021-08-26T04:06:35.000Z</time>
      </trkpt>
      <trkpt lat="45.1997" lon="5.72421">
        <ele>470.60000610352</ele>
        <time>2021-08-26T04:06:40.000Z</time>
      </trkpt>
      <trkpt lat="45.19978" lon="5.72422">
        <ele>471.60000610352</ele>
        <time>2021-08-26T04:06:43.000Z</time>
      </trkpt>
      <trkpt lat="45.1999" lon="5.72424">
        <ele>472.60000610352</ele>
        <time>2021-08-26T04:06:47.000Z</time>
      </trkpt>
      <trkpt lat="45.20001" lon="5.72426">
        <ele>473.79998779297</ele>
        <time>2021-08-26T04:06:51.000Z</time>
      </trkpt>
      <trkpt lat="45.20009" lon="5.72427">
        <ele>475.20001220703</ele>
        <time>2021-08-26T04:06:54.000Z</time>
      </trkpt>
      <trkpt lat="45.20014" lon="5.72428">
        <ele>475.39999389648</ele>
        <time>2021-08-26T04:06:56.000Z</time>
      </trkpt>
      <trkpt lat="45.20025" lon="5.72429">
        <ele>476.39999389648</ele>
        <time>2021-08-26T04:07:00.000Z</time>
      </trkpt>
      <trkpt lat="45.20031" lon="5.7243">
        <ele>477</ele>
        <time>2021-08-26T04:07:02.000Z</time>
      </trkpt>
      <trkpt lat="45.20034" lon="5.7243">
        <ele>477.60000610352</ele>
        <time>2021-08-26T04:07:03.000Z</time>
      </trkpt>
      <trkpt lat="45.20039" lon="5.72428">
        <ele>478.20001220703</ele>
        <time>2021-08-26T04:07:05.000Z</time>
      </trkpt>
      <trkpt lat="45.20048" lon="5.72428">
        <ele>478.39999389648</ele>
        <time>2021-08-26T04:07:09.000Z</time>
      </trkpt>
      <trkpt lat="45.2005" lon="5.72427">
        <ele>479</ele>
        <time>2021-08-26T04:07:10.000Z</time>
      </trkpt>
      <trkpt lat="45.20054" lon="5.72427">
        <ele>479.79998779297</ele>
        <time>2021-08-26T04:07:12.000Z</time>
      </trkpt>
      <trkpt lat="45.20056" lon="5.72428">
        <ele>480.20001220703</ele>
        <time>2021-08-26T04:07:13.000Z</time>
      </trkpt>
      <trkpt lat="45.20058" lon="5.72428">
        <ele>480.20001220703</ele>
        <time>2021-08-26T04:07:14.000Z</time>
      </trkpt>
      <trkpt lat="45.2006" lon="5.72429">
        <ele>480.20001220703</ele>
        <time>2021-08-26T04:07:15.000Z</time>
      </trkpt>
      <trkpt lat="45.20061" lon="5.7243">
        <ele>480.39999389648</ele>
        <time>2021-08-26T04:07:16.000Z</time>
      </trkpt>
      <trkpt lat="45.20066" lon="5.72433">
        <ele>481.60000610352</ele>
        <time>2021-08-26T04:07:19.000Z</time>
      </trkpt>
      <trkpt lat="45.2007" lon="5.72438">
        <ele>482</ele>
        <time>2021-08-26T04:07:21.000Z</time>
      </trkpt>
      <trkpt lat="45.20074" lon="5.72446">
        <ele>482.79998779297</ele>
        <time>2021-08-26T04:07:24.000Z</time>
      </trkpt>
      <trkpt lat="45.20075" lon="5.72449">
        <ele>483</ele>
        <time>2021-08-26T04:07:25.000Z</time>
      </trkpt>
      <trkpt lat="45.20079" lon="5.72462">
        <ele>483.60000610352</ele>
        <time>2021-08-26T04:07:29.000Z</time>
      </trkpt>
      <trkpt lat="45.20079" lon="5.72464">
        <ele>483.79998779297</ele>
        <time>2021-08-26T04:07:30.000Z</time>
      </trkpt>
      <trkpt lat="45.20078" lon="5.72467">
        <ele>483.79998779297</ele>
        <time>2021-08-26T04:07:31.000Z</time>
      </trkpt>
      <trkpt lat="45.20079" lon="5.72473">
        <ele>484.39999389648</ele>
        <time>2021-08-26T04:07:33.000Z</time>
      </trkpt>
      <trkpt lat="45.20082" lon="5.72479">
        <ele>484.60000610352</ele>
        <time>2021-08-26T04:07:35.000Z</time>
      </trkpt>
      <trkpt lat="45.20082" lon="5.72485">
        <ele>485</ele>
        <time>2021-08-26T04:07:37.000Z</time>
      </trkpt>
      <trkpt lat="45.20081" lon="5.72492">
        <ele>485.60000610352</ele>
        <time>2021-08-26T04:07:39.000Z</time>
      </trkpt>
      <trkpt lat="45.2008" lon="5.725">
        <ele>486.20001220703</ele>
        <time>2021-08-26T04:07:41.000Z</time>
      </trkpt>
      <trkpt lat="45.20077" lon="5.72512">
        <ele>486.39999389648</ele>
        <time>2021-08-26T04:07:44.000Z</time>
      </trkpt>
      <trkpt lat="45.20076" lon="5.72539">
        <ele>486.60000610352</ele>
        <time>2021-08-26T04:07:51.000Z</time>
      </trkpt>
      <trkpt lat="45.20087" lon="5.72549">
        <ele>487.39999389648</ele>
        <time>2021-08-26T04:07:56.000Z</time>
      </trkpt>
      <trkpt lat="45.20095" lon="5.72547">
        <ele>488.60000610352</ele>
        <time>2021-08-26T04:08:00.000Z</time>
      </trkpt>
      <trkpt lat="45.20096" lon="5.72546">
        <ele>489.60000610352</ele>
        <time>2021-08-26T04:08:01.000Z</time>
      </trkpt>
      <trkpt lat="45.20103" lon="5.72543">
        <ele>491.39999389648</ele>
        <time>2021-08-26T04:08:05.000Z</time>
      </trkpt>
      <trkpt lat="45.20105" lon="5.72542">
        <ele>492.39999389648</ele>
        <time>2021-08-26T04:08:07.000Z</time>
      </trkpt>
      <trkpt lat="45.20111" lon="5.72541">
        <ele>493</ele>
        <time>2021-08-26T04:08:11.000Z</time>
      </trkpt>
      <trkpt lat="45.20114" lon="5.72543">
        <ele>493</ele>
        <time>2021-08-26T04:08:13.000Z</time>
      </trkpt>
      <trkpt lat="45.20115" lon="5.72543">
        <ele>494</ele>
        <time>2021-08-26T04:08:14.000Z</time>
      </trkpt>
      <trkpt lat="45.20117" lon="5.72544">
        <ele>494.20001220703</ele>
        <time>2021-08-26T04:08:16.000Z</time>
      </trkpt>
      <trkpt lat="45.20118" lon="5.72542">
        <ele>494.39999389648</ele>
        <time>2021-08-26T04:08:18.000Z</time>
      </trkpt>
      <trkpt lat="45.20118" lon="5.72542">
        <ele>495.20001220703</ele>
        <time>2021-08-26T04:08:19.000Z</time>
      </trkpt>
      <trkpt lat="45.20116" lon="5.72541">
        <ele>495.60000610352</ele>
        <time>2021-08-26T04:08:21.000Z</time>
      </trkpt>
      <trkpt lat="45.20115" lon="5.72539">
        <ele>495.60000610352</ele>
        <time>2021-08-26T04:08:22.000Z</time>
      </trkpt>
      <trkpt lat="45.20111" lon="5.72538">
        <ele>496.60000610352</ele>
        <time>2021-08-26T04:08:24.000Z</time>
      </trkpt>
      <trkpt lat="45.20108" lon="5.72532">
        <ele>496.79998779297</ele>
        <time>2021-08-26T04:08:27.000Z</time>
      </trkpt>
      <trkpt lat="45.20108" lon="5.72527">
        <ele>497.39999389648</ele>
        <time>2021-08-26T04:08:30.000Z</time>
      </trkpt>
      <trkpt lat="45.20109" lon="5.72524">
        <ele>497.60000610352</ele>
        <time>2021-08-26T04:08:32.000Z</time>
      </trkpt>
      <trkpt lat="45.2011" lon="5.7252">
        <ele>498.79998779297</ele>
        <time>2021-08-26T04:08:34.000Z</time>
      </trkpt>
      <trkpt lat="45.2011" lon="5.72518">
        <ele>498.79998779297</ele>
        <time>2021-08-26T04:08:35.000Z</time>
      </trkpt>
      <trkpt lat="45.20111" lon="5.72518">
        <ele>498.79998779297</ele>
        <time>2021-08-26T04:08:36.000Z</time>
      </trkpt>
      <trkpt lat="45.20113" lon="5.72513">
        <ele>499.79998779297</ele>
        <time>2021-08-26T04:08:38.000Z</time>
      </trkpt>
      <trkpt lat="45.20119" lon="5.72505">
        <ele>501.60000610352</ele>
        <time>2021-08-26T04:08:43.000Z</time>
      </trkpt>
      <trkpt lat="45.20121" lon="5.72503">
        <ele>501.60000610352</ele>
        <time>2021-08-26T04:08:45.000Z</time>
      </trkpt>
      <trkpt lat="45.20124" lon="5.72497">
        <ele>502.60000610352</ele>
        <time>2021-08-26T04:08:49.000Z</time>
      </trkpt>
      <trkpt lat="45.20128" lon="5.72492">
        <ele>504.20001220703</ele>
        <time>2021-08-26T04:08:54.000Z</time>
      </trkpt>
      <trkpt lat="45.20129" lon="5.72491">
        <ele>504.39999389648</ele>
        <time>2021-08-26T04:08:55.000Z</time>
      </trkpt>
      <trkpt lat="45.20131" lon="5.72485">
        <ele>505.60000610352</ele>
        <time>2021-08-26T04:08:59.000Z</time>
      </trkpt>
      <trkpt lat="45.20131" lon="5.72484">
        <ele>506.20001220703</ele>
        <time>2021-08-26T04:09:00.000Z</time>
      </trkpt>
      <trkpt lat="45.20133" lon="5.72481">
        <ele>506.60000610352</ele>
        <time>2021-08-26T04:09:03.000Z</time>
      </trkpt>
      <trkpt lat="45.20133" lon="5.7248">
        <ele>507</ele>
        <time>2021-08-26T04:09:04.000Z</time>
      </trkpt>
      <trkpt lat="45.20134" lon="5.72478">
        <ele>507.60000610352</ele>
        <time>2021-08-26T04:09:05.000Z</time>
      </trkpt>
      <trkpt lat="45.20134" lon="5.72476">
        <ele>508</ele>
        <time>2021-08-26T04:09:06.000Z</time>
      </trkpt>
      <trkpt lat="45.20135" lon="5.72474">
        <ele>508</ele>
        <time>2021-08-26T04:09:08.000Z</time>
      </trkpt>
      <trkpt lat="45.20137" lon="5.72472">
        <ele>508.39999389648</ele>
        <time>2021-08-26T04:09:10.000Z</time>
      </trkpt>
      <trkpt lat="45.20139" lon="5.72471">
        <ele>509.39999389648</ele>
        <time>2021-08-26T04:09:12.000Z</time>
      </trkpt>
      <trkpt lat="45.20139" lon="5.72471">
        <ele>509.79998779297</ele>
        <time>2021-08-26T04:09:13.000Z</time>
      </trkpt>
      <trkpt lat="45.20139" lon="5.72468">
        <ele>510</ele>
        <time>2021-08-26T04:09:15.000Z</time>
      </trkpt>
      <trkpt lat="45.2014" lon="5.72467">
        <ele>510.39999389648</ele>
        <time>2021-08-26T04:09:16.000Z</time>
      </trkpt>
      <trkpt lat="45.20142" lon="5.72466">
        <ele>511.60000610352</ele>
        <time>2021-08-26T04:09:19.000Z</time>
      </trkpt>
      <trkpt lat="45.20142" lon="5.72466">
        <ele>511.79998779297</ele>
        <time>2021-08-26T04:09:20.000Z</time>
      </trkpt>
      <trkpt lat="45.20143" lon="5.72461">
        <ele>512.59997558594</ele>
        <time>2021-08-26T04:09:24.000Z</time>
      </trkpt>
      <trkpt lat="45.20145" lon="5.7246">
        <ele>513.79998779297</ele>
        <time>2021-08-26T04:09:26.000Z</time>
      </trkpt>
      <trkpt lat="45.20147" lon="5.72461">
        <ele>514.40002441406</ele>
        <time>2021-08-26T04:09:29.000Z</time>
      </trkpt>
      <trkpt lat="45.20147" lon="5.72462">
        <ele>514.59997558594</ele>
        <time>2021-08-26T04:09:30.000Z</time>
      </trkpt>
      <trkpt lat="45.20148" lon="5.72462">
        <ele>514.79998779297</ele>
        <time>2021-08-26T04:09:31.000Z</time>
      </trkpt>
      <trkpt lat="45.20149" lon="5.72463">
        <ele>515</ele>
        <time>2021-08-26T04:09:32.000Z</time>
      </trkpt>
      <trkpt lat="45.2015" lon="5.72463">
        <ele>515.59997558594</ele>
        <time>2021-08-26T04:09:34.000Z</time>
      </trkpt>
      <trkpt lat="45.20151" lon="5.72464">
        <ele>516</ele>
        <time>2021-08-26T04:09:35.000Z</time>
      </trkpt>
      <trkpt lat="45.20152" lon="5.72466">
        <ele>516.59997558594</ele>
        <time>2021-08-26T04:09:37.000Z</time>
      </trkpt>
      <trkpt lat="45.20153" lon="5.72466">
        <ele>516.79998779297</ele>
        <time>2021-08-26T04:09:39.000Z</time>
      </trkpt>
      <trkpt lat="45.20153" lon="5.72466">
        <ele>517.40002441406</ele>
        <time>2021-08-26T04:09:40.000Z</time>
      </trkpt>
      <trkpt lat="45.20154" lon="5.72467">
        <ele>517.40002441406</ele>
        <time>2021-08-26T04:09:41.000Z</time>
      </trkpt>
      <trkpt lat="45.20155" lon="5.72468">
        <ele>517.59997558594</ele>
        <time>2021-08-26T04:09:42.000Z</time>
      </trkpt>
      <trkpt lat="45.20156" lon="5.72468">
        <ele>518</ele>
        <time>2021-08-26T04:09:43.000Z</time>
      </trkpt>
      <trkpt lat="45.20156" lon="5.72469">
        <ele>518.59997558594</ele>
        <time>2021-08-26T04:09:44.000Z</time>
      </trkpt>
      <trkpt lat="45.20157" lon="5.72469">
        <ele>519.20001220703</ele>
        <time>2021-08-26T04:09:46.000Z</time>
      </trkpt>
      <trkpt lat="45.20158" lon="5.72471">
        <ele>519.59997558594</ele>
        <time>2021-08-26T04:09:49.000Z</time>
      </trkpt>
      <trkpt lat="45.20159" lon="5.72472">
        <ele>520</ele>
        <time>2021-08-26T04:09:50.000Z</time>
      </trkpt>
      <trkpt lat="45.20161" lon="5.72473">
        <ele>520.59997558594</ele>
        <time>2021-08-26T04:09:52.000Z</time>
      </trkpt>
      <trkpt lat="45.20162" lon="5.72474">
        <ele>520.79998779297</ele>
        <time>2021-08-26T04:09:53.000Z</time>
      </trkpt>
      <trkpt lat="45.20164" lon="5.72475">
        <ele>522</ele>
        <time>2021-08-26T04:09:55.000Z</time>
      </trkpt>
      <trkpt lat="45.20165" lon="5.72475">
        <ele>522.20001220703</ele>
        <time>2021-08-26T04:09:56.000Z</time>
      </trkpt>
      <trkpt lat="45.20168" lon="5.72477">
        <ele>523</ele>
        <time>2021-08-26T04:09:59.000Z</time>
      </trkpt>
      <trkpt lat="45.20169" lon="5.72478">
        <ele>523.40002441406</ele>
        <time>2021-08-26T04:10:00.000Z</time>
      </trkpt>
      <trkpt lat="45.2017" lon="5.7248">
        <ele>524.79998779297</ele>
        <time>2021-08-26T04:10:02.000Z</time>
      </trkpt>
      <trkpt lat="45.20171" lon="5.72481">
        <ele>525</ele>
        <time>2021-08-26T04:10:03.000Z</time>
      </trkpt>
      <trkpt lat="45.20173" lon="5.72485">
        <ele>525.59997558594</ele>
        <time>2021-08-26T04:10:07.000Z</time>
      </trkpt>
      <trkpt lat="45.20174" lon="5.72486">
        <ele>526.20001220703</ele>
        <time>2021-08-26T04:10:08.000Z</time>
      </trkpt>
      <trkpt lat="45.20176" lon="5.72487">
        <ele>527</ele>
        <time>2021-08-26T04:10:10.000Z</time>
      </trkpt>
      <trkpt lat="45.20176" lon="5.72487">
        <ele>527.20001220703</ele>
        <time>2021-08-26T04:10:11.000Z</time>
      </trkpt>
      <trkpt lat="45.2018" lon="5.72491">
        <ele>528.40002441406</ele>
        <time>2021-08-26T04:10:16.000Z</time>
      </trkpt>
      <trkpt lat="45.20181" lon="5.72492">
        <ele>528.40002441406</ele>
        <time>2021-08-26T04:10:17.000Z</time>
      </trkpt>
      <trkpt lat="45.20184" lon="5.72492">
        <ele>529.59997558594</ele>
        <time>2021-08-26T04:10:21.000Z</time>
      </trkpt>
      <trkpt lat="45.20186" lon="5.72494">
        <ele>530</ele>
        <time>2021-08-26T04:10:23.000Z</time>
      </trkpt>
      <trkpt lat="45.20187" lon="5.72495">
        <ele>530.20001220703</ele>
        <time>2021-08-26T04:10:24.000Z</time>
      </trkpt>
      <trkpt lat="45.20189" lon="5.72498">
        <ele>530.79998779297</ele>
        <time>2021-08-26T04:10:26.000Z</time>
      </trkpt>
      <trkpt lat="45.20191" lon="5.725">
        <ele>530.79998779297</ele>
        <time>2021-08-26T04:10:28.000Z</time>
      </trkpt>
      <trkpt lat="45.20195" lon="5.72504">
        <ele>531.79998779297</ele>
        <time>2021-08-26T04:10:32.000Z</time>
      </trkpt>
      <trkpt lat="45.20198" lon="5.72506">
        <ele>532.20001220703</ele>
        <time>2021-08-26T04:10:35.000Z</time>
      </trkpt>
      <trkpt lat="45.20199" lon="5.72508">
        <ele>533</ele>
        <time>2021-08-26T04:10:37.000Z</time>
      </trkpt>
      <trkpt lat="45.20205" lon="5.72514">
        <ele>534.40002441406</ele>
        <time>2021-08-26T04:10:44.000Z</time>
      </trkpt>
      <trkpt lat="45.2021" lon="5.7252">
        <ele>535.40002441406</ele>
        <time>2021-08-26T04:10:50.000Z</time>
      </trkpt>
      <trkpt lat="45.20211" lon="5.72521">
        <ele>536</ele>
        <time>2021-08-26T04:10:52.000Z</time>
      </trkpt>
      <trkpt lat="45.20214" lon="5.72522">
        <ele>536.40002441406</ele>
        <time>2021-08-26T04:10:56.000Z</time>
      </trkpt>
      <trkpt lat="45.20215" lon="5.72521">
        <ele>536.79998779297</ele>
        <time>2021-08-26T04:10:57.000Z</time>
      </trkpt>
      <trkpt lat="45.20217" lon="5.72521">
        <ele>537.20001220703</ele>
        <time>2021-08-26T04:10:59.000Z</time>
      </trkpt>
      <trkpt lat="45.20219" lon="5.72522">
        <ele>538.40002441406</ele>
        <time>2021-08-26T04:11:01.000Z</time>
      </trkpt>
      <trkpt lat="45.20221" lon="5.72521">
        <ele>539.40002441406</ele>
        <time>2021-08-26T04:11:04.000Z</time>
      </trkpt>
      <trkpt lat="45.20222" lon="5.72521">
        <ele>539.40002441406</ele>
        <time>2021-08-26T04:11:05.000Z</time>
      </trkpt>
      <trkpt lat="45.20224" lon="5.72521">
        <ele>539.79998779297</ele>
        <time>2021-08-26T04:11:07.000Z</time>
      </trkpt>
      <trkpt lat="45.20225" lon="5.72521">
        <ele>540.59997558594</ele>
        <time>2021-08-26T04:11:09.000Z</time>
      </trkpt>
      <trkpt lat="45.20226" lon="5.72521">
        <ele>540.79998779297</ele>
        <time>2021-08-26T04:11:10.000Z</time>
      </trkpt>
      <trkpt lat="45.20227" lon="5.72521">
        <ele>541.20001220703</ele>
        <time>2021-08-26T04:11:11.000Z</time>
      </trkpt>
      <trkpt lat="45.20229" lon="5.72521">
        <ele>541.20001220703</ele>
        <time>2021-08-26T04:11:13.000Z</time>
      </trkpt>
      <trkpt lat="45.20229" lon="5.72521">
        <ele>541.59997558594</ele>
        <time>2021-08-26T04:11:14.000Z</time>
      </trkpt>
      <trkpt lat="45.20232" lon="5.72521">
        <ele>542.59997558594</ele>
        <time>2021-08-26T04:11:17.000Z</time>
      </trkpt>
      <trkpt lat="45.20233" lon="5.7252">
        <ele>542.59997558594</ele>
        <time>2021-08-26T04:11:18.000Z</time>
      </trkpt>
      <trkpt lat="45.20236" lon="5.72518">
        <ele>543</ele>
        <time>2021-08-26T04:11:20.000Z</time>
      </trkpt>
      <trkpt lat="45.20237" lon="5.72518">
        <ele>543.59997558594</ele>
        <time>2021-08-26T04:11:21.000Z</time>
      </trkpt>
      <trkpt lat="45.20238" lon="5.72519">
        <ele>544</ele>
        <time>2021-08-26T04:11:22.000Z</time>
      </trkpt>
      <trkpt lat="45.20242" lon="5.7252">
        <ele>544.59997558594</ele>
        <time>2021-08-26T04:11:25.000Z</time>
      </trkpt>
      <trkpt lat="45.20242" lon="5.7252">
        <ele>545.20001220703</ele>
        <time>2021-08-26T04:11:26.000Z</time>
      </trkpt>
      <trkpt lat="45.20244" lon="5.72519">
        <ele>546</ele>
        <time>2021-08-26T04:11:30.000Z</time>
      </trkpt>
      <trkpt lat="45.20245" lon="5.72519">
        <ele>546.40002441406</ele>
        <time>2021-08-26T04:11:31.000Z</time>
      </trkpt>
      <trkpt lat="45.20247" lon="5.7252">
        <ele>547</ele>
        <time>2021-08-26T04:11:33.000Z</time>
      </trkpt>
      <trkpt lat="45.20247" lon="5.7252">
        <ele>547.59997558594</ele>
        <time>2021-08-26T04:11:34.000Z</time>
      </trkpt>
      <trkpt lat="45.20248" lon="5.72519">
        <ele>547.79998779297</ele>
        <time>2021-08-26T04:11:36.000Z</time>
      </trkpt>
      <trkpt lat="45.20249" lon="5.72518">
        <ele>548.20001220703</ele>
        <time>2021-08-26T04:11:37.000Z</time>
      </trkpt>
      <trkpt lat="45.2025" lon="5.72516">
        <ele>549</ele>
        <time>2021-08-26T04:11:39.000Z</time>
      </trkpt>
      <trkpt lat="45.20253" lon="5.72515">
        <ele>550</ele>
        <time>2021-08-26T04:11:42.000Z</time>
      </trkpt>
      <trkpt lat="45.20256" lon="5.72518">
        <ele>550.40002441406</ele>
        <time>2021-08-26T04:11:44.000Z</time>
      </trkpt>
      <trkpt lat="45.20256" lon="5.72518">
        <ele>550.59997558594</ele>
        <time>2021-08-26T04:11:45.000Z</time>
      </trkpt>
      <trkpt lat="45.20258" lon="5.72518">
        <ele>551.20001220703</ele>
        <time>2021-08-26T04:11:46.000Z</time>
      </trkpt>
      <trkpt lat="45.20261" lon="5.72519">
        <ele>551.40002441406</ele>
        <time>2021-08-26T04:11:49.000Z</time>
      </trkpt>
      <trkpt lat="45.20263" lon="5.72518">
        <ele>552</ele>
        <time>2021-08-26T04:11:51.000Z</time>
      </trkpt>
      <trkpt lat="45.20264" lon="5.72517">
        <ele>552.59997558594</ele>
        <time>2021-08-26T04:11:52.000Z</time>
      </trkpt>
      <trkpt lat="45.20266" lon="5.72517">
        <ele>553</ele>
        <time>2021-08-26T04:11:54.000Z</time>
      </trkpt>
      <trkpt lat="45.20272" lon="5.72517">
        <ele>554</ele>
        <time>2021-08-26T04:11:59.000Z</time>
      </trkpt>
      <trkpt lat="45.20279" lon="5.72517">
        <ele>555.20001220703</ele>
        <time>2021-08-26T04:12:04.000Z</time>
      </trkpt>
      <trkpt lat="45.20282" lon="5.72517">
        <ele>556</ele>
        <time>2021-08-26T04:12:06.000Z</time>
      </trkpt>
      <trkpt lat="45.20283" lon="5.72517">
        <ele>556.20001220703</ele>
        <time>2021-08-26T04:12:07.000Z</time>
      </trkpt>
      <trkpt lat="45.20288" lon="5.72517">
        <ele>557.40002441406</ele>
        <time>2021-08-26T04:12:11.000Z</time>
      </trkpt>
      <trkpt lat="45.20294" lon="5.72516">
        <ele>557.79998779297</ele>
        <time>2021-08-26T04:12:14.000Z</time>
      </trkpt>
      <trkpt lat="45.20296" lon="5.72515">
        <ele>558.59997558594</ele>
        <time>2021-08-26T04:12:16.000Z</time>
      </trkpt>
      <trkpt lat="45.20301" lon="5.72515">
        <ele>559</ele>
        <time>2021-08-26T04:12:19.000Z</time>
      </trkpt>
      <trkpt lat="45.20304" lon="5.72515">
        <ele>559.79998779297</ele>
        <time>2021-08-26T04:12:21.000Z</time>
      </trkpt>
      <trkpt lat="45.20306" lon="5.72515">
        <ele>560</ele>
        <time>2021-08-26T04:12:23.000Z</time>
      </trkpt>
      <trkpt lat="45.20308" lon="5.72515">
        <ele>561</ele>
        <time>2021-08-26T04:12:26.000Z</time>
      </trkpt>
      <trkpt lat="45.20309" lon="5.72515">
        <ele>561.59997558594</ele>
        <time>2021-08-26T04:12:27.000Z</time>
      </trkpt>
      <trkpt lat="45.20312" lon="5.72516">
        <ele>562</ele>
        <time>2021-08-26T04:12:30.000Z</time>
      </trkpt>
      <trkpt lat="45.20314" lon="5.72516">
        <ele>562.20001220703</ele>
        <time>2021-08-26T04:12:31.000Z</time>
      </trkpt>
      <trkpt lat="45.20315" lon="5.72516">
        <ele>562.59997558594</ele>
        <time>2021-08-26T04:12:32.000Z</time>
      </trkpt>
      <trkpt lat="45.20317" lon="5.72516">
        <ele>563.40002441406</ele>
        <time>2021-08-26T04:12:34.000Z</time>
      </trkpt>
      <trkpt lat="45.20319" lon="5.72517">
        <ele>564.40002441406</ele>
        <time>2021-08-26T04:12:36.000Z</time>
      </trkpt>
      <trkpt lat="45.20321" lon="5.72517">
        <ele>564.59997558594</ele>
        <time>2021-08-26T04:12:39.000Z</time>
      </trkpt>
      <trkpt lat="45.20324" lon="5.72517">
        <ele>566</ele>
        <time>2021-08-26T04:12:42.000Z</time>
      </trkpt>
      <trkpt lat="45.20329" lon="5.72518">
        <ele>567.20001220703</ele>
        <time>2021-08-26T04:12:47.000Z</time>
      </trkpt>
      <trkpt lat="45.2033" lon="5.72518">
        <ele>567.59997558594</ele>
        <time>2021-08-26T04:12:48.000Z</time>
      </trkpt>
      <trkpt lat="45.20331" lon="5.72518">
        <ele>568.20001220703</ele>
        <time>2021-08-26T04:12:49.000Z</time>
      </trkpt>
      <trkpt lat="45.20332" lon="5.72516">
        <ele>569.20001220703</ele>
        <time>2021-08-26T04:12:53.000Z</time>
      </trkpt>
      <trkpt lat="45.20333" lon="5.72516">
        <ele>569.40002441406</ele>
        <time>2021-08-26T04:12:54.000Z</time>
      </trkpt>
      <trkpt lat="45.20333" lon="5.72517">
        <ele>569.59997558594</ele>
        <time>2021-08-26T04:12:55.000Z</time>
      </trkpt>
      <trkpt lat="45.20335" lon="5.72519">
        <ele>570</ele>
        <time>2021-08-26T04:12:57.000Z</time>
      </trkpt>
      <trkpt lat="45.20335" lon="5.72519">
        <ele>570.40002441406</ele>
        <time>2021-08-26T04:12:58.000Z</time>
      </trkpt>
      <trkpt lat="45.20335" lon="5.72519">
        <ele>570.40002441406</ele>
        <time>2021-08-26T04:12:59.000Z</time>
      </trkpt>
      <trkpt lat="45.20336" lon="5.72519">
        <ele>571.20001220703</ele>
        <time>2021-08-26T04:13:01.000Z</time>
      </trkpt>
      <trkpt lat="45.20337" lon="5.72519">
        <ele>571.40002441406</ele>
        <time>2021-08-26T04:13:02.000Z</time>
      </trkpt>
      <trkpt lat="45.2034" lon="5.72518">
        <ele>572.59997558594</ele>
        <time>2021-08-26T04:13:05.000Z</time>
      </trkpt>
      <trkpt lat="45.20341" lon="5.72517">
        <ele>573.79998779297</ele>
        <time>2021-08-26T04:13:07.000Z</time>
      </trkpt>
      <trkpt lat="45.20343" lon="5.72519">
        <ele>574</ele>
        <time>2021-08-26T04:13:11.000Z</time>
      </trkpt>
      <trkpt lat="45.20346" lon="5.7252">
        <ele>575</ele>
        <time>2021-08-26T04:13:14.000Z</time>
      </trkpt>
      <trkpt lat="45.20347" lon="5.72519">
        <ele>575.20001220703</ele>
        <time>2021-08-26T04:13:16.000Z</time>
      </trkpt>
      <trkpt lat="45.20348" lon="5.72519">
        <ele>575.40002441406</ele>
        <time>2021-08-26T04:13:18.000Z</time>
      </trkpt>
      <trkpt lat="45.20349" lon="5.72518">
        <ele>576.40002441406</ele>
        <time>2021-08-26T04:13:20.000Z</time>
      </trkpt>
      <trkpt lat="45.20351" lon="5.72518">
        <ele>577.20001220703</ele>
        <time>2021-08-26T04:13:23.000Z</time>
      </trkpt>
      <trkpt lat="45.20352" lon="5.72518">
        <ele>577.59997558594</ele>
        <time>2021-08-26T04:13:24.000Z</time>
      </trkpt>
      <trkpt lat="45.20353" lon="5.72519">
        <ele>577.79998779297</ele>
        <time>2021-08-26T04:13:25.000Z</time>
      </trkpt>
      <trkpt lat="45.20353" lon="5.72519">
        <ele>578</ele>
        <time>2021-08-26T04:13:26.000Z</time>
      </trkpt>
      <trkpt lat="45.20353" lon="5.72517">
        <ele>578.79998779297</ele>
        <time>2021-08-26T04:13:28.000Z</time>
      </trkpt>
      <trkpt lat="45.20357" lon="5.72517">
        <ele>579.79998779297</ele>
        <time>2021-08-26T04:13:32.000Z</time>
      </trkpt>
      <trkpt lat="45.20358" lon="5.72518">
        <ele>580.20001220703</ele>
        <time>2021-08-26T04:13:33.000Z</time>
      </trkpt>
      <trkpt lat="45.20358" lon="5.72519">
        <ele>580.40002441406</ele>
        <time>2021-08-26T04:13:34.000Z</time>
      </trkpt>
      <trkpt lat="45.20359" lon="5.7252">
        <ele>581</ele>
        <time>2021-08-26T04:13:37.000Z</time>
      </trkpt>
      <trkpt lat="45.20361" lon="5.7252">
        <ele>581.20001220703</ele>
        <time>2021-08-26T04:13:39.000Z</time>
      </trkpt>
      <trkpt lat="45.20361" lon="5.7252">
        <ele>581.40002441406</ele>
        <time>2021-08-26T04:13:40.000Z</time>
      </trkpt>
      <trkpt lat="45.20364" lon="5.7252">
        <ele>582</ele>
        <time>2021-08-26T04:13:43.000Z</time>
      </trkpt>
      <trkpt lat="45.20365" lon="5.72519">
        <ele>582.59997558594</ele>
        <time>2021-08-26T04:13:44.000Z</time>
      </trkpt>
      <trkpt lat="45.20366" lon="5.72519">
        <ele>583.20001220703</ele>
        <time>2021-08-26T04:13:46.000Z</time>
      </trkpt>
      <trkpt lat="45.20369" lon="5.72522">
        <ele>583.40002441406</ele>
        <time>2021-08-26T04:13:48.000Z</time>
      </trkpt>
      <trkpt lat="45.20371" lon="5.72525">
        <ele>583.40002441406</ele>
        <time>2021-08-26T04:13:50.000Z</time>
      </trkpt>
      <trkpt lat="45.20372" lon="5.72527">
        <ele>584.20001220703</ele>
        <time>2021-08-26T04:13:51.000Z</time>
      </trkpt>
      <trkpt lat="45.20375" lon="5.7253">
        <ele>584.79998779297</ele>
        <time>2021-08-26T04:13:54.000Z</time>
      </trkpt>
      <trkpt lat="45.20375" lon="5.72529">
        <ele>585.59997558594</ele>
        <time>2021-08-26T04:13:55.000Z</time>
      </trkpt>
      <trkpt lat="45.20376" lon="5.72529">
        <ele>585.79998779297</ele>
        <time>2021-08-26T04:13:56.000Z</time>
      </trkpt>
      <trkpt lat="45.20376" lon="5.72528">
        <ele>586.20001220703</ele>
        <time>2021-08-26T04:13:58.000Z</time>
      </trkpt>
      <trkpt lat="45.20378" lon="5.72529">
        <ele>586.79998779297</ele>
        <time>2021-08-26T04:14:00.000Z</time>
      </trkpt>
      <trkpt lat="45.20378" lon="5.72531">
        <ele>586.79998779297</ele>
        <time>2021-08-26T04:14:01.000Z</time>
      </trkpt>
      <trkpt lat="45.2038" lon="5.72533">
        <ele>587.20001220703</ele>
        <time>2021-08-26T04:14:03.000Z</time>
      </trkpt>
      <trkpt lat="45.20382" lon="5.72534">
        <ele>588</ele>
        <time>2021-08-26T04:14:05.000Z</time>
      </trkpt>
      <trkpt lat="45.20384" lon="5.72538">
        <ele>589.20001220703</ele>
        <time>2021-08-26T04:14:09.000Z</time>
      </trkpt>
      <trkpt lat="45.20386" lon="5.72541">
        <ele>589.59997558594</ele>
        <time>2021-08-26T04:14:12.000Z</time>
      </trkpt>
      <trkpt lat="45.20388" lon="5.72542">
        <ele>590.40002441406</ele>
        <time>2021-08-26T04:14:14.000Z</time>
      </trkpt>
      <trkpt lat="45.20389" lon="5.7254">
        <ele>591.20001220703</ele>
        <time>2021-08-26T04:14:16.000Z</time>
      </trkpt>
      <trkpt lat="45.20391" lon="5.72537">
        <ele>591.79998779297</ele>
        <time>2021-08-26T04:14:19.000Z</time>
      </trkpt>
      <trkpt lat="45.20393" lon="5.72535">
        <ele>593.20001220703</ele>
        <time>2021-08-26T04:14:21.000Z</time>
      </trkpt>
      <trkpt lat="45.20394" lon="5.72533">
        <ele>593.59997558594</ele>
        <time>2021-08-26T04:14:23.000Z</time>
      </trkpt>
      <trkpt lat="45.20398" lon="5.72533">
        <ele>594.20001220703</ele>
        <time>2021-08-26T04:14:26.000Z</time>
      </trkpt>
      <trkpt lat="45.20401" lon="5.72536">
        <ele>595</ele>
        <time>2021-08-26T04:14:29.000Z</time>
      </trkpt>
      <trkpt lat="45.20402" lon="5.72537">
        <ele>595.40002441406</ele>
        <time>2021-08-26T04:14:30.000Z</time>
      </trkpt>
      <trkpt lat="45.20403" lon="5.72536">
        <ele>596.20001220703</ele>
        <time>2021-08-26T04:14:34.000Z</time>
      </trkpt>
      <trkpt lat="45.20404" lon="5.72535">
        <ele>596.79998779297</ele>
        <time>2021-08-26T04:14:35.000Z</time>
      </trkpt>
      <trkpt lat="45.20405" lon="5.72534">
        <ele>597.20001220703</ele>
        <time>2021-08-26T04:14:39.000Z</time>
      </trkpt>
      <trkpt lat="45.20405" lon="5.72534">
        <ele>598.20001220703</ele>
        <time>2021-08-26T04:14:40.000Z</time>
      </trkpt>
      <trkpt lat="45.20406" lon="5.72534">
        <ele>598.20001220703</ele>
        <time>2021-08-26T04:14:41.000Z</time>
      </trkpt>
      <trkpt lat="45.20409" lon="5.72531">
        <ele>599</ele>
        <time>2021-08-26T04:14:45.000Z</time>
      </trkpt>
      <trkpt lat="45.2041" lon="5.7253">
        <ele>599.20001220703</ele>
        <time>2021-08-26T04:14:46.000Z</time>
      </trkpt>
      <trkpt lat="45.20412" lon="5.72528">
        <ele>600.40002441406</ele>
        <time>2021-08-26T04:14:50.000Z</time>
      </trkpt>
      <trkpt lat="45.20415" lon="5.72527">
        <ele>601.40002441406</ele>
        <time>2021-08-26T04:14:53.000Z</time>
      </trkpt>
      <trkpt lat="45.20415" lon="5.72526">
        <ele>601.40002441406</ele>
        <time>2021-08-26T04:14:54.000Z</time>
      </trkpt>
      <trkpt lat="45.20415" lon="5.72526">
        <ele>601.59997558594</ele>
        <time>2021-08-26T04:14:55.000Z</time>
      </trkpt>
      <trkpt lat="45.20415" lon="5.72524">
        <ele>602.40002441406</ele>
        <time>2021-08-26T04:14:57.000Z</time>
      </trkpt>
      <trkpt lat="45.20415" lon="5.72522">
        <ele>602.79998779297</ele>
        <time>2021-08-26T04:14:58.000Z</time>
      </trkpt>
      <trkpt lat="45.20417" lon="5.72519">
        <ele>603</ele>
        <time>2021-08-26T04:15:01.000Z</time>
      </trkpt>
      <trkpt lat="45.20418" lon="5.72518">
        <ele>603.40002441406</ele>
        <time>2021-08-26T04:15:03.000Z</time>
      </trkpt>
      <trkpt lat="45.20418" lon="5.72518">
        <ele>604</ele>
        <time>2021-08-26T04:15:04.000Z</time>
      </trkpt>
      <trkpt lat="45.2042" lon="5.72517">
        <ele>604.59997558594</ele>
        <time>2021-08-26T04:15:06.000Z</time>
      </trkpt>
      <trkpt lat="45.20421" lon="5.72516">
        <ele>605</ele>
        <time>2021-08-26T04:15:07.000Z</time>
      </trkpt>
      <trkpt lat="45.20422" lon="5.72516">
        <ele>605.40002441406</ele>
        <time>2021-08-26T04:15:08.000Z</time>
      </trkpt>
      <trkpt lat="45.20423" lon="5.72515">
        <ele>605.40002441406</ele>
        <time>2021-08-26T04:15:09.000Z</time>
      </trkpt>
      <trkpt lat="45.20424" lon="5.72515">
        <ele>606.59997558594</ele>
        <time>2021-08-26T04:15:12.000Z</time>
      </trkpt>
      <trkpt lat="45.20426" lon="5.72515">
        <ele>607.59997558594</ele>
        <time>2021-08-26T04:15:15.000Z</time>
      </trkpt>
      <trkpt lat="45.20428" lon="5.72513">
        <ele>608.79998779297</ele>
        <time>2021-08-26T04:15:20.000Z</time>
      </trkpt>
      <trkpt lat="45.20431" lon="5.72513">
        <ele>610.59997558594</ele>
        <time>2021-08-26T04:15:23.000Z</time>
      </trkpt>
      <trkpt lat="45.20435" lon="5.72515">
        <ele>611.20001220703</ele>
        <time>2021-08-26T04:15:26.000Z</time>
      </trkpt>
      <trkpt lat="45.20442" lon="5.72515">
        <ele>611.79998779297</ele>
        <time>2021-08-26T04:15:30.000Z</time>
      </trkpt>
      <trkpt lat="45.20445" lon="5.72516">
        <ele>612</ele>
        <time>2021-08-26T04:15:31.000Z</time>
      </trkpt>
      <trkpt lat="45.20451" lon="5.72519">
        <ele>613</ele>
        <time>2021-08-26T04:15:35.000Z</time>
      </trkpt>
      <trkpt lat="45.20452" lon="5.72521">
        <ele>613</ele>
        <time>2021-08-26T04:15:36.000Z</time>
      </trkpt>
      <trkpt lat="45.20454" lon="5.72524">
        <ele>613.59997558594</ele>
        <time>2021-08-26T04:15:38.000Z</time>
      </trkpt>
      <trkpt lat="45.20457" lon="5.72528">
        <ele>614</ele>
        <time>2021-08-26T04:15:40.000Z</time>
      </trkpt>
      <trkpt lat="45.20457" lon="5.7253">
        <ele>614</ele>
        <time>2021-08-26T04:15:41.000Z</time>
      </trkpt>
      <trkpt lat="45.20459" lon="5.72532">
        <ele>614.20001220703</ele>
        <time>2021-08-26T04:15:42.000Z</time>
      </trkpt>
      <trkpt lat="45.20466" lon="5.72538">
        <ele>615.20001220703</ele>
        <time>2021-08-26T04:15:47.000Z</time>
      </trkpt>
      <trkpt lat="45.20469" lon="5.72543">
        <ele>615.79998779297</ele>
        <time>2021-08-26T04:15:50.000Z</time>
      </trkpt>
      <trkpt lat="45.20472" lon="5.72546">
        <ele>616.20001220703</ele>
        <time>2021-08-26T04:15:52.000Z</time>
      </trkpt>
      <trkpt lat="45.20481" lon="5.72556">
        <ele>617.20001220703</ele>
        <time>2021-08-26T04:15:58.000Z</time>
      </trkpt>
      <trkpt lat="45.20482" lon="5.72558">
        <ele>617.59997558594</ele>
        <time>2021-08-26T04:15:59.000Z</time>
      </trkpt>
      <trkpt lat="45.20491" lon="5.72561">
        <ele>618</ele>
        <time>2021-08-26T04:16:04.000Z</time>
      </trkpt>
      <trkpt lat="45.20501" lon="5.7257">
        <ele>619</ele>
        <time>2021-08-26T04:16:10.000Z</time>
      </trkpt>
      <trkpt lat="45.20503" lon="5.72571">
        <ele>619</ele>
        <time>2021-08-26T04:16:11.000Z</time>
      </trkpt>
      <trkpt lat="45.20519" lon="5.72574">
        <ele>619.79998779297</ele>
        <time>2021-08-26T04:16:19.000Z</time>
      </trkpt>
      <trkpt lat="45.20521" lon="5.72574">
        <ele>620</ele>
        <time>2021-08-26T04:16:20.000Z</time>
      </trkpt>
      <trkpt lat="45.20528" lon="5.72571">
        <ele>621</ele>
        <time>2021-08-26T04:16:24.000Z</time>
      </trkpt>
      <trkpt lat="45.2053" lon="5.7257">
        <ele>621.20001220703</ele>
        <time>2021-08-26T04:16:25.000Z</time>
      </trkpt>
      <trkpt lat="45.20538" lon="5.72561">
        <ele>622.20001220703</ele>
        <time>2021-08-26T04:16:30.000Z</time>
      </trkpt>
      <trkpt lat="45.2054" lon="5.7256">
        <ele>622.40002441406</ele>
        <time>2021-08-26T04:16:31.000Z</time>
      </trkpt>
      <trkpt lat="45.20549" lon="5.72559">
        <ele>623</ele>
        <time>2021-08-26T04:16:36.000Z</time>
      </trkpt>
      <trkpt lat="45.20552" lon="5.72559">
        <ele>623.40002441406</ele>
        <time>2021-08-26T04:16:38.000Z</time>
      </trkpt>
      <trkpt lat="45.20563" lon="5.72561">
        <ele>624.20001220703</ele>
        <time>2021-08-26T04:16:44.000Z</time>
      </trkpt>
      <trkpt lat="45.20567" lon="5.72563">
        <ele>624.40002441406</ele>
        <time>2021-08-26T04:16:46.000Z</time>
      </trkpt>
      <trkpt lat="45.20575" lon="5.72567">
        <ele>624.59997558594</ele>
        <time>2021-08-26T04:16:50.000Z</time>
      </trkpt>
      <trkpt lat="45.20582" lon="5.72571">
        <ele>625.59997558594</ele>
        <time>2021-08-26T04:16:54.000Z</time>
      </trkpt>
      <trkpt lat="45.20586" lon="5.72572">
        <ele>626</ele>
        <time>2021-08-26T04:16:56.000Z</time>
      </trkpt>
      <trkpt lat="45.2059" lon="5.72575">
        <ele>626.59997558594</ele>
        <time>2021-08-26T04:16:58.000Z</time>
      </trkpt>
      <trkpt lat="45.20595" lon="5.72582">
        <ele>627.20001220703</ele>
        <time>2021-08-26T04:17:03.000Z</time>
      </trkpt>
      <trkpt lat="45.20597" lon="5.72585">
        <ele>627.59997558594</ele>
        <time>2021-08-26T04:17:05.000Z</time>
      </trkpt>
      <trkpt lat="45.20603" lon="5.72591">
        <ele>628</ele>
        <time>2021-08-26T04:17:09.000Z</time>
      </trkpt>
      <trkpt lat="45.20612" lon="5.72596">
        <ele>629</ele>
        <time>2021-08-26T04:17:15.000Z</time>
      </trkpt>
      <trkpt lat="45.20613" lon="5.72597">
        <ele>629.40002441406</ele>
        <time>2021-08-26T04:17:16.000Z</time>
      </trkpt>
      <trkpt lat="45.20623" lon="5.726">
        <ele>630.59997558594</ele>
        <time>2021-08-26T04:17:20.000Z</time>
      </trkpt>
      <trkpt lat="45.20627" lon="5.72603">
        <ele>630.79998779297</ele>
        <time>2021-08-26T04:17:22.000Z</time>
      </trkpt>
      <trkpt lat="45.2063" lon="5.72606">
        <ele>631.40002441406</ele>
        <time>2021-08-26T04:17:24.000Z</time>
      </trkpt>
      <trkpt lat="45.20634" lon="5.72606">
        <ele>631.59997558594</ele>
        <time>2021-08-26T04:17:26.000Z</time>
      </trkpt>
      <trkpt lat="45.20636" lon="5.72605">
        <ele>631.59997558594</ele>
        <time>2021-08-26T04:17:27.000Z</time>
      </trkpt>
      <trkpt lat="45.20644" lon="5.72604">
        <ele>632.20001220703</ele>
        <time>2021-08-26T04:17:31.000Z</time>
      </trkpt>
      <trkpt lat="45.20648" lon="5.72603">
        <ele>632.79998779297</ele>
        <time>2021-08-26T04:17:33.000Z</time>
      </trkpt>
      <trkpt lat="45.20658" lon="5.72595">
        <ele>633.20001220703</ele>
        <time>2021-08-26T04:17:40.000Z</time>
      </trkpt>
      <trkpt lat="45.20661" lon="5.72592">
        <ele>633.79998779297</ele>
        <time>2021-08-26T04:17:42.000Z</time>
      </trkpt>
      <trkpt lat="45.20666" lon="5.72586">
        <ele>634.59997558594</ele>
        <time>2021-08-26T04:17:46.000Z</time>
      </trkpt>
      <trkpt lat="45.20669" lon="5.72582">
        <ele>635</ele>
        <time>2021-08-26T04:17:48.000Z</time>
      </trkpt>
      <trkpt lat="45.20674" lon="5.72579">
        <ele>636</ele>
        <time>2021-08-26T04:17:51.000Z</time>
      </trkpt>
      <trkpt lat="45.20676" lon="5.72578">
        <ele>636.40002441406</ele>
        <time>2021-08-26T04:17:52.000Z</time>
      </trkpt>
      <trkpt lat="45.20685" lon="5.72573">
        <ele>637.59997558594</ele>
        <time>2021-08-26T04:17:57.000Z</time>
      </trkpt>
      <trkpt lat="45.2069" lon="5.72573">
        <ele>638.59997558594</ele>
        <time>2021-08-26T04:18:00.000Z</time>
      </trkpt>
      <trkpt lat="45.20695" lon="5.72572">
        <ele>639.79998779297</ele>
        <time>2021-08-26T04:18:04.000Z</time>
      </trkpt>
      <trkpt lat="45.20697" lon="5.72572">
        <ele>640</ele>
        <time>2021-08-26T04:18:05.000Z</time>
      </trkpt>
      <trkpt lat="45.207" lon="5.72575">
        <ele>640.20001220703</ele>
        <time>2021-08-26T04:18:07.000Z</time>
      </trkpt>
      <trkpt lat="45.20701" lon="5.72576">
        <ele>641</ele>
        <time>2021-08-26T04:18:08.000Z</time>
      </trkpt>
      <trkpt lat="45.20703" lon="5.72579">
        <ele>641.59997558594</ele>
        <time>2021-08-26T04:18:11.000Z</time>
      </trkpt>
      <trkpt lat="45.20704" lon="5.72579">
        <ele>642</ele>
        <time>2021-08-26T04:18:12.000Z</time>
      </trkpt>
      <trkpt lat="45.20705" lon="5.72578">
        <ele>642.59997558594</ele>
        <time>2021-08-26T04:18:13.000Z</time>
      </trkpt>
      <trkpt lat="45.20708" lon="5.72579">
        <ele>643.20001220703</ele>
        <time>2021-08-26T04:18:16.000Z</time>
      </trkpt>
      <trkpt lat="45.20711" lon="5.72581">
        <ele>644.20001220703</ele>
        <time>2021-08-26T04:18:18.000Z</time>
      </trkpt>
      <trkpt lat="45.20714" lon="5.72582">
        <ele>645</ele>
        <time>2021-08-26T04:18:21.000Z</time>
      </trkpt>
      <trkpt lat="45.20716" lon="5.72581">
        <ele>645.79998779297</ele>
        <time>2021-08-26T04:18:23.000Z</time>
      </trkpt>
      <trkpt lat="45.2072" lon="5.7258">
        <ele>646.20001220703</ele>
        <time>2021-08-26T04:18:26.000Z</time>
      </trkpt>
      <trkpt lat="45.20722" lon="5.7258">
        <ele>647.20001220703</ele>
        <time>2021-08-26T04:18:29.000Z</time>
      </trkpt>
      <trkpt lat="45.20723" lon="5.72581">
        <ele>647.40002441406</ele>
        <time>2021-08-26T04:18:30.000Z</time>
      </trkpt>
      <trkpt lat="45.20727" lon="5.72584">
        <ele>648.20001220703</ele>
        <time>2021-08-26T04:18:33.000Z</time>
      </trkpt>
      <trkpt lat="45.20733" lon="5.72585">
        <ele>649.40002441406</ele>
        <time>2021-08-26T04:18:38.000Z</time>
      </trkpt>
      <trkpt lat="45.20737" lon="5.72588">
        <ele>650.40002441406</ele>
        <time>2021-08-26T04:18:41.000Z</time>
      </trkpt>
      <trkpt lat="45.20739" lon="5.72593">
        <ele>650.79998779297</ele>
        <time>2021-08-26T04:18:43.000Z</time>
      </trkpt>
      <trkpt lat="45.20739" lon="5.72595">
        <ele>651.20001220703</ele>
        <time>2021-08-26T04:18:44.000Z</time>
      </trkpt>
      <trkpt lat="45.20739" lon="5.72596">
        <ele>651.79998779297</ele>
        <time>2021-08-26T04:18:45.000Z</time>
      </trkpt>
      <trkpt lat="45.2074" lon="5.72598">
        <ele>652.20001220703</ele>
        <time>2021-08-26T04:18:47.000Z</time>
      </trkpt>
      <trkpt lat="45.20741" lon="5.72599">
        <ele>652.20001220703</ele>
        <time>2021-08-26T04:18:48.000Z</time>
      </trkpt>
      <trkpt lat="45.20742" lon="5.72602">
        <ele>653.20001220703</ele>
        <time>2021-08-26T04:18:50.000Z</time>
      </trkpt>
      <trkpt lat="45.20743" lon="5.72607">
        <ele>653.40002441406</ele>
        <time>2021-08-26T04:18:53.000Z</time>
      </trkpt>
      <trkpt lat="45.20744" lon="5.72612">
        <ele>654.20001220703</ele>
        <time>2021-08-26T04:18:55.000Z</time>
      </trkpt>
      <trkpt lat="45.20748" lon="5.7262">
        <ele>655.59997558594</ele>
        <time>2021-08-26T04:18:59.000Z</time>
      </trkpt>
      <trkpt lat="45.20749" lon="5.72621">
        <ele>656</ele>
        <time>2021-08-26T04:19:01.000Z</time>
      </trkpt>
      <trkpt lat="45.2075" lon="5.7262">
        <ele>656.40002441406</ele>
        <time>2021-08-26T04:19:02.000Z</time>
      </trkpt>
      <trkpt lat="45.20752" lon="5.7262">
        <ele>656.79998779297</ele>
        <time>2021-08-26T04:19:04.000Z</time>
      </trkpt>
      <trkpt lat="45.20755" lon="5.72619">
        <ele>657.79998779297</ele>
        <time>2021-08-26T04:19:07.000Z</time>
      </trkpt>
      <trkpt lat="45.20755" lon="5.72618">
        <ele>658.20001220703</ele>
        <time>2021-08-26T04:19:09.000Z</time>
      </trkpt>
      <trkpt lat="45.2076" lon="5.72616">
        <ele>659.40002441406</ele>
        <time>2021-08-26T04:19:13.000Z</time>
      </trkpt>
      <trkpt lat="45.20762" lon="5.72614">
        <ele>659.79998779297</ele>
        <time>2021-08-26T04:19:15.000Z</time>
      </trkpt>
      <trkpt lat="45.20766" lon="5.72613">
        <ele>660.59997558594</ele>
        <time>2021-08-26T04:19:19.000Z</time>
      </trkpt>
      <trkpt lat="45.20768" lon="5.72611">
        <ele>661.59997558594</ele>
        <time>2021-08-26T04:19:22.000Z</time>
      </trkpt>
      <trkpt lat="45.20768" lon="5.7261">
        <ele>661.79998779297</ele>
        <time>2021-08-26T04:19:23.000Z</time>
      </trkpt>
      <trkpt lat="45.20769" lon="5.7261">
        <ele>662.40002441406</ele>
        <time>2021-08-26T04:19:25.000Z</time>
      </trkpt>
      <trkpt lat="45.20773" lon="5.72613">
        <ele>663.20001220703</ele>
        <time>2021-08-26T04:19:27.000Z</time>
      </trkpt>
      <trkpt lat="45.20774" lon="5.72617">
        <ele>663.79998779297</ele>
        <time>2021-08-26T04:19:29.000Z</time>
      </trkpt>
      <trkpt lat="45.20775" lon="5.72621">
        <ele>664.40002441406</ele>
        <time>2021-08-26T04:19:32.000Z</time>
      </trkpt>
      <trkpt lat="45.20775" lon="5.72627">
        <ele>665.40002441406</ele>
        <time>2021-08-26T04:19:35.000Z</time>
      </trkpt>
      <trkpt lat="45.20774" lon="5.72629">
        <ele>665.40002441406</ele>
        <time>2021-08-26T04:19:36.000Z</time>
      </trkpt>
      <trkpt lat="45.20774" lon="5.72631">
        <ele>665.40002441406</ele>
        <time>2021-08-26T04:19:37.000Z</time>
      </trkpt>
      <trkpt lat="45.20773" lon="5.72637">
        <ele>666.40002441406</ele>
        <time>2021-08-26T04:19:40.000Z</time>
      </trkpt>
      <trkpt lat="45.20773" lon="5.72638">
        <ele>667</ele>
        <time>2021-08-26T04:19:41.000Z</time>
      </trkpt>
      <trkpt lat="45.20774" lon="5.72642">
        <ele>667.40002441406</ele>
        <time>2021-08-26T04:19:45.000Z</time>
      </trkpt>
      <trkpt lat="45.20773" lon="5.72644">
        <ele>668.59997558594</ele>
        <time>2021-08-26T04:19:47.000Z</time>
      </trkpt>
      <trkpt lat="45.20773" lon="5.72645">
        <ele>668.79998779297</ele>
        <time>2021-08-26T04:19:48.000Z</time>
      </trkpt>
      <trkpt lat="45.20777" lon="5.72647">
        <ele>670.20001220703</ele>
        <time>2021-08-26T04:19:53.000Z</time>
      </trkpt>
      <trkpt lat="45.20778" lon="5.72646">
        <ele>670.79998779297</ele>
        <time>2021-08-26T04:19:54.000Z</time>
      </trkpt>
      <trkpt lat="45.20779" lon="5.72646">
        <ele>671</ele>
        <time>2021-08-26T04:19:55.000Z</time>
      </trkpt>
      <trkpt lat="45.20781" lon="5.72644">
        <ele>671.40002441406</ele>
        <time>2021-08-26T04:19:57.000Z</time>
      </trkpt>
      <trkpt lat="45.20785" lon="5.72641">
        <ele>672.59997558594</ele>
        <time>2021-08-26T04:20:00.000Z</time>
      </trkpt>
      <trkpt lat="45.20786" lon="5.7264">
        <ele>672.59997558594</ele>
        <time>2021-08-26T04:20:01.000Z</time>
      </trkpt>
      <trkpt lat="45.20789" lon="5.72637">
        <ele>673.79998779297</ele>
        <time>2021-08-26T04:20:05.000Z</time>
      </trkpt>
      <trkpt lat="45.20791" lon="5.72636">
        <ele>674.40002441406</ele>
        <time>2021-08-26T04:20:07.000Z</time>
      </trkpt>
      <trkpt lat="45.20792" lon="5.72634">
        <ele>674.79998779297</ele>
        <time>2021-08-26T04:20:09.000Z</time>
      </trkpt>
      <trkpt lat="45.20793" lon="5.72633">
        <ele>674.79998779297</ele>
        <time>2021-08-26T04:20:10.000Z</time>
      </trkpt>
      <trkpt lat="45.20794" lon="5.72631">
        <ele>674.79998779297</ele>
        <time>2021-08-26T04:20:11.000Z</time>
      </trkpt>
      <trkpt lat="45.20794" lon="5.72626">
        <ele>676</ele>
        <time>2021-08-26T04:20:14.000Z</time>
      </trkpt>
      <trkpt lat="45.20794" lon="5.72623">
        <ele>676.20001220703</ele>
        <time>2021-08-26T04:20:17.000Z</time>
      </trkpt>
      <trkpt lat="45.20796" lon="5.72622">
        <ele>677.40002441406</ele>
        <time>2021-08-26T04:20:19.000Z</time>
      </trkpt>
      <trkpt lat="45.20799" lon="5.72626">
        <ele>678.59997558594</ele>
        <time>2021-08-26T04:20:23.000Z</time>
      </trkpt>
      <trkpt lat="45.20801" lon="5.7263">
        <ele>679</ele>
        <time>2021-08-26T04:20:25.000Z</time>
      </trkpt>
      <trkpt lat="45.20802" lon="5.72633">
        <ele>679.79998779297</ele>
        <time>2021-08-26T04:20:27.000Z</time>
      </trkpt>
      <trkpt lat="45.20804" lon="5.72638">
        <ele>681.40002441406</ele>
        <time>2021-08-26T04:20:32.000Z</time>
      </trkpt>
      <trkpt lat="45.20806" lon="5.72641">
        <ele>682.40002441406</ele>
        <time>2021-08-26T04:20:35.000Z</time>
      </trkpt>
      <trkpt lat="45.20806" lon="5.72642">
        <ele>682.40002441406</ele>
        <time>2021-08-26T04:20:36.000Z</time>
      </trkpt>
      <trkpt lat="45.20806" lon="5.72643">
        <ele>682.59997558594</ele>
        <time>2021-08-26T04:20:37.000Z</time>
      </trkpt>
      <trkpt lat="45.20806" lon="5.72645">
        <ele>682.59997558594</ele>
        <time>2021-08-26T04:20:38.000Z</time>
      </trkpt>
      <trkpt lat="45.20807" lon="5.72649">
        <ele>683.79998779297</ele>
        <time>2021-08-26T04:20:41.000Z</time>
      </trkpt>
      <trkpt lat="45.20808" lon="5.7265">
        <ele>684.20001220703</ele>
        <time>2021-08-26T04:20:42.000Z</time>
      </trkpt>
      <trkpt lat="45.20809" lon="5.72653">
        <ele>684.59997558594</ele>
        <time>2021-08-26T04:20:44.000Z</time>
      </trkpt>
      <trkpt lat="45.2081" lon="5.72658">
        <ele>684.59997558594</ele>
        <time>2021-08-26T04:20:46.000Z</time>
      </trkpt>
      <trkpt lat="45.2081" lon="5.7266">
        <ele>685.20001220703</ele>
        <time>2021-08-26T04:20:47.000Z</time>
      </trkpt>
      <trkpt lat="45.20811" lon="5.72665">
        <ele>686</ele>
        <time>2021-08-26T04:20:49.000Z</time>
      </trkpt>
      <trkpt lat="45.20812" lon="5.72667">
        <ele>686.20001220703</ele>
        <time>2021-08-26T04:20:51.000Z</time>
      </trkpt>
      <trkpt lat="45.20812" lon="5.72667">
        <ele>686.59997558594</ele>
        <time>2021-08-26T04:20:52.000Z</time>
      </trkpt>
      <trkpt lat="45.20815" lon="5.72666">
        <ele>687.59997558594</ele>
        <time>2021-08-26T04:20:55.000Z</time>
      </trkpt>
      <trkpt lat="45.20816" lon="5.72666">
        <ele>687.79998779297</ele>
        <time>2021-08-26T04:20:56.000Z</time>
      </trkpt>
      <trkpt lat="45.20817" lon="5.72665">
        <ele>687.79998779297</ele>
        <time>2021-08-26T04:20:57.000Z</time>
      </trkpt>
      <trkpt lat="45.20819" lon="5.72665">
        <ele>688.79998779297</ele>
        <time>2021-08-26T04:20:58.000Z</time>
      </trkpt>
      <trkpt lat="45.2082" lon="5.72664">
        <ele>689</ele>
        <time>2021-08-26T04:20:59.000Z</time>
      </trkpt>
      <trkpt lat="45.20821" lon="5.72662">
        <ele>689.20001220703</ele>
        <time>2021-08-26T04:21:01.000Z</time>
      </trkpt>
      <trkpt lat="45.20821" lon="5.7266">
        <ele>689.59997558594</ele>
        <time>2021-08-26T04:21:02.000Z</time>
      </trkpt>
      <trkpt lat="45.20821" lon="5.72659">
        <ele>689.79998779297</ele>
        <time>2021-08-26T04:21:03.000Z</time>
      </trkpt>
      <trkpt lat="45.20823" lon="5.72657">
        <ele>690.79998779297</ele>
        <time>2021-08-26T04:21:05.000Z</time>
      </trkpt>
      <trkpt lat="45.20828" lon="5.72653">
        <ele>692</ele>
        <time>2021-08-26T04:21:10.000Z</time>
      </trkpt>
      <trkpt lat="45.20831" lon="5.72655">
        <ele>692.40002441406</ele>
        <time>2021-08-26T04:21:12.000Z</time>
      </trkpt>
      <trkpt lat="45.20833" lon="5.72658">
        <ele>693.79998779297</ele>
        <time>2021-08-26T04:21:16.000Z</time>
      </trkpt>
      <trkpt lat="45.20833" lon="5.72659">
        <ele>694</ele>
        <time>2021-08-26T04:21:17.000Z</time>
      </trkpt>
      <trkpt lat="45.20835" lon="5.72663">
        <ele>694.59997558594</ele>
        <time>2021-08-26T04:21:20.000Z</time>
      </trkpt>
      <trkpt lat="45.20836" lon="5.72664">
        <ele>694.79998779297</ele>
        <time>2021-08-26T04:21:21.000Z</time>
      </trkpt>
      <trkpt lat="45.20836" lon="5.72668">
        <ele>696.20001220703</ele>
        <time>2021-08-26T04:21:24.000Z</time>
      </trkpt>
      <trkpt lat="45.20837" lon="5.72674">
        <ele>696.79998779297</ele>
        <time>2021-08-26T04:21:27.000Z</time>
      </trkpt>
      <trkpt lat="45.20838" lon="5.72678">
        <ele>697.40002441406</ele>
        <time>2021-08-26T04:21:29.000Z</time>
      </trkpt>
      <trkpt lat="45.20838" lon="5.7268">
        <ele>697.79998779297</ele>
        <time>2021-08-26T04:21:30.000Z</time>
      </trkpt>
      <trkpt lat="45.20839" lon="5.72686">
        <ele>698.40002441406</ele>
        <time>2021-08-26T04:21:34.000Z</time>
      </trkpt>
      <trkpt lat="45.20839" lon="5.72688">
        <ele>698.59997558594</ele>
        <time>2021-08-26T04:21:35.000Z</time>
      </trkpt>
      <trkpt lat="45.20838" lon="5.72691">
        <ele>699.79998779297</ele>
        <time>2021-08-26T04:21:37.000Z</time>
      </trkpt>
      <trkpt lat="45.20838" lon="5.72701">
        <ele>701.40002441406</ele>
        <time>2021-08-26T04:21:43.000Z</time>
      </trkpt>
      <trkpt lat="45.20838" lon="5.72702">
        <ele>702</ele>
        <time>2021-08-26T04:21:44.000Z</time>
      </trkpt>
      <trkpt lat="45.20838" lon="5.72703">
        <ele>702.40002441406</ele>
        <time>2021-08-26T04:21:45.000Z</time>
      </trkpt>
      <trkpt lat="45.20837" lon="5.72705">
        <ele>702.59997558594</ele>
        <time>2021-08-26T04:21:46.000Z</time>
      </trkpt>
      <trkpt lat="45.20838" lon="5.7271">
        <ele>704</ele>
        <time>2021-08-26T04:21:50.000Z</time>
      </trkpt>
      <trkpt lat="45.20838" lon="5.72711">
        <ele>704.40002441406</ele>
        <time>2021-08-26T04:21:52.000Z</time>
      </trkpt>
      <trkpt lat="45.20837" lon="5.72713">
        <ele>705</ele>
        <time>2021-08-26T04:21:55.000Z</time>
      </trkpt>
      <trkpt lat="45.20838" lon="5.72716">
        <ele>706</ele>
        <time>2021-08-26T04:21:57.000Z</time>
      </trkpt>
      <trkpt lat="45.20837" lon="5.72717">
        <ele>706.59997558594</ele>
        <time>2021-08-26T04:21:58.000Z</time>
      </trkpt>
      <trkpt lat="45.20837" lon="5.72718">
        <ele>707.20001220703</ele>
        <time>2021-08-26T04:21:59.000Z</time>
      </trkpt>
      <trkpt lat="45.20836" lon="5.72718">
        <ele>707.79998779297</ele>
        <time>2021-08-26T04:22:00.000Z</time>
      </trkpt>
      <trkpt lat="45.20835" lon="5.7272">
        <ele>708</ele>
        <time>2021-08-26T04:22:02.000Z</time>
      </trkpt>
      <trkpt lat="45.20834" lon="5.72723">
        <ele>708.59997558594</ele>
        <time>2021-08-26T04:22:04.000Z</time>
      </trkpt>
      <trkpt lat="45.20832" lon="5.72723">
        <ele>708.59997558594</ele>
        <time>2021-08-26T04:22:06.000Z</time>
      </trkpt>
      <trkpt lat="45.20831" lon="5.72724">
        <ele>708.79998779297</ele>
        <time>2021-08-26T04:22:09.000Z</time>
      </trkpt>
      <trkpt lat="45.20829" lon="5.72727">
        <ele>708.59997558594</ele>
        <time>2021-08-26T04:22:11.000Z</time>
      </trkpt>
      <trkpt lat="45.20826" lon="5.72726">
        <ele>708.59997558594</ele>
        <time>2021-08-26T04:22:14.000Z</time>
      </trkpt>
      <trkpt lat="45.20825" lon="5.72728">
        <ele>708.20001220703</ele>
        <time>2021-08-26T04:22:17.000Z</time>
      </trkpt>
      <trkpt lat="45.20824" lon="5.72729">
        <ele>707.79998779297</ele>
        <time>2021-08-26T04:22:18.000Z</time>
      </trkpt>
      <trkpt lat="45.20823" lon="5.7273">
        <ele>707.40002441406</ele>
        <time>2021-08-26T04:22:19.000Z</time>
      </trkpt>
      <trkpt lat="45.20821" lon="5.72731">
        <ele>706.40002441406</ele>
        <time>2021-08-26T04:22:22.000Z</time>
      </trkpt>
      <trkpt lat="45.2082" lon="5.72732">
        <ele>706.20001220703</ele>
        <time>2021-08-26T04:22:23.000Z</time>
      </trkpt>
      <trkpt lat="45.20816" lon="5.72733">
        <ele>705.59997558594</ele>
        <time>2021-08-26T04:22:26.000Z</time>
      </trkpt>
      <trkpt lat="45.20812" lon="5.72733">
        <ele>705.40002441406</ele>
        <time>2021-08-26T04:22:28.000Z</time>
      </trkpt>
      <trkpt lat="45.20811" lon="5.72734">
        <ele>705.20001220703</ele>
        <time>2021-08-26T04:22:29.000Z</time>
      </trkpt>
      <trkpt lat="45.20809" lon="5.72734">
        <ele>705.20001220703</ele>
        <time>2021-08-26T04:22:30.000Z</time>
      </trkpt>
      <trkpt lat="45.20809" lon="5.72735">
        <ele>705.20001220703</ele>
        <time>2021-08-26T04:22:31.000Z</time>
      </trkpt>
      <trkpt lat="45.20807" lon="5.72734">
        <ele>705.40002441406</ele>
        <time>2021-08-26T04:22:33.000Z</time>
      </trkpt>
      <trkpt lat="45.20805" lon="5.72733">
        <ele>706.20001220703</ele>
        <time>2021-08-26T04:22:35.000Z</time>
      </trkpt>
      <trkpt lat="45.20804" lon="5.72732">
        <ele>706.20001220703</ele>
        <time>2021-08-26T04:22:36.000Z</time>
      </trkpt>
      <trkpt lat="45.20802" lon="5.72731">
        <ele>706.79998779297</ele>
        <time>2021-08-26T04:22:39.000Z</time>
      </trkpt>
      <trkpt lat="45.208" lon="5.7273">
        <ele>707.40002441406</ele>
        <time>2021-08-26T04:22:41.000Z</time>
      </trkpt>
      <trkpt lat="45.208" lon="5.7273">
        <ele>707.40002441406</ele>
        <time>2021-08-26T04:22:42.000Z</time>
      </trkpt>
      <trkpt lat="45.208" lon="5.7273">
        <ele>707.79998779297</ele>
        <time>2021-08-26T04:22:43.000Z</time>
      </trkpt>
      <trkpt lat="45.208" lon="5.72731">
        <ele>708</ele>
        <time>2021-08-26T04:22:44.000Z</time>
      </trkpt>
      <trkpt lat="45.20802" lon="5.7273">
        <ele>708</ele>
        <time>2021-08-26T04:22:51.000Z</time>
      </trkpt>
      <trkpt lat="45.20802" lon="5.7273">
        <ele>706.59997558594</ele>
        <time>2021-08-26T04:23:08.000Z</time>
      </trkpt>
      <trkpt lat="45.20802" lon="5.7273">
        <ele>706.40002441406</ele>
        <time>2021-08-26T04:23:11.000Z</time>
      </trkpt>
      <trkpt lat="45.20803" lon="5.7273">
        <ele>705.40002441406</ele>
        <time>2021-08-26T04:23:17.000Z</time>
      </trkpt>
      <trkpt lat="45.20805" lon="5.72729">
        <ele>705.40002441406</ele>
        <time>2021-08-26T04:23:19.000Z</time>
      </trkpt>
      <trkpt lat="45.20806" lon="5.72728">
        <ele>705.79998779297</ele>
        <time>2021-08-26T04:23:20.000Z</time>
      </trkpt>
      <trkpt lat="45.20807" lon="5.72727">
        <ele>705.79998779297</ele>
        <time>2021-08-26T04:23:21.000Z</time>
      </trkpt>
      <trkpt lat="45.20812" lon="5.72727">
        <ele>706</ele>
        <time>2021-08-26T04:23:24.000Z</time>
      </trkpt>
      <trkpt lat="45.20812" lon="5.72727">
        <ele>706.40002441406</ele>
        <time>2021-08-26T04:23:25.000Z</time>
      </trkpt>
      <trkpt lat="45.20814" lon="5.72726">
        <ele>706.79998779297</ele>
        <time>2021-08-26T04:23:26.000Z</time>
      </trkpt>
      <trkpt lat="45.20816" lon="5.72727">
        <ele>707.40002441406</ele>
        <time>2021-08-26T04:23:28.000Z</time>
      </trkpt>
      <trkpt lat="45.20816" lon="5.72727">
        <ele>707.79998779297</ele>
        <time>2021-08-26T04:23:29.000Z</time>
      </trkpt>
      <trkpt lat="45.20816" lon="5.72727">
        <ele>707.79998779297</ele>
        <time>2021-08-26T04:23:30.000Z</time>
      </trkpt>
      <trkpt lat="45.20817" lon="5.72727">
        <ele>708</ele>
        <time>2021-08-26T04:23:31.000Z</time>
      </trkpt>
      <trkpt lat="45.20818" lon="5.72726">
        <ele>708.79998779297</ele>
        <time>2021-08-26T04:23:33.000Z</time>
      </trkpt>
      <trkpt lat="45.20819" lon="5.72724">
        <ele>708.79998779297</ele>
        <time>2021-08-26T04:23:35.000Z</time>
      </trkpt>
      <trkpt lat="45.2082" lon="5.72723">
        <ele>708.79998779297</ele>
        <time>2021-08-26T04:23:36.000Z</time>
      </trkpt>
      <trkpt lat="45.20822" lon="5.72722">
        <ele>708.59997558594</ele>
        <time>2021-08-26T04:23:38.000Z</time>
      </trkpt>
      <trkpt lat="45.20822" lon="5.72723">
        <ele>708.59997558594</ele>
        <time>2021-08-26T04:23:40.000Z</time>
      </trkpt>
      <trkpt lat="45.20824" lon="5.7272">
        <ele>708.59997558594</ele>
        <time>2021-08-26T04:23:43.000Z</time>
      </trkpt>
      <trkpt lat="45.20825" lon="5.72718">
        <ele>708</ele>
        <time>2021-08-26T04:23:46.000Z</time>
      </trkpt>
      <trkpt lat="45.20826" lon="5.72717">
        <ele>707.59997558594</ele>
        <time>2021-08-26T04:23:48.000Z</time>
      </trkpt>
      <trkpt lat="45.20827" lon="5.72715">
        <ele>706.79998779297</ele>
        <time>2021-08-26T04:23:51.000Z</time>
      </trkpt>
      <trkpt lat="45.20828" lon="5.72714">
        <ele>706.20001220703</ele>
        <time>2021-08-26T04:23:52.000Z</time>
      </trkpt>
      <trkpt lat="45.20829" lon="5.72712">
        <ele>705.59997558594</ele>
        <time>2021-08-26T04:23:54.000Z</time>
      </trkpt>
      <trkpt lat="45.2083" lon="5.72711">
        <ele>705</ele>
        <time>2021-08-26T04:23:55.000Z</time>
      </trkpt>
      <trkpt lat="45.2083" lon="5.72709">
        <ele>704</ele>
        <time>2021-08-26T04:23:57.000Z</time>
      </trkpt>
      <trkpt lat="45.20831" lon="5.72709">
        <ele>703.79998779297</ele>
        <time>2021-08-26T04:23:58.000Z</time>
      </trkpt>
      <trkpt lat="45.20831" lon="5.72706">
        <ele>703</ele>
        <time>2021-08-26T04:24:01.000Z</time>
      </trkpt>
      <trkpt lat="45.20831" lon="5.72705">
        <ele>702.79998779297</ele>
        <time>2021-08-26T04:24:02.000Z</time>
      </trkpt>
      <trkpt lat="45.20831" lon="5.72705">
        <ele>701.59997558594</ele>
        <time>2021-08-26T04:24:04.000Z</time>
      </trkpt>
      <trkpt lat="45.20832" lon="5.72704">
        <ele>701.20001220703</ele>
        <time>2021-08-26T04:24:06.000Z</time>
      </trkpt>
      <trkpt lat="45.20833" lon="5.72702">
        <ele>701</ele>
        <time>2021-08-26T04:24:07.000Z</time>
      </trkpt>
      <trkpt lat="45.20833" lon="5.72701">
        <ele>700.40002441406</ele>
        <time>2021-08-26T04:24:08.000Z</time>
      </trkpt>
      <trkpt lat="45.20833" lon="5.72699">
        <ele>700.20001220703</ele>
        <time>2021-08-26T04:24:09.000Z</time>
      </trkpt>
      <trkpt lat="45.20834" lon="5.72698">
        <ele>699.40002441406</ele>
        <time>2021-08-26T04:24:10.000Z</time>
      </trkpt>
      <trkpt lat="45.20834" lon="5.72696">
        <ele>699.20001220703</ele>
        <time>2021-08-26T04:24:11.000Z</time>
      </trkpt>
      <trkpt lat="45.20835" lon="5.72691">
        <ele>698.20001220703</ele>
        <time>2021-08-26T04:24:14.000Z</time>
      </trkpt>
      <trkpt lat="45.20835" lon="5.72685">
        <ele>697.79998779297</ele>
        <time>2021-08-26T04:24:16.000Z</time>
      </trkpt>
      <trkpt lat="45.20834" lon="5.72682">
        <ele>697</ele>
        <time>2021-08-26T04:24:18.000Z</time>
      </trkpt>
      <trkpt lat="45.20834" lon="5.72672">
        <ele>695.40002441406</ele>
        <time>2021-08-26T04:24:22.000Z</time>
      </trkpt>
      <trkpt lat="45.20831" lon="5.72667">
        <ele>694.20001220703</ele>
        <time>2021-08-26T04:24:25.000Z</time>
      </trkpt>
      <trkpt lat="45.2083" lon="5.72665">
        <ele>694</ele>
        <time>2021-08-26T04:24:26.000Z</time>
      </trkpt>
      <trkpt lat="45.20829" lon="5.72663">
        <ele>693.20001220703</ele>
        <time>2021-08-26T04:24:28.000Z</time>
      </trkpt>
      <trkpt lat="45.20828" lon="5.72663">
        <ele>693</ele>
        <time>2021-08-26T04:24:29.000Z</time>
      </trkpt>
      <trkpt lat="45.20828" lon="5.72663">
        <ele>693</ele>
        <time>2021-08-26T04:24:30.000Z</time>
      </trkpt>
      <trkpt lat="45.20826" lon="5.72667">
        <ele>692</ele>
        <time>2021-08-26T04:24:32.000Z</time>
      </trkpt>
      <trkpt lat="45.20825" lon="5.7267">
        <ele>691.40002441406</ele>
        <time>2021-08-26T04:24:34.000Z</time>
      </trkpt>
      <trkpt lat="45.20824" lon="5.72671">
        <ele>690.79998779297</ele>
        <time>2021-08-26T04:24:35.000Z</time>
      </trkpt>
      <trkpt lat="45.20823" lon="5.72673">
        <ele>690.40002441406</ele>
        <time>2021-08-26T04:24:37.000Z</time>
      </trkpt>
      <trkpt lat="45.20821" lon="5.72674">
        <ele>690.20001220703</ele>
        <time>2021-08-26T04:24:38.000Z</time>
      </trkpt>
      <trkpt lat="45.20818" lon="5.72675">
        <ele>689.59997558594</ele>
        <time>2021-08-26T04:24:40.000Z</time>
      </trkpt>
      <trkpt lat="45.20817" lon="5.72675">
        <ele>689.40002441406</ele>
        <time>2021-08-26T04:24:41.000Z</time>
      </trkpt>
      <trkpt lat="45.20816" lon="5.72674">
        <ele>689</ele>
        <time>2021-08-26T04:24:42.000Z</time>
      </trkpt>
      <trkpt lat="45.20814" lon="5.72675">
        <ele>688.59997558594</ele>
        <time>2021-08-26T04:24:43.000Z</time>
      </trkpt>
      <trkpt lat="45.20809" lon="5.72673">
        <ele>687.79998779297</ele>
        <time>2021-08-26T04:24:46.000Z</time>
      </trkpt>
      <trkpt lat="45.20808" lon="5.72669">
        <ele>687.20001220703</ele>
        <time>2021-08-26T04:24:48.000Z</time>
      </trkpt>
      <trkpt lat="45.20807" lon="5.72662">
        <ele>686</ele>
        <time>2021-08-26T04:24:52.000Z</time>
      </trkpt>
      <trkpt lat="45.20807" lon="5.72659">
        <ele>685</ele>
        <time>2021-08-26T04:24:54.000Z</time>
      </trkpt>
      <trkpt lat="45.20807" lon="5.72657">
        <ele>684.20001220703</ele>
        <time>2021-08-26T04:24:56.000Z</time>
      </trkpt>
      <trkpt lat="45.20807" lon="5.72656">
        <ele>684.20001220703</ele>
        <time>2021-08-26T04:24:57.000Z</time>
      </trkpt>
      <trkpt lat="45.20807" lon="5.72652">
        <ele>683.20001220703</ele>
        <time>2021-08-26T04:25:00.000Z</time>
      </trkpt>
      <trkpt lat="45.20807" lon="5.7265">
        <ele>682.79998779297</ele>
        <time>2021-08-26T04:25:02.000Z</time>
      </trkpt>
      <trkpt lat="45.20806" lon="5.72644">
        <ele>681.79998779297</ele>
        <time>2021-08-26T04:25:05.000Z</time>
      </trkpt>
      <trkpt lat="45.20803" lon="5.72639">
        <ele>681</ele>
        <time>2021-08-26T04:25:08.000Z</time>
      </trkpt>
      <trkpt lat="45.20803" lon="5.72637">
        <ele>680.59997558594</ele>
        <time>2021-08-26T04:25:09.000Z</time>
      </trkpt>
      <trkpt lat="45.20802" lon="5.72634">
        <ele>680.20001220703</ele>
        <time>2021-08-26T04:25:10.000Z</time>
      </trkpt>
      <trkpt lat="45.20801" lon="5.72633">
        <ele>679.79998779297</ele>
        <time>2021-08-26T04:25:12.000Z</time>
      </trkpt>
      <trkpt lat="45.208" lon="5.72633">
        <ele>679.59997558594</ele>
        <time>2021-08-26T04:25:13.000Z</time>
      </trkpt>
      <trkpt lat="45.20799" lon="5.72633">
        <ele>679.20001220703</ele>
        <time>2021-08-26T04:25:14.000Z</time>
      </trkpt>
      <trkpt lat="45.20798" lon="5.72633">
        <ele>678.20001220703</ele>
        <time>2021-08-26T04:25:16.000Z</time>
      </trkpt>
      <trkpt lat="45.20798" lon="5.7264">
        <ele>677</ele>
        <time>2021-08-26T04:25:19.000Z</time>
      </trkpt>
      <trkpt lat="45.20798" lon="5.72643">
        <ele>674.79998779297</ele>
        <time>2021-08-26T04:25:20.000Z</time>
      </trkpt>
      <trkpt lat="45.20797" lon="5.72645">
        <ele>674.79998779297</ele>
        <time>2021-08-26T04:25:21.000Z</time>
      </trkpt>
      <trkpt lat="45.20796" lon="5.72647">
        <ele>674.79998779297</ele>
        <time>2021-08-26T04:25:22.000Z</time>
      </trkpt>
      <trkpt lat="45.20795" lon="5.72648">
        <ele>674.20001220703</ele>
        <time>2021-08-26T04:25:23.000Z</time>
      </trkpt>
      <trkpt lat="45.20795" lon="5.72648">
        <ele>674.20001220703</ele>
        <time>2021-08-26T04:25:24.000Z</time>
      </trkpt>
      <trkpt lat="45.20793" lon="5.72649">
        <ele>673.59997558594</ele>
        <time>2021-08-26T04:25:25.000Z</time>
      </trkpt>
      <trkpt lat="45.20786" lon="5.72651">
        <ele>672.20001220703</ele>
        <time>2021-08-26T04:25:30.000Z</time>
      </trkpt>
      <trkpt lat="45.20784" lon="5.72651">
        <ele>672</ele>
        <time>2021-08-26T04:25:32.000Z</time>
      </trkpt>
      <trkpt lat="45.20781" lon="5.72653">
        <ele>670.79998779297</ele>
        <time>2021-08-26T04:25:34.000Z</time>
      </trkpt>
      <trkpt lat="45.20779" lon="5.72653">
        <ele>670.59997558594</ele>
        <time>2021-08-26T04:25:36.000Z</time>
      </trkpt>
      <trkpt lat="45.20776" lon="5.72651">
        <ele>669.79998779297</ele>
        <time>2021-08-26T04:25:38.000Z</time>
      </trkpt>
      <trkpt lat="45.20777" lon="5.72646">
        <ele>668.79998779297</ele>
        <time>2021-08-26T04:25:41.000Z</time>
      </trkpt>
      <trkpt lat="45.20777" lon="5.72644">
        <ele>668.40002441406</ele>
        <time>2021-08-26T04:25:42.000Z</time>
      </trkpt>
      <trkpt lat="45.20776" lon="5.72642">
        <ele>667.79998779297</ele>
        <time>2021-08-26T04:25:43.000Z</time>
      </trkpt>
      <trkpt lat="45.20776" lon="5.72641">
        <ele>667.40002441406</ele>
        <time>2021-08-26T04:25:44.000Z</time>
      </trkpt>
      <trkpt lat="45.20776" lon="5.72634">
        <ele>666.20001220703</ele>
        <time>2021-08-26T04:25:47.000Z</time>
      </trkpt>
      <trkpt lat="45.20776" lon="5.72632">
        <ele>666.20001220703</ele>
        <time>2021-08-26T04:25:48.000Z</time>
      </trkpt>
      <trkpt lat="45.20776" lon="5.72629">
        <ele>665.59997558594</ele>
        <time>2021-08-26T04:25:49.000Z</time>
      </trkpt>
      <trkpt lat="45.20776" lon="5.72627">
        <ele>665.20001220703</ele>
        <time>2021-08-26T04:25:50.000Z</time>
      </trkpt>
      <trkpt lat="45.20775" lon="5.72625">
        <ele>665.20001220703</ele>
        <time>2021-08-26T04:25:51.000Z</time>
      </trkpt>
      <trkpt lat="45.20775" lon="5.7262">
        <ele>664</ele>
        <time>2021-08-26T04:25:54.000Z</time>
      </trkpt>
      <trkpt lat="45.20772" lon="5.72618">
        <ele>663</ele>
        <time>2021-08-26T04:25:57.000Z</time>
      </trkpt>
      <trkpt lat="45.20771" lon="5.72617">
        <ele>662.20001220703</ele>
        <time>2021-08-26T04:25:58.000Z</time>
      </trkpt>
      <trkpt lat="45.20769" lon="5.72619">
        <ele>661.40002441406</ele>
        <time>2021-08-26T04:26:00.000Z</time>
      </trkpt>
      <trkpt lat="45.20768" lon="5.72619">
        <ele>661.20001220703</ele>
        <time>2021-08-26T04:26:01.000Z</time>
      </trkpt>
      <trkpt lat="45.20765" lon="5.7262">
        <ele>660.20001220703</ele>
        <time>2021-08-26T04:26:03.000Z</time>
      </trkpt>
      <trkpt lat="45.2076" lon="5.72622">
        <ele>659.20001220703</ele>
        <time>2021-08-26T04:26:06.000Z</time>
      </trkpt>
      <trkpt lat="45.20756" lon="5.72622">
        <ele>658.40002441406</ele>
        <time>2021-08-26T04:26:09.000Z</time>
      </trkpt>
      <trkpt lat="45.20755" lon="5.72621">
        <ele>658</ele>
        <time>2021-08-26T04:26:10.000Z</time>
      </trkpt>
      <trkpt lat="45.20748" lon="5.72622">
        <ele>657</ele>
        <time>2021-08-26T04:26:14.000Z</time>
      </trkpt>
      <trkpt lat="45.20748" lon="5.7262">
        <ele>656.59997558594</ele>
        <time>2021-08-26T04:26:16.000Z</time>
      </trkpt>
      <trkpt lat="45.20748" lon="5.72618">
        <ele>655.79998779297</ele>
        <time>2021-08-26T04:26:17.000Z</time>
      </trkpt>
      <trkpt lat="45.20748" lon="5.72614">
        <ele>655.20001220703</ele>
        <time>2021-08-26T04:26:19.000Z</time>
      </trkpt>
      <trkpt lat="45.20746" lon="5.72612">
        <ele>654.79998779297</ele>
        <time>2021-08-26T04:26:21.000Z</time>
      </trkpt>
      <trkpt lat="45.20745" lon="5.7261">
        <ele>654.40002441406</ele>
        <time>2021-08-26T04:26:22.000Z</time>
      </trkpt>
      <trkpt lat="45.20743" lon="5.72605">
        <ele>653.20001220703</ele>
        <time>2021-08-26T04:26:25.000Z</time>
      </trkpt>
      <trkpt lat="45.20743" lon="5.72603">
        <ele>653</ele>
        <time>2021-08-26T04:26:26.000Z</time>
      </trkpt>
      <trkpt lat="45.20743" lon="5.72599">
        <ele>652.40002441406</ele>
        <time>2021-08-26T04:26:28.000Z</time>
      </trkpt>
      <trkpt lat="45.20742" lon="5.72597">
        <ele>652</ele>
        <time>2021-08-26T04:26:29.000Z</time>
      </trkpt>
      <trkpt lat="45.20741" lon="5.72596">
        <ele>652</ele>
        <time>2021-08-26T04:26:30.000Z</time>
      </trkpt>
      <trkpt lat="45.20739" lon="5.72595">
        <ele>650.79998779297</ele>
        <time>2021-08-26T04:26:32.000Z</time>
      </trkpt>
      <trkpt lat="45.20736" lon="5.72594">
        <ele>649.59997558594</ele>
        <time>2021-08-26T04:26:34.000Z</time>
      </trkpt>
      <trkpt lat="45.20733" lon="5.72591">
        <ele>649</ele>
        <time>2021-08-26T04:26:36.000Z</time>
      </trkpt>
      <trkpt lat="45.20731" lon="5.7259">
        <ele>648.59997558594</ele>
        <time>2021-08-26T04:26:37.000Z</time>
      </trkpt>
      <trkpt lat="45.20729" lon="5.72589">
        <ele>648.20001220703</ele>
        <time>2021-08-26T04:26:38.000Z</time>
      </trkpt>
      <trkpt lat="45.20726" lon="5.72587">
        <ele>648</ele>
        <time>2021-08-26T04:26:40.000Z</time>
      </trkpt>
      <trkpt lat="45.20724" lon="5.72587">
        <ele>647.40002441406</ele>
        <time>2021-08-26T04:26:41.000Z</time>
      </trkpt>
      <trkpt lat="45.20722" lon="5.72587">
        <ele>646.79998779297</ele>
        <time>2021-08-26T04:26:42.000Z</time>
      </trkpt>
      <trkpt lat="45.2072" lon="5.72588">
        <ele>646.40002441406</ele>
        <time>2021-08-26T04:26:44.000Z</time>
      </trkpt>
      <trkpt lat="45.20718" lon="5.72587">
        <ele>645.20001220703</ele>
        <time>2021-08-26T04:26:46.000Z</time>
      </trkpt>
      <trkpt lat="45.20717" lon="5.72587">
        <ele>645</ele>
        <time>2021-08-26T04:26:47.000Z</time>
      </trkpt>
      <trkpt lat="45.20712" lon="5.72584">
        <ele>644.20001220703</ele>
        <time>2021-08-26T04:26:51.000Z</time>
      </trkpt>
      <trkpt lat="45.20711" lon="5.72583">
        <ele>643</ele>
        <time>2021-08-26T04:26:52.000Z</time>
      </trkpt>
      <trkpt lat="45.2071" lon="5.72582">
        <ele>642.40002441406</ele>
        <time>2021-08-26T04:26:53.000Z</time>
      </trkpt>
      <trkpt lat="45.2071" lon="5.72581">
        <ele>642.40002441406</ele>
        <time>2021-08-26T04:26:54.000Z</time>
      </trkpt>
      <trkpt lat="45.20705" lon="5.72576">
        <ele>642.40002441406</ele>
        <time>2021-08-26T04:26:57.000Z</time>
      </trkpt>
      <trkpt lat="45.20703" lon="5.72576">
        <ele>642</ele>
        <time>2021-08-26T04:26:58.000Z</time>
      </trkpt>
      <trkpt lat="45.20697" lon="5.72576">
        <ele>640.79998779297</ele>
        <time>2021-08-26T04:27:01.000Z</time>
      </trkpt>
      <trkpt lat="45.20692" lon="5.72577">
        <ele>639.79998779297</ele>
        <time>2021-08-26T04:27:04.000Z</time>
      </trkpt>
      <trkpt lat="45.20689" lon="5.72578">
        <ele>639.59997558594</ele>
        <time>2021-08-26T04:27:05.000Z</time>
      </trkpt>
      <trkpt lat="45.20681" lon="5.72582">
        <ele>638.40002441406</ele>
        <time>2021-08-26T04:27:11.000Z</time>
      </trkpt>
      <trkpt lat="45.2068" lon="5.72583">
        <ele>638</ele>
        <time>2021-08-26T04:27:12.000Z</time>
      </trkpt>
      <trkpt lat="45.20675" lon="5.72589">
        <ele>637.20001220703</ele>
        <time>2021-08-26T04:27:15.000Z</time>
      </trkpt>
      <trkpt lat="45.20667" lon="5.72595">
        <ele>636</ele>
        <time>2021-08-26T04:27:19.000Z</time>
      </trkpt>
      <trkpt lat="45.20664" lon="5.72597">
        <ele>635.79998779297</ele>
        <time>2021-08-26T04:27:21.000Z</time>
      </trkpt>
      <trkpt lat="45.20657" lon="5.72603">
        <ele>635</ele>
        <time>2021-08-26T04:27:25.000Z</time>
      </trkpt>
      <trkpt lat="45.20652" lon="5.72604">
        <ele>634.59997558594</ele>
        <time>2021-08-26T04:27:27.000Z</time>
      </trkpt>
      <trkpt lat="45.20639" lon="5.72605">
        <ele>633.59997558594</ele>
        <time>2021-08-26T04:27:32.000Z</time>
      </trkpt>
      <trkpt lat="45.20638" lon="5.72605">
        <ele>633.59997558594</ele>
        <time>2021-08-26T04:27:33.000Z</time>
      </trkpt>
      <trkpt lat="45.20627" lon="5.72599">
        <ele>632.40002441406</ele>
        <time>2021-08-26T04:27:39.000Z</time>
      </trkpt>
      <trkpt lat="45.20619" lon="5.72593">
        <ele>631.20001220703</ele>
        <time>2021-08-26T04:27:43.000Z</time>
      </trkpt>
      <trkpt lat="45.20615" lon="5.72589">
        <ele>631</ele>
        <time>2021-08-26T04:27:45.000Z</time>
      </trkpt>
      <trkpt lat="45.206" lon="5.72579">
        <ele>630</ele>
        <time>2021-08-26T04:27:51.000Z</time>
      </trkpt>
      <trkpt lat="45.20596" lon="5.72576">
        <ele>629.79998779297</ele>
        <time>2021-08-26T04:27:53.000Z</time>
      </trkpt>
      <trkpt lat="45.20589" lon="5.7257">
        <ele>629</ele>
        <time>2021-08-26T04:27:56.000Z</time>
      </trkpt>
      <trkpt lat="45.2058" lon="5.72566">
        <ele>627.79998779297</ele>
        <time>2021-08-26T04:28:00.000Z</time>
      </trkpt>
      <trkpt lat="45.20578" lon="5.72564">
        <ele>627.79998779297</ele>
        <time>2021-08-26T04:28:01.000Z</time>
      </trkpt>
      <trkpt lat="45.20561" lon="5.72559">
        <ele>627.40002441406</ele>
        <time>2021-08-26T04:28:08.000Z</time>
      </trkpt>
      <trkpt lat="45.20559" lon="5.72559">
        <ele>626.79998779297</ele>
        <time>2021-08-26T04:28:09.000Z</time>
      </trkpt>
      <trkpt lat="45.20547" lon="5.72559">
        <ele>625.59997558594</ele>
        <time>2021-08-26T04:28:14.000Z</time>
      </trkpt>
      <trkpt lat="45.20536" lon="5.72562">
        <ele>625.79998779297</ele>
        <time>2021-08-26T04:28:20.000Z</time>
      </trkpt>
      <trkpt lat="45.20528" lon="5.72561">
        <ele>627</ele>
        <time>2021-08-26T04:28:24.000Z</time>
      </trkpt>
      <trkpt lat="45.2052" lon="5.72561">
        <ele>627.59997558594</ele>
        <time>2021-08-26T04:28:27.000Z</time>
      </trkpt>
      <trkpt lat="45.20517" lon="5.7256">
        <ele>627.79998779297</ele>
        <time>2021-08-26T04:28:28.000Z</time>
      </trkpt>
      <trkpt lat="45.20512" lon="5.72555">
        <ele>628</ele>
        <time>2021-08-26T04:28:30.000Z</time>
      </trkpt>
      <trkpt lat="45.20504" lon="5.72545">
        <ele>628</ele>
        <time>2021-08-26T04:28:34.000Z</time>
      </trkpt>
      <trkpt lat="45.20498" lon="5.72536">
        <ele>628</ele>
        <time>2021-08-26T04:28:37.000Z</time>
      </trkpt>
      <trkpt lat="45.2049" lon="5.72523">
        <ele>627.59997558594</ele>
        <time>2021-08-26T04:28:42.000Z</time>
      </trkpt>
      <trkpt lat="45.20487" lon="5.72514">
        <ele>627.20001220703</ele>
        <time>2021-08-26T04:28:45.000Z</time>
      </trkpt>
      <trkpt lat="45.20485" lon="5.72507">
        <ele>626.79998779297</ele>
        <time>2021-08-26T04:28:47.000Z</time>
      </trkpt>
      <trkpt lat="45.2048" lon="5.72495">
        <ele>626.40002441406</ele>
        <time>2021-08-26T04:28:50.000Z</time>
      </trkpt>
      <trkpt lat="45.20472" lon="5.72476">
        <ele>627.20001220703</ele>
        <time>2021-08-26T04:28:56.000Z</time>
      </trkpt>
      <trkpt lat="45.20471" lon="5.72466">
        <ele>628.20001220703</ele>
        <time>2021-08-26T04:28:59.000Z</time>
      </trkpt>
      <trkpt lat="45.20471" lon="5.72459">
        <ele>629.40002441406</ele>
        <time>2021-08-26T04:29:02.000Z</time>
      </trkpt>
      <trkpt lat="45.20469" lon="5.72448">
        <ele>631</ele>
        <time>2021-08-26T04:29:06.000Z</time>
      </trkpt>
      <trkpt lat="45.20465" lon="5.7244">
        <ele>631.40002441406</ele>
        <time>2021-08-26T04:29:09.000Z</time>
      </trkpt>
      <trkpt lat="45.20457" lon="5.72428">
        <ele>631.59997558594</ele>
        <time>2021-08-26T04:29:15.000Z</time>
      </trkpt>
      <trkpt lat="45.20445" lon="5.72424">
        <ele>631.79998779297</ele>
        <time>2021-08-26T04:29:23.000Z</time>
      </trkpt>
      <trkpt lat="45.20436" lon="5.72422">
        <ele>631.20001220703</ele>
        <time>2021-08-26T04:29:30.000Z</time>
      </trkpt>
      <trkpt lat="45.20428" lon="5.72421">
        <ele>631.20001220703</ele>
        <time>2021-08-26T04:29:35.000Z</time>
      </trkpt>
      <trkpt lat="45.20427" lon="5.72422">
        <ele>631.59997558594</ele>
        <time>2021-08-26T04:29:36.000Z</time>
      </trkpt>
      <trkpt lat="45.20419" lon="5.72425">
        <ele>632.20001220703</ele>
        <time>2021-08-26T04:29:41.000Z</time>
      </trkpt>
      <trkpt lat="45.20417" lon="5.72426">
        <ele>632.40002441406</ele>
        <time>2021-08-26T04:29:42.000Z</time>
      </trkpt>
      <trkpt lat="45.20402" lon="5.72427">
        <ele>632.20001220703</ele>
        <time>2021-08-26T04:29:49.000Z</time>
      </trkpt>
      <trkpt lat="45.20401" lon="5.72426">
        <ele>632.40002441406</ele>
        <time>2021-08-26T04:29:50.000Z</time>
      </trkpt>
      <trkpt lat="45.20401" lon="5.7242">
        <ele>632.59997558594</ele>
        <time>2021-08-26T04:29:53.000Z</time>
      </trkpt>
      <trkpt lat="45.20403" lon="5.72419">
        <ele>632.59997558594</ele>
        <time>2021-08-26T04:29:56.000Z</time>
      </trkpt>
      <trkpt lat="45.20402" lon="5.72418">
        <ele>632.59997558594</ele>
        <time>2021-08-26T04:29:58.000Z</time>
      </trkpt>
      <trkpt lat="45.20403" lon="5.72419">
        <ele>632.40002441406</ele>
        <time>2021-08-26T04:30:05.000Z</time>
      </trkpt>
      <trkpt lat="45.20403" lon="5.72419">
        <ele>632.40002441406</ele>
        <time>2021-08-26T04:30:12.000Z</time>
      </trkpt>
      <trkpt lat="45.20403" lon="5.72419">
        <ele>632.40002441406</ele>
        <time>2021-08-26T04:30:14.000Z</time>
      </trkpt>
      <trkpt lat="45.20401" lon="5.72424">
        <ele>632</ele>
        <time>2021-08-26T04:30:19.000Z</time>
      </trkpt>
      <trkpt lat="45.20399" lon="5.72425">
        <ele>631.40002441406</ele>
        <time>2021-08-26T04:30:20.000Z</time>
      </trkpt>
      <trkpt lat="45.20397" lon="5.72427">
        <ele>631.40002441406</ele>
        <time>2021-08-26T04:30:21.000Z</time>
      </trkpt>
      <trkpt lat="45.20395" lon="5.72428">
        <ele>631.20001220703</ele>
        <time>2021-08-26T04:30:22.000Z</time>
      </trkpt>
      <trkpt lat="45.20391" lon="5.7243">
        <ele>630.79998779297</ele>
        <time>2021-08-26T04:30:24.000Z</time>
      </trkpt>
      <trkpt lat="45.20389" lon="5.72432">
        <ele>630.59997558594</ele>
        <time>2021-08-26T04:30:25.000Z</time>
      </trkpt>
      <trkpt lat="45.20388" lon="5.72437">
        <ele>630.20001220703</ele>
        <time>2021-08-26T04:30:27.000Z</time>
      </trkpt>
      <trkpt lat="45.2039" lon="5.72438">
        <ele>630.20001220703</ele>
        <time>2021-08-26T04:30:29.000Z</time>
      </trkpt>
      <trkpt lat="45.20393" lon="5.72439">
        <ele>630</ele>
        <time>2021-08-26T04:30:32.000Z</time>
      </trkpt>
      <trkpt lat="45.20398" lon="5.7244">
        <ele>629.20001220703</ele>
        <time>2021-08-26T04:30:35.000Z</time>
      </trkpt>
      <trkpt lat="45.20399" lon="5.7244">
        <ele>629</ele>
        <time>2021-08-26T04:30:36.000Z</time>
      </trkpt>
      <trkpt lat="45.20403" lon="5.72443">
        <ele>629</ele>
        <time>2021-08-26T04:30:39.000Z</time>
      </trkpt>
      <trkpt lat="45.20404" lon="5.72446">
        <ele>628</ele>
        <time>2021-08-26T04:30:41.000Z</time>
      </trkpt>
      <trkpt lat="45.20404" lon="5.72447">
        <ele>627.79998779297</ele>
        <time>2021-08-26T04:30:42.000Z</time>
      </trkpt>
      <trkpt lat="45.2041" lon="5.72449">
        <ele>626.79998779297</ele>
        <time>2021-08-26T04:30:45.000Z</time>
      </trkpt>
      <trkpt lat="45.20417" lon="5.72454">
        <ele>625.79998779297</ele>
        <time>2021-08-26T04:30:48.000Z</time>
      </trkpt>
      <trkpt lat="45.20423" lon="5.72457">
        <ele>625.79998779297</ele>
        <time>2021-08-26T04:30:50.000Z</time>
      </trkpt>
      <trkpt lat="45.20436" lon="5.72468">
        <ele>625.20001220703</ele>
        <time>2021-08-26T04:30:56.000Z</time>
      </trkpt>
      <trkpt lat="45.20443" lon="5.72468">
        <ele>625.40002441406</ele>
        <time>2021-08-26T04:31:01.000Z</time>
      </trkpt>
      <trkpt lat="45.20452" lon="5.72472">
        <ele>625.59997558594</ele>
        <time>2021-08-26T04:31:06.000Z</time>
      </trkpt>
      <trkpt lat="45.20465" lon="5.7248">
        <ele>625.20001220703</ele>
        <time>2021-08-26T04:31:12.000Z</time>
      </trkpt>
      <trkpt lat="45.20477" lon="5.72487">
        <ele>625.59997558594</ele>
        <time>2021-08-26T04:31:18.000Z</time>
      </trkpt>
      <trkpt lat="45.20478" lon="5.72491">
        <ele>625.59997558594</ele>
        <time>2021-08-26T04:31:19.000Z</time>
      </trkpt>
      <trkpt lat="45.20487" lon="5.7251">
        <ele>625.79998779297</ele>
        <time>2021-08-26T04:31:24.000Z</time>
      </trkpt>
      <trkpt lat="45.20487" lon="5.72517">
        <ele>626.20001220703</ele>
        <time>2021-08-26T04:31:26.000Z</time>
      </trkpt>
      <trkpt lat="45.20487" lon="5.72532">
        <ele>626</ele>
        <time>2021-08-26T04:31:30.000Z</time>
      </trkpt>
      <trkpt lat="45.20489" lon="5.72544">
        <ele>625</ele>
        <time>2021-08-26T04:31:35.000Z</time>
      </trkpt>
      <trkpt lat="45.2049" lon="5.72546">
        <ele>624.20001220703</ele>
        <time>2021-08-26T04:31:36.000Z</time>
      </trkpt>
      <trkpt lat="45.20491" lon="5.72557">
        <ele>622.20001220703</ele>
        <time>2021-08-26T04:31:41.000Z</time>
      </trkpt>
      <trkpt lat="45.20491" lon="5.72562">
        <ele>622</ele>
        <time>2021-08-26T04:31:43.000Z</time>
      </trkpt>
      <trkpt lat="45.20488" lon="5.72563">
        <ele>621.20001220703</ele>
        <time>2021-08-26T04:31:44.000Z</time>
      </trkpt>
      <trkpt lat="45.20486" lon="5.72564">
        <ele>620.79998779297</ele>
        <time>2021-08-26T04:31:45.000Z</time>
      </trkpt>
      <trkpt lat="45.20476" lon="5.72558">
        <ele>620.20001220703</ele>
        <time>2021-08-26T04:31:49.000Z</time>
      </trkpt>
      <trkpt lat="45.20474" lon="5.72556">
        <ele>620</ele>
        <time>2021-08-26T04:31:50.000Z</time>
      </trkpt>
      <trkpt lat="45.20467" lon="5.72548">
        <ele>618.79998779297</ele>
        <time>2021-08-26T04:31:54.000Z</time>
      </trkpt>
      <trkpt lat="45.20465" lon="5.72547">
        <ele>618.59997558594</ele>
        <time>2021-08-26T04:31:55.000Z</time>
      </trkpt>
      <trkpt lat="45.20464" lon="5.72546">
        <ele>616.40002441406</ele>
        <time>2021-08-26T04:31:56.000Z</time>
      </trkpt>
      <trkpt lat="45.20454" lon="5.72532">
        <ele>616</ele>
        <time>2021-08-26T04:32:02.000Z</time>
      </trkpt>
      <trkpt lat="45.20452" lon="5.72529">
        <ele>615.59997558594</ele>
        <time>2021-08-26T04:32:03.000Z</time>
      </trkpt>
      <trkpt lat="45.2045" lon="5.72527">
        <ele>615.40002441406</ele>
        <time>2021-08-26T04:32:04.000Z</time>
      </trkpt>
      <trkpt lat="45.20441" lon="5.7252">
        <ele>614</ele>
        <time>2021-08-26T04:32:08.000Z</time>
      </trkpt>
      <trkpt lat="45.20439" lon="5.7252">
        <ele>614</ele>
        <time>2021-08-26T04:32:09.000Z</time>
      </trkpt>
      <trkpt lat="45.20436" lon="5.72521">
        <ele>613.59997558594</ele>
        <time>2021-08-26T04:32:11.000Z</time>
      </trkpt>
      <trkpt lat="45.20436" lon="5.72522">
        <ele>613</ele>
        <time>2021-08-26T04:32:12.000Z</time>
      </trkpt>
      <trkpt lat="45.20436" lon="5.72522">
        <ele>612.79998779297</ele>
        <time>2021-08-26T04:32:13.000Z</time>
      </trkpt>
      <trkpt lat="45.20436" lon="5.72522">
        <ele>612.59997558594</ele>
        <time>2021-08-26T04:32:14.000Z</time>
      </trkpt>
      <trkpt lat="45.20434" lon="5.72525">
        <ele>611.40002441406</ele>
        <time>2021-08-26T04:32:18.000Z</time>
      </trkpt>
      <trkpt lat="45.20433" lon="5.72526">
        <ele>611</ele>
        <time>2021-08-26T04:32:19.000Z</time>
      </trkpt>
      <trkpt lat="45.20432" lon="5.72525">
        <ele>610</ele>
        <time>2021-08-26T04:32:20.000Z</time>
      </trkpt>
      <trkpt lat="45.20431" lon="5.72524">
        <ele>609.79998779297</ele>
        <time>2021-08-26T04:32:22.000Z</time>
      </trkpt>
      <trkpt lat="45.2043" lon="5.72524">
        <ele>609</ele>
        <time>2021-08-26T04:32:24.000Z</time>
      </trkpt>
      <trkpt lat="45.20428" lon="5.72524">
        <ele>608.59997558594</ele>
        <time>2021-08-26T04:32:26.000Z</time>
      </trkpt>
      <trkpt lat="45.20428" lon="5.72524">
        <ele>607.59997558594</ele>
        <time>2021-08-26T04:32:27.000Z</time>
      </trkpt>
      <trkpt lat="45.20427" lon="5.72525">
        <ele>607</ele>
        <time>2021-08-26T04:32:29.000Z</time>
      </trkpt>
      <trkpt lat="45.20426" lon="5.72525">
        <ele>606.59997558594</ele>
        <time>2021-08-26T04:32:30.000Z</time>
      </trkpt>
      <trkpt lat="45.20425" lon="5.72525">
        <ele>606.40002441406</ele>
        <time>2021-08-26T04:32:31.000Z</time>
      </trkpt>
      <trkpt lat="45.20425" lon="5.72525">
        <ele>606</ele>
        <time>2021-08-26T04:32:32.000Z</time>
      </trkpt>
      <trkpt lat="45.20424" lon="5.72527">
        <ele>605.40002441406</ele>
        <time>2021-08-26T04:32:34.000Z</time>
      </trkpt>
      <trkpt lat="45.20423" lon="5.72528">
        <ele>605.20001220703</ele>
        <time>2021-08-26T04:32:35.000Z</time>
      </trkpt>
      <trkpt lat="45.20423" lon="5.72531">
        <ele>604.79998779297</ele>
        <time>2021-08-26T04:32:37.000Z</time>
      </trkpt>
      <trkpt lat="45.20423" lon="5.72531">
        <ele>604.20001220703</ele>
        <time>2021-08-26T04:32:38.000Z</time>
      </trkpt>
      <trkpt lat="45.2042" lon="5.72534">
        <ele>603.40002441406</ele>
        <time>2021-08-26T04:32:42.000Z</time>
      </trkpt>
      <trkpt lat="45.20419" lon="5.72535">
        <ele>602.20001220703</ele>
        <time>2021-08-26T04:32:43.000Z</time>
      </trkpt>
      <trkpt lat="45.20416" lon="5.72537">
        <ele>601.79998779297</ele>
        <time>2021-08-26T04:32:46.000Z</time>
      </trkpt>
      <trkpt lat="45.20416" lon="5.7254">
        <ele>601.40002441406</ele>
        <time>2021-08-26T04:32:49.000Z</time>
      </trkpt>
      <trkpt lat="45.20415" lon="5.7254">
        <ele>600.79998779297</ele>
        <time>2021-08-26T04:32:50.000Z</time>
      </trkpt>
      <trkpt lat="45.20414" lon="5.72541">
        <ele>600.40002441406</ele>
        <time>2021-08-26T04:32:51.000Z</time>
      </trkpt>
      <trkpt lat="45.20413" lon="5.72541">
        <ele>600.20001220703</ele>
        <time>2021-08-26T04:32:52.000Z</time>
      </trkpt>
      <trkpt lat="45.20411" lon="5.72543">
        <ele>599.40002441406</ele>
        <time>2021-08-26T04:32:55.000Z</time>
      </trkpt>
      <trkpt lat="45.20409" lon="5.72545">
        <ele>598.79998779297</ele>
        <time>2021-08-26T04:32:57.000Z</time>
      </trkpt>
      <trkpt lat="45.20408" lon="5.72546">
        <ele>598</ele>
        <time>2021-08-26T04:32:58.000Z</time>
      </trkpt>
      <trkpt lat="45.20407" lon="5.72546">
        <ele>597.59997558594</ele>
        <time>2021-08-26T04:32:59.000Z</time>
      </trkpt>
      <trkpt lat="45.20405" lon="5.72545">
        <ele>597.40002441406</ele>
        <time>2021-08-26T04:33:00.000Z</time>
      </trkpt>
      <trkpt lat="45.20402" lon="5.72542">
        <ele>596.59997558594</ele>
        <time>2021-08-26T04:33:03.000Z</time>
      </trkpt>
      <trkpt lat="45.204" lon="5.72545">
        <ele>595.79998779297</ele>
        <time>2021-08-26T04:33:06.000Z</time>
      </trkpt>
      <trkpt lat="45.20399" lon="5.72545">
        <ele>595.59997558594</ele>
        <time>2021-08-26T04:33:07.000Z</time>
      </trkpt>
      <trkpt lat="45.20398" lon="5.72546">
        <ele>594.79998779297</ele>
        <time>2021-08-26T04:33:09.000Z</time>
      </trkpt>
      <trkpt lat="45.20398" lon="5.72548">
        <ele>594.20001220703</ele>
        <time>2021-08-26T04:33:11.000Z</time>
      </trkpt>
      <trkpt lat="45.20396" lon="5.72549">
        <ele>593.79998779297</ele>
        <time>2021-08-26T04:33:12.000Z</time>
      </trkpt>
      <trkpt lat="45.20395" lon="5.7255">
        <ele>593.20001220703</ele>
        <time>2021-08-26T04:33:13.000Z</time>
      </trkpt>
      <trkpt lat="45.20391" lon="5.72549">
        <ele>593</ele>
        <time>2021-08-26T04:33:15.000Z</time>
      </trkpt>
      <trkpt lat="45.2039" lon="5.72548">
        <ele>592</ele>
        <time>2021-08-26T04:33:17.000Z</time>
      </trkpt>
      <trkpt lat="45.20385" lon="5.72546">
        <ele>591</ele>
        <time>2021-08-26T04:33:21.000Z</time>
      </trkpt>
      <trkpt lat="45.20382" lon="5.72543">
        <ele>589.59997558594</ele>
        <time>2021-08-26T04:33:24.000Z</time>
      </trkpt>
      <trkpt lat="45.2038" lon="5.72541">
        <ele>588.59997558594</ele>
        <time>2021-08-26T04:33:29.000Z</time>
      </trkpt>
      <trkpt lat="45.20376" lon="5.72537">
        <ele>587.40002441406</ele>
        <time>2021-08-26T04:33:32.000Z</time>
      </trkpt>
      <trkpt lat="45.20374" lon="5.72536">
        <ele>586.20001220703</ele>
        <time>2021-08-26T04:33:33.000Z</time>
      </trkpt>
      <trkpt lat="45.2037" lon="5.72535">
        <ele>585.79998779297</ele>
        <time>2021-08-26T04:33:36.000Z</time>
      </trkpt>
      <trkpt lat="45.20369" lon="5.72535">
        <ele>585</ele>
        <time>2021-08-26T04:33:37.000Z</time>
      </trkpt>
      <trkpt lat="45.20366" lon="5.72535">
        <ele>584.20001220703</ele>
        <time>2021-08-26T04:33:39.000Z</time>
      </trkpt>
      <trkpt lat="45.20363" lon="5.72535">
        <ele>583.79998779297</ele>
        <time>2021-08-26T04:33:41.000Z</time>
      </trkpt>
      <trkpt lat="45.2036" lon="5.72533">
        <ele>583</ele>
        <time>2021-08-26T04:33:44.000Z</time>
      </trkpt>
      <trkpt lat="45.20359" lon="5.72532">
        <ele>582.79998779297</ele>
        <time>2021-08-26T04:33:45.000Z</time>
      </trkpt>
      <trkpt lat="45.20359" lon="5.72533">
        <ele>582.20001220703</ele>
        <time>2021-08-26T04:33:48.000Z</time>
      </trkpt>
      <trkpt lat="45.20359" lon="5.72534">
        <ele>581.40002441406</ele>
        <time>2021-08-26T04:33:49.000Z</time>
      </trkpt>
      <trkpt lat="45.20359" lon="5.72534">
        <ele>581.20001220703</ele>
        <time>2021-08-26T04:33:50.000Z</time>
      </trkpt>
      <trkpt lat="45.20358" lon="5.72533">
        <ele>580.20001220703</ele>
        <time>2021-08-26T04:33:52.000Z</time>
      </trkpt>
      <trkpt lat="45.20354" lon="5.7253">
        <ele>579.40002441406</ele>
        <time>2021-08-26T04:33:56.000Z</time>
      </trkpt>
      <trkpt lat="45.20353" lon="5.7253">
        <ele>578.79998779297</ele>
        <time>2021-08-26T04:33:57.000Z</time>
      </trkpt>
      <trkpt lat="45.20352" lon="5.72529">
        <ele>578.40002441406</ele>
        <time>2021-08-26T04:33:58.000Z</time>
      </trkpt>
      <trkpt lat="45.20349" lon="5.72529">
        <ele>577.40002441406</ele>
        <time>2021-08-26T04:34:00.000Z</time>
      </trkpt>
      <trkpt lat="45.20345" lon="5.72527">
        <ele>576.59997558594</ele>
        <time>2021-08-26T04:34:06.000Z</time>
      </trkpt>
      <trkpt lat="45.20344" lon="5.72527">
        <ele>576</ele>
        <time>2021-08-26T04:34:08.000Z</time>
      </trkpt>
      <trkpt lat="45.20344" lon="5.72528">
        <ele>575.20001220703</ele>
        <time>2021-08-26T04:34:10.000Z</time>
      </trkpt>
      <trkpt lat="45.20343" lon="5.72527">
        <ele>574.79998779297</ele>
        <time>2021-08-26T04:34:11.000Z</time>
      </trkpt>
      <trkpt lat="45.20343" lon="5.72525">
        <ele>573.79998779297</ele>
        <time>2021-08-26T04:34:16.000Z</time>
      </trkpt>
      <trkpt lat="45.20342" lon="5.72525">
        <ele>573.40002441406</ele>
        <time>2021-08-26T04:34:18.000Z</time>
      </trkpt>
      <trkpt lat="45.20339" lon="5.72525">
        <ele>572.59997558594</ele>
        <time>2021-08-26T04:34:21.000Z</time>
      </trkpt>
      <trkpt lat="45.20338" lon="5.72525">
        <ele>571.40002441406</ele>
        <time>2021-08-26T04:34:22.000Z</time>
      </trkpt>
      <trkpt lat="45.20334" lon="5.72525">
        <ele>571.20001220703</ele>
        <time>2021-08-26T04:34:25.000Z</time>
      </trkpt>
      <trkpt lat="45.20333" lon="5.72526">
        <ele>570.20001220703</ele>
        <time>2021-08-26T04:34:26.000Z</time>
      </trkpt>
      <trkpt lat="45.20329" lon="5.72526">
        <ele>569.20001220703</ele>
        <time>2021-08-26T04:34:29.000Z</time>
      </trkpt>
      <trkpt lat="45.20325" lon="5.72525">
        <ele>568</ele>
        <time>2021-08-26T04:34:32.000Z</time>
      </trkpt>
      <trkpt lat="45.20324" lon="5.72526">
        <ele>567.20001220703</ele>
        <time>2021-08-26T04:34:33.000Z</time>
      </trkpt>
      <trkpt lat="45.20322" lon="5.72528">
        <ele>567</ele>
        <time>2021-08-26T04:34:35.000Z</time>
      </trkpt>
      <trkpt lat="45.2032" lon="5.72528">
        <ele>566.40002441406</ele>
        <time>2021-08-26T04:34:36.000Z</time>
      </trkpt>
      <trkpt lat="45.20316" lon="5.72527">
        <ele>565.20001220703</ele>
        <time>2021-08-26T04:34:39.000Z</time>
      </trkpt>
      <trkpt lat="45.20314" lon="5.72527">
        <ele>564.59997558594</ele>
        <time>2021-08-26T04:34:40.000Z</time>
      </trkpt>
      <trkpt lat="45.20306" lon="5.72528">
        <ele>564.79998779297</ele>
        <time>2021-08-26T04:34:44.000Z</time>
      </trkpt>
      <trkpt lat="45.20305" lon="5.72527">
        <ele>564</ele>
        <time>2021-08-26T04:34:45.000Z</time>
      </trkpt>
      <trkpt lat="45.203" lon="5.72528">
        <ele>563.59997558594</ele>
        <time>2021-08-26T04:34:47.000Z</time>
      </trkpt>
      <trkpt lat="45.20298" lon="5.72529">
        <ele>563.20001220703</ele>
        <time>2021-08-26T04:34:48.000Z</time>
      </trkpt>
      <trkpt lat="45.20295" lon="5.7253">
        <ele>563</ele>
        <time>2021-08-26T04:34:49.000Z</time>
      </trkpt>
      <trkpt lat="45.20292" lon="5.72531">
        <ele>562.20001220703</ele>
        <time>2021-08-26T04:34:51.000Z</time>
      </trkpt>
      <trkpt lat="45.20289" lon="5.72531">
        <ele>562.20001220703</ele>
        <time>2021-08-26T04:34:53.000Z</time>
      </trkpt>
      <trkpt lat="45.20288" lon="5.7253">
        <ele>561.59997558594</ele>
        <time>2021-08-26T04:34:54.000Z</time>
      </trkpt>
      <trkpt lat="45.20282" lon="5.72528">
        <ele>560.40002441406</ele>
        <time>2021-08-26T04:34:57.000Z</time>
      </trkpt>
      <trkpt lat="45.2028" lon="5.72528">
        <ele>560</ele>
        <time>2021-08-26T04:34:58.000Z</time>
      </trkpt>
      <trkpt lat="45.20278" lon="5.72528">
        <ele>559.79998779297</ele>
        <time>2021-08-26T04:34:59.000Z</time>
      </trkpt>
      <trkpt lat="45.20276" lon="5.72528">
        <ele>558.40002441406</ele>
        <time>2021-08-26T04:35:01.000Z</time>
      </trkpt>
      <trkpt lat="45.20269" lon="5.72528">
        <ele>556.59997558594</ele>
        <time>2021-08-26T04:35:05.000Z</time>
      </trkpt>
      <trkpt lat="45.20265" lon="5.72527">
        <ele>556</ele>
        <time>2021-08-26T04:35:07.000Z</time>
      </trkpt>
      <trkpt lat="45.20263" lon="5.72526">
        <ele>555.40002441406</ele>
        <time>2021-08-26T04:35:09.000Z</time>
      </trkpt>
      <trkpt lat="45.20263" lon="5.72527">
        <ele>555.20001220703</ele>
        <time>2021-08-26T04:35:10.000Z</time>
      </trkpt>
      <trkpt lat="45.20261" lon="5.72529">
        <ele>555.20001220703</ele>
        <time>2021-08-26T04:35:12.000Z</time>
      </trkpt>
      <trkpt lat="45.2026" lon="5.72529">
        <ele>553.79998779297</ele>
        <time>2021-08-26T04:35:13.000Z</time>
      </trkpt>
      <trkpt lat="45.20258" lon="5.72529">
        <ele>553</ele>
        <time>2021-08-26T04:35:15.000Z</time>
      </trkpt>
      <trkpt lat="45.20256" lon="5.72529">
        <ele>552.40002441406</ele>
        <time>2021-08-26T04:35:17.000Z</time>
      </trkpt>
      <trkpt lat="45.20254" lon="5.72529">
        <ele>551.40002441406</ele>
        <time>2021-08-26T04:35:19.000Z</time>
      </trkpt>
      <trkpt lat="45.20252" lon="5.72527">
        <ele>551</ele>
        <time>2021-08-26T04:35:20.000Z</time>
      </trkpt>
      <trkpt lat="45.20248" lon="5.72526">
        <ele>550.40002441406</ele>
        <time>2021-08-26T04:35:22.000Z</time>
      </trkpt>
      <trkpt lat="45.20246" lon="5.72527">
        <ele>549.40002441406</ele>
        <time>2021-08-26T04:35:23.000Z</time>
      </trkpt>
      <trkpt lat="45.20245" lon="5.72528">
        <ele>549</ele>
        <time>2021-08-26T04:35:24.000Z</time>
      </trkpt>
      <trkpt lat="45.20243" lon="5.72529">
        <ele>548.79998779297</ele>
        <time>2021-08-26T04:35:25.000Z</time>
      </trkpt>
      <trkpt lat="45.20241" lon="5.72531">
        <ele>547.79998779297</ele>
        <time>2021-08-26T04:35:27.000Z</time>
      </trkpt>
      <trkpt lat="45.20235" lon="5.72529">
        <ele>546.59997558594</ele>
        <time>2021-08-26T04:35:31.000Z</time>
      </trkpt>
      <trkpt lat="45.2023" lon="5.72529">
        <ele>546</ele>
        <time>2021-08-26T04:35:34.000Z</time>
      </trkpt>
      <trkpt lat="45.20228" lon="5.7253">
        <ele>545.40002441406</ele>
        <time>2021-08-26T04:35:35.000Z</time>
      </trkpt>
      <trkpt lat="45.20226" lon="5.72529">
        <ele>544.59997558594</ele>
        <time>2021-08-26T04:35:36.000Z</time>
      </trkpt>
      <trkpt lat="45.20225" lon="5.72529">
        <ele>544.40002441406</ele>
        <time>2021-08-26T04:35:37.000Z</time>
      </trkpt>
      <trkpt lat="45.20224" lon="5.72528">
        <ele>543.59997558594</ele>
        <time>2021-08-26T04:35:38.000Z</time>
      </trkpt>
      <trkpt lat="45.20222" lon="5.72527">
        <ele>543.40002441406</ele>
        <time>2021-08-26T04:35:40.000Z</time>
      </trkpt>
      <trkpt lat="45.2022" lon="5.72527">
        <ele>542.20001220703</ele>
        <time>2021-08-26T04:35:42.000Z</time>
      </trkpt>
      <trkpt lat="45.20217" lon="5.72526">
        <ele>541.79998779297</ele>
        <time>2021-08-26T04:35:44.000Z</time>
      </trkpt>
      <trkpt lat="45.20213" lon="5.72524">
        <ele>541</ele>
        <time>2021-08-26T04:35:47.000Z</time>
      </trkpt>
      <trkpt lat="45.20211" lon="5.72522">
        <ele>540</ele>
        <time>2021-08-26T04:35:49.000Z</time>
      </trkpt>
      <trkpt lat="45.20208" lon="5.72519">
        <ele>539.59997558594</ele>
        <time>2021-08-26T04:35:51.000Z</time>
      </trkpt>
      <trkpt lat="45.20207" lon="5.72517">
        <ele>538.79998779297</ele>
        <time>2021-08-26T04:35:52.000Z</time>
      </trkpt>
      <trkpt lat="45.20205" lon="5.72517">
        <ele>538.59997558594</ele>
        <time>2021-08-26T04:35:53.000Z</time>
      </trkpt>
      <trkpt lat="45.20197" lon="5.72512">
        <ele>537.59997558594</ele>
        <time>2021-08-26T04:35:57.000Z</time>
      </trkpt>
      <trkpt lat="45.20195" lon="5.72508">
        <ele>537.40002441406</ele>
        <time>2021-08-26T04:35:59.000Z</time>
      </trkpt>
      <trkpt lat="45.20192" lon="5.72504">
        <ele>536.59997558594</ele>
        <time>2021-08-26T04:36:01.000Z</time>
      </trkpt>
      <trkpt lat="45.20187" lon="5.72499">
        <ele>535.40002441406</ele>
        <time>2021-08-26T04:36:05.000Z</time>
      </trkpt>
      <trkpt lat="45.20184" lon="5.72497">
        <ele>534.59997558594</ele>
        <time>2021-08-26T04:36:07.000Z</time>
      </trkpt>
      <trkpt lat="45.20178" lon="5.72495">
        <ele>534.20001220703</ele>
        <time>2021-08-26T04:36:10.000Z</time>
      </trkpt>
      <trkpt lat="45.20175" lon="5.72493">
        <ele>533.59997558594</ele>
        <time>2021-08-26T04:36:12.000Z</time>
      </trkpt>
      <trkpt lat="45.20175" lon="5.72492">
        <ele>533.20001220703</ele>
        <time>2021-08-26T04:36:13.000Z</time>
      </trkpt>
      <trkpt lat="45.20173" lon="5.72491">
        <ele>532.20001220703</ele>
        <time>2021-08-26T04:36:15.000Z</time>
      </trkpt>
      <trkpt lat="45.20172" lon="5.72491">
        <ele>532</ele>
        <time>2021-08-26T04:36:16.000Z</time>
      </trkpt>
      <trkpt lat="45.20171" lon="5.7249">
        <ele>532</ele>
        <time>2021-08-26T04:36:17.000Z</time>
      </trkpt>
      <trkpt lat="45.20169" lon="5.72485">
        <ele>530.79998779297</ele>
        <time>2021-08-26T04:36:20.000Z</time>
      </trkpt>
      <trkpt lat="45.20169" lon="5.72484">
        <ele>530.59997558594</ele>
        <time>2021-08-26T04:36:21.000Z</time>
      </trkpt>
      <trkpt lat="45.20167" lon="5.72482">
        <ele>530.20001220703</ele>
        <time>2021-08-26T04:36:23.000Z</time>
      </trkpt>
      <trkpt lat="45.20166" lon="5.72481">
        <ele>529.20001220703</ele>
        <time>2021-08-26T04:36:25.000Z</time>
      </trkpt>
      <trkpt lat="45.20164" lon="5.72479">
        <ele>528.40002441406</ele>
        <time>2021-08-26T04:36:27.000Z</time>
      </trkpt>
      <trkpt lat="45.20162" lon="5.72477">
        <ele>527.79998779297</ele>
        <time>2021-08-26T04:36:30.000Z</time>
      </trkpt>
      <trkpt lat="45.2016" lon="5.72475">
        <ele>526.79998779297</ele>
        <time>2021-08-26T04:36:33.000Z</time>
      </trkpt>
      <trkpt lat="45.20158" lon="5.72471">
        <ele>525.79998779297</ele>
        <time>2021-08-26T04:36:37.000Z</time>
      </trkpt>
      <trkpt lat="45.20158" lon="5.7247">
        <ele>524.79998779297</ele>
        <time>2021-08-26T04:36:38.000Z</time>
      </trkpt>
      <trkpt lat="45.20157" lon="5.7247">
        <ele>524.79998779297</ele>
        <time>2021-08-26T04:36:39.000Z</time>
      </trkpt>
      <trkpt lat="45.20155" lon="5.72469">
        <ele>523</ele>
        <time>2021-08-26T04:36:43.000Z</time>
      </trkpt>
      <trkpt lat="45.20152" lon="5.72466">
        <ele>522.40002441406</ele>
        <time>2021-08-26T04:36:47.000Z</time>
      </trkpt>
      <trkpt lat="45.2015" lon="5.72465">
        <ele>521.59997558594</ele>
        <time>2021-08-26T04:36:49.000Z</time>
      </trkpt>
      <trkpt lat="45.20149" lon="5.72465">
        <ele>521.20001220703</ele>
        <time>2021-08-26T04:36:50.000Z</time>
      </trkpt>
      <trkpt lat="45.20147" lon="5.72463">
        <ele>520.20001220703</ele>
        <time>2021-08-26T04:36:53.000Z</time>
      </trkpt>
      <trkpt lat="45.20145" lon="5.72463">
        <ele>519</ele>
        <time>2021-08-26T04:36:57.000Z</time>
      </trkpt>
      <trkpt lat="45.20145" lon="5.72465">
        <ele>518</ele>
        <time>2021-08-26T04:36:58.000Z</time>
      </trkpt>
      <trkpt lat="45.20144" lon="5.72466">
        <ele>517.79998779297</ele>
        <time>2021-08-26T04:36:59.000Z</time>
      </trkpt>
      <trkpt lat="45.20142" lon="5.72469">
        <ele>516.79998779297</ele>
        <time>2021-08-26T04:37:03.000Z</time>
      </trkpt>
      <trkpt lat="45.20141" lon="5.72469">
        <ele>516.59997558594</ele>
        <time>2021-08-26T04:37:04.000Z</time>
      </trkpt>
      <trkpt lat="45.20141" lon="5.7247">
        <ele>516.59997558594</ele>
        <time>2021-08-26T04:37:05.000Z</time>
      </trkpt>
      <trkpt lat="45.20139" lon="5.72474">
        <ele>515.40002441406</ele>
        <time>2021-08-26T04:37:08.000Z</time>
      </trkpt>
      <trkpt lat="45.20137" lon="5.72475">
        <ele>514.40002441406</ele>
        <time>2021-08-26T04:37:10.000Z</time>
      </trkpt>
      <trkpt lat="45.20136" lon="5.72477">
        <ele>513.79998779297</ele>
        <time>2021-08-26T04:37:12.000Z</time>
      </trkpt>
      <trkpt lat="45.20136" lon="5.72479">
        <ele>513.40002441406</ele>
        <time>2021-08-26T04:37:13.000Z</time>
      </trkpt>
      <trkpt lat="45.20136" lon="5.72481">
        <ele>513.40002441406</ele>
        <time>2021-08-26T04:37:14.000Z</time>
      </trkpt>
      <trkpt lat="45.20134" lon="5.72485">
        <ele>512.20001220703</ele>
        <time>2021-08-26T04:37:17.000Z</time>
      </trkpt>
      <trkpt lat="45.20133" lon="5.72489">
        <ele>511.20001220703</ele>
        <time>2021-08-26T04:37:20.000Z</time>
      </trkpt>
      <trkpt lat="45.20132" lon="5.72492">
        <ele>510.79998779297</ele>
        <time>2021-08-26T04:37:22.000Z</time>
      </trkpt>
      <trkpt lat="45.20131" lon="5.72494">
        <ele>510</ele>
        <time>2021-08-26T04:37:23.000Z</time>
      </trkpt>
      <trkpt lat="45.20129" lon="5.72498">
        <ele>509.39999389648</ele>
        <time>2021-08-26T04:37:25.000Z</time>
      </trkpt>
      <trkpt lat="45.20128" lon="5.72499">
        <ele>509</ele>
        <time>2021-08-26T04:37:26.000Z</time>
      </trkpt>
      <trkpt lat="45.20124" lon="5.72503">
        <ele>508</ele>
        <time>2021-08-26T04:37:29.000Z</time>
      </trkpt>
      <trkpt lat="45.20123" lon="5.72505">
        <ele>507.39999389648</ele>
        <time>2021-08-26T04:37:30.000Z</time>
      </trkpt>
      <trkpt lat="45.20119" lon="5.72511">
        <ele>506.20001220703</ele>
        <time>2021-08-26T04:37:33.000Z</time>
      </trkpt>
      <trkpt lat="45.20116" lon="5.72513">
        <ele>505.60000610352</ele>
        <time>2021-08-26T04:37:35.000Z</time>
      </trkpt>
      <trkpt lat="45.20115" lon="5.72515">
        <ele>505.39999389648</ele>
        <time>2021-08-26T04:37:36.000Z</time>
      </trkpt>
      <trkpt lat="45.20115" lon="5.72517">
        <ele>504.60000610352</ele>
        <time>2021-08-26T04:37:37.000Z</time>
      </trkpt>
      <trkpt lat="45.20115" lon="5.72518">
        <ele>504.39999389648</ele>
        <time>2021-08-26T04:37:38.000Z</time>
      </trkpt>
      <trkpt lat="45.20114" lon="5.7252">
        <ele>504.39999389648</ele>
        <time>2021-08-26T04:37:39.000Z</time>
      </trkpt>
      <trkpt lat="45.20113" lon="5.72521">
        <ele>503.39999389648</ele>
        <time>2021-08-26T04:37:40.000Z</time>
      </trkpt>
      <trkpt lat="45.20113" lon="5.72523">
        <ele>503.39999389648</ele>
        <time>2021-08-26T04:37:41.000Z</time>
      </trkpt>
      <trkpt lat="45.20113" lon="5.72529">
        <ele>502.39999389648</ele>
        <time>2021-08-26T04:37:44.000Z</time>
      </trkpt>
      <trkpt lat="45.20113" lon="5.7253">
        <ele>502.39999389648</ele>
        <time>2021-08-26T04:37:45.000Z</time>
      </trkpt>
      <trkpt lat="45.20114" lon="5.72533">
        <ele>502</ele>
        <time>2021-08-26T04:37:46.000Z</time>
      </trkpt>
      <trkpt lat="45.20117" lon="5.7254">
        <ele>501.39999389648</ele>
        <time>2021-08-26T04:37:50.000Z</time>
      </trkpt>
      <trkpt lat="45.20119" lon="5.72542">
        <ele>500.79998779297</ele>
        <time>2021-08-26T04:37:51.000Z</time>
      </trkpt>
      <trkpt lat="45.20121" lon="5.72543">
        <ele>500.39999389648</ele>
        <time>2021-08-26T04:37:52.000Z</time>
      </trkpt>
      <trkpt lat="45.20132" lon="5.72548">
        <ele>501.39999389648</ele>
        <time>2021-08-26T04:37:59.000Z</time>
      </trkpt>
      <trkpt lat="45.20136" lon="5.72549">
        <ele>502.39999389648</ele>
        <time>2021-08-26T04:38:01.000Z</time>
      </trkpt>
      <trkpt lat="45.20147" lon="5.72553">
        <ele>503.60000610352</ele>
        <time>2021-08-26T04:38:07.000Z</time>
      </trkpt>
      <trkpt lat="45.20149" lon="5.72553">
        <ele>503.79998779297</ele>
        <time>2021-08-26T04:38:08.000Z</time>
      </trkpt>
      <trkpt lat="45.20158" lon="5.72556">
        <ele>504.60000610352</ele>
        <time>2021-08-26T04:38:13.000Z</time>
      </trkpt>
      <trkpt lat="45.20165" lon="5.7256">
        <ele>505.79998779297</ele>
        <time>2021-08-26T04:38:17.000Z</time>
      </trkpt>
      <trkpt lat="45.20167" lon="5.72561">
        <ele>506</ele>
        <time>2021-08-26T04:38:18.000Z</time>
      </trkpt>
      <trkpt lat="45.20174" lon="5.72566">
        <ele>507</ele>
        <time>2021-08-26T04:38:23.000Z</time>
      </trkpt>
      <trkpt lat="45.20176" lon="5.72566">
        <ele>507</ele>
        <time>2021-08-26T04:38:24.000Z</time>
      </trkpt>
      <trkpt lat="45.20179" lon="5.72569">
        <ele>508</ele>
        <time>2021-08-26T04:38:27.000Z</time>
      </trkpt>
      <trkpt lat="45.20181" lon="5.7257">
        <ele>508.20001220703</ele>
        <time>2021-08-26T04:38:28.000Z</time>
      </trkpt>
      <trkpt lat="45.20184" lon="5.72572">
        <ele>508.60000610352</ele>
        <time>2021-08-26T04:38:30.000Z</time>
      </trkpt>
      <trkpt lat="45.2019" lon="5.72576">
        <ele>509.20001220703</ele>
        <time>2021-08-26T04:38:33.000Z</time>
      </trkpt>
      <trkpt lat="45.20192" lon="5.72577">
        <ele>509.39999389648</ele>
        <time>2021-08-26T04:38:34.000Z</time>
      </trkpt>
      <trkpt lat="45.20193" lon="5.72578">
        <ele>509.60000610352</ele>
        <time>2021-08-26T04:38:35.000Z</time>
      </trkpt>
      <trkpt lat="45.20196" lon="5.72581">
        <ele>510.20001220703</ele>
        <time>2021-08-26T04:38:37.000Z</time>
      </trkpt>
      <trkpt lat="45.20197" lon="5.72582">
        <ele>510.39999389648</ele>
        <time>2021-08-26T04:38:38.000Z</time>
      </trkpt>
      <trkpt lat="45.20202" lon="5.72585">
        <ele>511</ele>
        <time>2021-08-26T04:38:41.000Z</time>
      </trkpt>
      <trkpt lat="45.20204" lon="5.72586">
        <ele>511.60000610352</ele>
        <time>2021-08-26T04:38:42.000Z</time>
      </trkpt>
      <trkpt lat="45.20213" lon="5.72592">
        <ele>512.59997558594</ele>
        <time>2021-08-26T04:38:48.000Z</time>
      </trkpt>
      <trkpt lat="45.20219" lon="5.72596">
        <ele>513.79998779297</ele>
        <time>2021-08-26T04:38:52.000Z</time>
      </trkpt>
      <trkpt lat="45.20222" lon="5.72598">
        <ele>513.79998779297</ele>
        <time>2021-08-26T04:38:55.000Z</time>
      </trkpt>
      <trkpt lat="45.20224" lon="5.72599">
        <ele>514.79998779297</ele>
        <time>2021-08-26T04:38:57.000Z</time>
      </trkpt>
      <trkpt lat="45.20227" lon="5.72601">
        <ele>515.79998779297</ele>
        <time>2021-08-26T04:39:00.000Z</time>
      </trkpt>
      <trkpt lat="45.20229" lon="5.72603">
        <ele>516</ele>
        <time>2021-08-26T04:39:02.000Z</time>
      </trkpt>
      <trkpt lat="45.20233" lon="5.72605">
        <ele>516.79998779297</ele>
        <time>2021-08-26T04:39:05.000Z</time>
      </trkpt>
      <trkpt lat="45.20236" lon="5.72607">
        <ele>516.79998779297</ele>
        <time>2021-08-26T04:39:08.000Z</time>
      </trkpt>
      <trkpt lat="45.20237" lon="5.72608">
        <ele>516.79998779297</ele>
        <time>2021-08-26T04:39:09.000Z</time>
      </trkpt>
      <trkpt lat="45.20238" lon="5.72608">
        <ele>517.59997558594</ele>
        <time>2021-08-26T04:39:10.000Z</time>
      </trkpt>
      <trkpt lat="45.20245" lon="5.72607">
        <ele>518.40002441406</ele>
        <time>2021-08-26T04:39:14.000Z</time>
      </trkpt>
      <trkpt lat="45.20246" lon="5.72607">
        <ele>518.79998779297</ele>
        <time>2021-08-26T04:39:15.000Z</time>
      </trkpt>
      <trkpt lat="45.2025" lon="5.72608">
        <ele>519.20001220703</ele>
        <time>2021-08-26T04:39:18.000Z</time>
      </trkpt>
      <trkpt lat="45.20253" lon="5.72608">
        <ele>519.79998779297</ele>
        <time>2021-08-26T04:39:20.000Z</time>
      </trkpt>
      <trkpt lat="45.20257" lon="5.72607">
        <ele>520.40002441406</ele>
        <time>2021-08-26T04:39:22.000Z</time>
      </trkpt>
      <trkpt lat="45.20258" lon="5.72607">
        <ele>521</ele>
        <time>2021-08-26T04:39:23.000Z</time>
      </trkpt>
      <trkpt lat="45.20263" lon="5.72606">
        <ele>521.40002441406</ele>
        <time>2021-08-26T04:39:26.000Z</time>
      </trkpt>
      <trkpt lat="45.20266" lon="5.72606">
        <ele>522.20001220703</ele>
        <time>2021-08-26T04:39:28.000Z</time>
      </trkpt>
      <trkpt lat="45.20268" lon="5.72606">
        <ele>522.20001220703</ele>
        <time>2021-08-26T04:39:29.000Z</time>
      </trkpt>
      <trkpt lat="45.20277" lon="5.72604">
        <ele>523.20001220703</ele>
        <time>2021-08-26T04:39:34.000Z</time>
      </trkpt>
      <trkpt lat="45.20284" lon="5.72603">
        <ele>524.40002441406</ele>
        <time>2021-08-26T04:39:38.000Z</time>
      </trkpt>
      <trkpt lat="45.20286" lon="5.72603">
        <ele>524.59997558594</ele>
        <time>2021-08-26T04:39:39.000Z</time>
      </trkpt>
      <trkpt lat="45.20291" lon="5.72604">
        <ele>525.40002441406</ele>
        <time>2021-08-26T04:39:42.000Z</time>
      </trkpt>
      <trkpt lat="45.20296" lon="5.72604">
        <ele>526.40002441406</ele>
        <time>2021-08-26T04:39:45.000Z</time>
      </trkpt>
      <trkpt lat="45.20298" lon="5.72605">
        <ele>526.59997558594</ele>
        <time>2021-08-26T04:39:46.000Z</time>
      </trkpt>
      <trkpt lat="45.20302" lon="5.72605">
        <ele>526.79998779297</ele>
        <time>2021-08-26T04:39:49.000Z</time>
      </trkpt>
      <trkpt lat="45.20304" lon="5.72606">
        <ele>527.40002441406</ele>
        <time>2021-08-26T04:39:51.000Z</time>
      </trkpt>
      <trkpt lat="45.20306" lon="5.72608">
        <ele>527.59997558594</ele>
        <time>2021-08-26T04:39:53.000Z</time>
      </trkpt>
      <trkpt lat="45.20307" lon="5.7261">
        <ele>528</ele>
        <time>2021-08-26T04:39:55.000Z</time>
      </trkpt>
      <trkpt lat="45.2031" lon="5.7261">
        <ele>528</ele>
        <time>2021-08-26T04:39:56.000Z</time>
      </trkpt>
      <trkpt lat="45.20314" lon="5.72612">
        <ele>528.79998779297</ele>
        <time>2021-08-26T04:39:58.000Z</time>
      </trkpt>
      <trkpt lat="45.20322" lon="5.72615">
        <ele>529.79998779297</ele>
        <time>2021-08-26T04:40:03.000Z</time>
      </trkpt>
      <trkpt lat="45.20323" lon="5.72615">
        <ele>530.40002441406</ele>
        <time>2021-08-26T04:40:04.000Z</time>
      </trkpt>
      <trkpt lat="45.20324" lon="5.72616">
        <ele>530.79998779297</ele>
        <time>2021-08-26T04:40:05.000Z</time>
      </trkpt>
      <trkpt lat="45.20332" lon="5.72621">
        <ele>532</ele>
        <time>2021-08-26T04:40:10.000Z</time>
      </trkpt>
      <trkpt lat="45.20333" lon="5.72622">
        <ele>532.20001220703</ele>
        <time>2021-08-26T04:40:11.000Z</time>
      </trkpt>
      <trkpt lat="45.20336" lon="5.72625">
        <ele>532.59997558594</ele>
        <time>2021-08-26T04:40:13.000Z</time>
      </trkpt>
      <trkpt lat="45.20339" lon="5.72629">
        <ele>533.40002441406</ele>
        <time>2021-08-26T04:40:16.000Z</time>
      </trkpt>
      <trkpt lat="45.20347" lon="5.72633">
        <ele>534.79998779297</ele>
        <time>2021-08-26T04:40:21.000Z</time>
      </trkpt>
      <trkpt lat="45.20351" lon="5.72635">
        <ele>535</ele>
        <time>2021-08-26T04:40:23.000Z</time>
      </trkpt>
      <trkpt lat="45.20353" lon="5.72636">
        <ele>535.20001220703</ele>
        <time>2021-08-26T04:40:24.000Z</time>
      </trkpt>
      <trkpt lat="45.20354" lon="5.72636">
        <ele>535.79998779297</ele>
        <time>2021-08-26T04:40:25.000Z</time>
      </trkpt>
      <trkpt lat="45.20359" lon="5.72638">
        <ele>536.59997558594</ele>
        <time>2021-08-26T04:40:29.000Z</time>
      </trkpt>
      <trkpt lat="45.2036" lon="5.7264">
        <ele>537</ele>
        <time>2021-08-26T04:40:30.000Z</time>
      </trkpt>
      <trkpt lat="45.20364" lon="5.72644">
        <ele>538</ele>
        <time>2021-08-26T04:40:34.000Z</time>
      </trkpt>
      <trkpt lat="45.20369" lon="5.7265">
        <ele>538.79998779297</ele>
        <time>2021-08-26T04:40:38.000Z</time>
      </trkpt>
      <trkpt lat="45.20376" lon="5.72656">
        <ele>539.20001220703</ele>
        <time>2021-08-26T04:40:41.000Z</time>
      </trkpt>
      <trkpt lat="45.20385" lon="5.72664">
        <ele>540.20001220703</ele>
        <time>2021-08-26T04:40:45.000Z</time>
      </trkpt>
      <trkpt lat="45.2039" lon="5.72674">
        <ele>541.40002441406</ele>
        <time>2021-08-26T04:40:50.000Z</time>
      </trkpt>
      <trkpt lat="45.2039" lon="5.72676">
        <ele>541.40002441406</ele>
        <time>2021-08-26T04:40:51.000Z</time>
      </trkpt>
      <trkpt lat="45.20396" lon="5.72684">
        <ele>542.59997558594</ele>
        <time>2021-08-26T04:40:55.000Z</time>
      </trkpt>
      <trkpt lat="45.20398" lon="5.72687">
        <ele>543</ele>
        <time>2021-08-26T04:40:57.000Z</time>
      </trkpt>
      <trkpt lat="45.20401" lon="5.72691">
        <ele>543.59997558594</ele>
        <time>2021-08-26T04:40:59.000Z</time>
      </trkpt>
      <trkpt lat="45.20408" lon="5.72697">
        <ele>545</ele>
        <time>2021-08-26T04:41:04.000Z</time>
      </trkpt>
      <trkpt lat="45.2041" lon="5.72699">
        <ele>545.40002441406</ele>
        <time>2021-08-26T04:41:05.000Z</time>
      </trkpt>
      <trkpt lat="45.20416" lon="5.72703">
        <ele>546.59997558594</ele>
        <time>2021-08-26T04:41:09.000Z</time>
      </trkpt>
      <trkpt lat="45.20421" lon="5.72707">
        <ele>547.40002441406</ele>
        <time>2021-08-26T04:41:12.000Z</time>
      </trkpt>
      <trkpt lat="45.20422" lon="5.72708">
        <ele>547.79998779297</ele>
        <time>2021-08-26T04:41:13.000Z</time>
      </trkpt>
      <trkpt lat="45.20424" lon="5.72709">
        <ele>547.79998779297</ele>
        <time>2021-08-26T04:41:14.000Z</time>
      </trkpt>
      <trkpt lat="45.20428" lon="5.72712">
        <ele>548.79998779297</ele>
        <time>2021-08-26T04:41:16.000Z</time>
      </trkpt>
      <trkpt lat="45.20438" lon="5.72716">
        <ele>550</ele>
        <time>2021-08-26T04:41:21.000Z</time>
      </trkpt>
      <trkpt lat="45.20448" lon="5.72718">
        <ele>550.79998779297</ele>
        <time>2021-08-26T04:41:26.000Z</time>
      </trkpt>
      <trkpt lat="45.20453" lon="5.72717">
        <ele>551</ele>
        <time>2021-08-26T04:41:29.000Z</time>
      </trkpt>
      <trkpt lat="45.20457" lon="5.72718">
        <ele>551.79998779297</ele>
        <time>2021-08-26T04:41:31.000Z</time>
      </trkpt>
      <trkpt lat="45.20463" lon="5.72718">
        <ele>552.40002441406</ele>
        <time>2021-08-26T04:41:34.000Z</time>
      </trkpt>
      <trkpt lat="45.20467" lon="5.72721">
        <ele>553.40002441406</ele>
        <time>2021-08-26T04:41:37.000Z</time>
      </trkpt>
      <trkpt lat="45.20475" lon="5.72722">
        <ele>553.59997558594</ele>
        <time>2021-08-26T04:41:41.000Z</time>
      </trkpt>
      <trkpt lat="45.20481" lon="5.72725">
        <ele>555</ele>
        <time>2021-08-26T04:41:45.000Z</time>
      </trkpt>
      <trkpt lat="45.20486" lon="5.72727">
        <ele>555.40002441406</ele>
        <time>2021-08-26T04:41:48.000Z</time>
      </trkpt>
      <trkpt lat="45.20493" lon="5.72731">
        <ele>556.20001220703</ele>
        <time>2021-08-26T04:41:52.000Z</time>
      </trkpt>
      <trkpt lat="45.20502" lon="5.72737">
        <ele>556.79998779297</ele>
        <time>2021-08-26T04:41:56.000Z</time>
      </trkpt>
      <trkpt lat="45.20504" lon="5.72738">
        <ele>557.20001220703</ele>
        <time>2021-08-26T04:41:57.000Z</time>
      </trkpt>
      <trkpt lat="45.20519" lon="5.72743">
        <ele>558.20001220703</ele>
        <time>2021-08-26T04:42:04.000Z</time>
      </trkpt>
      <trkpt lat="45.20523" lon="5.72745">
        <ele>558.79998779297</ele>
        <time>2021-08-26T04:42:06.000Z</time>
      </trkpt>
      <trkpt lat="45.20531" lon="5.72753">
        <ele>558.79998779297</ele>
        <time>2021-08-26T04:42:10.000Z</time>
      </trkpt>
      <trkpt lat="45.20545" lon="5.7277">
        <ele>558.59997558594</ele>
        <time>2021-08-26T04:42:18.000Z</time>
      </trkpt>
      <trkpt lat="45.20552" lon="5.72781">
        <ele>557.79998779297</ele>
        <time>2021-08-26T04:42:22.000Z</time>
      </trkpt>
      <trkpt lat="45.20558" lon="5.72788">
        <ele>557.79998779297</ele>
        <time>2021-08-26T04:42:25.000Z</time>
      </trkpt>
      <trkpt lat="45.20572" lon="5.72807">
        <ele>558.40002441406</ele>
        <time>2021-08-26T04:42:33.000Z</time>
      </trkpt>
      <trkpt lat="45.20582" lon="5.72824">
        <ele>558.40002441406</ele>
        <time>2021-08-26T04:42:39.000Z</time>
      </trkpt>
      <trkpt lat="45.20584" lon="5.72827">
        <ele>559</ele>
        <time>2021-08-26T04:42:40.000Z</time>
      </trkpt>
      <trkpt lat="45.20598" lon="5.72845">
        <ele>558.20001220703</ele>
        <time>2021-08-26T04:42:47.000Z</time>
      </trkpt>
      <trkpt lat="45.20601" lon="5.72851">
        <ele>558</ele>
        <time>2021-08-26T04:42:49.000Z</time>
      </trkpt>
      <trkpt lat="45.20605" lon="5.72857">
        <ele>557</ele>
        <time>2021-08-26T04:42:51.000Z</time>
      </trkpt>
      <trkpt lat="45.20616" lon="5.72866">
        <ele>557.40002441406</ele>
        <time>2021-08-26T04:42:55.000Z</time>
      </trkpt>
      <trkpt lat="45.20618" lon="5.72869">
        <ele>557</ele>
        <time>2021-08-26T04:42:56.000Z</time>
      </trkpt>
      <trkpt lat="45.20633" lon="5.72884">
        <ele>557.79998779297</ele>
        <time>2021-08-26T04:43:03.000Z</time>
      </trkpt>
      <trkpt lat="45.2065" lon="5.72896">
        <ele>558.40002441406</ele>
        <time>2021-08-26T04:43:10.000Z</time>
      </trkpt>
      <trkpt lat="45.2066" lon="5.7291">
        <ele>556.79998779297</ele>
        <time>2021-08-26T04:43:16.000Z</time>
      </trkpt>
      <trkpt lat="45.20669" lon="5.72924">
        <ele>555.59997558594</ele>
        <time>2021-08-26T04:43:22.000Z</time>
      </trkpt>
      <trkpt lat="45.2067" lon="5.72926">
        <ele>555.59997558594</ele>
        <time>2021-08-26T04:43:23.000Z</time>
      </trkpt>
      <trkpt lat="45.20672" lon="5.72932">
        <ele>554.79998779297</ele>
        <time>2021-08-26T04:43:25.000Z</time>
      </trkpt>
      <trkpt lat="45.20675" lon="5.72937">
        <ele>554.59997558594</ele>
        <time>2021-08-26T04:43:27.000Z</time>
      </trkpt>
      <trkpt lat="45.2068" lon="5.72944">
        <ele>553.79998779297</ele>
        <time>2021-08-26T04:43:30.000Z</time>
      </trkpt>
      <trkpt lat="45.20682" lon="5.72947">
        <ele>553.59997558594</ele>
        <time>2021-08-26T04:43:31.000Z</time>
      </trkpt>
      <trkpt lat="45.20689" lon="5.72956">
        <ele>552.40002441406</ele>
        <time>2021-08-26T04:43:35.000Z</time>
      </trkpt>
      <trkpt lat="45.20693" lon="5.7296">
        <ele>552</ele>
        <time>2021-08-26T04:43:37.000Z</time>
      </trkpt>
      <trkpt lat="45.20705" lon="5.72971">
        <ele>551.40002441406</ele>
        <time>2021-08-26T04:43:43.000Z</time>
      </trkpt>
      <trkpt lat="45.20706" lon="5.72974">
        <ele>551</ele>
        <time>2021-08-26T04:43:44.000Z</time>
      </trkpt>
      <trkpt lat="45.20707" lon="5.72978">
        <ele>550.40002441406</ele>
        <time>2021-08-26T04:43:46.000Z</time>
      </trkpt>
      <trkpt lat="45.2071" lon="5.72982">
        <ele>549.79998779297</ele>
        <time>2021-08-26T04:43:48.000Z</time>
      </trkpt>
      <trkpt lat="45.20714" lon="5.72986">
        <ele>549.40002441406</ele>
        <time>2021-08-26T04:43:51.000Z</time>
      </trkpt>
      <trkpt lat="45.20715" lon="5.72988">
        <ele>548.79998779297</ele>
        <time>2021-08-26T04:43:52.000Z</time>
      </trkpt>
      <trkpt lat="45.20717" lon="5.72992">
        <ele>548.40002441406</ele>
        <time>2021-08-26T04:43:54.000Z</time>
      </trkpt>
      <trkpt lat="45.20719" lon="5.72997">
        <ele>548</ele>
        <time>2021-08-26T04:43:56.000Z</time>
      </trkpt>
      <trkpt lat="45.2072" lon="5.72998">
        <ele>547.79998779297</ele>
        <time>2021-08-26T04:43:57.000Z</time>
      </trkpt>
      <trkpt lat="45.20725" lon="5.73006">
        <ele>546.59997558594</ele>
        <time>2021-08-26T04:44:01.000Z</time>
      </trkpt>
      <trkpt lat="45.20727" lon="5.73009">
        <ele>546.20001220703</ele>
        <time>2021-08-26T04:44:03.000Z</time>
      </trkpt>
      <trkpt lat="45.2073" lon="5.73013">
        <ele>545.59997558594</ele>
        <time>2021-08-26T04:44:05.000Z</time>
      </trkpt>
      <trkpt lat="45.20732" lon="5.73015">
        <ele>545.40002441406</ele>
        <time>2021-08-26T04:44:06.000Z</time>
      </trkpt>
      <trkpt lat="45.20739" lon="5.73021">
        <ele>545</ele>
        <time>2021-08-26T04:44:10.000Z</time>
      </trkpt>
      <trkpt lat="45.20741" lon="5.73022">
        <ele>544.79998779297</ele>
        <time>2021-08-26T04:44:11.000Z</time>
      </trkpt>
      <trkpt lat="45.20745" lon="5.73025">
        <ele>544.59997558594</ele>
        <time>2021-08-26T04:44:13.000Z</time>
      </trkpt>
      <trkpt lat="45.20751" lon="5.7303">
        <ele>544.20001220703</ele>
        <time>2021-08-26T04:44:16.000Z</time>
      </trkpt>
      <trkpt lat="45.20756" lon="5.7304">
        <ele>543.59997558594</ele>
        <time>2021-08-26T04:44:20.000Z</time>
      </trkpt>
      <trkpt lat="45.20757" lon="5.73043">
        <ele>543.40002441406</ele>
        <time>2021-08-26T04:44:21.000Z</time>
      </trkpt>
      <trkpt lat="45.20759" lon="5.73044">
        <ele>543.40002441406</ele>
        <time>2021-08-26T04:44:22.000Z</time>
      </trkpt>
      <trkpt lat="45.20763" lon="5.73047">
        <ele>543.20001220703</ele>
        <time>2021-08-26T04:44:24.000Z</time>
      </trkpt>
      <trkpt lat="45.20768" lon="5.7305">
        <ele>542.79998779297</ele>
        <time>2021-08-26T04:44:27.000Z</time>
      </trkpt>
      <trkpt lat="45.20772" lon="5.73053">
        <ele>541.79998779297</ele>
        <time>2021-08-26T04:44:29.000Z</time>
      </trkpt>
      <trkpt lat="45.20776" lon="5.73057">
        <ele>541.79998779297</ele>
        <time>2021-08-26T04:44:31.000Z</time>
      </trkpt>
      <trkpt lat="45.20781" lon="5.73064">
        <ele>540.40002441406</ele>
        <time>2021-08-26T04:44:35.000Z</time>
      </trkpt>
      <trkpt lat="45.20783" lon="5.73069">
        <ele>539.40002441406</ele>
        <time>2021-08-26T04:44:38.000Z</time>
      </trkpt>
      <trkpt lat="45.20784" lon="5.73071">
        <ele>539.20001220703</ele>
        <time>2021-08-26T04:44:39.000Z</time>
      </trkpt>
      <trkpt lat="45.20788" lon="5.73077">
        <ele>538</ele>
        <time>2021-08-26T04:44:43.000Z</time>
      </trkpt>
      <trkpt lat="45.20789" lon="5.73083">
        <ele>537.40002441406</ele>
        <time>2021-08-26T04:44:46.000Z</time>
      </trkpt>
      <trkpt lat="45.2079" lon="5.73084">
        <ele>537</ele>
        <time>2021-08-26T04:44:47.000Z</time>
      </trkpt>
      <trkpt lat="45.20793" lon="5.73089">
        <ele>536.40002441406</ele>
        <time>2021-08-26T04:44:50.000Z</time>
      </trkpt>
      <trkpt lat="45.20795" lon="5.73093">
        <ele>535.59997558594</ele>
        <time>2021-08-26T04:44:52.000Z</time>
      </trkpt>
      <trkpt lat="45.20797" lon="5.73101">
        <ele>534.79998779297</ele>
        <time>2021-08-26T04:44:56.000Z</time>
      </trkpt>
      <trkpt lat="45.20798" lon="5.73103">
        <ele>534.40002441406</ele>
        <time>2021-08-26T04:44:57.000Z</time>
      </trkpt>
      <trkpt lat="45.20799" lon="5.73112">
        <ele>533.40002441406</ele>
        <time>2021-08-26T04:45:00.000Z</time>
      </trkpt>
      <trkpt lat="45.20798" lon="5.73115">
        <ele>533.20001220703</ele>
        <time>2021-08-26T04:45:02.000Z</time>
      </trkpt>
      <trkpt lat="45.20801" lon="5.73121">
        <ele>532.20001220703</ele>
        <time>2021-08-26T04:45:06.000Z</time>
      </trkpt>
      <trkpt lat="45.20802" lon="5.73122">
        <ele>531.59997558594</ele>
        <time>2021-08-26T04:45:07.000Z</time>
      </trkpt>
      <trkpt lat="45.20803" lon="5.73123">
        <ele>531.40002441406</ele>
        <time>2021-08-26T04:45:08.000Z</time>
      </trkpt>
      <trkpt lat="45.20805" lon="5.73126">
        <ele>531</ele>
        <time>2021-08-26T04:45:10.000Z</time>
      </trkpt>
      <trkpt lat="45.2081" lon="5.73133">
        <ele>530</ele>
        <time>2021-08-26T04:45:14.000Z</time>
      </trkpt>
      <trkpt lat="45.20811" lon="5.73135">
        <ele>529.79998779297</ele>
        <time>2021-08-26T04:45:15.000Z</time>
      </trkpt>
      <trkpt lat="45.20812" lon="5.73138">
        <ele>529.40002441406</ele>
        <time>2021-08-26T04:45:16.000Z</time>
      </trkpt>
      <trkpt lat="45.20813" lon="5.73139">
        <ele>529</ele>
        <time>2021-08-26T04:45:17.000Z</time>
      </trkpt>
      <trkpt lat="45.20815" lon="5.73141">
        <ele>528.40002441406</ele>
        <time>2021-08-26T04:45:18.000Z</time>
      </trkpt>
      <trkpt lat="45.20822" lon="5.73152">
        <ele>527.20001220703</ele>
        <time>2021-08-26T04:45:24.000Z</time>
      </trkpt>
      <trkpt lat="45.20824" lon="5.73155">
        <ele>527.20001220703</ele>
        <time>2021-08-26T04:45:26.000Z</time>
      </trkpt>
      <trkpt lat="45.20825" lon="5.73157">
        <ele>526</ele>
        <time>2021-08-26T04:45:28.000Z</time>
      </trkpt>
      <trkpt lat="45.20825" lon="5.73159">
        <ele>526</ele>
        <time>2021-08-26T04:45:29.000Z</time>
      </trkpt>
      <trkpt lat="45.20827" lon="5.7316">
        <ele>525.79998779297</ele>
        <time>2021-08-26T04:45:30.000Z</time>
      </trkpt>
      <trkpt lat="45.20831" lon="5.73164">
        <ele>525.20001220703</ele>
        <time>2021-08-26T04:45:33.000Z</time>
      </trkpt>
      <trkpt lat="45.20832" lon="5.73166">
        <ele>525</ele>
        <time>2021-08-26T04:45:34.000Z</time>
      </trkpt>
      <trkpt lat="45.20834" lon="5.73169">
        <ele>524.79998779297</ele>
        <time>2021-08-26T04:45:35.000Z</time>
      </trkpt>
      <trkpt lat="45.20835" lon="5.7317">
        <ele>524</ele>
        <time>2021-08-26T04:45:36.000Z</time>
      </trkpt>
      <trkpt lat="45.20835" lon="5.73172">
        <ele>523.79998779297</ele>
        <time>2021-08-26T04:45:37.000Z</time>
      </trkpt>
      <trkpt lat="45.20836" lon="5.73177">
        <ele>523.20001220703</ele>
        <time>2021-08-26T04:45:40.000Z</time>
      </trkpt>
      <trkpt lat="45.20837" lon="5.73179">
        <ele>523</ele>
        <time>2021-08-26T04:45:41.000Z</time>
      </trkpt>
      <trkpt lat="45.20837" lon="5.73181">
        <ele>522.40002441406</ele>
        <time>2021-08-26T04:45:42.000Z</time>
      </trkpt>
      <trkpt lat="45.20841" lon="5.73187">
        <ele>521.20001220703</ele>
        <time>2021-08-26T04:45:46.000Z</time>
      </trkpt>
      <trkpt lat="45.20843" lon="5.73192">
        <ele>520.59997558594</ele>
        <time>2021-08-26T04:45:48.000Z</time>
      </trkpt>
      <trkpt lat="45.20846" lon="5.732">
        <ele>520</ele>
        <time>2021-08-26T04:45:51.000Z</time>
      </trkpt>
      <trkpt lat="45.20851" lon="5.73208">
        <ele>519.59997558594</ele>
        <time>2021-08-26T04:45:54.000Z</time>
      </trkpt>
      <trkpt lat="45.20853" lon="5.7321">
        <ele>519</ele>
        <time>2021-08-26T04:45:55.000Z</time>
      </trkpt>
      <trkpt lat="45.20858" lon="5.73224">
        <ele>518.40002441406</ele>
        <time>2021-08-26T04:46:00.000Z</time>
      </trkpt>
      <trkpt lat="45.20862" lon="5.73233">
        <ele>517.59997558594</ele>
        <time>2021-08-26T04:46:03.000Z</time>
      </trkpt>
      <trkpt lat="45.20866" lon="5.73238">
        <ele>517.40002441406</ele>
        <time>2021-08-26T04:46:05.000Z</time>
      </trkpt>
      <trkpt lat="45.20872" lon="5.73251">
        <ele>517.20001220703</ele>
        <time>2021-08-26T04:46:10.000Z</time>
      </trkpt>
      <trkpt lat="45.20873" lon="5.73253">
        <ele>517.20001220703</ele>
        <time>2021-08-26T04:46:11.000Z</time>
      </trkpt>
      <trkpt lat="45.20876" lon="5.73259">
        <ele>517.40002441406</ele>
        <time>2021-08-26T04:46:15.000Z</time>
      </trkpt>
      <trkpt lat="45.20878" lon="5.73265">
        <ele>518.40002441406</ele>
        <time>2021-08-26T04:46:20.000Z</time>
      </trkpt>
      <trkpt lat="45.20886" lon="5.73272">
        <ele>519</ele>
        <time>2021-08-26T04:46:26.000Z</time>
      </trkpt>
      <trkpt lat="45.20889" lon="5.73274">
        <ele>520.40002441406</ele>
        <time>2021-08-26T04:46:29.000Z</time>
      </trkpt>
      <trkpt lat="45.2089" lon="5.73274">
        <ele>520.59997558594</ele>
        <time>2021-08-26T04:46:30.000Z</time>
      </trkpt>
      <trkpt lat="45.20892" lon="5.73274">
        <ele>520.79998779297</ele>
        <time>2021-08-26T04:46:31.000Z</time>
      </trkpt>
      <trkpt lat="45.20894" lon="5.73276">
        <ele>521.79998779297</ele>
        <time>2021-08-26T04:46:33.000Z</time>
      </trkpt>
      <trkpt lat="45.20896" lon="5.73274">
        <ele>522.40002441406</ele>
        <time>2021-08-26T04:46:36.000Z</time>
      </trkpt>
      <trkpt lat="45.20895" lon="5.73273">
        <ele>523.20001220703</ele>
        <time>2021-08-26T04:46:37.000Z</time>
      </trkpt>
      <trkpt lat="45.20895" lon="5.73272">
        <ele>523.40002441406</ele>
        <time>2021-08-26T04:46:38.000Z</time>
      </trkpt>
      <trkpt lat="45.20896" lon="5.73269">
        <ele>524.79998779297</ele>
        <time>2021-08-26T04:46:41.000Z</time>
      </trkpt>
      <trkpt lat="45.20896" lon="5.73266">
        <ele>525.40002441406</ele>
        <time>2021-08-26T04:46:45.000Z</time>
      </trkpt>
      <trkpt lat="45.20896" lon="5.73265">
        <ele>526.20001220703</ele>
        <time>2021-08-26T04:46:46.000Z</time>
      </trkpt>
      <trkpt lat="45.20898" lon="5.73263">
        <ele>527.40002441406</ele>
        <time>2021-08-26T04:46:49.000Z</time>
      </trkpt>
      <trkpt lat="45.20898" lon="5.73263">
        <ele>528.40002441406</ele>
        <time>2021-08-26T04:46:50.000Z</time>
      </trkpt>
      <trkpt lat="45.20899" lon="5.73261">
        <ele>529.40002441406</ele>
        <time>2021-08-26T04:46:54.000Z</time>
      </trkpt>
      <trkpt lat="45.20899" lon="5.73262">
        <ele>530.20001220703</ele>
        <time>2021-08-26T04:46:56.000Z</time>
      </trkpt>
      <trkpt lat="45.209" lon="5.73262">
        <ele>530.79998779297</ele>
        <time>2021-08-26T04:46:57.000Z</time>
      </trkpt>
      <trkpt lat="45.209" lon="5.73261">
        <ele>531</ele>
        <time>2021-08-26T04:46:58.000Z</time>
      </trkpt>
      <trkpt lat="45.20901" lon="5.73259">
        <ele>531.59997558594</ele>
        <time>2021-08-26T04:47:00.000Z</time>
      </trkpt>
      <trkpt lat="45.20901" lon="5.73259">
        <ele>532.20001220703</ele>
        <time>2021-08-26T04:47:01.000Z</time>
      </trkpt>
      <trkpt lat="45.20902" lon="5.7326">
        <ele>533.20001220703</ele>
        <time>2021-08-26T04:47:05.000Z</time>
      </trkpt>
      <trkpt lat="45.20902" lon="5.7326">
        <ele>533.59997558594</ele>
        <time>2021-08-26T04:47:06.000Z</time>
      </trkpt>
      <trkpt lat="45.20903" lon="5.7326">
        <ele>534.40002441406</ele>
        <time>2021-08-26T04:47:07.000Z</time>
      </trkpt>
      <trkpt lat="45.20905" lon="5.73261">
        <ele>534.40002441406</ele>
        <time>2021-08-26T04:47:09.000Z</time>
      </trkpt>
      <trkpt lat="45.20908" lon="5.73264">
        <ele>533.59997558594</ele>
        <time>2021-08-26T04:47:12.000Z</time>
      </trkpt>
      <trkpt lat="45.20911" lon="5.73266">
        <ele>533.40002441406</ele>
        <time>2021-08-26T04:47:14.000Z</time>
      </trkpt>
      <trkpt lat="45.20913" lon="5.73267">
        <ele>533.20001220703</ele>
        <time>2021-08-26T04:47:15.000Z</time>
      </trkpt>
      <trkpt lat="45.20914" lon="5.73267">
        <ele>532.59997558594</ele>
        <time>2021-08-26T04:47:16.000Z</time>
      </trkpt>
      <trkpt lat="45.20918" lon="5.73269">
        <ele>531.79998779297</ele>
        <time>2021-08-26T04:47:18.000Z</time>
      </trkpt>
      <trkpt lat="45.20926" lon="5.73274">
        <ele>530.40002441406</ele>
        <time>2021-08-26T04:47:23.000Z</time>
      </trkpt>
      <trkpt lat="45.2093" lon="5.73276">
        <ele>530</ele>
        <time>2021-08-26T04:47:25.000Z</time>
      </trkpt>
      <trkpt lat="45.20934" lon="5.73278">
        <ele>529.20001220703</ele>
        <time>2021-08-26T04:47:27.000Z</time>
      </trkpt>
      <trkpt lat="45.20937" lon="5.73282">
        <ele>528.20001220703</ele>
        <time>2021-08-26T04:47:29.000Z</time>
      </trkpt>
      <trkpt lat="45.20938" lon="5.73284">
        <ele>528</ele>
        <time>2021-08-26T04:47:30.000Z</time>
      </trkpt>
      <trkpt lat="45.20939" lon="5.73287">
        <ele>527.40002441406</ele>
        <time>2021-08-26T04:47:32.000Z</time>
      </trkpt>
      <trkpt lat="45.20941" lon="5.73289">
        <ele>527.20001220703</ele>
        <time>2021-08-26T04:47:34.000Z</time>
      </trkpt>
      <trkpt lat="45.20943" lon="5.73288">
        <ele>526.79998779297</ele>
        <time>2021-08-26T04:47:35.000Z</time>
      </trkpt>
      <trkpt lat="45.20945" lon="5.73288">
        <ele>526.40002441406</ele>
        <time>2021-08-26T04:47:36.000Z</time>
      </trkpt>
      <trkpt lat="45.20952" lon="5.73286">
        <ele>525.20001220703</ele>
        <time>2021-08-26T04:47:39.000Z</time>
      </trkpt>
      <trkpt lat="45.20959" lon="5.73284">
        <ele>524.20001220703</ele>
        <time>2021-08-26T04:47:43.000Z</time>
      </trkpt>
      <trkpt lat="45.2096" lon="5.73285">
        <ele>523.59997558594</ele>
        <time>2021-08-26T04:47:44.000Z</time>
      </trkpt>
      <trkpt lat="45.20965" lon="5.73287">
        <ele>523.20001220703</ele>
        <time>2021-08-26T04:47:47.000Z</time>
      </trkpt>
      <trkpt lat="45.20966" lon="5.73287">
        <ele>522.59997558594</ele>
        <time>2021-08-26T04:47:48.000Z</time>
      </trkpt>
      <trkpt lat="45.2097" lon="5.73289">
        <ele>522.20001220703</ele>
        <time>2021-08-26T04:47:50.000Z</time>
      </trkpt>
      <trkpt lat="45.20972" lon="5.7329">
        <ele>521.40002441406</ele>
        <time>2021-08-26T04:47:51.000Z</time>
      </trkpt>
      <trkpt lat="45.20981" lon="5.73293">
        <ele>520.40002441406</ele>
        <time>2021-08-26T04:47:57.000Z</time>
      </trkpt>
      <trkpt lat="45.20986" lon="5.73294">
        <ele>519.20001220703</ele>
        <time>2021-08-26T04:48:00.000Z</time>
      </trkpt>
      <trkpt lat="45.20987" lon="5.73294">
        <ele>518.79998779297</ele>
        <time>2021-08-26T04:48:01.000Z</time>
      </trkpt>
      <trkpt lat="45.20985" lon="5.73296">
        <ele>518.40002441406</ele>
        <time>2021-08-26T04:48:03.000Z</time>
      </trkpt>
      <trkpt lat="45.20984" lon="5.73298">
        <ele>518</ele>
        <time>2021-08-26T04:48:04.000Z</time>
      </trkpt>
      <trkpt lat="45.20979" lon="5.73301">
        <ele>517.79998779297</ele>
        <time>2021-08-26T04:48:07.000Z</time>
      </trkpt>
      <trkpt lat="45.20978" lon="5.73301">
        <ele>517.59997558594</ele>
        <time>2021-08-26T04:48:08.000Z</time>
      </trkpt>
      <trkpt lat="45.20977" lon="5.73301">
        <ele>517</ele>
        <time>2021-08-26T04:48:09.000Z</time>
      </trkpt>
      <trkpt lat="45.20976" lon="5.733">
        <ele>516.59997558594</ele>
        <time>2021-08-26T04:48:10.000Z</time>
      </trkpt>
      <trkpt lat="45.20974" lon="5.73299">
        <ele>515.79998779297</ele>
        <time>2021-08-26T04:48:12.000Z</time>
      </trkpt>
      <trkpt lat="45.20972" lon="5.733">
        <ele>515.79998779297</ele>
        <time>2021-08-26T04:48:13.000Z</time>
      </trkpt>
      <trkpt lat="45.20971" lon="5.73301">
        <ele>515.40002441406</ele>
        <time>2021-08-26T04:48:14.000Z</time>
      </trkpt>
      <trkpt lat="45.20969" lon="5.73301">
        <ele>515</ele>
        <time>2021-08-26T04:48:15.000Z</time>
      </trkpt>
      <trkpt lat="45.20968" lon="5.73301">
        <ele>514.59997558594</ele>
        <time>2021-08-26T04:48:16.000Z</time>
      </trkpt>
      <trkpt lat="45.20965" lon="5.73303">
        <ele>514</ele>
        <time>2021-08-26T04:48:18.000Z</time>
      </trkpt>
      <trkpt lat="45.20963" lon="5.73304">
        <ele>514</ele>
        <time>2021-08-26T04:48:19.000Z</time>
      </trkpt>
      <trkpt lat="45.20963" lon="5.73305">
        <ele>514</ele>
        <time>2021-08-26T04:48:20.000Z</time>
      </trkpt>
      <trkpt lat="45.20961" lon="5.73305">
        <ele>513.20001220703</ele>
        <time>2021-08-26T04:48:21.000Z</time>
      </trkpt>
      <trkpt lat="45.20959" lon="5.73306">
        <ele>513</ele>
        <time>2021-08-26T04:48:23.000Z</time>
      </trkpt>
      <trkpt lat="45.20955" lon="5.73308">
        <ele>512.20001220703</ele>
        <time>2021-08-26T04:48:25.000Z</time>
      </trkpt>
      <trkpt lat="45.20951" lon="5.7331">
        <ele>511.20001220703</ele>
        <time>2021-08-26T04:48:28.000Z</time>
      </trkpt>
      <trkpt lat="45.20946" lon="5.7331">
        <ele>510.39999389648</ele>
        <time>2021-08-26T04:48:31.000Z</time>
      </trkpt>
      <trkpt lat="45.20945" lon="5.73309">
        <ele>510</ele>
        <time>2021-08-26T04:48:32.000Z</time>
      </trkpt>
      <trkpt lat="45.20937" lon="5.73308">
        <ele>508.60000610352</ele>
        <time>2021-08-26T04:48:36.000Z</time>
      </trkpt>
      <trkpt lat="45.20933" lon="5.73308">
        <ele>508.39999389648</ele>
        <time>2021-08-26T04:48:38.000Z</time>
      </trkpt>
      <trkpt lat="45.20931" lon="5.73308">
        <ele>508.20001220703</ele>
        <time>2021-08-26T04:48:39.000Z</time>
      </trkpt>
      <trkpt lat="45.20926" lon="5.73308">
        <ele>507.60000610352</ele>
        <time>2021-08-26T04:48:41.000Z</time>
      </trkpt>
      <trkpt lat="45.20923" lon="5.73307">
        <ele>506.79998779297</ele>
        <time>2021-08-26T04:48:43.000Z</time>
      </trkpt>
      <trkpt lat="45.20921" lon="5.73307">
        <ele>506.60000610352</ele>
        <time>2021-08-26T04:48:44.000Z</time>
      </trkpt>
      <trkpt lat="45.20917" lon="5.73308">
        <ele>505.39999389648</ele>
        <time>2021-08-26T04:48:47.000Z</time>
      </trkpt>
      <trkpt lat="45.20914" lon="5.73308">
        <ele>504.79998779297</ele>
        <time>2021-08-26T04:48:49.000Z</time>
      </trkpt>
      <trkpt lat="45.2091" lon="5.73309">
        <ele>504.20001220703</ele>
        <time>2021-08-26T04:48:51.000Z</time>
      </trkpt>
      <trkpt lat="45.20901" lon="5.73312">
        <ele>503.39999389648</ele>
        <time>2021-08-26T04:48:56.000Z</time>
      </trkpt>
      <trkpt lat="45.209" lon="5.73313">
        <ele>502.79998779297</ele>
        <time>2021-08-26T04:48:57.000Z</time>
      </trkpt>
      <trkpt lat="45.20896" lon="5.73314">
        <ele>502.20001220703</ele>
        <time>2021-08-26T04:48:59.000Z</time>
      </trkpt>
      <trkpt lat="45.20892" lon="5.73316">
        <ele>501.79998779297</ele>
        <time>2021-08-26T04:49:01.000Z</time>
      </trkpt>
      <trkpt lat="45.20886" lon="5.73316">
        <ele>500.60000610352</ele>
        <time>2021-08-26T04:49:05.000Z</time>
      </trkpt>
      <trkpt lat="45.20879" lon="5.73319">
        <ele>500</ele>
        <time>2021-08-26T04:49:08.000Z</time>
      </trkpt>
      <trkpt lat="45.20877" lon="5.7332">
        <ele>499.20001220703</ele>
        <time>2021-08-26T04:49:09.000Z</time>
      </trkpt>
      <trkpt lat="45.20869" lon="5.73319">
        <ele>498.39999389648</ele>
        <time>2021-08-26T04:49:13.000Z</time>
      </trkpt>
      <trkpt lat="45.20868" lon="5.73318">
        <ele>497.60000610352</ele>
        <time>2021-08-26T04:49:14.000Z</time>
      </trkpt>
      <trkpt lat="45.20864" lon="5.73317">
        <ele>496.79998779297</ele>
        <time>2021-08-26T04:49:16.000Z</time>
      </trkpt>
      <trkpt lat="45.20861" lon="5.73315">
        <ele>496.39999389648</ele>
        <time>2021-08-26T04:49:18.000Z</time>
      </trkpt>
      <trkpt lat="45.2086" lon="5.73314">
        <ele>496.39999389648</ele>
        <time>2021-08-26T04:49:19.000Z</time>
      </trkpt>
      <trkpt lat="45.20859" lon="5.73313">
        <ele>495.20001220703</ele>
        <time>2021-08-26T04:49:21.000Z</time>
      </trkpt>
      <trkpt lat="45.20858" lon="5.73314">
        <ele>494.60000610352</ele>
        <time>2021-08-26T04:49:23.000Z</time>
      </trkpt>
      <trkpt lat="45.20859" lon="5.73317">
        <ele>494</ele>
        <time>2021-08-26T04:49:25.000Z</time>
      </trkpt>
      <trkpt lat="45.2086" lon="5.73322">
        <ele>492.60000610352</ele>
        <time>2021-08-26T04:49:29.000Z</time>
      </trkpt>
      <trkpt lat="45.2086" lon="5.73327">
        <ele>491.60000610352</ele>
        <time>2021-08-26T04:49:32.000Z</time>
      </trkpt>
      <trkpt lat="45.20859" lon="5.7333">
        <ele>490.60000610352</ele>
        <time>2021-08-26T04:49:35.000Z</time>
      </trkpt>
      <trkpt lat="45.2086" lon="5.7333">
        <ele>489.79998779297</ele>
        <time>2021-08-26T04:49:37.000Z</time>
      </trkpt>
      <trkpt lat="45.20861" lon="5.7333">
        <ele>489.60000610352</ele>
        <time>2021-08-26T04:49:38.000Z</time>
      </trkpt>
      <trkpt lat="45.20861" lon="5.7333">
        <ele>488.60000610352</ele>
        <time>2021-08-26T04:49:39.000Z</time>
      </trkpt>
      <trkpt lat="45.20865" lon="5.7333">
        <ele>487.60000610352</ele>
        <time>2021-08-26T04:49:43.000Z</time>
      </trkpt>
      <trkpt lat="45.20866" lon="5.7333">
        <ele>487.20001220703</ele>
        <time>2021-08-26T04:49:44.000Z</time>
      </trkpt>
      <trkpt lat="45.20866" lon="5.73331">
        <ele>486.60000610352</ele>
        <time>2021-08-26T04:49:45.000Z</time>
      </trkpt>
      <trkpt lat="45.20868" lon="5.73333">
        <ele>485.79998779297</ele>
        <time>2021-08-26T04:49:47.000Z</time>
      </trkpt>
      <trkpt lat="45.2087" lon="5.73333">
        <ele>485.20001220703</ele>
        <time>2021-08-26T04:49:49.000Z</time>
      </trkpt>
      <trkpt lat="45.20872" lon="5.73334">
        <ele>484.39999389648</ele>
        <time>2021-08-26T04:49:51.000Z</time>
      </trkpt>
      <trkpt lat="45.20873" lon="5.73334">
        <ele>484.20001220703</ele>
        <time>2021-08-26T04:49:52.000Z</time>
      </trkpt>
      <trkpt lat="45.20876" lon="5.73335">
        <ele>482.39999389648</ele>
        <time>2021-08-26T04:49:56.000Z</time>
      </trkpt>
      <trkpt lat="45.20879" lon="5.73335">
        <ele>481.60000610352</ele>
        <time>2021-08-26T04:49:59.000Z</time>
      </trkpt>
      <trkpt lat="45.2088" lon="5.73336">
        <ele>480.79998779297</ele>
        <time>2021-08-26T04:50:00.000Z</time>
      </trkpt>
      <trkpt lat="45.20884" lon="5.73339">
        <ele>479.60000610352</ele>
        <time>2021-08-26T04:50:06.000Z</time>
      </trkpt>
      <trkpt lat="45.20885" lon="5.73339">
        <ele>479.39999389648</ele>
        <time>2021-08-26T04:50:07.000Z</time>
      </trkpt>
      <trkpt lat="45.20886" lon="5.7334">
        <ele>478.79998779297</ele>
        <time>2021-08-26T04:50:08.000Z</time>
      </trkpt>
      <trkpt lat="45.20889" lon="5.73341">
        <ele>478.39999389648</ele>
        <time>2021-08-26T04:50:10.000Z</time>
      </trkpt>
      <trkpt lat="45.2089" lon="5.73341">
        <ele>477.39999389648</ele>
        <time>2021-08-26T04:50:11.000Z</time>
      </trkpt>
      <trkpt lat="45.2089" lon="5.73342">
        <ele>477</ele>
        <time>2021-08-26T04:50:12.000Z</time>
      </trkpt>
      <trkpt lat="45.20893" lon="5.73344">
        <ele>475.79998779297</ele>
        <time>2021-08-26T04:50:15.000Z</time>
      </trkpt>
      <trkpt lat="45.20898" lon="5.73348">
        <ele>474.79998779297</ele>
        <time>2021-08-26T04:50:19.000Z</time>
      </trkpt>
      <trkpt lat="45.20899" lon="5.7335">
        <ele>474.20001220703</ele>
        <time>2021-08-26T04:50:20.000Z</time>
      </trkpt>
      <trkpt lat="45.209" lon="5.73351">
        <ele>473.79998779297</ele>
        <time>2021-08-26T04:50:21.000Z</time>
      </trkpt>
      <trkpt lat="45.20903" lon="5.73353">
        <ele>472.60000610352</ele>
        <time>2021-08-26T04:50:24.000Z</time>
      </trkpt>
      <trkpt lat="45.20904" lon="5.73353">
        <ele>472.20001220703</ele>
        <time>2021-08-26T04:50:25.000Z</time>
      </trkpt>
      <trkpt lat="45.20906" lon="5.73356">
        <ele>471.60000610352</ele>
        <time>2021-08-26T04:50:27.000Z</time>
      </trkpt>
      <trkpt lat="45.20907" lon="5.73358">
        <ele>470.39999389648</ele>
        <time>2021-08-26T04:50:30.000Z</time>
      </trkpt>
      <trkpt lat="45.20907" lon="5.73358">
        <ele>469.60000610352</ele>
        <time>2021-08-26T04:50:31.000Z</time>
      </trkpt>
      <trkpt lat="45.20908" lon="5.73359">
        <ele>469.39999389648</ele>
        <time>2021-08-26T04:50:32.000Z</time>
      </trkpt>
      <trkpt lat="45.20911" lon="5.73363">
        <ele>468.39999389648</ele>
        <time>2021-08-26T04:50:34.000Z</time>
      </trkpt>
      <trkpt lat="45.20911" lon="5.73364">
        <ele>468.20001220703</ele>
        <time>2021-08-26T04:50:35.000Z</time>
      </trkpt>
      <trkpt lat="45.20912" lon="5.73366">
        <ele>467.20001220703</ele>
        <time>2021-08-26T04:50:37.000Z</time>
      </trkpt>
      <trkpt lat="45.20914" lon="5.73367">
        <ele>466.60000610352</ele>
        <time>2021-08-26T04:50:39.000Z</time>
      </trkpt>
      <trkpt lat="45.20915" lon="5.73367">
        <ele>466</ele>
        <time>2021-08-26T04:50:40.000Z</time>
      </trkpt>
      <trkpt lat="45.20917" lon="5.73369">
        <ele>464.79998779297</ele>
        <time>2021-08-26T04:50:43.000Z</time>
      </trkpt>
      <trkpt lat="45.20918" lon="5.73371">
        <ele>464.39999389648</ele>
        <time>2021-08-26T04:50:44.000Z</time>
      </trkpt>
      <trkpt lat="45.2092" lon="5.73372">
        <ele>464.20001220703</ele>
        <time>2021-08-26T04:50:46.000Z</time>
      </trkpt>
      <trkpt lat="45.20921" lon="5.73374">
        <ele>463.20001220703</ele>
        <time>2021-08-26T04:50:47.000Z</time>
      </trkpt>
      <trkpt lat="45.20922" lon="5.73375">
        <ele>462.79998779297</ele>
        <time>2021-08-26T04:50:48.000Z</time>
      </trkpt>
      <trkpt lat="45.20923" lon="5.73377">
        <ele>462.39999389648</ele>
        <time>2021-08-26T04:50:50.000Z</time>
      </trkpt>
      <trkpt lat="45.20924" lon="5.73378">
        <ele>462.20001220703</ele>
        <time>2021-08-26T04:50:51.000Z</time>
      </trkpt>
      <trkpt lat="45.20925" lon="5.73379">
        <ele>462.20001220703</ele>
        <time>2021-08-26T04:50:52.000Z</time>
      </trkpt>
      <trkpt lat="45.20927" lon="5.73382">
        <ele>461</ele>
        <time>2021-08-26T04:50:54.000Z</time>
      </trkpt>
      <trkpt lat="45.2093" lon="5.73385">
        <ele>460.79998779297</ele>
        <time>2021-08-26T04:50:56.000Z</time>
      </trkpt>
      <trkpt lat="45.20932" lon="5.73386">
        <ele>460.20001220703</ele>
        <time>2021-08-26T04:50:57.000Z</time>
      </trkpt>
      <trkpt lat="45.20943" lon="5.7339">
        <ele>461.60000610352</ele>
        <time>2021-08-26T04:51:03.000Z</time>
      </trkpt>
      <trkpt lat="45.20944" lon="5.73391">
        <ele>461.60000610352</ele>
        <time>2021-08-26T04:51:04.000Z</time>
      </trkpt>
      <trkpt lat="45.20945" lon="5.73392">
        <ele>461.60000610352</ele>
        <time>2021-08-26T04:51:05.000Z</time>
      </trkpt>
      <trkpt lat="45.20945" lon="5.73394">
        <ele>461</ele>
        <time>2021-08-26T04:51:06.000Z</time>
      </trkpt>
      <trkpt lat="45.20946" lon="5.73395">
        <ele>461</ele>
        <time>2021-08-26T04:51:07.000Z</time>
      </trkpt>
      <trkpt lat="45.20948" lon="5.73397">
        <ele>459.79998779297</ele>
        <time>2021-08-26T04:51:09.000Z</time>
      </trkpt>
      <trkpt lat="45.20951" lon="5.734">
        <ele>459</ele>
        <time>2021-08-26T04:51:12.000Z</time>
      </trkpt>
      <trkpt lat="45.20952" lon="5.73401">
        <ele>458.60000610352</ele>
        <time>2021-08-26T04:51:13.000Z</time>
      </trkpt>
      <trkpt lat="45.20953" lon="5.73402">
        <ele>458</ele>
        <time>2021-08-26T04:51:14.000Z</time>
      </trkpt>
      <trkpt lat="45.20954" lon="5.73403">
        <ele>457.79998779297</ele>
        <time>2021-08-26T04:51:16.000Z</time>
      </trkpt>
      <trkpt lat="45.20954" lon="5.73404">
        <ele>457.20001220703</ele>
        <time>2021-08-26T04:51:17.000Z</time>
      </trkpt>
      <trkpt lat="45.20956" lon="5.73406">
        <ele>456.60000610352</ele>
        <time>2021-08-26T04:51:20.000Z</time>
      </trkpt>
      <trkpt lat="45.20956" lon="5.73407">
        <ele>456.20001220703</ele>
        <time>2021-08-26T04:51:21.000Z</time>
      </trkpt>
      <trkpt lat="45.20957" lon="5.73408">
        <ele>456.20001220703</ele>
        <time>2021-08-26T04:51:22.000Z</time>
      </trkpt>
      <trkpt lat="45.20957" lon="5.73408">
        <ele>455.79998779297</ele>
        <time>2021-08-26T04:51:23.000Z</time>
      </trkpt>
      <trkpt lat="45.20958" lon="5.73409">
        <ele>455.20001220703</ele>
        <time>2021-08-26T04:51:24.000Z</time>
      </trkpt>
      <trkpt lat="45.20959" lon="5.73409">
        <ele>455</ele>
        <time>2021-08-26T04:51:25.000Z</time>
      </trkpt>
      <trkpt lat="45.20961" lon="5.7341">
        <ele>454</ele>
        <time>2021-08-26T04:51:28.000Z</time>
      </trkpt>
      <trkpt lat="45.20963" lon="5.73412">
        <ele>453</ele>
        <time>2021-08-26T04:51:32.000Z</time>
      </trkpt>
      <trkpt lat="45.20963" lon="5.73412">
        <ele>452.79998779297</ele>
        <time>2021-08-26T04:51:33.000Z</time>
      </trkpt>
      <trkpt lat="45.20963" lon="5.73412">
        <ele>452.60000610352</ele>
        <time>2021-08-26T04:51:34.000Z</time>
      </trkpt>
      <trkpt lat="45.20964" lon="5.73413">
        <ele>451.79998779297</ele>
        <time>2021-08-26T04:51:36.000Z</time>
      </trkpt>
      <trkpt lat="45.20966" lon="5.73415">
        <ele>451</ele>
        <time>2021-08-26T04:51:39.000Z</time>
      </trkpt>
      <trkpt lat="45.20965" lon="5.73417">
        <ele>450.79998779297</ele>
        <time>2021-08-26T04:51:41.000Z</time>
      </trkpt>
      <trkpt lat="45.20967" lon="5.7342">
        <ele>449.79998779297</ele>
        <time>2021-08-26T04:51:45.000Z</time>
      </trkpt>
      <trkpt lat="45.20967" lon="5.73422">
        <ele>449.39999389648</ele>
        <time>2021-08-26T04:51:46.000Z</time>
      </trkpt>
      <trkpt lat="45.20967" lon="5.73425">
        <ele>448.79998779297</ele>
        <time>2021-08-26T04:51:49.000Z</time>
      </trkpt>
      <trkpt lat="45.20968" lon="5.73425">
        <ele>448.20001220703</ele>
        <time>2021-08-26T04:51:51.000Z</time>
      </trkpt>
      <trkpt lat="45.20973" lon="5.73426">
        <ele>446.79998779297</ele>
        <time>2021-08-26T04:51:55.000Z</time>
      </trkpt>
      <trkpt lat="45.20974" lon="5.73427">
        <ele>446.60000610352</ele>
        <time>2021-08-26T04:51:56.000Z</time>
      </trkpt>
      <trkpt lat="45.20975" lon="5.73429">
        <ele>445.60000610352</ele>
        <time>2021-08-26T04:51:57.000Z</time>
      </trkpt>
      <trkpt lat="45.2098" lon="5.73433">
        <ele>444.20001220703</ele>
        <time>2021-08-26T04:52:01.000Z</time>
      </trkpt>
      <trkpt lat="45.20982" lon="5.73436">
        <ele>443</ele>
        <time>2021-08-26T04:52:03.000Z</time>
      </trkpt>
      <trkpt lat="45.20984" lon="5.73437">
        <ele>442.39999389648</ele>
        <time>2021-08-26T04:52:05.000Z</time>
      </trkpt>
      <trkpt lat="45.20984" lon="5.73437">
        <ele>442</ele>
        <time>2021-08-26T04:52:06.000Z</time>
      </trkpt>
      <trkpt lat="45.20987" lon="5.73439">
        <ele>440.79998779297</ele>
        <time>2021-08-26T04:52:09.000Z</time>
      </trkpt>
      <trkpt lat="45.2099" lon="5.73441">
        <ele>439.79998779297</ele>
        <time>2021-08-26T04:52:12.000Z</time>
      </trkpt>
      <trkpt lat="45.20992" lon="5.73442">
        <ele>439</ele>
        <time>2021-08-26T04:52:14.000Z</time>
      </trkpt>
      <trkpt lat="45.20996" lon="5.73444">
        <ele>438.60000610352</ele>
        <time>2021-08-26T04:52:16.000Z</time>
      </trkpt>
      <trkpt lat="45.20997" lon="5.73447">
        <ele>437.60000610352</ele>
        <time>2021-08-26T04:52:17.000Z</time>
      </trkpt>
      <trkpt lat="45.21001" lon="5.73448">
        <ele>437</ele>
        <time>2021-08-26T04:52:20.000Z</time>
      </trkpt>
      <trkpt lat="45.21003" lon="5.73449">
        <ele>436.39999389648</ele>
        <time>2021-08-26T04:52:22.000Z</time>
      </trkpt>
      <trkpt lat="45.21003" lon="5.7345">
        <ele>435.60000610352</ele>
        <time>2021-08-26T04:52:23.000Z</time>
      </trkpt>
      <trkpt lat="45.21004" lon="5.73451">
        <ele>435.39999389648</ele>
        <time>2021-08-26T04:52:25.000Z</time>
      </trkpt>
      <trkpt lat="45.21005" lon="5.73451">
        <ele>434.60000610352</ele>
        <time>2021-08-26T04:52:27.000Z</time>
      </trkpt>
      <trkpt lat="45.21006" lon="5.73451">
        <ele>434.20001220703</ele>
        <time>2021-08-26T04:52:28.000Z</time>
      </trkpt>
      <trkpt lat="45.21008" lon="5.73452">
        <ele>433</ele>
        <time>2021-08-26T04:52:31.000Z</time>
      </trkpt>
      <trkpt lat="45.21011" lon="5.73455">
        <ele>432.39999389648</ele>
        <time>2021-08-26T04:52:33.000Z</time>
      </trkpt>
      <trkpt lat="45.21012" lon="5.73457">
        <ele>432</ele>
        <time>2021-08-26T04:52:35.000Z</time>
      </trkpt>
      <trkpt lat="45.21013" lon="5.73458">
        <ele>430.39999389648</ele>
        <time>2021-08-26T04:52:38.000Z</time>
      </trkpt>
      <trkpt lat="45.21013" lon="5.73459">
        <ele>430.39999389648</ele>
        <time>2021-08-26T04:52:39.000Z</time>
      </trkpt>
      <trkpt lat="45.21014" lon="5.7346">
        <ele>429.60000610352</ele>
        <time>2021-08-26T04:52:41.000Z</time>
      </trkpt>
      <trkpt lat="45.21016" lon="5.73462">
        <ele>429.39999389648</ele>
        <time>2021-08-26T04:52:42.000Z</time>
      </trkpt>
      <trkpt lat="45.21016" lon="5.73465">
        <ele>428.79998779297</ele>
        <time>2021-08-26T04:52:45.000Z</time>
      </trkpt>
      <trkpt lat="45.21017" lon="5.73466">
        <ele>428.79998779297</ele>
        <time>2021-08-26T04:52:46.000Z</time>
      </trkpt>
      <trkpt lat="45.21016" lon="5.73468">
        <ele>427.60000610352</ele>
        <time>2021-08-26T04:52:47.000Z</time>
      </trkpt>
      <trkpt lat="45.21016" lon="5.7347">
        <ele>427</ele>
        <time>2021-08-26T04:52:50.000Z</time>
      </trkpt>
      <trkpt lat="45.21016" lon="5.7347">
        <ele>426.60000610352</ele>
        <time>2021-08-26T04:52:51.000Z</time>
      </trkpt>
      <trkpt lat="45.21016" lon="5.73471">
        <ele>426.39999389648</ele>
        <time>2021-08-26T04:52:52.000Z</time>
      </trkpt>
      <trkpt lat="45.21016" lon="5.73472">
        <ele>425.60000610352</ele>
        <time>2021-08-26T04:52:55.000Z</time>
      </trkpt>
      <trkpt lat="45.21017" lon="5.73473">
        <ele>425</ele>
        <time>2021-08-26T04:52:56.000Z</time>
      </trkpt>
      <trkpt lat="45.21018" lon="5.73476">
        <ele>424.20001220703</ele>
        <time>2021-08-26T04:52:58.000Z</time>
      </trkpt>
      <trkpt lat="45.21019" lon="5.73477">
        <ele>424.20001220703</ele>
        <time>2021-08-26T04:52:59.000Z</time>
      </trkpt>
      <trkpt lat="45.21018" lon="5.73478">
        <ele>423.79998779297</ele>
        <time>2021-08-26T04:53:00.000Z</time>
      </trkpt>
      <trkpt lat="45.21018" lon="5.7348">
        <ele>423.20001220703</ele>
        <time>2021-08-26T04:53:01.000Z</time>
      </trkpt>
      <trkpt lat="45.21018" lon="5.73481">
        <ele>422.79998779297</ele>
        <time>2021-08-26T04:53:02.000Z</time>
      </trkpt>
      <trkpt lat="45.21017" lon="5.73485">
        <ele>421.79998779297</ele>
        <time>2021-08-26T04:53:05.000Z</time>
      </trkpt>
      <trkpt lat="45.21017" lon="5.73485">
        <ele>421.60000610352</ele>
        <time>2021-08-26T04:53:06.000Z</time>
      </trkpt>
      <trkpt lat="45.21017" lon="5.73487">
        <ele>421.60000610352</ele>
        <time>2021-08-26T04:53:07.000Z</time>
      </trkpt>
      <trkpt lat="45.21017" lon="5.73489">
        <ele>421</ele>
        <time>2021-08-26T04:53:09.000Z</time>
      </trkpt>
      <trkpt lat="45.21019" lon="5.7349">
        <ele>420.20001220703</ele>
        <time>2021-08-26T04:53:11.000Z</time>
      </trkpt>
      <trkpt lat="45.21019" lon="5.73492">
        <ele>419.20001220703</ele>
        <time>2021-08-26T04:53:13.000Z</time>
      </trkpt>
      <trkpt lat="45.2102" lon="5.73492">
        <ele>419</ele>
        <time>2021-08-26T04:53:14.000Z</time>
      </trkpt>
      <trkpt lat="45.2102" lon="5.73493">
        <ele>418.39999389648</ele>
        <time>2021-08-26T04:53:15.000Z</time>
      </trkpt>
      <trkpt lat="45.2102" lon="5.73496">
        <ele>417.60000610352</ele>
        <time>2021-08-26T04:53:18.000Z</time>
      </trkpt>
      <trkpt lat="45.21019" lon="5.73499">
        <ele>416.60000610352</ele>
        <time>2021-08-26T04:53:20.000Z</time>
      </trkpt>
      <trkpt lat="45.21018" lon="5.73506">
        <ele>415.20001220703</ele>
        <time>2021-08-26T04:53:25.000Z</time>
      </trkpt>
      <trkpt lat="45.21018" lon="5.73511">
        <ele>414.20001220703</ele>
        <time>2021-08-26T04:53:28.000Z</time>
      </trkpt>
      <trkpt lat="45.21018" lon="5.73513">
        <ele>413</ele>
        <time>2021-08-26T04:53:29.000Z</time>
      </trkpt>
      <trkpt lat="45.21018" lon="5.73514">
        <ele>412.79998779297</ele>
        <time>2021-08-26T04:53:31.000Z</time>
      </trkpt>
      <trkpt lat="45.21018" lon="5.73515">
        <ele>412.79998779297</ele>
        <time>2021-08-26T04:53:32.000Z</time>
      </trkpt>
      <trkpt lat="45.21017" lon="5.73516">
        <ele>411.79998779297</ele>
        <time>2021-08-26T04:53:33.000Z</time>
      </trkpt>
      <trkpt lat="45.21018" lon="5.7352">
        <ele>410.79998779297</ele>
        <time>2021-08-26T04:53:37.000Z</time>
      </trkpt>
      <trkpt lat="45.21017" lon="5.73522">
        <ele>410.60000610352</ele>
        <time>2021-08-26T04:53:38.000Z</time>
      </trkpt>
      <trkpt lat="45.21015" lon="5.73525">
        <ele>409.20001220703</ele>
        <time>2021-08-26T04:53:41.000Z</time>
      </trkpt>
      <trkpt lat="45.21016" lon="5.73526">
        <ele>409.20001220703</ele>
        <time>2021-08-26T04:53:42.000Z</time>
      </trkpt>
      <trkpt lat="45.21014" lon="5.7353">
        <ele>408</ele>
        <time>2021-08-26T04:53:45.000Z</time>
      </trkpt>
      <trkpt lat="45.21014" lon="5.73531">
        <ele>407.79998779297</ele>
        <time>2021-08-26T04:53:46.000Z</time>
      </trkpt>
      <trkpt lat="45.21013" lon="5.73531">
        <ele>407.39999389648</ele>
        <time>2021-08-26T04:53:47.000Z</time>
      </trkpt>
      <trkpt lat="45.21012" lon="5.73533">
        <ele>406.60000610352</ele>
        <time>2021-08-26T04:53:49.000Z</time>
      </trkpt>
      <trkpt lat="45.21011" lon="5.73535">
        <ele>406</ele>
        <time>2021-08-26T04:53:51.000Z</time>
      </trkpt>
      <trkpt lat="45.21011" lon="5.73537">
        <ele>405.60000610352</ele>
        <time>2021-08-26T04:53:52.000Z</time>
      </trkpt>
      <trkpt lat="45.21009" lon="5.73539">
        <ele>405</ele>
        <time>2021-08-26T04:53:54.000Z</time>
      </trkpt>
      <trkpt lat="45.21008" lon="5.73541">
        <ele>404.39999389648</ele>
        <time>2021-08-26T04:53:56.000Z</time>
      </trkpt>
      <trkpt lat="45.21007" lon="5.73544">
        <ele>403.39999389648</ele>
        <time>2021-08-26T04:53:59.000Z</time>
      </trkpt>
      <trkpt lat="45.21006" lon="5.73545">
        <ele>403.39999389648</ele>
        <time>2021-08-26T04:54:00.000Z</time>
      </trkpt>
      <trkpt lat="45.21006" lon="5.73546">
        <ele>402.79998779297</ele>
        <time>2021-08-26T04:54:01.000Z</time>
      </trkpt>
      <trkpt lat="45.21006" lon="5.73548">
        <ele>401.60000610352</ele>
        <time>2021-08-26T04:54:05.000Z</time>
      </trkpt>
      <trkpt lat="45.21007" lon="5.73551">
        <ele>400.60000610352</ele>
        <time>2021-08-26T04:54:08.000Z</time>
      </trkpt>
      <trkpt lat="45.21005" lon="5.73555">
        <ele>398.79998779297</ele>
        <time>2021-08-26T04:54:13.000Z</time>
      </trkpt>
      <trkpt lat="45.21005" lon="5.7356">
        <ele>398.39999389648</ele>
        <time>2021-08-26T04:54:17.000Z</time>
      </trkpt>
      <trkpt lat="45.21005" lon="5.73562">
        <ele>397.79998779297</ele>
        <time>2021-08-26T04:54:19.000Z</time>
      </trkpt>
      <trkpt lat="45.21005" lon="5.73562">
        <ele>397</ele>
        <time>2021-08-26T04:54:20.000Z</time>
      </trkpt>
      <trkpt lat="45.21004" lon="5.73563">
        <ele>396.79998779297</ele>
        <time>2021-08-26T04:54:22.000Z</time>
      </trkpt>
      <trkpt lat="45.21003" lon="5.73565">
        <ele>396.39999389648</ele>
        <time>2021-08-26T04:54:23.000Z</time>
      </trkpt>
      <trkpt lat="45.21002" lon="5.73568">
        <ele>395.39999389648</ele>
        <time>2021-08-26T04:54:26.000Z</time>
      </trkpt>
      <trkpt lat="45.21001" lon="5.73572">
        <ele>394.39999389648</ele>
        <time>2021-08-26T04:54:30.000Z</time>
      </trkpt>
      <trkpt lat="45.21001" lon="5.73572">
        <ele>394.20001220703</ele>
        <time>2021-08-26T04:54:31.000Z</time>
      </trkpt>
      <trkpt lat="45.21001" lon="5.73572">
        <ele>393.79998779297</ele>
        <time>2021-08-26T04:54:32.000Z</time>
      </trkpt>
      <trkpt lat="45.21001" lon="5.73573">
        <ele>392.79998779297</ele>
        <time>2021-08-26T04:54:34.000Z</time>
      </trkpt>
      <trkpt lat="45.21001" lon="5.73576">
        <ele>391.79998779297</ele>
        <time>2021-08-26T04:54:38.000Z</time>
      </trkpt>
      <trkpt lat="45.21" lon="5.73577">
        <ele>391.60000610352</ele>
        <time>2021-08-26T04:54:39.000Z</time>
      </trkpt>
      <trkpt lat="45.21" lon="5.73581">
        <ele>390.79998779297</ele>
        <time>2021-08-26T04:54:41.000Z</time>
      </trkpt>
      <trkpt lat="45.20998" lon="5.73584">
        <ele>389.39999389648</ele>
        <time>2021-08-26T04:54:44.000Z</time>
      </trkpt>
      <trkpt lat="45.20997" lon="5.73586">
        <ele>389.39999389648</ele>
        <time>2021-08-26T04:54:45.000Z</time>
      </trkpt>
      <trkpt lat="45.20997" lon="5.73586">
        <ele>389</ele>
        <time>2021-08-26T04:54:46.000Z</time>
      </trkpt>
      <trkpt lat="45.20997" lon="5.73588">
        <ele>388.20001220703</ele>
        <time>2021-08-26T04:54:48.000Z</time>
      </trkpt>
      <trkpt lat="45.20996" lon="5.73591">
        <ele>387.39999389648</ele>
        <time>2021-08-26T04:54:51.000Z</time>
      </trkpt>
      <trkpt lat="45.20996" lon="5.73592">
        <ele>387</ele>
        <time>2021-08-26T04:54:52.000Z</time>
      </trkpt>
      <trkpt lat="45.20994" lon="5.73596">
        <ele>385.60000610352</ele>
        <time>2021-08-26T04:54:56.000Z</time>
      </trkpt>
      <trkpt lat="45.20995" lon="5.73597">
        <ele>385.20001220703</ele>
        <time>2021-08-26T04:54:57.000Z</time>
      </trkpt>
      <trkpt lat="45.20995" lon="5.73599">
        <ele>384.39999389648</ele>
        <time>2021-08-26T04:54:58.000Z</time>
      </trkpt>
      <trkpt lat="45.20995" lon="5.73601">
        <ele>384.20001220703</ele>
        <time>2021-08-26T04:54:59.000Z</time>
      </trkpt>
      <trkpt lat="45.20993" lon="5.73607">
        <ele>383.39999389648</ele>
        <time>2021-08-26T04:55:02.000Z</time>
      </trkpt>
      <trkpt lat="45.20992" lon="5.73609">
        <ele>382.60000610352</ele>
        <time>2021-08-26T04:55:03.000Z</time>
      </trkpt>
      <trkpt lat="45.20991" lon="5.73613">
        <ele>382</ele>
        <time>2021-08-26T04:55:05.000Z</time>
      </trkpt>
      <trkpt lat="45.2099" lon="5.73619">
        <ele>380.60000610352</ele>
        <time>2021-08-26T04:55:09.000Z</time>
      </trkpt>
      <trkpt lat="45.2099" lon="5.73621">
        <ele>380</ele>
        <time>2021-08-26T04:55:10.000Z</time>
      </trkpt>
      <trkpt lat="45.2099" lon="5.73624">
        <ele>379.20001220703</ele>
        <time>2021-08-26T04:55:13.000Z</time>
      </trkpt>
      <trkpt lat="45.2099" lon="5.73627">
        <ele>379</ele>
        <time>2021-08-26T04:55:15.000Z</time>
      </trkpt>
      <trkpt lat="45.2099" lon="5.73629">
        <ele>378.60000610352</ele>
        <time>2021-08-26T04:55:16.000Z</time>
      </trkpt>
      <trkpt lat="45.2099" lon="5.7363">
        <ele>377.39999389648</ele>
        <time>2021-08-26T04:55:17.000Z</time>
      </trkpt>
      <trkpt lat="45.2099" lon="5.73632">
        <ele>377</ele>
        <time>2021-08-26T04:55:20.000Z</time>
      </trkpt>
      <trkpt lat="45.2099" lon="5.73632">
        <ele>376.39999389648</ele>
        <time>2021-08-26T04:55:21.000Z</time>
      </trkpt>
      <trkpt lat="45.2099" lon="5.73635">
        <ele>375.60000610352</ele>
        <time>2021-08-26T04:55:23.000Z</time>
      </trkpt>
      <trkpt lat="45.2099" lon="5.73636">
        <ele>375.20001220703</ele>
        <time>2021-08-26T04:55:24.000Z</time>
      </trkpt>
      <trkpt lat="45.20988" lon="5.7364">
        <ele>374.79998779297</ele>
        <time>2021-08-26T04:55:26.000Z</time>
      </trkpt>
      <trkpt lat="45.20988" lon="5.73642">
        <ele>374.39999389648</ele>
        <time>2021-08-26T04:55:27.000Z</time>
      </trkpt>
      <trkpt lat="45.20987" lon="5.73646">
        <ele>373.39999389648</ele>
        <time>2021-08-26T04:55:29.000Z</time>
      </trkpt>
      <trkpt lat="45.20987" lon="5.73648">
        <ele>373</ele>
        <time>2021-08-26T04:55:30.000Z</time>
      </trkpt>
      <trkpt lat="45.20986" lon="5.73652">
        <ele>371.79998779297</ele>
        <time>2021-08-26T04:55:33.000Z</time>
      </trkpt>
      <trkpt lat="45.20985" lon="5.73654">
        <ele>371.60000610352</ele>
        <time>2021-08-26T04:55:34.000Z</time>
      </trkpt>
      <trkpt lat="45.20984" lon="5.73657">
        <ele>370.79998779297</ele>
        <time>2021-08-26T04:55:36.000Z</time>
      </trkpt>
      <trkpt lat="45.20983" lon="5.73659">
        <ele>370.20001220703</ele>
        <time>2021-08-26T04:55:37.000Z</time>
      </trkpt>
      <trkpt lat="45.20981" lon="5.73662">
        <ele>369.79998779297</ele>
        <time>2021-08-26T04:55:39.000Z</time>
      </trkpt>
      <trkpt lat="45.20979" lon="5.73665">
        <ele>368.60000610352</ele>
        <time>2021-08-26T04:55:41.000Z</time>
      </trkpt>
      <trkpt lat="45.20978" lon="5.73672">
        <ele>366.79998779297</ele>
        <time>2021-08-26T04:55:44.000Z</time>
      </trkpt>
      <trkpt lat="45.20977" lon="5.73674">
        <ele>366.60000610352</ele>
        <time>2021-08-26T04:55:45.000Z</time>
      </trkpt>
      <trkpt lat="45.20975" lon="5.73678">
        <ele>365.79998779297</ele>
        <time>2021-08-26T04:55:48.000Z</time>
      </trkpt>
      <trkpt lat="45.20971" lon="5.73684">
        <ele>364.39999389648</ele>
        <time>2021-08-26T04:55:51.000Z</time>
      </trkpt>
      <trkpt lat="45.2097" lon="5.73686">
        <ele>364.39999389648</ele>
        <time>2021-08-26T04:55:52.000Z</time>
      </trkpt>
      <trkpt lat="45.20969" lon="5.73687">
        <ele>364</ele>
        <time>2021-08-26T04:55:53.000Z</time>
      </trkpt>
      <trkpt lat="45.20968" lon="5.73688">
        <ele>363.39999389648</ele>
        <time>2021-08-26T04:55:55.000Z</time>
      </trkpt>
      <trkpt lat="45.20967" lon="5.73688">
        <ele>363</ele>
        <time>2021-08-26T04:55:56.000Z</time>
      </trkpt>
      <trkpt lat="45.20967" lon="5.73689">
        <ele>362.60000610352</ele>
        <time>2021-08-26T04:55:57.000Z</time>
      </trkpt>
      <trkpt lat="45.20967" lon="5.73689">
        <ele>362.20001220703</ele>
        <time>2021-08-26T04:55:58.000Z</time>
      </trkpt>
      <trkpt lat="45.20965" lon="5.73691">
        <ele>361.20001220703</ele>
        <time>2021-08-26T04:56:01.000Z</time>
      </trkpt>
      <trkpt lat="45.20963" lon="5.73697">
        <ele>360.20001220703</ele>
        <time>2021-08-26T04:56:04.000Z</time>
      </trkpt>
      <trkpt lat="45.20962" lon="5.73699">
        <ele>360</ele>
        <time>2021-08-26T04:56:05.000Z</time>
      </trkpt>
      <trkpt lat="45.20959" lon="5.737">
        <ele>358.79998779297</ele>
        <time>2021-08-26T04:56:07.000Z</time>
      </trkpt>
      <trkpt lat="45.20956" lon="5.73702">
        <ele>358.20001220703</ele>
        <time>2021-08-26T04:56:09.000Z</time>
      </trkpt>
      <trkpt lat="45.20954" lon="5.73703">
        <ele>357.20001220703</ele>
        <time>2021-08-26T04:56:11.000Z</time>
      </trkpt>
      <trkpt lat="45.20951" lon="5.73704">
        <ele>356.60000610352</ele>
        <time>2021-08-26T04:56:13.000Z</time>
      </trkpt>
      <trkpt lat="45.20948" lon="5.73704">
        <ele>356.20001220703</ele>
        <time>2021-08-26T04:56:15.000Z</time>
      </trkpt>
      <trkpt lat="45.20947" lon="5.73705">
        <ele>355.79998779297</ele>
        <time>2021-08-26T04:56:16.000Z</time>
      </trkpt>
      <trkpt lat="45.20946" lon="5.73705">
        <ele>355.60000610352</ele>
        <time>2021-08-26T04:56:17.000Z</time>
      </trkpt>
      <trkpt lat="45.20944" lon="5.73706">
        <ele>355</ele>
        <time>2021-08-26T04:56:19.000Z</time>
      </trkpt>
      <trkpt lat="45.20942" lon="5.73708">
        <ele>353.60000610352</ele>
        <time>2021-08-26T04:56:21.000Z</time>
      </trkpt>
      <trkpt lat="45.20941" lon="5.73708">
        <ele>353.39999389648</ele>
        <time>2021-08-26T04:56:22.000Z</time>
      </trkpt>
      <trkpt lat="45.20937" lon="5.73708">
        <ele>352.60000610352</ele>
        <time>2021-08-26T04:56:25.000Z</time>
      </trkpt>
      <trkpt lat="45.20933" lon="5.7371">
        <ele>351.20001220703</ele>
        <time>2021-08-26T04:56:28.000Z</time>
      </trkpt>
      <trkpt lat="45.2093" lon="5.7371">
        <ele>350.20001220703</ele>
        <time>2021-08-26T04:56:30.000Z</time>
      </trkpt>
      <trkpt lat="45.20929" lon="5.7371">
        <ele>350</ele>
        <time>2021-08-26T04:56:31.000Z</time>
      </trkpt>
      <trkpt lat="45.20924" lon="5.7371">
        <ele>348.60000610352</ele>
        <time>2021-08-26T04:56:35.000Z</time>
      </trkpt>
      <trkpt lat="45.20923" lon="5.7371">
        <ele>348.20001220703</ele>
        <time>2021-08-26T04:56:36.000Z</time>
      </trkpt>
      <trkpt lat="45.20922" lon="5.7371">
        <ele>347.39999389648</ele>
        <time>2021-08-26T04:56:37.000Z</time>
      </trkpt>
      <trkpt lat="45.20921" lon="5.7371">
        <ele>347.39999389648</ele>
        <time>2021-08-26T04:56:38.000Z</time>
      </trkpt>
      <trkpt lat="45.20919" lon="5.73711">
        <ele>346.79998779297</ele>
        <time>2021-08-26T04:56:40.000Z</time>
      </trkpt>
      <trkpt lat="45.20918" lon="5.73711">
        <ele>346.20001220703</ele>
        <time>2021-08-26T04:56:41.000Z</time>
      </trkpt>
      <trkpt lat="45.20915" lon="5.73712">
        <ele>345</ele>
        <time>2021-08-26T04:56:44.000Z</time>
      </trkpt>
      <trkpt lat="45.2091" lon="5.73712">
        <ele>344</ele>
        <time>2021-08-26T04:56:48.000Z</time>
      </trkpt>
      <trkpt lat="45.20907" lon="5.73714">
        <ele>342.60000610352</ele>
        <time>2021-08-26T04:56:50.000Z</time>
      </trkpt>
      <trkpt lat="45.20905" lon="5.73715">
        <ele>342.39999389648</ele>
        <time>2021-08-26T04:56:52.000Z</time>
      </trkpt>
      <trkpt lat="45.20904" lon="5.73716">
        <ele>341.39999389648</ele>
        <time>2021-08-26T04:56:54.000Z</time>
      </trkpt>
      <trkpt lat="45.20902" lon="5.73718">
        <ele>340.39999389648</ele>
        <time>2021-08-26T04:56:56.000Z</time>
      </trkpt>
      <trkpt lat="45.209" lon="5.7372">
        <ele>339.20001220703</ele>
        <time>2021-08-26T04:56:59.000Z</time>
      </trkpt>
      <trkpt lat="45.209" lon="5.73721">
        <ele>339</ele>
        <time>2021-08-26T04:57:00.000Z</time>
      </trkpt>
      <trkpt lat="45.20898" lon="5.73723">
        <ele>338</ele>
        <time>2021-08-26T04:57:02.000Z</time>
      </trkpt>
      <trkpt lat="45.20895" lon="5.73727">
        <ele>336.79998779297</ele>
        <time>2021-08-26T04:57:06.000Z</time>
      </trkpt>
      <trkpt lat="45.20894" lon="5.73728">
        <ele>336.60000610352</ele>
        <time>2021-08-26T04:57:07.000Z</time>
      </trkpt>
      <trkpt lat="45.20893" lon="5.73729">
        <ele>335.79998779297</ele>
        <time>2021-08-26T04:57:08.000Z</time>
      </trkpt>
      <trkpt lat="45.20891" lon="5.7373">
        <ele>335.60000610352</ele>
        <time>2021-08-26T04:57:09.000Z</time>
      </trkpt>
      <trkpt lat="45.2089" lon="5.73732">
        <ele>334.60000610352</ele>
        <time>2021-08-26T04:57:11.000Z</time>
      </trkpt>
      <trkpt lat="45.20889" lon="5.73733">
        <ele>334.20001220703</ele>
        <time>2021-08-26T04:57:12.000Z</time>
      </trkpt>
      <trkpt lat="45.20888" lon="5.73735">
        <ele>333.60000610352</ele>
        <time>2021-08-26T04:57:14.000Z</time>
      </trkpt>
      <trkpt lat="45.20887" lon="5.73735">
        <ele>333.60000610352</ele>
        <time>2021-08-26T04:57:15.000Z</time>
      </trkpt>
      <trkpt lat="45.20885" lon="5.73735">
        <ele>333.39999389648</ele>
        <time>2021-08-26T04:57:16.000Z</time>
      </trkpt>
      <trkpt lat="45.20884" lon="5.73735">
        <ele>333</ele>
        <time>2021-08-26T04:57:17.000Z</time>
      </trkpt>
      <trkpt lat="45.20881" lon="5.73736">
        <ele>332.60000610352</ele>
        <time>2021-08-26T04:57:19.000Z</time>
      </trkpt>
      <trkpt lat="45.20878" lon="5.73735">
        <ele>331.60000610352</ele>
        <time>2021-08-26T04:57:21.000Z</time>
      </trkpt>
      <trkpt lat="45.20873" lon="5.73735">
        <ele>330.60000610352</ele>
        <time>2021-08-26T04:57:24.000Z</time>
      </trkpt>
      <trkpt lat="45.20871" lon="5.73735">
        <ele>330.60000610352</ele>
        <time>2021-08-26T04:57:25.000Z</time>
      </trkpt>
      <trkpt lat="45.20868" lon="5.73734">
        <ele>329.39999389648</ele>
        <time>2021-08-26T04:57:27.000Z</time>
      </trkpt>
      <trkpt lat="45.20862" lon="5.73733">
        <ele>328.20001220703</ele>
        <time>2021-08-26T04:57:31.000Z</time>
      </trkpt>
      <trkpt lat="45.20857" lon="5.73728">
        <ele>327.39999389648</ele>
        <time>2021-08-26T04:57:34.000Z</time>
      </trkpt>
      <trkpt lat="45.20855" lon="5.73727">
        <ele>327</ele>
        <time>2021-08-26T04:57:35.000Z</time>
      </trkpt>
      <trkpt lat="45.20854" lon="5.73728">
        <ele>326.79998779297</ele>
        <time>2021-08-26T04:57:36.000Z</time>
      </trkpt>
      <trkpt lat="45.20851" lon="5.73729">
        <ele>326</ele>
        <time>2021-08-26T04:57:38.000Z</time>
      </trkpt>
      <trkpt lat="45.20851" lon="5.7373">
        <ele>326</ele>
        <time>2021-08-26T04:57:39.000Z</time>
      </trkpt>
      <trkpt lat="45.20849" lon="5.73732">
        <ele>325.39999389648</ele>
        <time>2021-08-26T04:57:41.000Z</time>
      </trkpt>
      <trkpt lat="45.20849" lon="5.73733">
        <ele>324.79998779297</ele>
        <time>2021-08-26T04:57:42.000Z</time>
      </trkpt>
      <trkpt lat="45.20849" lon="5.73735">
        <ele>324.20001220703</ele>
        <time>2021-08-26T04:57:44.000Z</time>
      </trkpt>
      <trkpt lat="45.20849" lon="5.73737">
        <ele>323.79998779297</ele>
        <time>2021-08-26T04:57:45.000Z</time>
      </trkpt>
      <trkpt lat="45.20848" lon="5.73737">
        <ele>323</ele>
        <time>2021-08-26T04:57:47.000Z</time>
      </trkpt>
      <trkpt lat="45.20847" lon="5.73736">
        <ele>322.60000610352</ele>
        <time>2021-08-26T04:57:48.000Z</time>
      </trkpt>
      <trkpt lat="45.20846" lon="5.73735">
        <ele>322.60000610352</ele>
        <time>2021-08-26T04:57:49.000Z</time>
      </trkpt>
      <trkpt lat="45.20843" lon="5.73733">
        <ele>321.39999389648</ele>
        <time>2021-08-26T04:57:52.000Z</time>
      </trkpt>
      <trkpt lat="45.20842" lon="5.73734">
        <ele>321.20001220703</ele>
        <time>2021-08-26T04:57:53.000Z</time>
      </trkpt>
      <trkpt lat="45.20841" lon="5.73736">
        <ele>320.60000610352</ele>
        <time>2021-08-26T04:57:55.000Z</time>
      </trkpt>
      <trkpt lat="45.20841" lon="5.7374">
        <ele>319.60000610352</ele>
        <time>2021-08-26T04:57:57.000Z</time>
      </trkpt>
      <trkpt lat="45.20839" lon="5.73744">
        <ele>318.39999389648</ele>
        <time>2021-08-26T04:57:59.000Z</time>
      </trkpt>
      <trkpt lat="45.20837" lon="5.73745">
        <ele>318.20001220703</ele>
        <time>2021-08-26T04:58:00.000Z</time>
      </trkpt>
      <trkpt lat="45.20836" lon="5.73745">
        <ele>318</ele>
        <time>2021-08-26T04:58:01.000Z</time>
      </trkpt>
      <trkpt lat="45.20834" lon="5.73744">
        <ele>317.79998779297</ele>
        <time>2021-08-26T04:58:02.000Z</time>
      </trkpt>
      <trkpt lat="45.20832" lon="5.73744">
        <ele>317.20001220703</ele>
        <time>2021-08-26T04:58:03.000Z</time>
      </trkpt>
      <trkpt lat="45.20828" lon="5.73745">
        <ele>316.20001220703</ele>
        <time>2021-08-26T04:58:05.000Z</time>
      </trkpt>
      <trkpt lat="45.20827" lon="5.73745">
        <ele>315.79998779297</ele>
        <time>2021-08-26T04:58:06.000Z</time>
      </trkpt>
      <trkpt lat="45.20824" lon="5.73745">
        <ele>314.79998779297</ele>
        <time>2021-08-26T04:58:08.000Z</time>
      </trkpt>
      <trkpt lat="45.2082" lon="5.73743">
        <ele>314.39999389648</ele>
        <time>2021-08-26T04:58:10.000Z</time>
      </trkpt>
      <trkpt lat="45.20817" lon="5.73738">
        <ele>313.60000610352</ele>
        <time>2021-08-26T04:58:12.000Z</time>
      </trkpt>
      <trkpt lat="45.20813" lon="5.73728">
        <ele>312.39999389648</ele>
        <time>2021-08-26T04:58:16.000Z</time>
      </trkpt>
      <trkpt lat="45.20812" lon="5.73725">
        <ele>311.60000610352</ele>
        <time>2021-08-26T04:58:19.000Z</time>
      </trkpt>
      <trkpt lat="45.20811" lon="5.73724">
        <ele>311.39999389648</ele>
        <time>2021-08-26T04:58:20.000Z</time>
      </trkpt>
      <trkpt lat="45.20809" lon="5.73724">
        <ele>310.79998779297</ele>
        <time>2021-08-26T04:58:22.000Z</time>
      </trkpt>
      <trkpt lat="45.20808" lon="5.73724">
        <ele>310</ele>
        <time>2021-08-26T04:58:23.000Z</time>
      </trkpt>
      <trkpt lat="45.20806" lon="5.73726">
        <ele>309.20001220703</ele>
        <time>2021-08-26T04:58:26.000Z</time>
      </trkpt>
      <trkpt lat="45.20804" lon="5.73726">
        <ele>308.39999389648</ele>
        <time>2021-08-26T04:58:27.000Z</time>
      </trkpt>
      <trkpt lat="45.20803" lon="5.73726">
        <ele>308.39999389648</ele>
        <time>2021-08-26T04:58:28.000Z</time>
      </trkpt>
      <trkpt lat="45.20802" lon="5.73725">
        <ele>308</ele>
        <time>2021-08-26T04:58:29.000Z</time>
      </trkpt>
      <trkpt lat="45.20801" lon="5.73726">
        <ele>307</ele>
        <time>2021-08-26T04:58:30.000Z</time>
      </trkpt>
      <trkpt lat="45.20798" lon="5.73727">
        <ele>306.79998779297</ele>
        <time>2021-08-26T04:58:32.000Z</time>
      </trkpt>
      <trkpt lat="45.20797" lon="5.73727">
        <ele>306</ele>
        <time>2021-08-26T04:58:34.000Z</time>
      </trkpt>
      <trkpt lat="45.20792" lon="5.7373">
        <ele>304.79998779297</ele>
        <time>2021-08-26T04:58:38.000Z</time>
      </trkpt>
      <trkpt lat="45.20791" lon="5.7373">
        <ele>304.60000610352</ele>
        <time>2021-08-26T04:58:39.000Z</time>
      </trkpt>
      <trkpt lat="45.20789" lon="5.7373">
        <ele>303.60000610352</ele>
        <time>2021-08-26T04:58:41.000Z</time>
      </trkpt>
      <trkpt lat="45.20784" lon="5.73732">
        <ele>302</ele>
        <time>2021-08-26T04:58:46.000Z</time>
      </trkpt>
      <trkpt lat="45.20778" lon="5.73736">
        <ele>300.79998779297</ele>
        <time>2021-08-26T04:58:51.000Z</time>
      </trkpt>
      <trkpt lat="45.20772" lon="5.73738">
        <ele>299.60000610352</ele>
        <time>2021-08-26T04:58:54.000Z</time>
      </trkpt>
      <trkpt lat="45.20769" lon="5.73739">
        <ele>299.20001220703</ele>
        <time>2021-08-26T04:58:56.000Z</time>
      </trkpt>
      <trkpt lat="45.20769" lon="5.7374">
        <ele>298.20001220703</ele>
        <time>2021-08-26T04:58:57.000Z</time>
      </trkpt>
      <trkpt lat="45.20767" lon="5.7374">
        <ele>298</ele>
        <time>2021-08-26T04:58:58.000Z</time>
      </trkpt>
      <trkpt lat="45.20766" lon="5.73741">
        <ele>297.60000610352</ele>
        <time>2021-08-26T04:58:59.000Z</time>
      </trkpt>
      <trkpt lat="45.20765" lon="5.73742">
        <ele>297</ele>
        <time>2021-08-26T04:59:00.000Z</time>
      </trkpt>
      <trkpt lat="45.2076" lon="5.73744">
        <ele>295.60000610352</ele>
        <time>2021-08-26T04:59:03.000Z</time>
      </trkpt>
      <trkpt lat="45.20757" lon="5.73746">
        <ele>294</ele>
        <time>2021-08-26T04:59:06.000Z</time>
      </trkpt>
      <trkpt lat="45.20755" lon="5.73748">
        <ele>293.60000610352</ele>
        <time>2021-08-26T04:59:08.000Z</time>
      </trkpt>
      <trkpt lat="45.20755" lon="5.73749">
        <ele>292.79998779297</ele>
        <time>2021-08-26T04:59:09.000Z</time>
      </trkpt>
      <trkpt lat="45.20751" lon="5.73753">
        <ele>291.60000610352</ele>
        <time>2021-08-26T04:59:12.000Z</time>
      </trkpt>
      <trkpt lat="45.2075" lon="5.73755">
        <ele>291.39999389648</ele>
        <time>2021-08-26T04:59:13.000Z</time>
      </trkpt>
      <trkpt lat="45.20749" lon="5.73758">
        <ele>290.20001220703</ele>
        <time>2021-08-26T04:59:15.000Z</time>
      </trkpt>
      <trkpt lat="45.20746" lon="5.73763">
        <ele>289.20001220703</ele>
        <time>2021-08-26T04:59:18.000Z</time>
      </trkpt>
      <trkpt lat="45.20743" lon="5.73767">
        <ele>288.79998779297</ele>
        <time>2021-08-26T04:59:20.000Z</time>
      </trkpt>
      <trkpt lat="45.20741" lon="5.73768">
        <ele>287.60000610352</ele>
        <time>2021-08-26T04:59:21.000Z</time>
      </trkpt>
      <trkpt lat="45.20737" lon="5.73773">
        <ele>286.79998779297</ele>
        <time>2021-08-26T04:59:24.000Z</time>
      </trkpt>
      <trkpt lat="45.20737" lon="5.73773">
        <ele>286.60000610352</ele>
        <time>2021-08-26T04:59:25.000Z</time>
      </trkpt>
      <trkpt lat="45.20735" lon="5.73774">
        <ele>285.39999389648</ele>
        <time>2021-08-26T04:59:27.000Z</time>
      </trkpt>
      <trkpt lat="45.20733" lon="5.73776">
        <ele>284.20001220703</ele>
        <time>2021-08-26T04:59:29.000Z</time>
      </trkpt>
      <trkpt lat="45.20729" lon="5.7378">
        <ele>283.20001220703</ele>
        <time>2021-08-26T04:59:33.000Z</time>
      </trkpt>
      <trkpt lat="45.20726" lon="5.73784">
        <ele>282.39999389648</ele>
        <time>2021-08-26T04:59:36.000Z</time>
      </trkpt>
      <trkpt lat="45.20725" lon="5.73785">
        <ele>281.79998779297</ele>
        <time>2021-08-26T04:59:37.000Z</time>
      </trkpt>
      <trkpt lat="45.20724" lon="5.73786">
        <ele>281</ele>
        <time>2021-08-26T04:59:38.000Z</time>
      </trkpt>
      <trkpt lat="45.2072" lon="5.73791">
        <ele>280</ele>
        <time>2021-08-26T04:59:41.000Z</time>
      </trkpt>
      <trkpt lat="45.20716" lon="5.73795">
        <ele>278.39999389648</ele>
        <time>2021-08-26T04:59:44.000Z</time>
      </trkpt>
      <trkpt lat="45.2071" lon="5.73801">
        <ele>277.20001220703</ele>
        <time>2021-08-26T04:59:48.000Z</time>
      </trkpt>
      <trkpt lat="45.20705" lon="5.73804">
        <ele>276</ele>
        <time>2021-08-26T04:59:51.000Z</time>
      </trkpt>
      <trkpt lat="45.20701" lon="5.73807">
        <ele>274.60000610352</ele>
        <time>2021-08-26T04:59:53.000Z</time>
      </trkpt>
      <trkpt lat="45.20698" lon="5.73809">
        <ele>274.60000610352</ele>
        <time>2021-08-26T04:59:55.000Z</time>
      </trkpt>
      <trkpt lat="45.20697" lon="5.73809">
        <ele>273.60000610352</ele>
        <time>2021-08-26T04:59:56.000Z</time>
      </trkpt>
      <trkpt lat="45.20692" lon="5.73812">
        <ele>273.60000610352</ele>
        <time>2021-08-26T04:59:58.000Z</time>
      </trkpt>
      <trkpt lat="45.2069" lon="5.73815">
        <ele>272.39999389648</ele>
        <time>2021-08-26T04:59:59.000Z</time>
      </trkpt>
      <trkpt lat="45.20684" lon="5.7382">
        <ele>271</ele>
        <time>2021-08-26T05:00:02.000Z</time>
      </trkpt>
      <trkpt lat="45.20679" lon="5.73822">
        <ele>270</ele>
        <time>2021-08-26T05:00:05.000Z</time>
      </trkpt>
      <trkpt lat="45.20673" lon="5.73824">
        <ele>269.20001220703</ele>
        <time>2021-08-26T05:00:09.000Z</time>
      </trkpt>
      <trkpt lat="45.2067" lon="5.73825">
        <ele>268.60000610352</ele>
        <time>2021-08-26T05:00:11.000Z</time>
      </trkpt>
      <trkpt lat="45.20667" lon="5.73825">
        <ele>267.20001220703</ele>
        <time>2021-08-26T05:00:13.000Z</time>
      </trkpt>
      <trkpt lat="45.20665" lon="5.73826">
        <ele>267.20001220703</ele>
        <time>2021-08-26T05:00:14.000Z</time>
      </trkpt>
      <trkpt lat="45.20663" lon="5.73827">
        <ele>267.20001220703</ele>
        <time>2021-08-26T05:00:15.000Z</time>
      </trkpt>
      <trkpt lat="45.2066" lon="5.73827">
        <ele>265.60000610352</ele>
        <time>2021-08-26T05:00:17.000Z</time>
      </trkpt>
      <trkpt lat="45.20651" lon="5.73833">
        <ele>264.39999389648</ele>
        <time>2021-08-26T05:00:21.000Z</time>
      </trkpt>
      <trkpt lat="45.20649" lon="5.73834">
        <ele>263.20001220703</ele>
        <time>2021-08-26T05:00:22.000Z</time>
      </trkpt>
      <trkpt lat="45.20644" lon="5.73835">
        <ele>262</ele>
        <time>2021-08-26T05:00:25.000Z</time>
      </trkpt>
      <trkpt lat="45.2064" lon="5.73835">
        <ele>261</ele>
        <time>2021-08-26T05:00:27.000Z</time>
      </trkpt>
      <trkpt lat="45.20638" lon="5.73836">
        <ele>260.79998779297</ele>
        <time>2021-08-26T05:00:28.000Z</time>
      </trkpt>
      <trkpt lat="45.20634" lon="5.73838">
        <ele>259.60000610352</ele>
        <time>2021-08-26T05:00:30.000Z</time>
      </trkpt>
      <trkpt lat="45.20628" lon="5.73842">
        <ele>258.39999389648</ele>
        <time>2021-08-26T05:00:33.000Z</time>
      </trkpt>
      <trkpt lat="45.20626" lon="5.73842">
        <ele>258.20001220703</ele>
        <time>2021-08-26T05:00:34.000Z</time>
      </trkpt>
      <trkpt lat="45.20624" lon="5.73843">
        <ele>258.20001220703</ele>
        <time>2021-08-26T05:00:35.000Z</time>
      </trkpt>
      <trkpt lat="45.20623" lon="5.73844">
        <ele>257.20001220703</ele>
        <time>2021-08-26T05:00:36.000Z</time>
      </trkpt>
      <trkpt lat="45.20617" lon="5.73847">
        <ele>256</ele>
        <time>2021-08-26T05:00:39.000Z</time>
      </trkpt>
      <trkpt lat="45.20611" lon="5.73851">
        <ele>255</ele>
        <time>2021-08-26T05:00:42.000Z</time>
      </trkpt>
      <trkpt lat="45.20607" lon="5.73852">
        <ele>253.80000305176</ele>
        <time>2021-08-26T05:00:44.000Z</time>
      </trkpt>
      <trkpt lat="45.20603" lon="5.73855">
        <ele>252.60000610352</ele>
        <time>2021-08-26T05:00:47.000Z</time>
      </trkpt>
      <trkpt lat="45.20602" lon="5.73855">
        <ele>252.60000610352</ele>
        <time>2021-08-26T05:00:48.000Z</time>
      </trkpt>
      <trkpt lat="45.20596" lon="5.73858">
        <ele>251.19999694824</ele>
        <time>2021-08-26T05:00:51.000Z</time>
      </trkpt>
      <trkpt lat="45.20591" lon="5.73861">
        <ele>250</ele>
        <time>2021-08-26T05:00:54.000Z</time>
      </trkpt>
      <trkpt lat="45.20588" lon="5.73862">
        <ele>249.60000610352</ele>
        <time>2021-08-26T05:00:56.000Z</time>
      </trkpt>
      <trkpt lat="45.20586" lon="5.73863">
        <ele>248.80000305176</ele>
        <time>2021-08-26T05:00:57.000Z</time>
      </trkpt>
      <trkpt lat="45.20581" lon="5.73865">
        <ele>247.60000610352</ele>
        <time>2021-08-26T05:01:00.000Z</time>
      </trkpt>
      <trkpt lat="45.20576" lon="5.73867">
        <ele>246.39999389648</ele>
        <time>2021-08-26T05:01:03.000Z</time>
      </trkpt>
      <trkpt lat="45.20569" lon="5.7387">
        <ele>245.39999389648</ele>
        <time>2021-08-26T05:01:07.000Z</time>
      </trkpt>
      <trkpt lat="45.20566" lon="5.73871">
        <ele>244.19999694824</ele>
        <time>2021-08-26T05:01:09.000Z</time>
      </trkpt>
      <trkpt lat="45.20562" lon="5.73872">
        <ele>244.19999694824</ele>
        <time>2021-08-26T05:01:11.000Z</time>
      </trkpt>
      <trkpt lat="45.20557" lon="5.7387">
        <ele>242.19999694824</ele>
        <time>2021-08-26T05:01:14.000Z</time>
      </trkpt>
      <trkpt lat="45.20553" lon="5.73868">
        <ele>242</ele>
        <time>2021-08-26T05:01:16.000Z</time>
      </trkpt>
      <trkpt lat="45.20549" lon="5.73865">
        <ele>241.19999694824</ele>
        <time>2021-08-26T05:01:18.000Z</time>
      </trkpt>
      <trkpt lat="45.2054" lon="5.73859">
        <ele>239.39999389648</ele>
        <time>2021-08-26T05:01:22.000Z</time>
      </trkpt>
      <trkpt lat="45.20538" lon="5.73855">
        <ele>239</ele>
        <time>2021-08-26T05:01:24.000Z</time>
      </trkpt>
      <trkpt lat="45.20535" lon="5.73851">
        <ele>237.80000305176</ele>
        <time>2021-08-26T05:01:26.000Z</time>
      </trkpt>
      <trkpt lat="45.2053" lon="5.73849">
        <ele>237.39999389648</ele>
        <time>2021-08-26T05:01:29.000Z</time>
      </trkpt>
      <trkpt lat="45.20529" lon="5.7385">
        <ele>237</ele>
        <time>2021-08-26T05:01:30.000Z</time>
      </trkpt>
      <trkpt lat="45.20526" lon="5.73852">
        <ele>236.80000305176</ele>
        <time>2021-08-26T05:01:32.000Z</time>
      </trkpt>
      <trkpt lat="45.20524" lon="5.73852">
        <ele>236.60000610352</ele>
        <time>2021-08-26T05:01:33.000Z</time>
      </trkpt>
      <trkpt lat="45.20518" lon="5.73851">
        <ele>236.19999694824</ele>
        <time>2021-08-26T05:01:36.000Z</time>
      </trkpt>
      <trkpt lat="45.20514" lon="5.73848">
        <ele>235.80000305176</ele>
        <time>2021-08-26T05:01:38.000Z</time>
      </trkpt>
      <trkpt lat="45.20513" lon="5.73846">
        <ele>235.60000610352</ele>
        <time>2021-08-26T05:01:39.000Z</time>
      </trkpt>
      <trkpt lat="45.20508" lon="5.73842">
        <ele>235.19999694824</ele>
        <time>2021-08-26T05:01:42.000Z</time>
      </trkpt>
      <trkpt lat="45.20507" lon="5.73841">
        <ele>234.80000305176</ele>
        <time>2021-08-26T05:01:43.000Z</time>
      </trkpt>
      <trkpt lat="45.20505" lon="5.7384">
        <ele>234.60000610352</ele>
        <time>2021-08-26T05:01:44.000Z</time>
      </trkpt>
      <trkpt lat="45.205" lon="5.73837">
        <ele>233.80000305176</ele>
        <time>2021-08-26T05:01:47.000Z</time>
      </trkpt>
      <trkpt lat="45.20497" lon="5.73835">
        <ele>233.60000610352</ele>
        <time>2021-08-26T05:01:49.000Z</time>
      </trkpt>
      <trkpt lat="45.20496" lon="5.73834">
        <ele>233.39999389648</ele>
        <time>2021-08-26T05:01:50.000Z</time>
      </trkpt>
      <trkpt lat="45.20494" lon="5.73832">
        <ele>233</ele>
        <time>2021-08-26T05:01:51.000Z</time>
      </trkpt>
      <trkpt lat="45.2049" lon="5.73827">
        <ele>233</ele>
        <time>2021-08-26T05:01:53.000Z</time>
      </trkpt>
      <trkpt lat="45.20484" lon="5.73817">
        <ele>232.39999389648</ele>
        <time>2021-08-26T05:01:56.000Z</time>
      </trkpt>
      <trkpt lat="45.20481" lon="5.73816">
        <ele>232.19999694824</ele>
        <time>2021-08-26T05:01:57.000Z</time>
      </trkpt>
      <trkpt lat="45.20477" lon="5.73812">
        <ele>232</ele>
        <time>2021-08-26T05:01:59.000Z</time>
      </trkpt>
      <trkpt lat="45.20472" lon="5.73807">
        <ele>231.39999389648</ele>
        <time>2021-08-26T05:02:02.000Z</time>
      </trkpt>
      <trkpt lat="45.20466" lon="5.73799">
        <ele>231</ele>
        <time>2021-08-26T05:02:05.000Z</time>
      </trkpt>
      <trkpt lat="45.20461" lon="5.73793">
        <ele>231</ele>
        <time>2021-08-26T05:02:07.000Z</time>
      </trkpt>
      <trkpt lat="45.20455" lon="5.73789">
        <ele>230.80000305176</ele>
        <time>2021-08-26T05:02:09.000Z</time>
      </trkpt>
      <trkpt lat="45.20449" lon="5.73783">
        <ele>230.39999389648</ele>
        <time>2021-08-26T05:02:11.000Z</time>
      </trkpt>
      <trkpt lat="45.20435" lon="5.73764">
        <ele>229.80000305176</ele>
        <time>2021-08-26T05:02:16.000Z</time>
      </trkpt>
      <trkpt lat="45.20429" lon="5.73756">
        <ele>229.39999389648</ele>
        <time>2021-08-26T05:02:19.000Z</time>
      </trkpt>
      <trkpt lat="45.20414" lon="5.73738">
        <ele>228.80000305176</ele>
        <time>2021-08-26T05:02:25.000Z</time>
      </trkpt>
      <trkpt lat="45.20412" lon="5.73735">
        <ele>228.60000610352</ele>
        <time>2021-08-26T05:02:26.000Z</time>
      </trkpt>
      <trkpt lat="45.2041" lon="5.73733">
        <ele>228.60000610352</ele>
        <time>2021-08-26T05:02:27.000Z</time>
      </trkpt>
      <trkpt lat="45.20398" lon="5.7372">
        <ele>228</ele>
        <time>2021-08-26T05:02:33.000Z</time>
      </trkpt>
      <trkpt lat="45.20391" lon="5.73711">
        <ele>228</ele>
        <time>2021-08-26T05:02:36.000Z</time>
      </trkpt>
      <trkpt lat="45.20383" lon="5.73702">
        <ele>227.60000610352</ele>
        <time>2021-08-26T05:02:39.000Z</time>
      </trkpt>
      <trkpt lat="45.20376" lon="5.73693">
        <ele>227.60000610352</ele>
        <time>2021-08-26T05:02:42.000Z</time>
      </trkpt>
      <trkpt lat="45.20366" lon="5.73683">
        <ele>227.60000610352</ele>
        <time>2021-08-26T05:02:46.000Z</time>
      </trkpt>
      <trkpt lat="45.20364" lon="5.7368">
        <ele>227.19999694824</ele>
        <time>2021-08-26T05:02:47.000Z</time>
      </trkpt>
      <trkpt lat="45.20359" lon="5.73671">
        <ele>227</ele>
        <time>2021-08-26T05:02:50.000Z</time>
      </trkpt>
      <trkpt lat="45.20348" lon="5.73657">
        <ele>227</ele>
        <time>2021-08-26T05:02:55.000Z</time>
      </trkpt>
      <trkpt lat="45.20336" lon="5.73637">
        <ele>227</ele>
        <time>2021-08-26T05:03:02.000Z</time>
      </trkpt>
      <trkpt lat="45.20336" lon="5.73636">
        <ele>226.60000610352</ele>
        <time>2021-08-26T05:03:03.000Z</time>
      </trkpt>
      <trkpt lat="45.20336" lon="5.73635">
        <ele>226.60000610352</ele>
        <time>2021-08-26T05:03:04.000Z</time>
      </trkpt>
      <trkpt lat="45.20336" lon="5.73633">
        <ele>226.19999694824</ele>
        <time>2021-08-26T05:03:05.000Z</time>
      </trkpt>
      <trkpt lat="45.20336" lon="5.73631">
        <ele>226.19999694824</ele>
        <time>2021-08-26T05:03:06.000Z</time>
      </trkpt>
      <trkpt lat="45.2033" lon="5.73619">
        <ele>226.19999694824</ele>
        <time>2021-08-26T05:03:10.000Z</time>
      </trkpt>
      <trkpt lat="45.20327" lon="5.73615">
        <ele>225.80000305176</ele>
        <time>2021-08-26T05:03:12.000Z</time>
      </trkpt>
      <trkpt lat="45.20326" lon="5.73611">
        <ele>225.80000305176</ele>
        <time>2021-08-26T05:03:14.000Z</time>
      </trkpt>
      <trkpt lat="45.20315" lon="5.73594">
        <ele>225.19999694824</ele>
        <time>2021-08-26T05:03:20.000Z</time>
      </trkpt>
      <trkpt lat="45.20305" lon="5.73573">
        <ele>224.39999389648</ele>
        <time>2021-08-26T05:03:26.000Z</time>
      </trkpt>
      <trkpt lat="45.20303" lon="5.7357">
        <ele>223.60000610352</ele>
        <time>2021-08-26T05:03:27.000Z</time>
      </trkpt>
      <trkpt lat="45.20301" lon="5.73569">
        <ele>223.60000610352</ele>
        <time>2021-08-26T05:03:28.000Z</time>
      </trkpt>
      <trkpt lat="45.20294" lon="5.73566">
        <ele>223.19999694824</ele>
        <time>2021-08-26T05:03:30.000Z</time>
      </trkpt>
      <trkpt lat="45.20292" lon="5.73565">
        <ele>223.19999694824</ele>
        <time>2021-08-26T05:03:31.000Z</time>
      </trkpt>
      <trkpt lat="45.2029" lon="5.73562">
        <ele>222.60000610352</ele>
        <time>2021-08-26T05:03:34.000Z</time>
      </trkpt>
      <trkpt lat="45.20287" lon="5.73563">
        <ele>222.19999694824</ele>
        <time>2021-08-26T05:03:35.000Z</time>
      </trkpt>
      <trkpt lat="45.20276" lon="5.73568">
        <ele>221.19999694824</ele>
        <time>2021-08-26T05:03:39.000Z</time>
      </trkpt>
      <trkpt lat="45.20268" lon="5.73572">
        <ele>220</ele>
        <time>2021-08-26T05:03:42.000Z</time>
      </trkpt>
      <trkpt lat="45.20264" lon="5.73575">
        <ele>220</ele>
        <time>2021-08-26T05:03:44.000Z</time>
      </trkpt>
      <trkpt lat="45.2026" lon="5.73578">
        <ele>218.80000305176</ele>
        <time>2021-08-26T05:03:46.000Z</time>
      </trkpt>
      <trkpt lat="45.20252" lon="5.73584">
        <ele>217.60000610352</ele>
        <time>2021-08-26T05:03:50.000Z</time>
      </trkpt>
      <trkpt lat="45.20242" lon="5.73598">
        <ele>217.19999694824</ele>
        <time>2021-08-26T05:03:55.000Z</time>
      </trkpt>
      <trkpt lat="45.20242" lon="5.73602">
        <ele>217.19999694824</ele>
        <time>2021-08-26T05:03:56.000Z</time>
      </trkpt>
      <trkpt lat="45.20246" lon="5.73615">
        <ele>217.19999694824</ele>
        <time>2021-08-26T05:03:59.000Z</time>
      </trkpt>
      <trkpt lat="45.20252" lon="5.7363">
        <ele>217</ele>
        <time>2021-08-26T05:04:03.000Z</time>
      </trkpt>
      <trkpt lat="45.20254" lon="5.73643">
        <ele>217.39999389648</ele>
        <time>2021-08-26T05:04:06.000Z</time>
      </trkpt>
      <trkpt lat="45.20256" lon="5.7367">
        <ele>217.39999389648</ele>
        <time>2021-08-26T05:04:13.000Z</time>
      </trkpt>
      <trkpt lat="45.20257" lon="5.73679">
        <ele>217.39999389648</ele>
        <time>2021-08-26T05:04:15.000Z</time>
      </trkpt>
      <trkpt lat="45.20262" lon="5.73705">
        <ele>217.39999389648</ele>
        <time>2021-08-26T05:04:21.000Z</time>
      </trkpt>
      <trkpt lat="45.20263" lon="5.73709">
        <ele>217.60000610352</ele>
        <time>2021-08-26T05:04:22.000Z</time>
      </trkpt>
      <trkpt lat="45.20267" lon="5.73734">
        <ele>217.19999694824</ele>
        <time>2021-08-26T05:04:28.000Z</time>
      </trkpt>
      <trkpt lat="45.20268" lon="5.73738">
        <ele>217.19999694824</ele>
        <time>2021-08-26T05:04:29.000Z</time>
      </trkpt>
      <trkpt lat="45.20269" lon="5.73751">
        <ele>217.19999694824</ele>
        <time>2021-08-26T05:04:32.000Z</time>
      </trkpt>
      <trkpt lat="45.20268" lon="5.73772">
        <ele>217.60000610352</ele>
        <time>2021-08-26T05:04:37.000Z</time>
      </trkpt>
      <trkpt lat="45.20268" lon="5.73781">
        <ele>217.60000610352</ele>
        <time>2021-08-26T05:04:39.000Z</time>
      </trkpt>
      <trkpt lat="45.20268" lon="5.73806">
        <ele>217.80000305176</ele>
        <time>2021-08-26T05:04:45.000Z</time>
      </trkpt>
      <trkpt lat="45.20261" lon="5.73833">
        <ele>217.60000610352</ele>
        <time>2021-08-26T05:04:52.000Z</time>
      </trkpt>
      <trkpt lat="45.20261" lon="5.73837">
        <ele>217.60000610352</ele>
        <time>2021-08-26T05:04:53.000Z</time>
      </trkpt>
      <trkpt lat="45.20257" lon="5.73849">
        <ele>217.60000610352</ele>
        <time>2021-08-26T05:04:56.000Z</time>
      </trkpt>
      <trkpt lat="45.20254" lon="5.73864">
        <ele>217.60000610352</ele>
        <time>2021-08-26T05:05:00.000Z</time>
      </trkpt>
      <trkpt lat="45.20248" lon="5.73889">
        <ele>217.19999694824</ele>
        <time>2021-08-26T05:05:07.000Z</time>
      </trkpt>
      <trkpt lat="45.20244" lon="5.73904">
        <ele>217</ele>
        <time>2021-08-26T05:05:11.000Z</time>
      </trkpt>
      <trkpt lat="45.20241" lon="5.73916">
        <ele>217.60000610352</ele>
        <time>2021-08-26T05:05:14.000Z</time>
      </trkpt>
      <trkpt lat="45.20241" lon="5.7392">
        <ele>217.60000610352</ele>
        <time>2021-08-26T05:05:15.000Z</time>
      </trkpt>
      <trkpt lat="45.20232" lon="5.7394">
        <ele>217.39999389648</ele>
        <time>2021-08-26T05:05:20.000Z</time>
      </trkpt>
      <trkpt lat="45.20226" lon="5.73965">
        <ele>217.60000610352</ele>
        <time>2021-08-26T05:05:27.000Z</time>
      </trkpt>
      <trkpt lat="45.20224" lon="5.73969">
        <ele>217.60000610352</ele>
        <time>2021-08-26T05:05:28.000Z</time>
      </trkpt>
      <trkpt lat="45.2022" lon="5.73985">
        <ele>217.80000305176</ele>
        <time>2021-08-26T05:05:32.000Z</time>
      </trkpt>
      <trkpt lat="45.20214" lon="5.74">
        <ele>217.80000305176</ele>
        <time>2021-08-26T05:05:36.000Z</time>
      </trkpt>
      <trkpt lat="45.20203" lon="5.74022">
        <ele>217.39999389648</ele>
        <time>2021-08-26T05:05:42.000Z</time>
      </trkpt>
      <trkpt lat="45.20201" lon="5.74025">
        <ele>217.39999389648</ele>
        <time>2021-08-26T05:05:43.000Z</time>
      </trkpt>
      <trkpt lat="45.20189" lon="5.74049">
        <ele>217.60000610352</ele>
        <time>2021-08-26T05:05:50.000Z</time>
      </trkpt>
      <trkpt lat="45.20185" lon="5.74056">
        <ele>217.60000610352</ele>
        <time>2021-08-26T05:05:52.000Z</time>
      </trkpt>
      <trkpt lat="45.20177" lon="5.74073">
        <ele>217.80000305176</ele>
        <time>2021-08-26T05:05:57.000Z</time>
      </trkpt>
      <trkpt lat="45.20165" lon="5.74093">
        <ele>217.80000305176</ele>
        <time>2021-08-26T05:06:04.000Z</time>
      </trkpt>
      <trkpt lat="45.20154" lon="5.74109">
        <ele>218.60000610352</ele>
        <time>2021-08-26T05:06:10.000Z</time>
      </trkpt>
      <trkpt lat="45.20151" lon="5.74115">
        <ele>218.60000610352</ele>
        <time>2021-08-26T05:06:12.000Z</time>
      </trkpt>
      <trkpt lat="45.20148" lon="5.74123">
        <ele>218.60000610352</ele>
        <time>2021-08-26T05:06:15.000Z</time>
      </trkpt>
      <trkpt lat="45.20146" lon="5.74129">
        <ele>219.80000305176</ele>
        <time>2021-08-26T05:06:17.000Z</time>
      </trkpt>
      <trkpt lat="45.20141" lon="5.74137">
        <ele>220</ele>
        <time>2021-08-26T05:06:20.000Z</time>
      </trkpt>
      <trkpt lat="45.20133" lon="5.74156">
        <ele>221.19999694824</ele>
        <time>2021-08-26T05:06:26.000Z</time>
      </trkpt>
      <trkpt lat="45.20128" lon="5.74165">
        <ele>221.60000610352</ele>
        <time>2021-08-26T05:06:29.000Z</time>
      </trkpt>
      <trkpt lat="45.2012" lon="5.74175">
        <ele>222.19999694824</ele>
        <time>2021-08-26T05:06:33.000Z</time>
      </trkpt>
      <trkpt lat="45.20115" lon="5.74181">
        <ele>222.39999389648</ele>
        <time>2021-08-26T05:06:35.000Z</time>
      </trkpt>
      <trkpt lat="45.20099" lon="5.74186">
        <ele>222.19999694824</ele>
        <time>2021-08-26T05:06:40.000Z</time>
      </trkpt>
      <trkpt lat="45.20084" lon="5.74174">
        <ele>222.39999389648</ele>
        <time>2021-08-26T05:06:45.000Z</time>
      </trkpt>
      <trkpt lat="45.2007" lon="5.74158">
        <ele>222.60000610352</ele>
        <time>2021-08-26T05:06:50.000Z</time>
      </trkpt>
      <trkpt lat="45.20061" lon="5.74149">
        <ele>222.60000610352</ele>
        <time>2021-08-26T05:06:53.000Z</time>
      </trkpt>
      <trkpt lat="45.20047" lon="5.7413">
        <ele>222.19999694824</ele>
        <time>2021-08-26T05:06:59.000Z</time>
      </trkpt>
      <trkpt lat="45.20045" lon="5.74127">
        <ele>222.19999694824</ele>
        <time>2021-08-26T05:07:00.000Z</time>
      </trkpt>
      <trkpt lat="45.2003" lon="5.74109">
        <ele>222.19999694824</ele>
        <time>2021-08-26T05:07:06.000Z</time>
      </trkpt>
      <trkpt lat="45.20017" lon="5.74091">
        <ele>222</ele>
        <time>2021-08-26T05:07:12.000Z</time>
      </trkpt>
      <trkpt lat="45.20015" lon="5.74089">
        <ele>221.80000305176</ele>
        <time>2021-08-26T05:07:13.000Z</time>
      </trkpt>
      <trkpt lat="45.20006" lon="5.74086">
        <ele>221.80000305176</ele>
        <time>2021-08-26T05:07:17.000Z</time>
      </trkpt>
      <trkpt lat="45.20001" lon="5.74097">
        <ele>221.39999389648</ele>
        <time>2021-08-26T05:07:21.000Z</time>
      </trkpt>
      <trkpt lat="45.19999" lon="5.741">
        <ele>220.60000610352</ele>
        <time>2021-08-26T05:07:22.000Z</time>
      </trkpt>
      <trkpt lat="45.19998" lon="5.74105">
        <ele>220.19999694824</ele>
        <time>2021-08-26T05:07:23.000Z</time>
      </trkpt>
      <trkpt lat="45.19992" lon="5.74119">
        <ele>219.80000305176</ele>
        <time>2021-08-26T05:07:27.000Z</time>
      </trkpt>
      <trkpt lat="45.19988" lon="5.74126">
        <ele>219.60000610352</ele>
        <time>2021-08-26T05:07:29.000Z</time>
      </trkpt>
      <trkpt lat="45.19986" lon="5.74129">
        <ele>218.80000305176</ele>
        <time>2021-08-26T05:07:30.000Z</time>
      </trkpt>
      <trkpt lat="45.19975" lon="5.74146">
        <ele>218.39999389648</ele>
        <time>2021-08-26T05:07:35.000Z</time>
      </trkpt>
      <trkpt lat="45.19961" lon="5.74161">
        <ele>218.60000610352</ele>
        <time>2021-08-26T05:07:41.000Z</time>
      </trkpt>
      <trkpt lat="45.19956" lon="5.74166">
        <ele>218.60000610352</ele>
        <time>2021-08-26T05:07:43.000Z</time>
      </trkpt>
      <trkpt lat="45.1994" lon="5.74176">
        <ele>218.39999389648</ele>
        <time>2021-08-26T05:07:49.000Z</time>
      </trkpt>
      <trkpt lat="45.19922" lon="5.74188">
        <ele>218.39999389648</ele>
        <time>2021-08-26T05:07:55.000Z</time>
      </trkpt>
      <trkpt lat="45.19919" lon="5.74189">
        <ele>218.39999389648</ele>
        <time>2021-08-26T05:07:56.000Z</time>
      </trkpt>
      <trkpt lat="45.19901" lon="5.74199">
        <ele>218.19999694824</ele>
        <time>2021-08-26T05:08:02.000Z</time>
      </trkpt>
      <trkpt lat="45.19898" lon="5.74201">
        <ele>218.19999694824</ele>
        <time>2021-08-26T05:08:03.000Z</time>
      </trkpt>
      <trkpt lat="45.19881" lon="5.7421">
        <ele>218.19999694824</ele>
        <time>2021-08-26T05:08:09.000Z</time>
      </trkpt>
      <trkpt lat="45.1987" lon="5.74215">
        <ele>217.80000305176</ele>
        <time>2021-08-26T05:08:13.000Z</time>
      </trkpt>
      <trkpt lat="45.19861" lon="5.74218">
        <ele>217.80000305176</ele>
        <time>2021-08-26T05:08:16.000Z</time>
      </trkpt>
      <trkpt lat="45.19841" lon="5.74226">
        <ele>218.39999389648</ele>
        <time>2021-08-26T05:08:22.000Z</time>
      </trkpt>
      <trkpt lat="45.19829" lon="5.74232">
        <ele>218.39999389648</ele>
        <time>2021-08-26T05:08:26.000Z</time>
      </trkpt>
      <trkpt lat="45.19814" lon="5.7424">
        <ele>218.19999694824</ele>
        <time>2021-08-26T05:08:31.000Z</time>
      </trkpt>
      <trkpt lat="45.19801" lon="5.74243">
        <ele>218.19999694824</ele>
        <time>2021-08-26T05:08:35.000Z</time>
      </trkpt>
      <trkpt lat="45.19784" lon="5.74244">
        <ele>218.39999389648</ele>
        <time>2021-08-26T05:08:40.000Z</time>
      </trkpt>
      <trkpt lat="45.19774" lon="5.74245">
        <ele>218.39999389648</ele>
        <time>2021-08-26T05:08:43.000Z</time>
      </trkpt>
      <trkpt lat="45.19764" lon="5.74245">
        <ele>218.19999694824</ele>
        <time>2021-08-26T05:08:47.000Z</time>
      </trkpt>
      <trkpt lat="45.19758" lon="5.74246">
        <ele>218.19999694824</ele>
        <time>2021-08-26T05:08:49.000Z</time>
      </trkpt>
      <trkpt lat="45.19739" lon="5.74248">
        <ele>218.19999694824</ele>
        <time>2021-08-26T05:08:55.000Z</time>
      </trkpt>
      <trkpt lat="45.19737" lon="5.74248">
        <ele>218.19999694824</ele>
        <time>2021-08-26T05:08:56.000Z</time>
      </trkpt>
      <trkpt lat="45.19733" lon="5.74247">
        <ele>218.19999694824</ele>
        <time>2021-08-26T05:08:58.000Z</time>
      </trkpt>
      <trkpt lat="45.19731" lon="5.74244">
        <ele>218</ele>
        <time>2021-08-26T05:09:00.000Z</time>
      </trkpt>
      <trkpt lat="45.19728" lon="5.74238">
        <ele>217</ele>
        <time>2021-08-26T05:09:03.000Z</time>
      </trkpt>
      <trkpt lat="45.19726" lon="5.74235">
        <ele>216.80000305176</ele>
        <time>2021-08-26T05:09:04.000Z</time>
      </trkpt>
      <trkpt lat="45.19725" lon="5.74233">
        <ele>216.60000610352</ele>
        <time>2021-08-26T05:09:05.000Z</time>
      </trkpt>
      <trkpt lat="45.19725" lon="5.74215">
        <ele>216.39999389648</ele>
        <time>2021-08-26T05:09:10.000Z</time>
      </trkpt>
      <trkpt lat="45.19719" lon="5.74187">
        <ele>216.80000305176</ele>
        <time>2021-08-26T05:09:17.000Z</time>
      </trkpt>
      <trkpt lat="45.19713" lon="5.7416">
        <ele>216.19999694824</ele>
        <time>2021-08-26T05:09:24.000Z</time>
      </trkpt>
      <trkpt lat="45.19712" lon="5.74157">
        <ele>216.19999694824</ele>
        <time>2021-08-26T05:09:25.000Z</time>
      </trkpt>
      <trkpt lat="45.19707" lon="5.74131">
        <ele>216.60000610352</ele>
        <time>2021-08-26T05:09:31.000Z</time>
      </trkpt>
      <trkpt lat="45.19701" lon="5.74107">
        <ele>216.60000610352</ele>
        <time>2021-08-26T05:09:37.000Z</time>
      </trkpt>
      <trkpt lat="45.19701" lon="5.74102">
        <ele>216.60000610352</ele>
        <time>2021-08-26T05:09:38.000Z</time>
      </trkpt>
      <trkpt lat="45.19698" lon="5.74079">
        <ele>216.80000305176</ele>
        <time>2021-08-26T05:09:44.000Z</time>
      </trkpt>
      <trkpt lat="45.19694" lon="5.74068">
        <ele>216.39999389648</ele>
        <time>2021-08-26T05:09:47.000Z</time>
      </trkpt>
      <trkpt lat="45.19693" lon="5.74064">
        <ele>216.39999389648</ele>
        <time>2021-08-26T05:09:48.000Z</time>
      </trkpt>
      <trkpt lat="45.19691" lon="5.74062">
        <ele>216.39999389648</ele>
        <time>2021-08-26T05:09:49.000Z</time>
      </trkpt>
      <trkpt lat="45.19691" lon="5.74059">
        <ele>216.39999389648</ele>
        <time>2021-08-26T05:09:50.000Z</time>
      </trkpt>
      <trkpt lat="45.1969" lon="5.74046">
        <ele>216.60000610352</ele>
        <time>2021-08-26T05:09:53.000Z</time>
      </trkpt>
      <trkpt lat="45.19688" lon="5.74029">
        <ele>216.60000610352</ele>
        <time>2021-08-26T05:09:57.000Z</time>
      </trkpt>
      <trkpt lat="45.19688" lon="5.74018">
        <ele>217</ele>
        <time>2021-08-26T05:10:00.000Z</time>
      </trkpt>
      <trkpt lat="45.19686" lon="5.74016">
        <ele>217</ele>
        <time>2021-08-26T05:10:01.000Z</time>
      </trkpt>
      <trkpt lat="45.19683" lon="5.74013">
        <ele>217</ele>
        <time>2021-08-26T05:10:03.000Z</time>
      </trkpt>
      <trkpt lat="45.1968" lon="5.74011">
        <ele>217</ele>
        <time>2021-08-26T05:10:05.000Z</time>
      </trkpt>
      <trkpt lat="45.19677" lon="5.74008">
        <ele>217</ele>
        <time>2021-08-26T05:10:07.000Z</time>
      </trkpt>
      <trkpt lat="45.19675" lon="5.74008">
        <ele>217</ele>
        <time>2021-08-26T05:10:08.000Z</time>
      </trkpt>
      <trkpt lat="45.19656" lon="5.74004">
        <ele>216</ele>
        <time>2021-08-26T05:10:14.000Z</time>
      </trkpt>
      <trkpt lat="45.19651" lon="5.74003">
        <ele>216</ele>
        <time>2021-08-26T05:10:16.000Z</time>
      </trkpt>
      <trkpt lat="45.19635" lon="5.73999">
        <ele>216.39999389648</ele>
        <time>2021-08-26T05:10:21.000Z</time>
      </trkpt>
      <trkpt lat="45.19629" lon="5.73998">
        <ele>216.60000610352</ele>
        <time>2021-08-26T05:10:23.000Z</time>
      </trkpt>
      <trkpt lat="45.19623" lon="5.73992">
        <ele>216.39999389648</ele>
        <time>2021-08-26T05:10:25.000Z</time>
      </trkpt>
      <trkpt lat="45.19622" lon="5.73974">
        <ele>216.39999389648</ele>
        <time>2021-08-26T05:10:29.000Z</time>
      </trkpt>
      <trkpt lat="45.19623" lon="5.73971">
        <ele>216.39999389648</ele>
        <time>2021-08-26T05:10:30.000Z</time>
      </trkpt>
      <trkpt lat="45.19628" lon="5.73964">
        <ele>216.39999389648</ele>
        <time>2021-08-26T05:10:33.000Z</time>
      </trkpt>
      <trkpt lat="45.19638" lon="5.73963">
        <ele>216.60000610352</ele>
        <time>2021-08-26T05:10:38.000Z</time>
      </trkpt>
      <trkpt lat="45.19642" lon="5.73965">
        <ele>216.60000610352</ele>
        <time>2021-08-26T05:10:41.000Z</time>
      </trkpt>
    </trkseg>
  </trk>
</gpx>